<?xml version="1.0" encoding="UTF-8" standalone="no" ?>
<gpx xmlns="http://www.topografix.com/GPX/1/1" xmlns:xsi="http://www.w3.org/2001/XMLSchema-instance" xsi:schemaLocation="http://www.topografix.com/GPX/1/1 http://www.topografix.com/GPX/1/1/gpx.xsd" version="1.1" creator="VisuGPX - https://www.visugpx.com">
  <metadata>
    <name>Epernon - Rambouillet </name>
    <desc><![CDATA[Rando effectuée avec le RIF]]></desc>
  </metadata>
  <trk>
    <name><![CDATA[SityTrail - Rambouillet - Epernon ]]></name>
    <desc><![CDATA[Rando effectuée avec le RIF]]></desc>
    <trkseg>
      <trkpt lat="48.60551" lon="1.68216">
        <ele>121</ele>
        <time>2024-05-27T07:04:16.351Z</time>
      </trkpt>
      <trkpt lat="48.60551" lon="1.68216">
        <ele>121</ele>
        <time>2024-05-27T07:04:16.351Z</time>
      </trkpt>
      <trkpt lat="48.60542" lon="1.68217">
        <ele>121</ele>
        <time>2024-05-27T07:06:04.387Z</time>
      </trkpt>
      <trkpt lat="48.60533" lon="1.68216">
        <ele>122</ele>
        <time>2024-05-27T07:06:08.723Z</time>
      </trkpt>
      <trkpt lat="48.60527" lon="1.68212">
        <ele>122</ele>
        <time>2024-05-27T07:06:13.246Z</time>
      </trkpt>
      <trkpt lat="48.60522" lon="1.68207">
        <ele>121</ele>
        <time>2024-05-27T07:06:17.624Z</time>
      </trkpt>
      <trkpt lat="48.60516" lon="1.68205">
        <ele>121</ele>
        <time>2024-05-27T07:06:21.660Z</time>
      </trkpt>
      <trkpt lat="48.60516" lon="1.68208">
        <ele>121</ele>
        <time>2024-05-27T07:06:26.150Z</time>
      </trkpt>
      <trkpt lat="48.6052" lon="1.68208">
        <ele>121</ele>
        <time>2024-05-27T07:06:30.425Z</time>
      </trkpt>
      <trkpt lat="48.60524" lon="1.6821">
        <ele>122</ele>
        <time>2024-05-27T07:06:35.042Z</time>
      </trkpt>
      <trkpt lat="48.60529" lon="1.68212">
        <ele>122</ele>
        <time>2024-05-27T07:06:39.150Z</time>
      </trkpt>
      <trkpt lat="48.60536" lon="1.68202">
        <ele>121</ele>
        <time>2024-05-27T07:06:43.688Z</time>
      </trkpt>
      <trkpt lat="48.60539" lon="1.68194">
        <ele>121</ele>
        <time>2024-05-27T07:06:47.903Z</time>
      </trkpt>
      <trkpt lat="48.60541" lon="1.68188">
        <ele>121</ele>
        <time>2024-05-27T07:06:52.150Z</time>
      </trkpt>
      <trkpt lat="48.60541" lon="1.68181">
        <ele>121</ele>
        <time>2024-05-27T07:06:56.300Z</time>
      </trkpt>
      <trkpt lat="48.60536" lon="1.68177">
        <ele>120</ele>
        <time>2024-05-27T07:07:00.465Z</time>
      </trkpt>
      <trkpt lat="48.60531" lon="1.68175">
        <ele>120</ele>
        <time>2024-05-27T07:07:04.707Z</time>
      </trkpt>
      <trkpt lat="48.60527" lon="1.68175">
        <ele>120</ele>
        <time>2024-05-27T07:07:09.150Z</time>
      </trkpt>
      <trkpt lat="48.60525" lon="1.68165">
        <ele>120</ele>
        <time>2024-05-27T07:07:13.608Z</time>
      </trkpt>
      <trkpt lat="48.60528" lon="1.68159">
        <ele>120</ele>
        <time>2024-05-27T07:07:17.721Z</time>
      </trkpt>
      <trkpt lat="48.60534" lon="1.68164">
        <ele>120</ele>
        <time>2024-05-27T07:07:22.198Z</time>
      </trkpt>
      <trkpt lat="48.60537" lon="1.6817">
        <ele>120</ele>
        <time>2024-05-27T07:07:26.443Z</time>
      </trkpt>
      <trkpt lat="48.60542" lon="1.68174">
        <ele>119</ele>
        <time>2024-05-27T07:07:30.880Z</time>
      </trkpt>
      <trkpt lat="48.60547" lon="1.68178">
        <ele>119</ele>
        <time>2024-05-27T07:07:34.960Z</time>
      </trkpt>
      <trkpt lat="48.60551" lon="1.68184">
        <ele>120</ele>
        <time>2024-05-27T07:07:39.048Z</time>
      </trkpt>
      <trkpt lat="48.60555" lon="1.68191">
        <ele>120</ele>
        <time>2024-05-27T07:07:43.648Z</time>
      </trkpt>
      <trkpt lat="48.6056" lon="1.68196">
        <ele>120</ele>
        <time>2024-05-27T07:07:48.148Z</time>
      </trkpt>
      <trkpt lat="48.60565" lon="1.68201">
        <ele>120</ele>
        <time>2024-05-27T07:07:52.702Z</time>
      </trkpt>
      <trkpt lat="48.60569" lon="1.68205">
        <ele>120</ele>
        <time>2024-05-27T07:07:56.841Z</time>
      </trkpt>
      <trkpt lat="48.60574" lon="1.68209">
        <ele>121</ele>
        <time>2024-05-27T07:08:00.921Z</time>
      </trkpt>
      <trkpt lat="48.60578" lon="1.68213">
        <ele>121</ele>
        <time>2024-05-27T07:08:05.068Z</time>
      </trkpt>
      <trkpt lat="48.60582" lon="1.68217">
        <ele>121</ele>
        <time>2024-05-27T07:08:09.150Z</time>
      </trkpt>
      <trkpt lat="48.60587" lon="1.68223">
        <ele>121</ele>
        <time>2024-05-27T07:08:13.645Z</time>
      </trkpt>
      <trkpt lat="48.60592" lon="1.68227">
        <ele>121</ele>
        <time>2024-05-27T07:08:18.126Z</time>
      </trkpt>
      <trkpt lat="48.60597" lon="1.68233">
        <ele>121</ele>
        <time>2024-05-27T07:08:22.708Z</time>
      </trkpt>
      <trkpt lat="48.60601" lon="1.68237">
        <ele>121</ele>
        <time>2024-05-27T07:08:27.147Z</time>
      </trkpt>
      <trkpt lat="48.60606" lon="1.6824">
        <ele>121</ele>
        <time>2024-05-27T07:08:31.746Z</time>
      </trkpt>
      <trkpt lat="48.60611" lon="1.68243">
        <ele>121</ele>
        <time>2024-05-27T07:08:36.148Z</time>
      </trkpt>
      <trkpt lat="48.60617" lon="1.68246">
        <ele>121</ele>
        <time>2024-05-27T07:08:40.663Z</time>
      </trkpt>
      <trkpt lat="48.60622" lon="1.68248">
        <ele>121</ele>
        <time>2024-05-27T07:08:45.148Z</time>
      </trkpt>
      <trkpt lat="48.60628" lon="1.68247">
        <ele>119</ele>
        <time>2024-05-27T07:08:49.690Z</time>
      </trkpt>
      <trkpt lat="48.60633" lon="1.68244">
        <ele>119</ele>
        <time>2024-05-27T07:08:54.148Z</time>
      </trkpt>
      <trkpt lat="48.60638" lon="1.68242">
        <ele>119</ele>
        <time>2024-05-27T07:08:58.765Z</time>
      </trkpt>
      <trkpt lat="48.60644" lon="1.68239">
        <ele>119</ele>
        <time>2024-05-27T07:09:03.083Z</time>
      </trkpt>
      <trkpt lat="48.60647" lon="1.68235">
        <ele>118</ele>
        <time>2024-05-27T07:09:07.564Z</time>
      </trkpt>
      <trkpt lat="48.60652" lon="1.6823">
        <ele>118</ele>
        <time>2024-05-27T07:09:11.882Z</time>
      </trkpt>
      <trkpt lat="48.60656" lon="1.68227">
        <ele>117</ele>
        <time>2024-05-27T07:09:15.986Z</time>
      </trkpt>
      <trkpt lat="48.60662" lon="1.68223">
        <ele>117</ele>
        <time>2024-05-27T07:09:20.466Z</time>
      </trkpt>
      <trkpt lat="48.60667" lon="1.68219">
        <ele>117</ele>
        <time>2024-05-27T07:09:25.023Z</time>
      </trkpt>
      <trkpt lat="48.6067" lon="1.68214">
        <ele>117</ele>
        <time>2024-05-27T07:09:29.149Z</time>
      </trkpt>
      <trkpt lat="48.60677" lon="1.68212">
        <ele>117</ele>
        <time>2024-05-27T07:09:33.763Z</time>
      </trkpt>
      <trkpt lat="48.60683" lon="1.68208">
        <ele>115</ele>
        <time>2024-05-27T07:09:38.405Z</time>
      </trkpt>
      <trkpt lat="48.60689" lon="1.68204">
        <ele>115</ele>
        <time>2024-05-27T07:09:42.902Z</time>
      </trkpt>
      <trkpt lat="48.60692" lon="1.68201">
        <ele>115</ele>
        <time>2024-05-27T07:09:47.528Z</time>
      </trkpt>
      <trkpt lat="48.60698" lon="1.68198">
        <ele>115</ele>
        <time>2024-05-27T07:09:51.581Z</time>
      </trkpt>
      <trkpt lat="48.60703" lon="1.68194">
        <ele>115</ele>
        <time>2024-05-27T07:09:56.088Z</time>
      </trkpt>
      <trkpt lat="48.60707" lon="1.6819">
        <ele>115</ele>
        <time>2024-05-27T07:10:00.806Z</time>
      </trkpt>
      <trkpt lat="48.6071" lon="1.68185">
        <ele>115</ele>
        <time>2024-05-27T07:10:05.149Z</time>
      </trkpt>
      <trkpt lat="48.60715" lon="1.68178">
        <ele>115</ele>
        <time>2024-05-27T07:10:09.827Z</time>
      </trkpt>
      <trkpt lat="48.60716" lon="1.68174">
        <ele>115</ele>
        <time>2024-05-27T07:10:13.880Z</time>
      </trkpt>
      <trkpt lat="48.60718" lon="1.68171">
        <ele>115</ele>
        <time>2024-05-27T07:10:18.148Z</time>
      </trkpt>
      <trkpt lat="48.60724" lon="1.68165">
        <ele>115</ele>
        <time>2024-05-27T07:10:22.688Z</time>
      </trkpt>
      <trkpt lat="48.60728" lon="1.6816">
        <ele>115</ele>
        <time>2024-05-27T07:10:26.844Z</time>
      </trkpt>
      <trkpt lat="48.60732" lon="1.68156">
        <ele>115</ele>
        <time>2024-05-27T07:10:31.243Z</time>
      </trkpt>
      <trkpt lat="48.60736" lon="1.68151">
        <ele>114</ele>
        <time>2024-05-27T07:10:36.043Z</time>
      </trkpt>
      <trkpt lat="48.6074" lon="1.68146">
        <ele>114</ele>
        <time>2024-05-27T07:10:40.153Z</time>
      </trkpt>
      <trkpt lat="48.60743" lon="1.6814">
        <ele>114</ele>
        <time>2024-05-27T07:10:44.149Z</time>
      </trkpt>
      <trkpt lat="48.60746" lon="1.68134">
        <ele>114</ele>
        <time>2024-05-27T07:10:49.108Z</time>
      </trkpt>
      <trkpt lat="48.6075" lon="1.6813">
        <ele>114</ele>
        <time>2024-05-27T07:10:53.158Z</time>
      </trkpt>
      <trkpt lat="48.60754" lon="1.68122">
        <ele>115</ele>
        <time>2024-05-27T07:10:57.624Z</time>
      </trkpt>
      <trkpt lat="48.60756" lon="1.68117">
        <ele>115</ele>
        <time>2024-05-27T07:11:01.808Z</time>
      </trkpt>
      <trkpt lat="48.6076" lon="1.68112">
        <ele>115</ele>
        <time>2024-05-27T07:11:06.568Z</time>
      </trkpt>
      <trkpt lat="48.60764" lon="1.68105">
        <ele>115</ele>
        <time>2024-05-27T07:11:11.149Z</time>
      </trkpt>
      <trkpt lat="48.60767" lon="1.68101">
        <ele>115</ele>
        <time>2024-05-27T07:11:15.767Z</time>
      </trkpt>
      <trkpt lat="48.60769" lon="1.68098">
        <ele>115</ele>
        <time>2024-05-27T07:11:20.025Z</time>
      </trkpt>
      <trkpt lat="48.60771" lon="1.68091">
        <ele>116</ele>
        <time>2024-05-27T07:11:24.177Z</time>
      </trkpt>
      <trkpt lat="48.60777" lon="1.68082">
        <ele>116</ele>
        <time>2024-05-27T07:11:28.584Z</time>
      </trkpt>
      <trkpt lat="48.60781" lon="1.68076">
        <ele>116</ele>
        <time>2024-05-27T07:11:32.766Z</time>
      </trkpt>
      <trkpt lat="48.60786" lon="1.6807">
        <ele>116</ele>
        <time>2024-05-27T07:11:37.024Z</time>
      </trkpt>
      <trkpt lat="48.60791" lon="1.68064">
        <ele>116</ele>
        <time>2024-05-27T07:11:41.606Z</time>
      </trkpt>
      <trkpt lat="48.60795" lon="1.6806">
        <ele>116</ele>
        <time>2024-05-27T07:11:45.668Z</time>
      </trkpt>
      <trkpt lat="48.60799" lon="1.68054">
        <ele>116</ele>
        <time>2024-05-27T07:11:50.149Z</time>
      </trkpt>
      <trkpt lat="48.60803" lon="1.68047">
        <ele>116</ele>
        <time>2024-05-27T07:11:54.867Z</time>
      </trkpt>
      <trkpt lat="48.60806" lon="1.68042">
        <ele>116</ele>
        <time>2024-05-27T07:11:59.484Z</time>
      </trkpt>
      <trkpt lat="48.60809" lon="1.68036">
        <ele>116</ele>
        <time>2024-05-27T07:12:04.023Z</time>
      </trkpt>
      <trkpt lat="48.60812" lon="1.68028">
        <ele>116</ele>
        <time>2024-05-27T07:12:08.341Z</time>
      </trkpt>
      <trkpt lat="48.60816" lon="1.68022">
        <ele>116</ele>
        <time>2024-05-27T07:12:12.728Z</time>
      </trkpt>
      <trkpt lat="48.60819" lon="1.68016">
        <ele>116</ele>
        <time>2024-05-27T07:12:16.822Z</time>
      </trkpt>
      <trkpt lat="48.60821" lon="1.68012">
        <ele>115</ele>
        <time>2024-05-27T07:12:21.325Z</time>
      </trkpt>
      <trkpt lat="48.60821" lon="1.68005">
        <ele>115</ele>
        <time>2024-05-27T07:12:25.786Z</time>
      </trkpt>
      <trkpt lat="48.60824" lon="1.67993">
        <ele>115</ele>
        <time>2024-05-27T07:12:30.347Z</time>
      </trkpt>
      <trkpt lat="48.60827" lon="1.67987">
        <ele>115</ele>
        <time>2024-05-27T07:12:39.149Z</time>
      </trkpt>
      <trkpt lat="48.6083" lon="1.6799">
        <ele>115</ele>
        <time>2024-05-27T07:12:44.149Z</time>
      </trkpt>
      <trkpt lat="48.60831" lon="1.6799">
        <ele>115</ele>
        <time>2024-05-27T07:12:48.702Z</time>
      </trkpt>
      <trkpt lat="48.60831" lon="1.67988">
        <ele>115</ele>
        <time>2024-05-27T07:12:53.148Z</time>
      </trkpt>
      <trkpt lat="48.60835" lon="1.6798">
        <ele>116</ele>
        <time>2024-05-27T07:12:58.149Z</time>
      </trkpt>
      <trkpt lat="48.60835" lon="1.67979">
        <ele>116</ele>
        <time>2024-05-27T07:13:03.149Z</time>
      </trkpt>
      <trkpt lat="48.60835" lon="1.67978">
        <ele>116</ele>
        <time>2024-05-27T07:13:07.149Z</time>
      </trkpt>
      <trkpt lat="48.60837" lon="1.67975">
        <ele>116</ele>
        <time>2024-05-27T07:13:15.848Z</time>
      </trkpt>
      <trkpt lat="48.60837" lon="1.67972">
        <ele>116</ele>
        <time>2024-05-27T07:13:20.027Z</time>
      </trkpt>
      <trkpt lat="48.60838" lon="1.67964">
        <ele>116</ele>
        <time>2024-05-27T07:13:24.567Z</time>
      </trkpt>
      <trkpt lat="48.60842" lon="1.67959">
        <ele>116</ele>
        <time>2024-05-27T07:13:28.587Z</time>
      </trkpt>
      <trkpt lat="48.60847" lon="1.67949">
        <ele>116</ele>
        <time>2024-05-27T07:13:33.126Z</time>
      </trkpt>
      <trkpt lat="48.60849" lon="1.67943">
        <ele>116</ele>
        <time>2024-05-27T07:13:37.248Z</time>
      </trkpt>
      <trkpt lat="48.60851" lon="1.67938">
        <ele>116</ele>
        <time>2024-05-27T07:13:41.344Z</time>
      </trkpt>
      <trkpt lat="48.60854" lon="1.67933">
        <ele>116</ele>
        <time>2024-05-27T07:13:46.088Z</time>
      </trkpt>
      <trkpt lat="48.60852" lon="1.67925">
        <ele>116</ele>
        <time>2024-05-27T07:13:50.149Z</time>
      </trkpt>
      <trkpt lat="48.60851" lon="1.67917">
        <ele>116</ele>
        <time>2024-05-27T07:13:54.988Z</time>
      </trkpt>
      <trkpt lat="48.60851" lon="1.6791">
        <ele>116</ele>
        <time>2024-05-27T07:13:59.149Z</time>
      </trkpt>
      <trkpt lat="48.60851" lon="1.67904">
        <ele>116</ele>
        <time>2024-05-27T07:14:03.326Z</time>
      </trkpt>
      <trkpt lat="48.60852" lon="1.67897">
        <ele>117</ele>
        <time>2024-05-27T07:14:07.446Z</time>
      </trkpt>
      <trkpt lat="48.60853" lon="1.67892">
        <ele>117</ele>
        <time>2024-05-27T07:14:11.662Z</time>
      </trkpt>
      <trkpt lat="48.60854" lon="1.67885">
        <ele>117</ele>
        <time>2024-05-27T07:14:15.725Z</time>
      </trkpt>
      <trkpt lat="48.60855" lon="1.67877">
        <ele>117</ele>
        <time>2024-05-27T07:14:19.816Z</time>
      </trkpt>
      <trkpt lat="48.60857" lon="1.67867">
        <ele>118</ele>
        <time>2024-05-27T07:14:23.906Z</time>
      </trkpt>
      <trkpt lat="48.60858" lon="1.6786">
        <ele>118</ele>
        <time>2024-05-27T07:14:27.943Z</time>
      </trkpt>
      <trkpt lat="48.60859" lon="1.67854">
        <ele>118</ele>
        <time>2024-05-27T07:14:32.064Z</time>
      </trkpt>
      <trkpt lat="48.60861" lon="1.67847">
        <ele>119</ele>
        <time>2024-05-27T07:14:36.149Z</time>
      </trkpt>
      <trkpt lat="48.60863" lon="1.67841">
        <ele>119</ele>
        <time>2024-05-27T07:14:40.384Z</time>
      </trkpt>
      <trkpt lat="48.60864" lon="1.67833">
        <ele>119</ele>
        <time>2024-05-27T07:14:44.464Z</time>
      </trkpt>
      <trkpt lat="48.60865" lon="1.67827">
        <ele>119</ele>
        <time>2024-05-27T07:14:48.747Z</time>
      </trkpt>
      <trkpt lat="48.60868" lon="1.67819">
        <ele>119</ele>
        <time>2024-05-27T07:14:53.148Z</time>
      </trkpt>
      <trkpt lat="48.6087" lon="1.67812">
        <ele>119</ele>
        <time>2024-05-27T07:14:57.468Z</time>
      </trkpt>
      <trkpt lat="48.60871" lon="1.67804">
        <ele>119</ele>
        <time>2024-05-27T07:15:01.505Z</time>
      </trkpt>
      <trkpt lat="48.60872" lon="1.67797">
        <ele>119</ele>
        <time>2024-05-27T07:15:05.701Z</time>
      </trkpt>
      <trkpt lat="48.60873" lon="1.67791">
        <ele>119</ele>
        <time>2024-05-27T07:15:09.823Z</time>
      </trkpt>
      <trkpt lat="48.60876" lon="1.67784">
        <ele>122</ele>
        <time>2024-05-27T07:15:14.148Z</time>
      </trkpt>
      <trkpt lat="48.60878" lon="1.67778">
        <ele>122</ele>
        <time>2024-05-27T07:15:18.749Z</time>
      </trkpt>
      <trkpt lat="48.60881" lon="1.6777">
        <ele>122</ele>
        <time>2024-05-27T07:15:22.862Z</time>
      </trkpt>
      <trkpt lat="48.60885" lon="1.67764">
        <ele>122</ele>
        <time>2024-05-27T07:15:27.026Z</time>
      </trkpt>
      <trkpt lat="48.60886" lon="1.67757">
        <ele>122</ele>
        <time>2024-05-27T07:15:31.156Z</time>
      </trkpt>
      <trkpt lat="48.60885" lon="1.67747">
        <ele>122</ele>
        <time>2024-05-27T07:15:35.601Z</time>
      </trkpt>
      <trkpt lat="48.60887" lon="1.67742">
        <ele>122</ele>
        <time>2024-05-27T07:15:40.148Z</time>
      </trkpt>
      <trkpt lat="48.60888" lon="1.67738">
        <ele>122</ele>
        <time>2024-05-27T07:15:44.604Z</time>
      </trkpt>
      <trkpt lat="48.60889" lon="1.67732">
        <ele>122</ele>
        <time>2024-05-27T07:15:48.963Z</time>
      </trkpt>
      <trkpt lat="48.60892" lon="1.67723">
        <ele>122</ele>
        <time>2024-05-27T07:15:53.041Z</time>
      </trkpt>
      <trkpt lat="48.60895" lon="1.67716">
        <ele>122</ele>
        <time>2024-05-27T07:15:57.146Z</time>
      </trkpt>
      <trkpt lat="48.60899" lon="1.67715">
        <ele>122</ele>
        <time>2024-05-27T07:16:02.169Z</time>
      </trkpt>
      <trkpt lat="48.60903" lon="1.67718">
        <ele>126</ele>
        <time>2024-05-27T07:16:06.568Z</time>
      </trkpt>
      <trkpt lat="48.60903" lon="1.67723">
        <ele>126</ele>
        <time>2024-05-27T07:16:08.844Z</time>
      </trkpt>
      <trkpt lat="48.60914" lon="1.67732">
        <ele>126</ele>
        <time>2024-05-27T07:16:18.148Z</time>
      </trkpt>
      <trkpt lat="48.60919" lon="1.67738">
        <ele>126</ele>
        <time>2024-05-27T07:16:23.147Z</time>
      </trkpt>
      <trkpt lat="48.6092" lon="1.67736">
        <ele>126</ele>
        <time>2024-05-27T07:16:27.969Z</time>
      </trkpt>
      <trkpt lat="48.60924" lon="1.67751">
        <ele>126</ele>
        <time>2024-05-27T07:16:32.148Z</time>
      </trkpt>
      <trkpt lat="48.60927" lon="1.67752">
        <ele>126</ele>
        <time>2024-05-27T07:16:37.148Z</time>
      </trkpt>
      <trkpt lat="48.60932" lon="1.67758">
        <ele>131</ele>
        <time>2024-05-27T07:16:50.844Z</time>
      </trkpt>
      <trkpt lat="48.60934" lon="1.67746">
        <ele>131</ele>
        <time>2024-05-27T07:16:55.148Z</time>
      </trkpt>
      <trkpt lat="48.60936" lon="1.67739">
        <ele>131</ele>
        <time>2024-05-27T07:16:59.711Z</time>
      </trkpt>
      <trkpt lat="48.60938" lon="1.67732">
        <ele>131</ele>
        <time>2024-05-27T07:17:03.807Z</time>
      </trkpt>
      <trkpt lat="48.60938" lon="1.67727">
        <ele>131</ele>
        <time>2024-05-27T07:17:08.148Z</time>
      </trkpt>
      <trkpt lat="48.6094" lon="1.67722">
        <ele>131</ele>
        <time>2024-05-27T07:17:22.147Z</time>
      </trkpt>
      <trkpt lat="48.60939" lon="1.67721">
        <ele>131</ele>
        <time>2024-05-27T07:17:27.147Z</time>
      </trkpt>
      <trkpt lat="48.60939" lon="1.67716">
        <ele>131</ele>
        <time>2024-05-27T07:17:32.148Z</time>
      </trkpt>
      <trkpt lat="48.60941" lon="1.67709">
        <ele>131</ele>
        <time>2024-05-27T07:17:36.390Z</time>
      </trkpt>
      <trkpt lat="48.60942" lon="1.67704">
        <ele>129</ele>
        <time>2024-05-27T07:17:40.803Z</time>
      </trkpt>
      <trkpt lat="48.6094" lon="1.67699">
        <ele>129</ele>
        <time>2024-05-27T07:17:45.148Z</time>
      </trkpt>
      <trkpt lat="48.60939" lon="1.67698">
        <ele>129</ele>
        <time>2024-05-27T07:17:50.148Z</time>
      </trkpt>
      <trkpt lat="48.60939" lon="1.67698">
        <ele>129</ele>
        <time>2024-05-27T07:17:55.010Z</time>
      </trkpt>
      <trkpt lat="48.60943" lon="1.67689">
        <ele>129</ele>
        <time>2024-05-27T07:17:59.353Z</time>
      </trkpt>
      <trkpt lat="48.60948" lon="1.67681">
        <ele>129</ele>
        <time>2024-05-27T07:18:04.147Z</time>
      </trkpt>
      <trkpt lat="48.60953" lon="1.67674">
        <ele>127</ele>
        <time>2024-05-27T07:18:08.660Z</time>
      </trkpt>
      <trkpt lat="48.60958" lon="1.6767">
        <ele>127</ele>
        <time>2024-05-27T07:18:12.766Z</time>
      </trkpt>
      <trkpt lat="48.60962" lon="1.67666">
        <ele>130</ele>
        <time>2024-05-27T07:18:17.148Z</time>
      </trkpt>
      <trkpt lat="48.60968" lon="1.67665">
        <ele>130</ele>
        <time>2024-05-27T07:18:21.641Z</time>
      </trkpt>
      <trkpt lat="48.60973" lon="1.67662">
        <ele>130</ele>
        <time>2024-05-27T07:18:26.148Z</time>
      </trkpt>
      <trkpt lat="48.60978" lon="1.67657">
        <ele>130</ele>
        <time>2024-05-27T07:18:30.704Z</time>
      </trkpt>
      <trkpt lat="48.60982" lon="1.67653">
        <ele>130</ele>
        <time>2024-05-27T07:18:35.148Z</time>
      </trkpt>
      <trkpt lat="48.60981" lon="1.67652">
        <ele>126</ele>
        <time>2024-05-27T07:18:35.905Z</time>
      </trkpt>
      <trkpt lat="48.60986" lon="1.67645">
        <ele>126</ele>
        <time>2024-05-27T07:19:53.148Z</time>
      </trkpt>
      <trkpt lat="48.60986" lon="1.67645">
        <ele>126</ele>
        <time>2024-05-27T07:19:58.045Z</time>
      </trkpt>
      <trkpt lat="48.60986" lon="1.67644">
        <ele>129</ele>
        <time>2024-05-27T07:20:02.148Z</time>
      </trkpt>
      <trkpt lat="48.60992" lon="1.67647">
        <ele>129</ele>
        <time>2024-05-27T07:20:06.908Z</time>
      </trkpt>
      <trkpt lat="48.60998" lon="1.67653">
        <ele>132</ele>
        <time>2024-05-27T07:20:11.148Z</time>
      </trkpt>
      <trkpt lat="48.61003" lon="1.67656">
        <ele>132</ele>
        <time>2024-05-27T07:20:15.769Z</time>
      </trkpt>
      <trkpt lat="48.61009" lon="1.6766">
        <ele>132</ele>
        <time>2024-05-27T07:20:20.217Z</time>
      </trkpt>
      <trkpt lat="48.61014" lon="1.67665">
        <ele>132</ele>
        <time>2024-05-27T07:20:25.148Z</time>
      </trkpt>
      <trkpt lat="48.61019" lon="1.67668">
        <ele>132</ele>
        <time>2024-05-27T07:20:29.523Z</time>
      </trkpt>
      <trkpt lat="48.61017" lon="1.67676">
        <ele>132</ele>
        <time>2024-05-27T07:20:33.909Z</time>
      </trkpt>
      <trkpt lat="48.61013" lon="1.67684">
        <ele>134</ele>
        <time>2024-05-27T07:20:38.364Z</time>
      </trkpt>
      <trkpt lat="48.61011" lon="1.6769">
        <ele>134</ele>
        <time>2024-05-27T07:20:42.486Z</time>
      </trkpt>
      <trkpt lat="48.6101" lon="1.67698">
        <ele>134</ele>
        <time>2024-05-27T07:20:47.148Z</time>
      </trkpt>
      <trkpt lat="48.61008" lon="1.67705">
        <ele>134</ele>
        <time>2024-05-27T07:20:51.566Z</time>
      </trkpt>
      <trkpt lat="48.61007" lon="1.67714">
        <ele>137</ele>
        <time>2024-05-27T07:20:56.148Z</time>
      </trkpt>
      <trkpt lat="48.61004" lon="1.6772">
        <ele>137</ele>
        <time>2024-05-27T07:21:00.408Z</time>
      </trkpt>
      <trkpt lat="48.61001" lon="1.67726">
        <ele>137</ele>
        <time>2024-05-27T07:21:05.163Z</time>
      </trkpt>
      <trkpt lat="48.61001" lon="1.6773">
        <ele>137</ele>
        <time>2024-05-27T07:21:14.783Z</time>
      </trkpt>
      <trkpt lat="48.61002" lon="1.67734">
        <ele>137</ele>
        <time>2024-05-27T07:21:24.147Z</time>
      </trkpt>
      <trkpt lat="48.61" lon="1.67738">
        <ele>138</ele>
        <time>2024-05-27T07:21:28.626Z</time>
      </trkpt>
      <trkpt lat="48.60995" lon="1.67743">
        <ele>138</ele>
        <time>2024-05-27T07:21:33.037Z</time>
      </trkpt>
      <trkpt lat="48.6099" lon="1.67748">
        <ele>138</ele>
        <time>2024-05-27T07:21:37.404Z</time>
      </trkpt>
      <trkpt lat="48.60984" lon="1.6775">
        <ele>135</ele>
        <time>2024-05-27T07:21:41.866Z</time>
      </trkpt>
      <trkpt lat="48.60978" lon="1.67749">
        <ele>135</ele>
        <time>2024-05-27T07:21:46.147Z</time>
      </trkpt>
      <trkpt lat="48.60972" lon="1.67748">
        <ele>135</ele>
        <time>2024-05-27T07:21:50.723Z</time>
      </trkpt>
      <trkpt lat="48.60967" lon="1.67749">
        <ele>135</ele>
        <time>2024-05-27T07:21:54.787Z</time>
      </trkpt>
      <trkpt lat="48.60956" lon="1.67755">
        <ele>131</ele>
        <time>2024-05-27T07:22:57.147Z</time>
      </trkpt>
      <trkpt lat="48.60955" lon="1.67757">
        <ele>131</ele>
        <time>2024-05-27T07:23:01.147Z</time>
      </trkpt>
      <trkpt lat="48.60955" lon="1.67758">
        <ele>131</ele>
        <time>2024-05-27T07:23:06.147Z</time>
      </trkpt>
      <trkpt lat="48.60953" lon="1.67761">
        <ele>131</ele>
        <time>2024-05-27T07:23:11.147Z</time>
      </trkpt>
      <trkpt lat="48.60952" lon="1.6776">
        <ele>131</ele>
        <time>2024-05-27T07:23:15.147Z</time>
      </trkpt>
      <trkpt lat="48.60959" lon="1.67758">
        <ele>135</ele>
        <time>2024-05-27T07:24:11.147Z</time>
      </trkpt>
      <trkpt lat="48.60961" lon="1.67751">
        <ele>135</ele>
        <time>2024-05-27T07:24:15.147Z</time>
      </trkpt>
      <trkpt lat="48.60965" lon="1.67746">
        <ele>135</ele>
        <time>2024-05-27T07:24:19.588Z</time>
      </trkpt>
      <trkpt lat="48.60967" lon="1.67745">
        <ele>135</ele>
        <time>2024-05-27T07:24:24.001Z</time>
      </trkpt>
      <trkpt lat="48.60971" lon="1.67746">
        <ele>135</ele>
        <time>2024-05-27T07:24:28.687Z</time>
      </trkpt>
      <trkpt lat="48.60975" lon="1.67747">
        <ele>135</ele>
        <time>2024-05-27T07:24:32.774Z</time>
      </trkpt>
      <trkpt lat="48.60977" lon="1.67745">
        <ele>135</ele>
        <time>2024-05-27T07:24:36.980Z</time>
      </trkpt>
      <trkpt lat="48.60981" lon="1.67743">
        <ele>135</ele>
        <time>2024-05-27T07:24:41.147Z</time>
      </trkpt>
      <trkpt lat="48.60985" lon="1.67743">
        <ele>135</ele>
        <time>2024-05-27T07:24:45.566Z</time>
      </trkpt>
      <trkpt lat="48.60989" lon="1.67746">
        <ele>138</ele>
        <time>2024-05-27T07:24:49.927Z</time>
      </trkpt>
      <trkpt lat="48.6099" lon="1.6775">
        <ele>138</ele>
        <time>2024-05-27T07:24:54.065Z</time>
      </trkpt>
      <trkpt lat="48.60989" lon="1.67759">
        <ele>138</ele>
        <time>2024-05-27T07:24:59.147Z</time>
      </trkpt>
      <trkpt lat="48.6099" lon="1.6777">
        <ele>138</ele>
        <time>2024-05-27T07:25:03.924Z</time>
      </trkpt>
      <trkpt lat="48.6099" lon="1.67785">
        <ele>138</ele>
        <time>2024-05-27T07:25:19.146Z</time>
      </trkpt>
      <trkpt lat="48.60991" lon="1.67786">
        <ele>138</ele>
        <time>2024-05-27T07:25:28.085Z</time>
      </trkpt>
      <trkpt lat="48.60993" lon="1.67794">
        <ele>137</ele>
        <time>2024-05-27T07:25:32.489Z</time>
      </trkpt>
      <trkpt lat="48.60994" lon="1.67805">
        <ele>137</ele>
        <time>2024-05-27T07:25:36.851Z</time>
      </trkpt>
      <trkpt lat="48.60997" lon="1.67816">
        <ele>137</ele>
        <time>2024-05-27T07:25:41.955Z</time>
      </trkpt>
      <trkpt lat="48.61004" lon="1.67828">
        <ele>135</ele>
        <time>2024-05-27T07:25:55.147Z</time>
      </trkpt>
      <trkpt lat="48.61004" lon="1.67828">
        <ele>135</ele>
        <time>2024-05-27T07:25:59.803Z</time>
      </trkpt>
      <trkpt lat="48.61006" lon="1.67829">
        <ele>135</ele>
        <time>2024-05-27T07:26:04.146Z</time>
      </trkpt>
      <trkpt lat="48.61006" lon="1.67829">
        <ele>135</ele>
        <time>2024-05-27T07:26:09.127Z</time>
      </trkpt>
      <trkpt lat="48.61005" lon="1.6784">
        <ele>135</ele>
        <time>2024-05-27T07:26:13.147Z</time>
      </trkpt>
      <trkpt lat="48.61003" lon="1.67849">
        <ele>134</ele>
        <time>2024-05-27T07:26:17.147Z</time>
      </trkpt>
      <trkpt lat="48.61" lon="1.67861">
        <ele>134</ele>
        <time>2024-05-27T07:26:22.147Z</time>
      </trkpt>
      <trkpt lat="48.61" lon="1.67871">
        <ele>134</ele>
        <time>2024-05-27T07:26:26.831Z</time>
      </trkpt>
      <trkpt lat="48.60999" lon="1.67881">
        <ele>133</ele>
        <time>2024-05-27T07:26:31.044Z</time>
      </trkpt>
      <trkpt lat="48.60993" lon="1.67887">
        <ele>133</ele>
        <time>2024-05-27T07:26:35.424Z</time>
      </trkpt>
      <trkpt lat="48.60986" lon="1.6789">
        <ele>133</ele>
        <time>2024-05-27T07:26:39.670Z</time>
      </trkpt>
      <trkpt lat="48.60979" lon="1.6789">
        <ele>129</ele>
        <time>2024-05-27T07:26:44.131Z</time>
      </trkpt>
      <trkpt lat="48.60974" lon="1.67891">
        <ele>129</ele>
        <time>2024-05-27T07:26:48.173Z</time>
      </trkpt>
      <trkpt lat="48.60975" lon="1.67899">
        <ele>129</ele>
        <time>2024-05-27T07:26:52.915Z</time>
      </trkpt>
      <trkpt lat="48.60975" lon="1.67905">
        <ele>128</ele>
        <time>2024-05-27T07:26:56.930Z</time>
      </trkpt>
      <trkpt lat="48.60974" lon="1.67911">
        <ele>128</ele>
        <time>2024-05-27T07:27:01.009Z</time>
      </trkpt>
      <trkpt lat="48.60974" lon="1.67917">
        <ele>128</ele>
        <time>2024-05-27T07:27:05.614Z</time>
      </trkpt>
      <trkpt lat="48.60975" lon="1.67925">
        <ele>128</ele>
        <time>2024-05-27T07:27:09.684Z</time>
      </trkpt>
      <trkpt lat="48.60973" lon="1.67931">
        <ele>125</ele>
        <time>2024-05-27T07:27:13.734Z</time>
      </trkpt>
      <trkpt lat="48.60975" lon="1.67939">
        <ele>125</ele>
        <time>2024-05-27T07:27:18.145Z</time>
      </trkpt>
      <trkpt lat="48.60976" lon="1.67945">
        <ele>125</ele>
        <time>2024-05-27T07:27:22.449Z</time>
      </trkpt>
      <trkpt lat="48.60977" lon="1.67952">
        <ele>125</ele>
        <time>2024-05-27T07:27:26.681Z</time>
      </trkpt>
      <trkpt lat="48.60978" lon="1.67961">
        <ele>123</ele>
        <time>2024-05-27T07:27:31.146Z</time>
      </trkpt>
      <trkpt lat="48.6098" lon="1.67966">
        <ele>123</ele>
        <time>2024-05-27T07:27:35.468Z</time>
      </trkpt>
      <trkpt lat="48.60982" lon="1.67974">
        <ele>123</ele>
        <time>2024-05-27T07:27:39.632Z</time>
      </trkpt>
      <trkpt lat="48.60983" lon="1.67979">
        <ele>123</ele>
        <time>2024-05-27T07:27:43.808Z</time>
      </trkpt>
      <trkpt lat="48.60984" lon="1.67989">
        <ele>123</ele>
        <time>2024-05-27T07:27:48.146Z</time>
      </trkpt>
      <trkpt lat="48.60985" lon="1.67997">
        <ele>123</ele>
        <time>2024-05-27T07:27:52.147Z</time>
      </trkpt>
      <trkpt lat="48.60987" lon="1.68003">
        <ele>127</ele>
        <time>2024-05-27T07:27:56.414Z</time>
      </trkpt>
      <trkpt lat="48.60989" lon="1.68008">
        <ele>127</ele>
        <time>2024-05-27T07:28:00.942Z</time>
      </trkpt>
      <trkpt lat="48.60991" lon="1.68015">
        <ele>126</ele>
        <time>2024-05-27T07:28:06.081Z</time>
      </trkpt>
      <trkpt lat="48.60993" lon="1.68022">
        <ele>126</ele>
        <time>2024-05-27T07:28:10.146Z</time>
      </trkpt>
      <trkpt lat="48.60997" lon="1.68029">
        <ele>126</ele>
        <time>2024-05-27T07:28:14.503Z</time>
      </trkpt>
      <trkpt lat="48.61" lon="1.68037">
        <ele>126</ele>
        <time>2024-05-27T07:28:18.687Z</time>
      </trkpt>
      <trkpt lat="48.61003" lon="1.68042">
        <ele>126</ele>
        <time>2024-05-27T07:28:22.790Z</time>
      </trkpt>
      <trkpt lat="48.61006" lon="1.68049">
        <ele>124</ele>
        <time>2024-05-27T07:28:26.964Z</time>
      </trkpt>
      <trkpt lat="48.61008" lon="1.68056">
        <ele>124</ele>
        <time>2024-05-27T07:28:31.503Z</time>
      </trkpt>
      <trkpt lat="48.6101" lon="1.68059">
        <ele>124</ele>
        <time>2024-05-27T07:28:35.565Z</time>
      </trkpt>
      <trkpt lat="48.61012" lon="1.68066">
        <ele>124</ele>
        <time>2024-05-27T07:28:39.602Z</time>
      </trkpt>
      <trkpt lat="48.61014" lon="1.68072">
        <ele>128</ele>
        <time>2024-05-27T07:28:43.604Z</time>
      </trkpt>
      <trkpt lat="48.61016" lon="1.68079">
        <ele>128</ele>
        <time>2024-05-27T07:28:47.743Z</time>
      </trkpt>
      <trkpt lat="48.6102" lon="1.68088">
        <ele>128</ele>
        <time>2024-05-27T07:28:52.368Z</time>
      </trkpt>
      <trkpt lat="48.61022" lon="1.68095">
        <ele>128</ele>
        <time>2024-05-27T07:28:56.848Z</time>
      </trkpt>
      <trkpt lat="48.61025" lon="1.68102">
        <ele>127</ele>
        <time>2024-05-27T07:29:01.345Z</time>
      </trkpt>
      <trkpt lat="48.61027" lon="1.68107">
        <ele>127</ele>
        <time>2024-05-27T07:29:05.380Z</time>
      </trkpt>
      <trkpt lat="48.61029" lon="1.68114">
        <ele>127</ele>
        <time>2024-05-27T07:29:09.588Z</time>
      </trkpt>
      <trkpt lat="48.61031" lon="1.68121">
        <ele>127</ele>
        <time>2024-05-27T07:29:13.862Z</time>
      </trkpt>
      <trkpt lat="48.61033" lon="1.68129">
        <ele>124</ele>
        <time>2024-05-27T07:29:18.488Z</time>
      </trkpt>
      <trkpt lat="48.61035" lon="1.68134">
        <ele>124</ele>
        <time>2024-05-27T07:29:22.686Z</time>
      </trkpt>
      <trkpt lat="48.61037" lon="1.68139">
        <ele>124</ele>
        <time>2024-05-27T07:29:26.930Z</time>
      </trkpt>
      <trkpt lat="48.6104" lon="1.68147">
        <ele>124</ele>
        <time>2024-05-27T07:29:31.065Z</time>
      </trkpt>
      <trkpt lat="48.61042" lon="1.68155">
        <ele>129</ele>
        <time>2024-05-27T07:29:35.171Z</time>
      </trkpt>
      <trkpt lat="48.61044" lon="1.68161">
        <ele>129</ele>
        <time>2024-05-27T07:29:39.523Z</time>
      </trkpt>
      <trkpt lat="48.61046" lon="1.68166">
        <ele>129</ele>
        <time>2024-05-27T07:29:43.660Z</time>
      </trkpt>
      <trkpt lat="48.61048" lon="1.68173">
        <ele>129</ele>
        <time>2024-05-27T07:29:48.062Z</time>
      </trkpt>
      <trkpt lat="48.61051" lon="1.6818">
        <ele>129</ele>
        <time>2024-05-27T07:29:52.499Z</time>
      </trkpt>
      <trkpt lat="48.61053" lon="1.68187">
        <ele>126</ele>
        <time>2024-05-27T07:29:57.145Z</time>
      </trkpt>
      <trkpt lat="48.61056" lon="1.68195">
        <ele>126</ele>
        <time>2024-05-27T07:30:01.588Z</time>
      </trkpt>
      <trkpt lat="48.61059" lon="1.68204">
        <ele>126</ele>
        <time>2024-05-27T07:30:06.085Z</time>
      </trkpt>
      <trkpt lat="48.61061" lon="1.68211">
        <ele>122</ele>
        <time>2024-05-27T07:30:10.122Z</time>
      </trkpt>
      <trkpt lat="48.61063" lon="1.68215">
        <ele>122</ele>
        <time>2024-05-27T07:30:14.464Z</time>
      </trkpt>
      <trkpt lat="48.61066" lon="1.68222">
        <ele>122</ele>
        <time>2024-05-27T07:30:18.946Z</time>
      </trkpt>
      <trkpt lat="48.61063" lon="1.6823">
        <ele>122</ele>
        <time>2024-05-27T07:30:23.484Z</time>
      </trkpt>
      <trkpt lat="48.61059" lon="1.68236">
        <ele>120</ele>
        <time>2024-05-27T07:30:28.146Z</time>
      </trkpt>
      <trkpt lat="48.61056" lon="1.68238">
        <ele>120</ele>
        <time>2024-05-27T07:30:33.146Z</time>
      </trkpt>
      <trkpt lat="48.61051" lon="1.68234">
        <ele>122</ele>
        <time>2024-05-27T07:30:37.946Z</time>
      </trkpt>
      <trkpt lat="48.61047" lon="1.68232">
        <ele>122</ele>
        <time>2024-05-27T07:30:42.146Z</time>
      </trkpt>
      <trkpt lat="48.61045" lon="1.68238">
        <ele>120</ele>
        <time>2024-05-27T07:30:46.522Z</time>
      </trkpt>
      <trkpt lat="48.61043" lon="1.68247">
        <ele>120</ele>
        <time>2024-05-27T07:30:50.796Z</time>
      </trkpt>
      <trkpt lat="48.61043" lon="1.68254">
        <ele>120</ele>
        <time>2024-05-27T07:30:55.146Z</time>
      </trkpt>
      <trkpt lat="48.61038" lon="1.68257">
        <ele>119</ele>
        <time>2024-05-27T07:30:59.346Z</time>
      </trkpt>
      <trkpt lat="48.61032" lon="1.68258">
        <ele>119</ele>
        <time>2024-05-27T07:31:03.844Z</time>
      </trkpt>
      <trkpt lat="48.61027" lon="1.6826">
        <ele>119</ele>
        <time>2024-05-27T07:31:07.948Z</time>
      </trkpt>
      <trkpt lat="48.61022" lon="1.68261">
        <ele>119</ele>
        <time>2024-05-27T07:31:12.488Z</time>
      </trkpt>
      <trkpt lat="48.61016" lon="1.68262">
        <ele>119</ele>
        <time>2024-05-27T07:31:16.821Z</time>
      </trkpt>
      <trkpt lat="48.61011" lon="1.68265">
        <ele>117</ele>
        <time>2024-05-27T07:31:21.105Z</time>
      </trkpt>
      <trkpt lat="48.61006" lon="1.68268">
        <ele>117</ele>
        <time>2024-05-27T07:31:25.483Z</time>
      </trkpt>
      <trkpt lat="48.61" lon="1.68272">
        <ele>117</ele>
        <time>2024-05-27T07:31:29.962Z</time>
      </trkpt>
      <trkpt lat="48.60995" lon="1.68277">
        <ele>117</ele>
        <time>2024-05-27T07:31:34.484Z</time>
      </trkpt>
      <trkpt lat="48.60991" lon="1.68283">
        <ele>117</ele>
        <time>2024-05-27T07:31:38.947Z</time>
      </trkpt>
      <trkpt lat="48.60987" lon="1.68288">
        <ele>117</ele>
        <time>2024-05-27T07:31:43.427Z</time>
      </trkpt>
      <trkpt lat="48.60983" lon="1.68296">
        <ele>116</ele>
        <time>2024-05-27T07:31:47.966Z</time>
      </trkpt>
      <trkpt lat="48.60983" lon="1.68303">
        <ele>116</ele>
        <time>2024-05-27T07:31:52.488Z</time>
      </trkpt>
      <trkpt lat="48.60984" lon="1.68311">
        <ele>116</ele>
        <time>2024-05-27T07:31:57.027Z</time>
      </trkpt>
      <trkpt lat="48.60984" lon="1.68318">
        <ele>116</ele>
        <time>2024-05-27T07:32:01.524Z</time>
      </trkpt>
      <trkpt lat="48.60983" lon="1.68328">
        <ele>116</ele>
        <time>2024-05-27T07:32:06.004Z</time>
      </trkpt>
      <trkpt lat="48.60983" lon="1.68336">
        <ele>116</ele>
        <time>2024-05-27T07:32:10.483Z</time>
      </trkpt>
      <trkpt lat="48.60982" lon="1.68344">
        <ele>116</ele>
        <time>2024-05-27T07:32:15.049Z</time>
      </trkpt>
      <trkpt lat="48.60981" lon="1.68352">
        <ele>116</ele>
        <time>2024-05-27T07:32:19.084Z</time>
      </trkpt>
      <trkpt lat="48.6098" lon="1.6836">
        <ele>116</ele>
        <time>2024-05-27T07:32:23.146Z</time>
      </trkpt>
      <trkpt lat="48.60979" lon="1.68367">
        <ele>116</ele>
        <time>2024-05-27T07:32:27.810Z</time>
      </trkpt>
      <trkpt lat="48.60979" lon="1.68375">
        <ele>115</ele>
        <time>2024-05-27T07:32:32.327Z</time>
      </trkpt>
      <trkpt lat="48.60977" lon="1.68385">
        <ele>115</ele>
        <time>2024-05-27T07:32:36.908Z</time>
      </trkpt>
      <trkpt lat="48.60977" lon="1.68392">
        <ele>115</ele>
        <time>2024-05-27T07:32:41.150Z</time>
      </trkpt>
      <trkpt lat="48.60976" lon="1.684">
        <ele>115</ele>
        <time>2024-05-27T07:32:45.672Z</time>
      </trkpt>
      <trkpt lat="48.60975" lon="1.68407">
        <ele>115</ele>
        <time>2024-05-27T07:32:49.836Z</time>
      </trkpt>
      <trkpt lat="48.60972" lon="1.68412">
        <ele>115</ele>
        <time>2024-05-27T07:32:54.146Z</time>
      </trkpt>
      <trkpt lat="48.60972" lon="1.6842">
        <ele>115</ele>
        <time>2024-05-27T07:32:58.351Z</time>
      </trkpt>
      <trkpt lat="48.60971" lon="1.68426">
        <ele>115</ele>
        <time>2024-05-27T07:33:02.634Z</time>
      </trkpt>
      <trkpt lat="48.60969" lon="1.68434">
        <ele>115</ele>
        <time>2024-05-27T07:33:07.113Z</time>
      </trkpt>
      <trkpt lat="48.60968" lon="1.6844">
        <ele>115</ele>
        <time>2024-05-27T07:33:11.146Z</time>
      </trkpt>
      <trkpt lat="48.60965" lon="1.68447">
        <ele>115</ele>
        <time>2024-05-27T07:33:15.433Z</time>
      </trkpt>
      <trkpt lat="48.60964" lon="1.68454">
        <ele>115</ele>
        <time>2024-05-27T07:33:19.673Z</time>
      </trkpt>
      <trkpt lat="48.60963" lon="1.6846">
        <ele>115</ele>
        <time>2024-05-27T07:33:23.872Z</time>
      </trkpt>
      <trkpt lat="48.60961" lon="1.68468">
        <ele>115</ele>
        <time>2024-05-27T07:33:28.393Z</time>
      </trkpt>
      <trkpt lat="48.60958" lon="1.68475">
        <ele>115</ele>
        <time>2024-05-27T07:33:32.754Z</time>
      </trkpt>
      <trkpt lat="48.60956" lon="1.68483">
        <ele>115</ele>
        <time>2024-05-27T07:33:37.370Z</time>
      </trkpt>
      <trkpt lat="48.60954" lon="1.68491">
        <ele>116</ele>
        <time>2024-05-27T07:33:41.832Z</time>
      </trkpt>
      <trkpt lat="48.60951" lon="1.68499">
        <ele>116</ele>
        <time>2024-05-27T07:33:46.394Z</time>
      </trkpt>
      <trkpt lat="48.60949" lon="1.68507">
        <ele>116</ele>
        <time>2024-05-27T07:33:50.911Z</time>
      </trkpt>
      <trkpt lat="48.60946" lon="1.68514">
        <ele>116</ele>
        <time>2024-05-27T07:33:55.373Z</time>
      </trkpt>
      <trkpt lat="48.60944" lon="1.68521">
        <ele>116</ele>
        <time>2024-05-27T07:33:59.800Z</time>
      </trkpt>
      <trkpt lat="48.6094" lon="1.68526">
        <ele>116</ele>
        <time>2024-05-27T07:34:04.255Z</time>
      </trkpt>
      <trkpt lat="48.60936" lon="1.68533">
        <ele>116</ele>
        <time>2024-05-27T07:34:08.871Z</time>
      </trkpt>
      <trkpt lat="48.60932" lon="1.68541">
        <ele>116</ele>
        <time>2024-05-27T07:34:13.394Z</time>
      </trkpt>
      <trkpt lat="48.60928" lon="1.68545">
        <ele>117</ele>
        <time>2024-05-27T07:34:17.874Z</time>
      </trkpt>
      <trkpt lat="48.60923" lon="1.68552">
        <ele>117</ele>
        <time>2024-05-27T07:34:22.312Z</time>
      </trkpt>
      <trkpt lat="48.6092" lon="1.68559">
        <ele>117</ele>
        <time>2024-05-27T07:34:26.815Z</time>
      </trkpt>
      <trkpt lat="48.60917" lon="1.68568">
        <ele>117</ele>
        <time>2024-05-27T07:34:31.414Z</time>
      </trkpt>
      <trkpt lat="48.60915" lon="1.68574">
        <ele>118</ele>
        <time>2024-05-27T07:34:35.476Z</time>
      </trkpt>
      <trkpt lat="48.60912" lon="1.6858">
        <ele>118</ele>
        <time>2024-05-27T07:34:40.144Z</time>
      </trkpt>
      <trkpt lat="48.60907" lon="1.68585">
        <ele>118</ele>
        <time>2024-05-27T07:34:44.588Z</time>
      </trkpt>
      <trkpt lat="48.60904" lon="1.6859">
        <ele>118</ele>
        <time>2024-05-27T07:34:48.615Z</time>
      </trkpt>
      <trkpt lat="48.60898" lon="1.68594">
        <ele>119</ele>
        <time>2024-05-27T07:34:53.113Z</time>
      </trkpt>
      <trkpt lat="48.60893" lon="1.68596">
        <ele>119</ele>
        <time>2024-05-27T07:34:57.145Z</time>
      </trkpt>
      <trkpt lat="48.60888" lon="1.68597">
        <ele>119</ele>
        <time>2024-05-27T07:35:01.652Z</time>
      </trkpt>
      <trkpt lat="48.60884" lon="1.686">
        <ele>119</ele>
        <time>2024-05-27T07:35:05.688Z</time>
      </trkpt>
      <trkpt lat="48.6088" lon="1.68604">
        <ele>119</ele>
        <time>2024-05-27T07:35:10.144Z</time>
      </trkpt>
      <trkpt lat="48.60874" lon="1.68612">
        <ele>119</ele>
        <time>2024-05-27T07:35:15.147Z</time>
      </trkpt>
      <trkpt lat="48.60873" lon="1.68618">
        <ele>119</ele>
        <time>2024-05-27T07:35:19.515Z</time>
      </trkpt>
      <trkpt lat="48.60872" lon="1.68626">
        <ele>118</ele>
        <time>2024-05-27T07:35:24.145Z</time>
      </trkpt>
      <trkpt lat="48.60871" lon="1.68636">
        <ele>118</ele>
        <time>2024-05-27T07:35:28.995Z</time>
      </trkpt>
      <trkpt lat="48.6087" lon="1.68643">
        <ele>118</ele>
        <time>2024-05-27T07:35:33.048Z</time>
      </trkpt>
      <trkpt lat="48.60869" lon="1.68645">
        <ele>118</ele>
        <time>2024-05-27T07:35:35.145Z</time>
      </trkpt>
      <trkpt lat="48.60867" lon="1.68645">
        <ele>118</ele>
        <time>2024-05-27T07:35:43.679Z</time>
      </trkpt>
      <trkpt lat="48.60866" lon="1.68654">
        <ele>118</ele>
        <time>2024-05-27T07:35:48.145Z</time>
      </trkpt>
      <trkpt lat="48.60864" lon="1.68663">
        <ele>118</ele>
        <time>2024-05-27T07:35:53.145Z</time>
      </trkpt>
      <trkpt lat="48.60864" lon="1.68671">
        <ele>118</ele>
        <time>2024-05-27T07:35:57.859Z</time>
      </trkpt>
      <trkpt lat="48.60864" lon="1.68679">
        <ele>118</ele>
        <time>2024-05-27T07:36:02.145Z</time>
      </trkpt>
      <trkpt lat="48.60861" lon="1.68689">
        <ele>119</ele>
        <time>2024-05-27T07:36:07.145Z</time>
      </trkpt>
      <trkpt lat="48.60859" lon="1.68696">
        <ele>119</ele>
        <time>2024-05-27T07:36:11.752Z</time>
      </trkpt>
      <trkpt lat="48.60858" lon="1.68701">
        <ele>119</ele>
        <time>2024-05-27T07:36:15.848Z</time>
      </trkpt>
      <trkpt lat="48.60856" lon="1.68706">
        <ele>119</ele>
        <time>2024-05-27T07:36:20.055Z</time>
      </trkpt>
      <trkpt lat="48.60853" lon="1.68712">
        <ele>120</ele>
        <time>2024-05-27T07:36:24.552Z</time>
      </trkpt>
      <trkpt lat="48.6085" lon="1.68716">
        <ele>120</ele>
        <time>2024-05-27T07:36:28.751Z</time>
      </trkpt>
      <trkpt lat="48.60845" lon="1.68717">
        <ele>119</ele>
        <time>2024-05-27T07:36:33.111Z</time>
      </trkpt>
      <trkpt lat="48.60841" lon="1.68721">
        <ele>119</ele>
        <time>2024-05-27T07:36:37.145Z</time>
      </trkpt>
      <trkpt lat="48.60838" lon="1.68729">
        <ele>119</ele>
        <time>2024-05-27T07:36:41.695Z</time>
      </trkpt>
      <trkpt lat="48.60833" lon="1.68735">
        <ele>119</ele>
        <time>2024-05-27T07:36:46.132Z</time>
      </trkpt>
      <trkpt lat="48.6083" lon="1.68742">
        <ele>120</ele>
        <time>2024-05-27T07:36:50.893Z</time>
      </trkpt>
      <trkpt lat="48.60828" lon="1.68748">
        <ele>120</ele>
        <time>2024-05-27T07:36:55.145Z</time>
      </trkpt>
      <trkpt lat="48.60825" lon="1.68753">
        <ele>120</ele>
        <time>2024-05-27T07:36:59.409Z</time>
      </trkpt>
      <trkpt lat="48.60821" lon="1.68759">
        <ele>120</ele>
        <time>2024-05-27T07:37:03.675Z</time>
      </trkpt>
      <trkpt lat="48.60818" lon="1.68765">
        <ele>120</ele>
        <time>2024-05-27T07:37:08.145Z</time>
      </trkpt>
      <trkpt lat="48.60814" lon="1.68774">
        <ele>120</ele>
        <time>2024-05-27T07:37:13.145Z</time>
      </trkpt>
      <trkpt lat="48.60814" lon="1.68775">
        <ele>120</ele>
        <time>2024-05-27T07:37:14.145Z</time>
      </trkpt>
      <trkpt lat="48.60806" lon="1.68783">
        <ele>120</ele>
        <time>2024-05-27T07:37:22.510Z</time>
      </trkpt>
      <trkpt lat="48.60803" lon="1.68789">
        <ele>120</ele>
        <time>2024-05-27T07:37:26.769Z</time>
      </trkpt>
      <trkpt lat="48.60798" lon="1.68796">
        <ele>121</ele>
        <time>2024-05-27T07:37:31.810Z</time>
      </trkpt>
      <trkpt lat="48.60796" lon="1.68803">
        <ele>121</ele>
        <time>2024-05-27T07:37:35.932Z</time>
      </trkpt>
      <trkpt lat="48.60793" lon="1.68809">
        <ele>121</ele>
        <time>2024-05-27T07:37:40.475Z</time>
      </trkpt>
      <trkpt lat="48.60788" lon="1.68814">
        <ele>118</ele>
        <time>2024-05-27T07:37:45.145Z</time>
      </trkpt>
      <trkpt lat="48.60783" lon="1.6882">
        <ele>120</ele>
        <time>2024-05-27T07:37:49.950Z</time>
      </trkpt>
      <trkpt lat="48.6078" lon="1.68826">
        <ele>120</ele>
        <time>2024-05-27T07:37:54.055Z</time>
      </trkpt>
      <trkpt lat="48.60778" lon="1.6883">
        <ele>120</ele>
        <time>2024-05-27T07:37:58.475Z</time>
      </trkpt>
      <trkpt lat="48.60777" lon="1.68839">
        <ele>120</ele>
        <time>2024-05-27T07:38:03.014Z</time>
      </trkpt>
      <trkpt lat="48.60775" lon="1.68848">
        <ele>124</ele>
        <time>2024-05-27T07:38:07.972Z</time>
      </trkpt>
      <trkpt lat="48.60772" lon="1.68857">
        <ele>124</ele>
        <time>2024-05-27T07:38:12.145Z</time>
      </trkpt>
      <trkpt lat="48.60771" lon="1.68864">
        <ele>124</ele>
        <time>2024-05-27T07:38:16.588Z</time>
      </trkpt>
      <trkpt lat="48.60768" lon="1.68872">
        <ele>124</ele>
        <time>2024-05-27T07:38:21.145Z</time>
      </trkpt>
      <trkpt lat="48.60766" lon="1.68879">
        <ele>128</ele>
        <time>2024-05-27T07:38:25.710Z</time>
      </trkpt>
      <trkpt lat="48.60765" lon="1.68886">
        <ele>128</ele>
        <time>2024-05-27T07:38:30.145Z</time>
      </trkpt>
      <trkpt lat="48.60763" lon="1.68895">
        <ele>123</ele>
        <time>2024-05-27T07:38:34.874Z</time>
      </trkpt>
      <trkpt lat="48.6076" lon="1.68901">
        <ele>123</ele>
        <time>2024-05-27T07:38:38.994Z</time>
      </trkpt>
      <trkpt lat="48.60759" lon="1.68907">
        <ele>126</ele>
        <time>2024-05-27T07:38:43.116Z</time>
      </trkpt>
      <trkpt lat="48.60754" lon="1.68913">
        <ele>126</ele>
        <time>2024-05-27T07:38:48.144Z</time>
      </trkpt>
      <trkpt lat="48.60751" lon="1.68919">
        <ele>126</ele>
        <time>2024-05-27T07:38:52.330Z</time>
      </trkpt>
      <trkpt lat="48.60748" lon="1.68926">
        <ele>126</ele>
        <time>2024-05-27T07:38:56.451Z</time>
      </trkpt>
      <trkpt lat="48.60745" lon="1.68934">
        <ele>128</ele>
        <time>2024-05-27T07:39:01.033Z</time>
      </trkpt>
      <trkpt lat="48.60743" lon="1.68939">
        <ele>128</ele>
        <time>2024-05-27T07:39:05.144Z</time>
      </trkpt>
      <trkpt lat="48.60741" lon="1.68946">
        <ele>128</ele>
        <time>2024-05-27T07:39:09.309Z</time>
      </trkpt>
      <trkpt lat="48.60738" lon="1.68953">
        <ele>128</ele>
        <time>2024-05-27T07:39:14.145Z</time>
      </trkpt>
      <trkpt lat="48.60734" lon="1.6896">
        <ele>124</ele>
        <time>2024-05-27T07:39:18.873Z</time>
      </trkpt>
      <trkpt lat="48.60733" lon="1.68968">
        <ele>124</ele>
        <time>2024-05-27T07:39:23.353Z</time>
      </trkpt>
      <trkpt lat="48.60731" lon="1.68977">
        <ele>124</ele>
        <time>2024-05-27T07:39:28.149Z</time>
      </trkpt>
      <trkpt lat="48.6073" lon="1.68986">
        <ele>124</ele>
        <time>2024-05-27T07:39:33.145Z</time>
      </trkpt>
      <trkpt lat="48.60728" lon="1.68992">
        <ele>126</ele>
        <time>2024-05-27T07:39:37.669Z</time>
      </trkpt>
      <trkpt lat="48.60724" lon="1.68997">
        <ele>126</ele>
        <time>2024-05-27T07:39:41.807Z</time>
      </trkpt>
      <trkpt lat="48.60721" lon="1.69002">
        <ele>126</ele>
        <time>2024-05-27T07:39:46.145Z</time>
      </trkpt>
      <trkpt lat="48.60717" lon="1.69009">
        <ele>126</ele>
        <time>2024-05-27T07:39:51.145Z</time>
      </trkpt>
      <trkpt lat="48.60715" lon="1.69015">
        <ele>129</ele>
        <time>2024-05-27T07:39:55.689Z</time>
      </trkpt>
      <trkpt lat="48.60711" lon="1.69021">
        <ele>129</ele>
        <time>2024-05-27T07:40:00.144Z</time>
      </trkpt>
      <trkpt lat="48.60707" lon="1.69028">
        <ele>122</ele>
        <time>2024-05-27T07:40:05.048Z</time>
      </trkpt>
      <trkpt lat="48.60704" lon="1.69032">
        <ele>122</ele>
        <time>2024-05-27T07:40:09.145Z</time>
      </trkpt>
      <trkpt lat="48.60699" lon="1.69038">
        <ele>122</ele>
        <time>2024-05-27T07:40:13.811Z</time>
      </trkpt>
      <trkpt lat="48.60697" lon="1.69046">
        <ele>124</ele>
        <time>2024-05-27T07:40:18.145Z</time>
      </trkpt>
      <trkpt lat="48.60697" lon="1.69051">
        <ele>124</ele>
        <time>2024-05-27T07:40:22.223Z</time>
      </trkpt>
      <trkpt lat="48.60697" lon="1.6905">
        <ele>124</ele>
        <time>2024-05-27T07:40:38.145Z</time>
      </trkpt>
      <trkpt lat="48.60695" lon="1.69051">
        <ele>124</ele>
        <time>2024-05-27T07:40:47.144Z</time>
      </trkpt>
      <trkpt lat="48.60689" lon="1.69056">
        <ele>124</ele>
        <time>2024-05-27T07:40:51.831Z</time>
      </trkpt>
      <trkpt lat="48.60687" lon="1.69064">
        <ele>124</ele>
        <time>2024-05-27T07:40:56.145Z</time>
      </trkpt>
      <trkpt lat="48.60685" lon="1.69073">
        <ele>128</ele>
        <time>2024-05-27T07:41:00.698Z</time>
      </trkpt>
      <trkpt lat="48.60685" lon="1.69082">
        <ele>128</ele>
        <time>2024-05-27T07:41:05.145Z</time>
      </trkpt>
      <trkpt lat="48.60685" lon="1.69091">
        <ele>128</ele>
        <time>2024-05-27T07:41:09.615Z</time>
      </trkpt>
      <trkpt lat="48.60685" lon="1.691">
        <ele>132</ele>
        <time>2024-05-27T07:41:14.145Z</time>
      </trkpt>
      <trkpt lat="48.60683" lon="1.69109">
        <ele>132</ele>
        <time>2024-05-27T07:41:18.655Z</time>
      </trkpt>
      <trkpt lat="48.6068" lon="1.69122">
        <ele>126</ele>
        <time>2024-05-27T07:42:15.145Z</time>
      </trkpt>
      <trkpt lat="48.6068" lon="1.69122">
        <ele>126</ele>
        <time>2024-05-27T07:42:19.145Z</time>
      </trkpt>
      <trkpt lat="48.6068" lon="1.69126">
        <ele>129</ele>
        <time>2024-05-27T07:42:24.144Z</time>
      </trkpt>
      <trkpt lat="48.6068" lon="1.69134">
        <ele>129</ele>
        <time>2024-05-27T07:42:28.987Z</time>
      </trkpt>
      <trkpt lat="48.60676" lon="1.69143">
        <ele>129</ele>
        <time>2024-05-27T07:42:33.416Z</time>
      </trkpt>
      <trkpt lat="48.60674" lon="1.69151">
        <ele>129</ele>
        <time>2024-05-27T07:42:37.451Z</time>
      </trkpt>
      <trkpt lat="48.60671" lon="1.69158">
        <ele>131</ele>
        <time>2024-05-27T07:42:41.751Z</time>
      </trkpt>
      <trkpt lat="48.60669" lon="1.69166">
        <ele>131</ele>
        <time>2024-05-27T07:42:46.094Z</time>
      </trkpt>
      <trkpt lat="48.60668" lon="1.69173">
        <ele>131</ele>
        <time>2024-05-27T07:42:50.616Z</time>
      </trkpt>
      <trkpt lat="48.60665" lon="1.69179">
        <ele>131</ele>
        <time>2024-05-27T07:42:54.813Z</time>
      </trkpt>
      <trkpt lat="48.60664" lon="1.69186">
        <ele>132</ele>
        <time>2024-05-27T07:42:58.874Z</time>
      </trkpt>
      <trkpt lat="48.60662" lon="1.69192">
        <ele>132</ele>
        <time>2024-05-27T07:43:03.145Z</time>
      </trkpt>
      <trkpt lat="48.60661" lon="1.692">
        <ele>132</ele>
        <time>2024-05-27T07:43:07.192Z</time>
      </trkpt>
      <trkpt lat="48.60658" lon="1.69207">
        <ele>132</ele>
        <time>2024-05-27T07:43:11.833Z</time>
      </trkpt>
      <trkpt lat="48.60657" lon="1.69214">
        <ele>133</ele>
        <time>2024-05-27T07:43:16.144Z</time>
      </trkpt>
      <trkpt lat="48.60655" lon="1.69221">
        <ele>133</ele>
        <time>2024-05-27T07:43:20.819Z</time>
      </trkpt>
      <trkpt lat="48.60653" lon="1.69228">
        <ele>133</ele>
        <time>2024-05-27T07:43:25.144Z</time>
      </trkpt>
      <trkpt lat="48.60651" lon="1.69234">
        <ele>127</ele>
        <time>2024-05-27T07:43:29.529Z</time>
      </trkpt>
      <trkpt lat="48.6065" lon="1.6924">
        <ele>131</ele>
        <time>2024-05-27T07:43:33.616Z</time>
      </trkpt>
      <trkpt lat="48.60648" lon="1.69248">
        <ele>131</ele>
        <time>2024-05-27T07:43:37.950Z</time>
      </trkpt>
      <trkpt lat="48.60645" lon="1.69256">
        <ele>131</ele>
        <time>2024-05-27T07:43:43.155Z</time>
      </trkpt>
      <trkpt lat="48.60642" lon="1.69262">
        <ele>131</ele>
        <time>2024-05-27T07:43:47.489Z</time>
      </trkpt>
      <trkpt lat="48.60641" lon="1.69269">
        <ele>136</ele>
        <time>2024-05-27T07:43:52.144Z</time>
      </trkpt>
      <trkpt lat="48.60638" lon="1.69277">
        <ele>136</ele>
        <time>2024-05-27T07:43:57.144Z</time>
      </trkpt>
      <trkpt lat="48.60636" lon="1.69285">
        <ele>136</ele>
        <time>2024-05-27T07:44:02.095Z</time>
      </trkpt>
      <trkpt lat="48.60634" lon="1.69293">
        <ele>141</ele>
        <time>2024-05-27T07:44:06.155Z</time>
      </trkpt>
      <trkpt lat="48.60634" lon="1.69301">
        <ele>141</ele>
        <time>2024-05-27T07:44:10.831Z</time>
      </trkpt>
      <trkpt lat="48.60634" lon="1.69307">
        <ele>141</ele>
        <time>2024-05-27T07:44:15.144Z</time>
      </trkpt>
      <trkpt lat="48.60633" lon="1.69315">
        <ele>141</ele>
        <time>2024-05-27T07:44:19.491Z</time>
      </trkpt>
      <trkpt lat="48.60632" lon="1.69322">
        <ele>143</ele>
        <time>2024-05-27T07:44:23.833Z</time>
      </trkpt>
      <trkpt lat="48.60631" lon="1.6933">
        <ele>143</ele>
        <time>2024-05-27T07:44:28.133Z</time>
      </trkpt>
      <trkpt lat="48.6063" lon="1.69335">
        <ele>143</ele>
        <time>2024-05-27T07:44:32.144Z</time>
      </trkpt>
      <trkpt lat="48.60629" lon="1.69342">
        <ele>143</ele>
        <time>2024-05-27T07:44:36.553Z</time>
      </trkpt>
      <trkpt lat="48.60627" lon="1.69349">
        <ele>146</ele>
        <time>2024-05-27T07:44:41.075Z</time>
      </trkpt>
      <trkpt lat="48.60626" lon="1.69356">
        <ele>146</ele>
        <time>2024-05-27T07:44:45.144Z</time>
      </trkpt>
      <trkpt lat="48.60624" lon="1.69363">
        <ele>138</ele>
        <time>2024-05-27T07:44:50.144Z</time>
      </trkpt>
      <trkpt lat="48.60621" lon="1.69368">
        <ele>138</ele>
        <time>2024-05-27T07:44:54.334Z</time>
      </trkpt>
      <trkpt lat="48.60618" lon="1.69373">
        <ele>138</ele>
        <time>2024-05-27T07:44:58.609Z</time>
      </trkpt>
      <trkpt lat="48.60616" lon="1.69379">
        <ele>139</ele>
        <time>2024-05-27T07:45:03.012Z</time>
      </trkpt>
      <trkpt lat="48.60614" lon="1.69385">
        <ele>139</ele>
        <time>2024-05-27T07:45:07.114Z</time>
      </trkpt>
      <trkpt lat="48.60611" lon="1.6939">
        <ele>139</ele>
        <time>2024-05-27T07:45:11.286Z</time>
      </trkpt>
      <trkpt lat="48.60608" lon="1.69396">
        <ele>139</ele>
        <time>2024-05-27T07:45:15.748Z</time>
      </trkpt>
      <trkpt lat="48.60606" lon="1.69402">
        <ele>139</ele>
        <time>2024-05-27T07:45:20.110Z</time>
      </trkpt>
      <trkpt lat="48.60606" lon="1.6941">
        <ele>141</ele>
        <time>2024-05-27T07:45:24.749Z</time>
      </trkpt>
      <trkpt lat="48.60604" lon="1.69417">
        <ele>141</ele>
        <time>2024-05-27T07:45:29.031Z</time>
      </trkpt>
      <trkpt lat="48.60603" lon="1.69424">
        <ele>141</ele>
        <time>2024-05-27T07:45:33.143Z</time>
      </trkpt>
      <trkpt lat="48.606" lon="1.69431">
        <ele>143</ele>
        <time>2024-05-27T07:45:38.144Z</time>
      </trkpt>
      <trkpt lat="48.60597" lon="1.69436">
        <ele>137</ele>
        <time>2024-05-27T07:45:42.820Z</time>
      </trkpt>
      <trkpt lat="48.60596" lon="1.69442">
        <ele>137</ele>
        <time>2024-05-27T07:45:47.143Z</time>
      </trkpt>
      <trkpt lat="48.60597" lon="1.69442">
        <ele>137</ele>
        <time>2024-05-27T07:45:52.143Z</time>
      </trkpt>
      <trkpt lat="48.60596" lon="1.69448">
        <ele>137</ele>
        <time>2024-05-27T07:45:56.631Z</time>
      </trkpt>
      <trkpt lat="48.60592" lon="1.69454">
        <ele>137</ele>
        <time>2024-05-27T07:46:00.914Z</time>
      </trkpt>
      <trkpt lat="48.60588" lon="1.6946">
        <ele>138</ele>
        <time>2024-05-27T07:46:05.470Z</time>
      </trkpt>
      <trkpt lat="48.60584" lon="1.69466">
        <ele>138</ele>
        <time>2024-05-27T07:46:10.035Z</time>
      </trkpt>
      <trkpt lat="48.6058" lon="1.69471">
        <ele>138</ele>
        <time>2024-05-27T07:46:14.576Z</time>
      </trkpt>
      <trkpt lat="48.60576" lon="1.69476">
        <ele>138</ele>
        <time>2024-05-27T07:46:18.993Z</time>
      </trkpt>
      <trkpt lat="48.60573" lon="1.69483">
        <ele>138</ele>
        <time>2024-05-27T07:46:23.549Z</time>
      </trkpt>
      <trkpt lat="48.60569" lon="1.69489">
        <ele>134</ele>
        <time>2024-05-27T07:46:28.095Z</time>
      </trkpt>
      <trkpt lat="48.60567" lon="1.69498">
        <ele>134</ele>
        <time>2024-05-27T07:46:33.052Z</time>
      </trkpt>
      <trkpt lat="48.60564" lon="1.69505">
        <ele>134</ele>
        <time>2024-05-27T07:46:37.144Z</time>
      </trkpt>
      <trkpt lat="48.60561" lon="1.6951">
        <ele>134</ele>
        <time>2024-05-27T07:46:41.584Z</time>
      </trkpt>
      <trkpt lat="48.60557" lon="1.69515">
        <ele>138</ele>
        <time>2024-05-27T07:46:45.773Z</time>
      </trkpt>
      <trkpt lat="48.60554" lon="1.69522">
        <ele>138</ele>
        <time>2024-05-27T07:46:50.133Z</time>
      </trkpt>
      <trkpt lat="48.60551" lon="1.69529">
        <ele>138</ele>
        <time>2024-05-27T07:46:54.144Z</time>
      </trkpt>
      <trkpt lat="48.60548" lon="1.69535">
        <ele>138</ele>
        <time>2024-05-27T07:46:59.144Z</time>
      </trkpt>
      <trkpt lat="48.60544" lon="1.69541">
        <ele>138</ele>
        <time>2024-05-27T07:47:04.030Z</time>
      </trkpt>
      <trkpt lat="48.6054" lon="1.69547">
        <ele>136</ele>
        <time>2024-05-27T07:47:08.144Z</time>
      </trkpt>
      <trkpt lat="48.60536" lon="1.69553">
        <ele>136</ele>
        <time>2024-05-27T07:47:12.434Z</time>
      </trkpt>
      <trkpt lat="48.60533" lon="1.6956">
        <ele>136</ele>
        <time>2024-05-27T07:47:16.588Z</time>
      </trkpt>
      <trkpt lat="48.6053" lon="1.69566">
        <ele>136</ele>
        <time>2024-05-27T07:47:21.144Z</time>
      </trkpt>
      <trkpt lat="48.60527" lon="1.69573">
        <ele>139</ele>
        <time>2024-05-27T07:47:25.734Z</time>
      </trkpt>
      <trkpt lat="48.60524" lon="1.69579">
        <ele>139</ele>
        <time>2024-05-27T07:47:30.144Z</time>
      </trkpt>
      <trkpt lat="48.60521" lon="1.69587">
        <ele>139</ele>
        <time>2024-05-27T07:47:35.094Z</time>
      </trkpt>
      <trkpt lat="48.60518" lon="1.69593">
        <ele>139</ele>
        <time>2024-05-27T07:47:39.143Z</time>
      </trkpt>
      <trkpt lat="48.60514" lon="1.696">
        <ele>144</ele>
        <time>2024-05-27T07:47:44.160Z</time>
      </trkpt>
      <trkpt lat="48.6051" lon="1.69606">
        <ele>138</ele>
        <time>2024-05-27T07:47:48.675Z</time>
      </trkpt>
      <trkpt lat="48.60505" lon="1.69611">
        <ele>138</ele>
        <time>2024-05-27T07:47:53.144Z</time>
      </trkpt>
      <trkpt lat="48.60502" lon="1.6962">
        <ele>138</ele>
        <time>2024-05-27T07:47:57.651Z</time>
      </trkpt>
      <trkpt lat="48.605" lon="1.69626">
        <ele>141</ele>
        <time>2024-05-27T07:48:02.053Z</time>
      </trkpt>
      <trkpt lat="48.60497" lon="1.69634">
        <ele>141</ele>
        <time>2024-05-27T07:48:06.144Z</time>
      </trkpt>
      <trkpt lat="48.60494" lon="1.69642">
        <ele>141</ele>
        <time>2024-05-27T07:48:11.144Z</time>
      </trkpt>
      <trkpt lat="48.6049" lon="1.69649">
        <ele>141</ele>
        <time>2024-05-27T07:48:15.802Z</time>
      </trkpt>
      <trkpt lat="48.60488" lon="1.69656">
        <ele>143</ele>
        <time>2024-05-27T07:48:20.144Z</time>
      </trkpt>
      <trkpt lat="48.60485" lon="1.69664">
        <ele>136</ele>
        <time>2024-05-27T07:48:24.951Z</time>
      </trkpt>
      <trkpt lat="48.60482" lon="1.69672">
        <ele>136</ele>
        <time>2024-05-27T07:48:29.592Z</time>
      </trkpt>
      <trkpt lat="48.6048" lon="1.6968">
        <ele>136</ele>
        <time>2024-05-27T07:48:34.131Z</time>
      </trkpt>
      <trkpt lat="48.60478" lon="1.69687">
        <ele>136</ele>
        <time>2024-05-27T07:48:38.144Z</time>
      </trkpt>
      <trkpt lat="48.60476" lon="1.69696">
        <ele>136</ele>
        <time>2024-05-27T07:48:43.144Z</time>
      </trkpt>
      <trkpt lat="48.60474" lon="1.69705">
        <ele>136</ele>
        <time>2024-05-27T07:48:47.995Z</time>
      </trkpt>
      <trkpt lat="48.60472" lon="1.69712">
        <ele>138</ele>
        <time>2024-05-27T07:48:52.144Z</time>
      </trkpt>
      <trkpt lat="48.60471" lon="1.69721">
        <ele>138</ele>
        <time>2024-05-27T07:48:57.144Z</time>
      </trkpt>
      <trkpt lat="48.60471" lon="1.69728">
        <ele>138</ele>
        <time>2024-05-27T07:49:01.329Z</time>
      </trkpt>
      <trkpt lat="48.60469" lon="1.69737">
        <ele>140</ele>
        <time>2024-05-27T07:49:06.091Z</time>
      </trkpt>
      <trkpt lat="48.60467" lon="1.69743">
        <ele>140</ele>
        <time>2024-05-27T07:49:10.143Z</time>
      </trkpt>
      <trkpt lat="48.60465" lon="1.6975">
        <ele>140</ele>
        <time>2024-05-27T07:49:14.895Z</time>
      </trkpt>
      <trkpt lat="48.60462" lon="1.69757">
        <ele>140</ele>
        <time>2024-05-27T07:49:19.144Z</time>
      </trkpt>
      <trkpt lat="48.60459" lon="1.69764">
        <ele>140</ele>
        <time>2024-05-27T07:49:23.775Z</time>
      </trkpt>
      <trkpt lat="48.60457" lon="1.6977">
        <ele>135</ele>
        <time>2024-05-27T07:49:27.811Z</time>
      </trkpt>
      <trkpt lat="48.60456" lon="1.69778">
        <ele>135</ele>
        <time>2024-05-27T07:49:32.145Z</time>
      </trkpt>
      <trkpt lat="48.60455" lon="1.69786">
        <ele>135</ele>
        <time>2024-05-27T07:49:36.811Z</time>
      </trkpt>
      <trkpt lat="48.60453" lon="1.69793">
        <ele>136</ele>
        <time>2024-05-27T07:49:41.144Z</time>
      </trkpt>
      <trkpt lat="48.60451" lon="1.69801">
        <ele>136</ele>
        <time>2024-05-27T07:49:45.889Z</time>
      </trkpt>
      <trkpt lat="48.60448" lon="1.69807">
        <ele>136</ele>
        <time>2024-05-27T07:49:50.144Z</time>
      </trkpt>
      <trkpt lat="48.60444" lon="1.69815">
        <ele>136</ele>
        <time>2024-05-27T07:49:55.129Z</time>
      </trkpt>
      <trkpt lat="48.60443" lon="1.69822">
        <ele>139</ele>
        <time>2024-05-27T07:49:59.144Z</time>
      </trkpt>
      <trkpt lat="48.60443" lon="1.6983">
        <ele>139</ele>
        <time>2024-05-27T07:50:03.145Z</time>
      </trkpt>
      <trkpt lat="48.60442" lon="1.69839">
        <ele>139</ele>
        <time>2024-05-27T07:50:07.814Z</time>
      </trkpt>
      <trkpt lat="48.60441" lon="1.69845">
        <ele>139</ele>
        <time>2024-05-27T07:50:12.143Z</time>
      </trkpt>
      <trkpt lat="48.60438" lon="1.69854">
        <ele>143</ele>
        <time>2024-05-27T07:50:17.143Z</time>
      </trkpt>
      <trkpt lat="48.60436" lon="1.6986">
        <ele>143</ele>
        <time>2024-05-27T07:50:21.144Z</time>
      </trkpt>
      <trkpt lat="48.60434" lon="1.69867">
        <ele>143</ele>
        <time>2024-05-27T07:50:25.492Z</time>
      </trkpt>
      <trkpt lat="48.60432" lon="1.69873">
        <ele>143</ele>
        <time>2024-05-27T07:50:30.144Z</time>
      </trkpt>
      <trkpt lat="48.6043" lon="1.69881">
        <ele>137</ele>
        <time>2024-05-27T07:50:34.894Z</time>
      </trkpt>
      <trkpt lat="48.60429" lon="1.69889">
        <ele>137</ele>
        <time>2024-05-27T07:50:39.569Z</time>
      </trkpt>
      <trkpt lat="48.60427" lon="1.69897">
        <ele>137</ele>
        <time>2024-05-27T07:50:44.144Z</time>
      </trkpt>
      <trkpt lat="48.60424" lon="1.69904">
        <ele>141</ele>
        <time>2024-05-27T07:50:48.929Z</time>
      </trkpt>
      <trkpt lat="48.60421" lon="1.69911">
        <ele>141</ele>
        <time>2024-05-27T07:50:53.493Z</time>
      </trkpt>
      <trkpt lat="48.60419" lon="1.69917">
        <ele>141</ele>
        <time>2024-05-27T07:50:57.733Z</time>
      </trkpt>
      <trkpt lat="48.60417" lon="1.69925">
        <ele>141</ele>
        <time>2024-05-27T07:51:02.092Z</time>
      </trkpt>
      <trkpt lat="48.60416" lon="1.69931">
        <ele>144</ele>
        <time>2024-05-27T07:51:06.128Z</time>
      </trkpt>
      <trkpt lat="48.60415" lon="1.69938">
        <ele>144</ele>
        <time>2024-05-27T07:51:10.154Z</time>
      </trkpt>
      <trkpt lat="48.60413" lon="1.69946">
        <ele>144</ele>
        <time>2024-05-27T07:51:14.753Z</time>
      </trkpt>
      <trkpt lat="48.6041" lon="1.69953">
        <ele>144</ele>
        <time>2024-05-27T07:51:19.144Z</time>
      </trkpt>
      <trkpt lat="48.60407" lon="1.6996">
        <ele>145</ele>
        <time>2024-05-27T07:51:23.635Z</time>
      </trkpt>
      <trkpt lat="48.60405" lon="1.69967">
        <ele>145</ele>
        <time>2024-05-27T07:51:27.851Z</time>
      </trkpt>
      <trkpt lat="48.60402" lon="1.69972">
        <ele>138</ele>
        <time>2024-05-27T07:51:31.876Z</time>
      </trkpt>
      <trkpt lat="48.604" lon="1.69978">
        <ele>138</ele>
        <time>2024-05-27T07:51:36.144Z</time>
      </trkpt>
      <trkpt lat="48.60398" lon="1.69986">
        <ele>141</ele>
        <time>2024-05-27T07:51:41.012Z</time>
      </trkpt>
      <trkpt lat="48.60396" lon="1.69993">
        <ele>141</ele>
        <time>2024-05-27T07:51:45.535Z</time>
      </trkpt>
      <trkpt lat="48.60393" lon="1.69999">
        <ele>141</ele>
        <time>2024-05-27T07:51:50.144Z</time>
      </trkpt>
      <trkpt lat="48.60388" lon="1.70005">
        <ele>141</ele>
        <time>2024-05-27T07:51:55.055Z</time>
      </trkpt>
      <trkpt lat="48.60385" lon="1.70011">
        <ele>141</ele>
        <time>2024-05-27T07:51:59.144Z</time>
      </trkpt>
      <trkpt lat="48.60382" lon="1.70017">
        <ele>144</ele>
        <time>2024-05-27T07:52:03.869Z</time>
      </trkpt>
      <trkpt lat="48.6038" lon="1.70023">
        <ele>144</ele>
        <time>2024-05-27T07:52:08.015Z</time>
      </trkpt>
      <trkpt lat="48.60377" lon="1.7003">
        <ele>144</ele>
        <time>2024-05-27T07:52:12.143Z</time>
      </trkpt>
      <trkpt lat="48.60375" lon="1.70038">
        <ele>144</ele>
        <time>2024-05-27T07:52:16.895Z</time>
      </trkpt>
      <trkpt lat="48.60374" lon="1.70045">
        <ele>140</ele>
        <time>2024-05-27T07:52:21.512Z</time>
      </trkpt>
      <trkpt lat="48.60371" lon="1.70052">
        <ele>140</ele>
        <time>2024-05-27T07:52:26.144Z</time>
      </trkpt>
      <trkpt lat="48.60368" lon="1.70059">
        <ele>140</ele>
        <time>2024-05-27T07:52:30.853Z</time>
      </trkpt>
      <trkpt lat="48.60363" lon="1.70064">
        <ele>140</ele>
        <time>2024-05-27T07:52:35.571Z</time>
      </trkpt>
      <trkpt lat="48.60358" lon="1.70068">
        <ele>140</ele>
        <time>2024-05-27T07:52:40.151Z</time>
      </trkpt>
      <trkpt lat="48.60354" lon="1.70073">
        <ele>143</ele>
        <time>2024-05-27T07:52:44.734Z</time>
      </trkpt>
      <trkpt lat="48.6035" lon="1.70079">
        <ele>143</ele>
        <time>2024-05-27T07:52:49.144Z</time>
      </trkpt>
      <trkpt lat="48.60347" lon="1.70085">
        <ele>136</ele>
        <time>2024-05-27T07:52:53.214Z</time>
      </trkpt>
      <trkpt lat="48.60344" lon="1.70092">
        <ele>136</ele>
        <time>2024-05-27T07:52:57.752Z</time>
      </trkpt>
      <trkpt lat="48.60341" lon="1.70098">
        <ele>139</ele>
        <time>2024-05-27T07:53:02.155Z</time>
      </trkpt>
      <trkpt lat="48.60338" lon="1.70105">
        <ele>139</ele>
        <time>2024-05-27T07:53:06.915Z</time>
      </trkpt>
      <trkpt lat="48.60336" lon="1.70111">
        <ele>139</ele>
        <time>2024-05-27T07:53:11.143Z</time>
      </trkpt>
      <trkpt lat="48.60332" lon="1.70118">
        <ele>139</ele>
        <time>2024-05-27T07:53:15.826Z</time>
      </trkpt>
      <trkpt lat="48.60328" lon="1.70124">
        <ele>139</ele>
        <time>2024-05-27T07:53:20.143Z</time>
      </trkpt>
      <trkpt lat="48.60325" lon="1.70129">
        <ele>143</ele>
        <time>2024-05-27T07:53:25.144Z</time>
      </trkpt>
      <trkpt lat="48.60322" lon="1.70135">
        <ele>143</ele>
        <time>2024-05-27T07:53:29.489Z</time>
      </trkpt>
      <trkpt lat="48.60318" lon="1.70141">
        <ele>136</ele>
        <time>2024-05-27T07:53:34.070Z</time>
      </trkpt>
      <trkpt lat="48.60315" lon="1.70146">
        <ele>136</ele>
        <time>2024-05-27T07:53:38.144Z</time>
      </trkpt>
      <trkpt lat="48.60313" lon="1.70154">
        <ele>142</ele>
        <time>2024-05-27T07:53:42.874Z</time>
      </trkpt>
      <trkpt lat="48.60311" lon="1.70161">
        <ele>142</ele>
        <time>2024-05-27T07:53:47.144Z</time>
      </trkpt>
      <trkpt lat="48.60309" lon="1.70168">
        <ele>142</ele>
        <time>2024-05-27T07:53:51.491Z</time>
      </trkpt>
      <trkpt lat="48.60308" lon="1.70175">
        <ele>142</ele>
        <time>2024-05-27T07:53:55.654Z</time>
      </trkpt>
      <trkpt lat="48.60306" lon="1.70181">
        <ele>145</ele>
        <time>2024-05-27T07:54:00.144Z</time>
      </trkpt>
      <trkpt lat="48.60302" lon="1.70186">
        <ele>145</ele>
        <time>2024-05-27T07:54:04.493Z</time>
      </trkpt>
      <trkpt lat="48.60299" lon="1.70189">
        <ele>145</ele>
        <time>2024-05-27T07:54:08.563Z</time>
      </trkpt>
      <trkpt lat="48.60295" lon="1.70194">
        <ele>145</ele>
        <time>2024-05-27T07:54:12.734Z</time>
      </trkpt>
      <trkpt lat="48.60291" lon="1.70201">
        <ele>137</ele>
        <time>2024-05-27T07:54:17.128Z</time>
      </trkpt>
      <trkpt lat="48.6029" lon="1.70207">
        <ele>137</ele>
        <time>2024-05-27T07:54:21.144Z</time>
      </trkpt>
      <trkpt lat="48.60287" lon="1.70214">
        <ele>139</ele>
        <time>2024-05-27T07:54:25.668Z</time>
      </trkpt>
      <trkpt lat="48.60284" lon="1.70221">
        <ele>139</ele>
        <time>2024-05-27T07:54:30.144Z</time>
      </trkpt>
      <trkpt lat="48.60279" lon="1.70226">
        <ele>139</ele>
        <time>2024-05-27T07:54:34.533Z</time>
      </trkpt>
      <trkpt lat="48.60275" lon="1.70232">
        <ele>139</ele>
        <time>2024-05-27T07:54:39.131Z</time>
      </trkpt>
      <trkpt lat="48.60272" lon="1.70236">
        <ele>143</ele>
        <time>2024-05-27T07:54:43.144Z</time>
      </trkpt>
      <trkpt lat="48.60268" lon="1.70241">
        <ele>143</ele>
        <time>2024-05-27T07:54:47.670Z</time>
      </trkpt>
      <trkpt lat="48.60265" lon="1.70247">
        <ele>143</ele>
        <time>2024-05-27T07:54:52.144Z</time>
      </trkpt>
      <trkpt lat="48.60261" lon="1.70252">
        <ele>134</ele>
        <time>2024-05-27T07:54:56.476Z</time>
      </trkpt>
      <trkpt lat="48.60257" lon="1.70257">
        <ele>134</ele>
        <time>2024-05-27T07:55:01.091Z</time>
      </trkpt>
      <trkpt lat="48.60254" lon="1.70263">
        <ele>134</ele>
        <time>2024-05-27T07:55:05.144Z</time>
      </trkpt>
      <trkpt lat="48.60249" lon="1.70269">
        <ele>139</ele>
        <time>2024-05-27T07:55:10.093Z</time>
      </trkpt>
      <trkpt lat="48.60245" lon="1.70274">
        <ele>139</ele>
        <time>2024-05-27T07:55:14.144Z</time>
      </trkpt>
      <trkpt lat="48.6024" lon="1.70277">
        <ele>139</ele>
        <time>2024-05-27T07:55:19.144Z</time>
      </trkpt>
      <trkpt lat="48.60236" lon="1.70284">
        <ele>139</ele>
        <time>2024-05-27T07:55:23.810Z</time>
      </trkpt>
      <trkpt lat="48.60233" lon="1.70293">
        <ele>136</ele>
        <time>2024-05-27T07:55:27.974Z</time>
      </trkpt>
      <trkpt lat="48.6023" lon="1.70299">
        <ele>136</ele>
        <time>2024-05-27T07:55:32.069Z</time>
      </trkpt>
      <trkpt lat="48.60227" lon="1.70301">
        <ele>136</ele>
        <time>2024-05-27T07:55:36.530Z</time>
      </trkpt>
      <trkpt lat="48.60225" lon="1.70302">
        <ele>136</ele>
        <time>2024-05-27T07:55:41.034Z</time>
      </trkpt>
      <trkpt lat="48.60225" lon="1.703">
        <ele>136</ele>
        <time>2024-05-27T07:55:45.412Z</time>
      </trkpt>
      <trkpt lat="48.6022" lon="1.70296">
        <ele>136</ele>
        <time>2024-05-27T07:55:50.144Z</time>
      </trkpt>
      <trkpt lat="48.60214" lon="1.70293">
        <ele>136</ele>
        <time>2024-05-27T07:55:54.592Z</time>
      </trkpt>
      <trkpt lat="48.60211" lon="1.7029">
        <ele>131</ele>
        <time>2024-05-27T07:55:58.926Z</time>
      </trkpt>
      <trkpt lat="48.60207" lon="1.70288">
        <ele>126</ele>
        <time>2024-05-27T07:56:03.144Z</time>
      </trkpt>
      <trkpt lat="48.60205" lon="1.70287">
        <ele>126</ele>
        <time>2024-05-27T07:56:07.611Z</time>
      </trkpt>
      <trkpt lat="48.60201" lon="1.70287">
        <ele>126</ele>
        <time>2024-05-27T07:56:12.029Z</time>
      </trkpt>
      <trkpt lat="48.60197" lon="1.70285">
        <ele>126</ele>
        <time>2024-05-27T07:56:16.593Z</time>
      </trkpt>
      <trkpt lat="48.60192" lon="1.70282">
        <ele>126</ele>
        <time>2024-05-27T07:56:21.030Z</time>
      </trkpt>
      <trkpt lat="48.60187" lon="1.70279">
        <ele>126</ele>
        <time>2024-05-27T07:56:25.475Z</time>
      </trkpt>
      <trkpt lat="48.60181" lon="1.70276">
        <ele>126</ele>
        <time>2024-05-27T07:56:30.144Z</time>
      </trkpt>
      <trkpt lat="48.60179" lon="1.7028">
        <ele>123</ele>
        <time>2024-05-27T07:56:34.433Z</time>
      </trkpt>
      <trkpt lat="48.60174" lon="1.70279">
        <ele>123</ele>
        <time>2024-05-27T07:56:38.716Z</time>
      </trkpt>
      <trkpt lat="48.6017" lon="1.70279">
        <ele>123</ele>
        <time>2024-05-27T07:56:42.734Z</time>
      </trkpt>
      <trkpt lat="48.60166" lon="1.70281">
        <ele>123</ele>
        <time>2024-05-27T07:56:47.033Z</time>
      </trkpt>
      <trkpt lat="48.60162" lon="1.70285">
        <ele>123</ele>
        <time>2024-05-27T07:56:51.144Z</time>
      </trkpt>
      <trkpt lat="48.60156" lon="1.70286">
        <ele>123</ele>
        <time>2024-05-27T07:56:55.872Z</time>
      </trkpt>
      <trkpt lat="48.60152" lon="1.70286">
        <ele>122</ele>
        <time>2024-05-27T07:57:00.144Z</time>
      </trkpt>
      <trkpt lat="48.6015" lon="1.70295">
        <ele>123</ele>
        <time>2024-05-27T07:57:05.143Z</time>
      </trkpt>
      <trkpt lat="48.6015" lon="1.70303">
        <ele>123</ele>
        <time>2024-05-27T07:57:09.855Z</time>
      </trkpt>
      <trkpt lat="48.60149" lon="1.70311">
        <ele>123</ele>
        <time>2024-05-27T07:57:13.873Z</time>
      </trkpt>
      <trkpt lat="48.60146" lon="1.70319">
        <ele>123</ele>
        <time>2024-05-27T07:57:18.143Z</time>
      </trkpt>
      <trkpt lat="48.60145" lon="1.70318">
        <ele>123</ele>
        <time>2024-05-27T07:57:23.142Z</time>
      </trkpt>
      <trkpt lat="48.60141" lon="1.70302">
        <ele>123</ele>
        <time>2024-05-27T07:57:42.977Z</time>
      </trkpt>
      <trkpt lat="48.6014" lon="1.70297">
        <ele>123</ele>
        <time>2024-05-27T07:57:47.143Z</time>
      </trkpt>
      <trkpt lat="48.60136" lon="1.70291">
        <ele>122</ele>
        <time>2024-05-27T07:57:51.473Z</time>
      </trkpt>
      <trkpt lat="48.60131" lon="1.70287">
        <ele>122</ele>
        <time>2024-05-27T07:57:55.959Z</time>
      </trkpt>
      <trkpt lat="48.6013" lon="1.70284">
        <ele>122</ele>
        <time>2024-05-27T07:58:00.142Z</time>
      </trkpt>
      <trkpt lat="48.60131" lon="1.70279">
        <ele>122</ele>
        <time>2024-05-27T07:58:05.142Z</time>
      </trkpt>
      <trkpt lat="48.60129" lon="1.70272">
        <ele>122</ele>
        <time>2024-05-27T07:58:09.840Z</time>
      </trkpt>
      <trkpt lat="48.60123" lon="1.70269">
        <ele>122</ele>
        <time>2024-05-27T07:58:14.143Z</time>
      </trkpt>
      <trkpt lat="48.60119" lon="1.70265">
        <ele>122</ele>
        <time>2024-05-27T07:58:18.336Z</time>
      </trkpt>
      <trkpt lat="48.60112" lon="1.70261">
        <ele>121</ele>
        <time>2024-05-27T07:58:23.143Z</time>
      </trkpt>
      <trkpt lat="48.60107" lon="1.70257">
        <ele>121</ele>
        <time>2024-05-27T07:58:27.143Z</time>
      </trkpt>
      <trkpt lat="48.60102" lon="1.70254">
        <ele>121</ele>
        <time>2024-05-27T07:58:31.243Z</time>
      </trkpt>
      <trkpt lat="48.60104" lon="1.70245">
        <ele>121</ele>
        <time>2024-05-27T07:58:36.143Z</time>
      </trkpt>
      <trkpt lat="48.60101" lon="1.70243">
        <ele>121</ele>
        <time>2024-05-27T07:58:40.515Z</time>
      </trkpt>
      <trkpt lat="48.60095" lon="1.70244">
        <ele>122</ele>
        <time>2024-05-27T07:58:45.143Z</time>
      </trkpt>
      <trkpt lat="48.60089" lon="1.70245">
        <ele>122</ele>
        <time>2024-05-27T07:58:49.143Z</time>
      </trkpt>
      <trkpt lat="48.60081" lon="1.70239">
        <ele>122</ele>
        <time>2024-05-27T07:58:53.830Z</time>
      </trkpt>
      <trkpt lat="48.60075" lon="1.70232">
        <ele>122</ele>
        <time>2024-05-27T07:58:58.076Z</time>
      </trkpt>
      <trkpt lat="48.60069" lon="1.70227">
        <ele>124</ele>
        <time>2024-05-27T07:59:02.143Z</time>
      </trkpt>
      <trkpt lat="48.60064" lon="1.70224">
        <ele>124</ele>
        <time>2024-05-27T07:59:06.692Z</time>
      </trkpt>
      <trkpt lat="48.6006" lon="1.7022">
        <ele>124</ele>
        <time>2024-05-27T07:59:11.214Z</time>
      </trkpt>
      <trkpt lat="48.60053" lon="1.70219">
        <ele>124</ele>
        <time>2024-05-27T07:59:16.143Z</time>
      </trkpt>
      <trkpt lat="48.60048" lon="1.70223">
        <ele>124</ele>
        <time>2024-05-27T07:59:21.113Z</time>
      </trkpt>
      <trkpt lat="48.60043" lon="1.70229">
        <ele>124</ele>
        <time>2024-05-27T07:59:26.142Z</time>
      </trkpt>
      <trkpt lat="48.60038" lon="1.70232">
        <ele>126</ele>
        <time>2024-05-27T07:59:30.968Z</time>
      </trkpt>
      <trkpt lat="48.60033" lon="1.70236">
        <ele>126</ele>
        <time>2024-05-27T07:59:35.143Z</time>
      </trkpt>
      <trkpt lat="48.60029" lon="1.70241">
        <ele>125</ele>
        <time>2024-05-27T07:59:40.055Z</time>
      </trkpt>
      <trkpt lat="48.60025" lon="1.70245">
        <ele>125</ele>
        <time>2024-05-27T07:59:44.143Z</time>
      </trkpt>
      <trkpt lat="48.60021" lon="1.70253">
        <ele>125</ele>
        <time>2024-05-27T07:59:49.143Z</time>
      </trkpt>
      <trkpt lat="48.60016" lon="1.70259">
        <ele>125</ele>
        <time>2024-05-27T07:59:53.911Z</time>
      </trkpt>
      <trkpt lat="48.60013" lon="1.70262">
        <ele>127</ele>
        <time>2024-05-27T07:59:58.143Z</time>
      </trkpt>
      <trkpt lat="48.60014" lon="1.70267">
        <ele>124</ele>
        <time>2024-05-27T08:00:03.033Z</time>
      </trkpt>
      <trkpt lat="48.60019" lon="1.70269">
        <ele>124</ele>
        <time>2024-05-27T08:00:07.265Z</time>
      </trkpt>
      <trkpt lat="48.60024" lon="1.70274">
        <ele>124</ele>
        <time>2024-05-27T08:00:11.855Z</time>
      </trkpt>
      <trkpt lat="48.60026" lon="1.70281">
        <ele>124</ele>
        <time>2024-05-27T08:00:16.143Z</time>
      </trkpt>
      <trkpt lat="48.60027" lon="1.70281">
        <ele>124</ele>
        <time>2024-05-27T08:00:16.949Z</time>
      </trkpt>
      <trkpt lat="48.60033" lon="1.70286">
        <ele>124</ele>
        <time>2024-05-27T08:00:26.143Z</time>
      </trkpt>
      <trkpt lat="48.60039" lon="1.70291">
        <ele>124</ele>
        <time>2024-05-27T08:00:30.700Z</time>
      </trkpt>
      <trkpt lat="48.60043" lon="1.70299">
        <ele>123</ele>
        <time>2024-05-27T08:00:35.143Z</time>
      </trkpt>
      <trkpt lat="48.60048" lon="1.70307">
        <ele>123</ele>
        <time>2024-05-27T08:00:40.009Z</time>
      </trkpt>
      <trkpt lat="48.60051" lon="1.70314">
        <ele>123</ele>
        <time>2024-05-27T08:00:44.395Z</time>
      </trkpt>
      <trkpt lat="48.60055" lon="1.7032">
        <ele>123</ele>
        <time>2024-05-27T08:00:48.811Z</time>
      </trkpt>
      <trkpt lat="48.60059" lon="1.70326">
        <ele>123</ele>
        <time>2024-05-27T08:00:53.163Z</time>
      </trkpt>
      <trkpt lat="48.60056" lon="1.70333">
        <ele>123</ele>
        <time>2024-05-27T08:00:57.046Z</time>
      </trkpt>
      <trkpt lat="48.6005" lon="1.70339">
        <ele>123</ele>
        <time>2024-05-27T08:01:06.143Z</time>
      </trkpt>
      <trkpt lat="48.60049" lon="1.70343">
        <ele>123</ele>
        <time>2024-05-27T08:01:11.143Z</time>
      </trkpt>
      <trkpt lat="48.60045" lon="1.70348">
        <ele>124</ele>
        <time>2024-05-27T08:02:26.143Z</time>
      </trkpt>
      <trkpt lat="48.60043" lon="1.70349">
        <ele>124</ele>
        <time>2024-05-27T08:02:31.143Z</time>
      </trkpt>
      <trkpt lat="48.60043" lon="1.70349">
        <ele>124</ele>
        <time>2024-05-27T08:02:35.143Z</time>
      </trkpt>
      <trkpt lat="48.60042" lon="1.70349">
        <ele>124</ele>
        <time>2024-05-27T08:02:39.143Z</time>
      </trkpt>
      <trkpt lat="48.60041" lon="1.70348">
        <ele>124</ele>
        <time>2024-05-27T08:02:43.143Z</time>
      </trkpt>
      <trkpt lat="48.6004" lon="1.70352">
        <ele>124</ele>
        <time>2024-05-27T08:02:47.663Z</time>
      </trkpt>
      <trkpt lat="48.60034" lon="1.70359">
        <ele>124</ele>
        <time>2024-05-27T08:02:52.143Z</time>
      </trkpt>
      <trkpt lat="48.60026" lon="1.70367">
        <ele>124</ele>
        <time>2024-05-27T08:02:57.113Z</time>
      </trkpt>
      <trkpt lat="48.60022" lon="1.70376">
        <ele>125</ele>
        <time>2024-05-27T08:03:01.579Z</time>
      </trkpt>
      <trkpt lat="48.60018" lon="1.70382">
        <ele>125</ele>
        <time>2024-05-27T08:03:05.876Z</time>
      </trkpt>
      <trkpt lat="48.60013" lon="1.70389">
        <ele>125</ele>
        <time>2024-05-27T08:03:10.195Z</time>
      </trkpt>
      <trkpt lat="48.6001" lon="1.70397">
        <ele>125</ele>
        <time>2024-05-27T08:03:15.014Z</time>
      </trkpt>
      <trkpt lat="48.60009" lon="1.70405">
        <ele>126</ele>
        <time>2024-05-27T08:03:19.143Z</time>
      </trkpt>
      <trkpt lat="48.60006" lon="1.70413">
        <ele>126</ele>
        <time>2024-05-27T08:03:23.853Z</time>
      </trkpt>
      <trkpt lat="48.60001" lon="1.70418">
        <ele>126</ele>
        <time>2024-05-27T08:03:27.994Z</time>
      </trkpt>
      <trkpt lat="48.59997" lon="1.70424">
        <ele>126</ele>
        <time>2024-05-27T08:03:32.190Z</time>
      </trkpt>
      <trkpt lat="48.59993" lon="1.70432">
        <ele>127</ele>
        <time>2024-05-27T08:03:36.569Z</time>
      </trkpt>
      <trkpt lat="48.59988" lon="1.70437">
        <ele>127</ele>
        <time>2024-05-27T08:03:41.143Z</time>
      </trkpt>
      <trkpt lat="48.59985" lon="1.70446">
        <ele>126</ele>
        <time>2024-05-27T08:03:45.990Z</time>
      </trkpt>
      <trkpt lat="48.59981" lon="1.70452">
        <ele>126</ele>
        <time>2024-05-27T08:03:50.143Z</time>
      </trkpt>
      <trkpt lat="48.59977" lon="1.70459">
        <ele>127</ele>
        <time>2024-05-27T08:03:55.143Z</time>
      </trkpt>
      <trkpt lat="48.59972" lon="1.70465">
        <ele>127</ele>
        <time>2024-05-27T08:03:59.711Z</time>
      </trkpt>
      <trkpt lat="48.59967" lon="1.70471">
        <ele>127</ele>
        <time>2024-05-27T08:04:04.071Z</time>
      </trkpt>
      <trkpt lat="48.59963" lon="1.70478">
        <ele>127</ele>
        <time>2024-05-27T08:04:08.143Z</time>
      </trkpt>
      <trkpt lat="48.5996" lon="1.70485">
        <ele>127</ele>
        <time>2024-05-27T08:04:12.673Z</time>
      </trkpt>
      <trkpt lat="48.59957" lon="1.70493">
        <ele>126</ele>
        <time>2024-05-27T08:04:17.142Z</time>
      </trkpt>
      <trkpt lat="48.59952" lon="1.70502">
        <ele>126</ele>
        <time>2024-05-27T08:04:22.143Z</time>
      </trkpt>
      <trkpt lat="48.59951" lon="1.70509">
        <ele>126</ele>
        <time>2024-05-27T08:04:26.837Z</time>
      </trkpt>
      <trkpt lat="48.5995" lon="1.70519">
        <ele>126</ele>
        <time>2024-05-27T08:04:31.143Z</time>
      </trkpt>
      <trkpt lat="48.59949" lon="1.70528">
        <ele>126</ele>
        <time>2024-05-27T08:04:36.128Z</time>
      </trkpt>
      <trkpt lat="48.59949" lon="1.7054">
        <ele>126</ele>
        <time>2024-05-27T08:04:40.873Z</time>
      </trkpt>
      <trkpt lat="48.59947" lon="1.70548">
        <ele>127</ele>
        <time>2024-05-27T08:04:45.143Z</time>
      </trkpt>
      <trkpt lat="48.59947" lon="1.70559">
        <ele>127</ele>
        <time>2024-05-27T08:04:50.011Z</time>
      </trkpt>
      <trkpt lat="48.59946" lon="1.70567">
        <ele>127</ele>
        <time>2024-05-27T08:04:54.141Z</time>
      </trkpt>
      <trkpt lat="48.59945" lon="1.70578">
        <ele>127</ele>
        <time>2024-05-27T08:04:59.142Z</time>
      </trkpt>
      <trkpt lat="48.59944" lon="1.70587">
        <ele>127</ele>
        <time>2024-05-27T08:05:03.290Z</time>
      </trkpt>
      <trkpt lat="48.59947" lon="1.70594">
        <ele>127</ele>
        <time>2024-05-27T08:05:07.674Z</time>
      </trkpt>
      <trkpt lat="48.59946" lon="1.70602">
        <ele>127</ele>
        <time>2024-05-27T08:05:11.989Z</time>
      </trkpt>
      <trkpt lat="48.59941" lon="1.7061">
        <ele>127</ele>
        <time>2024-05-27T08:05:16.375Z</time>
      </trkpt>
      <trkpt lat="48.59937" lon="1.70617">
        <ele>127</ele>
        <time>2024-05-27T08:05:20.692Z</time>
      </trkpt>
      <trkpt lat="48.59934" lon="1.70624">
        <ele>127</ele>
        <time>2024-05-27T08:05:24.831Z</time>
      </trkpt>
      <trkpt lat="48.59932" lon="1.70633">
        <ele>128</ele>
        <time>2024-05-27T08:05:29.131Z</time>
      </trkpt>
      <trkpt lat="48.5993" lon="1.70641">
        <ele>125</ele>
        <time>2024-05-27T08:05:33.512Z</time>
      </trkpt>
      <trkpt lat="48.59928" lon="1.70649">
        <ele>125</ele>
        <time>2024-05-27T08:05:37.791Z</time>
      </trkpt>
      <trkpt lat="48.59924" lon="1.70656">
        <ele>126</ele>
        <time>2024-05-27T08:05:42.152Z</time>
      </trkpt>
      <trkpt lat="48.59921" lon="1.70664">
        <ele>126</ele>
        <time>2024-05-27T08:05:46.675Z</time>
      </trkpt>
      <trkpt lat="48.5992" lon="1.70673">
        <ele>126</ele>
        <time>2024-05-27T08:05:50.974Z</time>
      </trkpt>
      <trkpt lat="48.59915" lon="1.70679">
        <ele>126</ele>
        <time>2024-05-27T08:05:55.142Z</time>
      </trkpt>
      <trkpt lat="48.59917" lon="1.70689">
        <ele>126</ele>
        <time>2024-05-27T08:06:00.142Z</time>
      </trkpt>
      <trkpt lat="48.59921" lon="1.70697">
        <ele>126</ele>
        <time>2024-05-27T08:06:04.489Z</time>
      </trkpt>
      <trkpt lat="48.59925" lon="1.70704">
        <ele>126</ele>
        <time>2024-05-27T08:06:08.799Z</time>
      </trkpt>
      <trkpt lat="48.59927" lon="1.70713">
        <ele>126</ele>
        <time>2024-05-27T08:06:13.142Z</time>
      </trkpt>
      <trkpt lat="48.59927" lon="1.70722">
        <ele>126</ele>
        <time>2024-05-27T08:06:18.142Z</time>
      </trkpt>
      <trkpt lat="48.59926" lon="1.7073">
        <ele>126</ele>
        <time>2024-05-27T08:06:22.433Z</time>
      </trkpt>
      <trkpt lat="48.59923" lon="1.70741">
        <ele>125</ele>
        <time>2024-05-27T08:06:27.142Z</time>
      </trkpt>
      <trkpt lat="48.59923" lon="1.70752">
        <ele>125</ele>
        <time>2024-05-27T08:06:31.904Z</time>
      </trkpt>
      <trkpt lat="48.59926" lon="1.7076">
        <ele>125</ele>
        <time>2024-05-27T08:06:36.152Z</time>
      </trkpt>
      <trkpt lat="48.5993" lon="1.70766">
        <ele>125</ele>
        <time>2024-05-27T08:06:40.760Z</time>
      </trkpt>
      <trkpt lat="48.59932" lon="1.70774">
        <ele>127</ele>
        <time>2024-05-27T08:06:44.810Z</time>
      </trkpt>
      <trkpt lat="48.59933" lon="1.7078">
        <ele>127</ele>
        <time>2024-05-27T08:06:48.900Z</time>
      </trkpt>
      <trkpt lat="48.59932" lon="1.70787">
        <ele>127</ele>
        <time>2024-05-27T08:06:52.977Z</time>
      </trkpt>
      <trkpt lat="48.59931" lon="1.70793">
        <ele>126</ele>
        <time>2024-05-27T08:06:57.007Z</time>
      </trkpt>
      <trkpt lat="48.59929" lon="1.70801">
        <ele>126</ele>
        <time>2024-05-27T08:07:01.141Z</time>
      </trkpt>
      <trkpt lat="48.59928" lon="1.70808">
        <ele>126</ele>
        <time>2024-05-27T08:07:05.142Z</time>
      </trkpt>
      <trkpt lat="48.59926" lon="1.70814">
        <ele>126</ele>
        <time>2024-05-27T08:07:10.100Z</time>
      </trkpt>
      <trkpt lat="48.59923" lon="1.70819">
        <ele>126</ele>
        <time>2024-05-27T08:07:14.142Z</time>
      </trkpt>
      <trkpt lat="48.5992" lon="1.70827">
        <ele>126</ele>
        <time>2024-05-27T08:07:18.957Z</time>
      </trkpt>
      <trkpt lat="48.59921" lon="1.70834">
        <ele>126</ele>
        <time>2024-05-27T08:07:23.146Z</time>
      </trkpt>
      <trkpt lat="48.59922" lon="1.70841">
        <ele>126</ele>
        <time>2024-05-27T08:07:27.379Z</time>
      </trkpt>
      <trkpt lat="48.59922" lon="1.7085">
        <ele>128</ele>
        <time>2024-05-27T08:07:31.900Z</time>
      </trkpt>
      <trkpt lat="48.59921" lon="1.70859">
        <ele>128</ele>
        <time>2024-05-27T08:07:36.142Z</time>
      </trkpt>
      <trkpt lat="48.59919" lon="1.70866">
        <ele>128</ele>
        <time>2024-05-27T08:07:40.380Z</time>
      </trkpt>
      <trkpt lat="48.59917" lon="1.70871">
        <ele>128</ele>
        <time>2024-05-27T08:07:44.339Z</time>
      </trkpt>
      <trkpt lat="48.59914" lon="1.7088">
        <ele>129</ele>
        <time>2024-05-27T08:07:49.142Z</time>
      </trkpt>
      <trkpt lat="48.59913" lon="1.70888">
        <ele>129</ele>
        <time>2024-05-27T08:07:53.281Z</time>
      </trkpt>
      <trkpt lat="48.59914" lon="1.70896">
        <ele>129</ele>
        <time>2024-05-27T08:07:57.656Z</time>
      </trkpt>
      <trkpt lat="48.59915" lon="1.70903">
        <ele>130</ele>
        <time>2024-05-27T08:08:01.897Z</time>
      </trkpt>
      <trkpt lat="48.59916" lon="1.70912">
        <ele>130</ele>
        <time>2024-05-27T08:08:06.540Z</time>
      </trkpt>
      <trkpt lat="48.59915" lon="1.7092">
        <ele>130</ele>
        <time>2024-05-27T08:08:11.142Z</time>
      </trkpt>
      <trkpt lat="48.59912" lon="1.70927">
        <ele>130</ele>
        <time>2024-05-27T08:08:16.141Z</time>
      </trkpt>
      <trkpt lat="48.59914" lon="1.70934">
        <ele>130</ele>
        <time>2024-05-27T08:08:20.880Z</time>
      </trkpt>
      <trkpt lat="48.59918" lon="1.7094">
        <ele>130</ele>
        <time>2024-05-27T08:08:25.136Z</time>
      </trkpt>
      <trkpt lat="48.59921" lon="1.70948">
        <ele>130</ele>
        <time>2024-05-27T08:08:29.897Z</time>
      </trkpt>
      <trkpt lat="48.59924" lon="1.70955">
        <ele>130</ele>
        <time>2024-05-27T08:08:34.142Z</time>
      </trkpt>
      <trkpt lat="48.59927" lon="1.70961">
        <ele>130</ele>
        <time>2024-05-27T08:08:38.292Z</time>
      </trkpt>
      <trkpt lat="48.59932" lon="1.70967">
        <ele>130</ele>
        <time>2024-05-27T08:08:42.524Z</time>
      </trkpt>
      <trkpt lat="48.59936" lon="1.7097">
        <ele>130</ele>
        <time>2024-05-27T08:08:46.840Z</time>
      </trkpt>
      <trkpt lat="48.59941" lon="1.70973">
        <ele>130</ele>
        <time>2024-05-27T08:08:51.139Z</time>
      </trkpt>
      <trkpt lat="48.59944" lon="1.70981">
        <ele>130</ele>
        <time>2024-05-27T08:08:55.765Z</time>
      </trkpt>
      <trkpt lat="48.59944" lon="1.70999">
        <ele>131</ele>
        <time>2024-05-27T08:09:32.142Z</time>
      </trkpt>
      <trkpt lat="48.59944" lon="1.71">
        <ele>131</ele>
        <time>2024-05-27T08:09:40.142Z</time>
      </trkpt>
      <trkpt lat="48.59945" lon="1.71004">
        <ele>131</ele>
        <time>2024-05-27T08:09:44.455Z</time>
      </trkpt>
      <trkpt lat="48.59944" lon="1.71012">
        <ele>131</ele>
        <time>2024-05-27T08:09:48.799Z</time>
      </trkpt>
      <trkpt lat="48.59941" lon="1.7102">
        <ele>132</ele>
        <time>2024-05-27T08:09:53.152Z</time>
      </trkpt>
      <trkpt lat="48.59938" lon="1.71027">
        <ele>132</ele>
        <time>2024-05-27T08:09:57.142Z</time>
      </trkpt>
      <trkpt lat="48.59935" lon="1.71034">
        <ele>132</ele>
        <time>2024-05-27T08:10:01.819Z</time>
      </trkpt>
      <trkpt lat="48.59932" lon="1.71041">
        <ele>132</ele>
        <time>2024-05-27T08:10:06.142Z</time>
      </trkpt>
      <trkpt lat="48.59931" lon="1.71047">
        <ele>134</ele>
        <time>2024-05-27T08:10:10.142Z</time>
      </trkpt>
      <trkpt lat="48.59929" lon="1.71055">
        <ele>131</ele>
        <time>2024-05-27T08:10:14.603Z</time>
      </trkpt>
      <trkpt lat="48.59927" lon="1.71062">
        <ele>131</ele>
        <time>2024-05-27T08:10:18.825Z</time>
      </trkpt>
      <trkpt lat="48.59926" lon="1.7107">
        <ele>132</ele>
        <time>2024-05-27T08:10:23.142Z</time>
      </trkpt>
      <trkpt lat="48.59924" lon="1.71079">
        <ele>132</ele>
        <time>2024-05-27T08:10:27.525Z</time>
      </trkpt>
      <trkpt lat="48.59923" lon="1.71088">
        <ele>132</ele>
        <time>2024-05-27T08:10:31.919Z</time>
      </trkpt>
      <trkpt lat="48.59919" lon="1.71099">
        <ele>133</ele>
        <time>2024-05-27T08:10:36.423Z</time>
      </trkpt>
      <trkpt lat="48.59917" lon="1.71106">
        <ele>133</ele>
        <time>2024-05-27T08:10:40.904Z</time>
      </trkpt>
      <trkpt lat="48.59914" lon="1.71114">
        <ele>133</ele>
        <time>2024-05-27T08:10:45.425Z</time>
      </trkpt>
      <trkpt lat="48.5991" lon="1.71122">
        <ele>133</ele>
        <time>2024-05-27T08:10:50.142Z</time>
      </trkpt>
      <trkpt lat="48.59908" lon="1.7113">
        <ele>133</ele>
        <time>2024-05-27T08:10:54.773Z</time>
      </trkpt>
      <trkpt lat="48.59905" lon="1.71135">
        <ele>133</ele>
        <time>2024-05-27T08:10:58.844Z</time>
      </trkpt>
      <trkpt lat="48.59902" lon="1.7114">
        <ele>130</ele>
        <time>2024-05-27T08:11:02.909Z</time>
      </trkpt>
      <trkpt lat="48.59901" lon="1.71149">
        <ele>130</ele>
        <time>2024-05-27T08:11:07.142Z</time>
      </trkpt>
      <trkpt lat="48.59897" lon="1.71158">
        <ele>131</ele>
        <time>2024-05-27T08:11:11.691Z</time>
      </trkpt>
      <trkpt lat="48.59894" lon="1.71165">
        <ele>131</ele>
        <time>2024-05-27T08:11:16.142Z</time>
      </trkpt>
      <trkpt lat="48.59891" lon="1.71174">
        <ele>131</ele>
        <time>2024-05-27T08:11:21.141Z</time>
      </trkpt>
      <trkpt lat="48.59888" lon="1.71181">
        <ele>133</ele>
        <time>2024-05-27T08:11:25.584Z</time>
      </trkpt>
      <trkpt lat="48.59885" lon="1.71188">
        <ele>133</ele>
        <time>2024-05-27T08:11:30.045Z</time>
      </trkpt>
      <trkpt lat="48.59881" lon="1.71193">
        <ele>133</ele>
        <time>2024-05-27T08:11:34.722Z</time>
      </trkpt>
      <trkpt lat="48.59877" lon="1.71193">
        <ele>133</ele>
        <time>2024-05-27T08:11:39.142Z</time>
      </trkpt>
      <trkpt lat="48.59873" lon="1.71192">
        <ele>131</ele>
        <time>2024-05-27T08:11:43.708Z</time>
      </trkpt>
      <trkpt lat="48.59867" lon="1.71195">
        <ele>131</ele>
        <time>2024-05-27T08:11:48.021Z</time>
      </trkpt>
      <trkpt lat="48.59861" lon="1.71196">
        <ele>131</ele>
        <time>2024-05-27T08:11:52.483Z</time>
      </trkpt>
      <trkpt lat="48.59856" lon="1.71199">
        <ele>131</ele>
        <time>2024-05-27T08:11:56.664Z</time>
      </trkpt>
      <trkpt lat="48.59851" lon="1.71202">
        <ele>131</ele>
        <time>2024-05-27T08:12:00.923Z</time>
      </trkpt>
      <trkpt lat="48.59846" lon="1.71203">
        <ele>129</ele>
        <time>2024-05-27T08:12:05.142Z</time>
      </trkpt>
      <trkpt lat="48.5984" lon="1.71203">
        <ele>129</ele>
        <time>2024-05-27T08:12:10.142Z</time>
      </trkpt>
      <trkpt lat="48.59838" lon="1.71205">
        <ele>129</ele>
        <time>2024-05-27T08:12:12.983Z</time>
      </trkpt>
      <trkpt lat="48.59831" lon="1.71216">
        <ele>130</ele>
        <time>2024-05-27T08:12:22.141Z</time>
      </trkpt>
      <trkpt lat="48.59823" lon="1.71217">
        <ele>130</ele>
        <time>2024-05-27T08:12:27.142Z</time>
      </trkpt>
      <trkpt lat="48.59817" lon="1.71222">
        <ele>129</ele>
        <time>2024-05-27T08:12:32.081Z</time>
      </trkpt>
      <trkpt lat="48.59813" lon="1.71226">
        <ele>129</ele>
        <time>2024-05-27T08:12:36.142Z</time>
      </trkpt>
      <trkpt lat="48.59814" lon="1.71226">
        <ele>129</ele>
        <time>2024-05-27T08:12:46.142Z</time>
      </trkpt>
      <trkpt lat="48.59814" lon="1.71226">
        <ele>129</ele>
        <time>2024-05-27T08:12:50.142Z</time>
      </trkpt>
      <trkpt lat="48.59814" lon="1.71226">
        <ele>129</ele>
        <time>2024-05-27T08:12:55.142Z</time>
      </trkpt>
      <trkpt lat="48.59809" lon="1.71227">
        <ele>129</ele>
        <time>2024-05-27T08:12:59.803Z</time>
      </trkpt>
      <trkpt lat="48.59802" lon="1.7123">
        <ele>129</ele>
        <time>2024-05-27T08:13:04.142Z</time>
      </trkpt>
      <trkpt lat="48.59792" lon="1.71237">
        <ele>128</ele>
        <time>2024-05-27T08:13:23.125Z</time>
      </trkpt>
      <trkpt lat="48.59788" lon="1.71239">
        <ele>127</ele>
        <time>2024-05-27T08:13:27.142Z</time>
      </trkpt>
      <trkpt lat="48.59774" lon="1.71248">
        <ele>127</ele>
        <time>2024-05-27T08:13:31.780Z</time>
      </trkpt>
      <trkpt lat="48.59768" lon="1.71253">
        <ele>127</ele>
        <time>2024-05-27T08:13:35.988Z</time>
      </trkpt>
      <trkpt lat="48.59761" lon="1.71256">
        <ele>129</ele>
        <time>2024-05-27T08:13:41.142Z</time>
      </trkpt>
      <trkpt lat="48.59754" lon="1.71258">
        <ele>129</ele>
        <time>2024-05-27T08:13:45.142Z</time>
      </trkpt>
      <trkpt lat="48.59748" lon="1.71263">
        <ele>129</ele>
        <time>2024-05-27T08:13:49.780Z</time>
      </trkpt>
      <trkpt lat="48.59742" lon="1.71268">
        <ele>128</ele>
        <time>2024-05-27T08:13:54.086Z</time>
      </trkpt>
      <trkpt lat="48.59738" lon="1.71275">
        <ele>128</ele>
        <time>2024-05-27T08:13:58.124Z</time>
      </trkpt>
      <trkpt lat="48.59734" lon="1.71281">
        <ele>130</ele>
        <time>2024-05-27T08:14:02.142Z</time>
      </trkpt>
      <trkpt lat="48.59731" lon="1.7129">
        <ele>130</ele>
        <time>2024-05-27T08:14:06.861Z</time>
      </trkpt>
      <trkpt lat="48.59728" lon="1.71299">
        <ele>128</ele>
        <time>2024-05-27T08:14:11.142Z</time>
      </trkpt>
      <trkpt lat="48.59724" lon="1.71308">
        <ele>128</ele>
        <time>2024-05-27T08:14:16.142Z</time>
      </trkpt>
      <trkpt lat="48.5972" lon="1.71316">
        <ele>128</ele>
        <time>2024-05-27T08:14:20.659Z</time>
      </trkpt>
      <trkpt lat="48.59717" lon="1.71324">
        <ele>126</ele>
        <time>2024-05-27T08:14:24.805Z</time>
      </trkpt>
      <trkpt lat="48.59714" lon="1.71331">
        <ele>126</ele>
        <time>2024-05-27T08:14:29.045Z</time>
      </trkpt>
      <trkpt lat="48.59709" lon="1.71338">
        <ele>126</ele>
        <time>2024-05-27T08:14:33.142Z</time>
      </trkpt>
      <trkpt lat="48.59706" lon="1.71346">
        <ele>125</ele>
        <time>2024-05-27T08:14:37.628Z</time>
      </trkpt>
      <trkpt lat="48.59704" lon="1.71353">
        <ele>124</ele>
        <time>2024-05-27T08:14:41.868Z</time>
      </trkpt>
      <trkpt lat="48.597" lon="1.71361">
        <ele>124</ele>
        <time>2024-05-27T08:14:46.109Z</time>
      </trkpt>
      <trkpt lat="48.59697" lon="1.71368">
        <ele>124</ele>
        <time>2024-05-27T08:14:50.141Z</time>
      </trkpt>
      <trkpt lat="48.59695" lon="1.71376">
        <ele>125</ele>
        <time>2024-05-27T08:14:55.020Z</time>
      </trkpt>
      <trkpt lat="48.59692" lon="1.71385">
        <ele>125</ele>
        <time>2024-05-27T08:14:59.301Z</time>
      </trkpt>
      <trkpt lat="48.59693" lon="1.71393">
        <ele>125</ele>
        <time>2024-05-27T08:15:03.640Z</time>
      </trkpt>
      <trkpt lat="48.59695" lon="1.71402">
        <ele>125</ele>
        <time>2024-05-27T08:15:08.103Z</time>
      </trkpt>
      <trkpt lat="48.59695" lon="1.71411">
        <ele>126</ele>
        <time>2024-05-27T08:15:12.526Z</time>
      </trkpt>
      <trkpt lat="48.59693" lon="1.7142">
        <ele>126</ele>
        <time>2024-05-27T08:15:16.761Z</time>
      </trkpt>
      <trkpt lat="48.5969" lon="1.71426">
        <ele>126</ele>
        <time>2024-05-27T08:15:21.141Z</time>
      </trkpt>
      <trkpt lat="48.59688" lon="1.71433">
        <ele>127</ele>
        <time>2024-05-27T08:15:25.141Z</time>
      </trkpt>
      <trkpt lat="48.59685" lon="1.7144">
        <ele>127</ele>
        <time>2024-05-27T08:15:29.660Z</time>
      </trkpt>
      <trkpt lat="48.59683" lon="1.71448">
        <ele>127</ele>
        <time>2024-05-27T08:15:34.141Z</time>
      </trkpt>
      <trkpt lat="48.59681" lon="1.71456">
        <ele>127</ele>
        <time>2024-05-27T08:15:38.524Z</time>
      </trkpt>
      <trkpt lat="48.59677" lon="1.71463">
        <ele>126</ele>
        <time>2024-05-27T08:15:43.141Z</time>
      </trkpt>
      <trkpt lat="48.59675" lon="1.71472">
        <ele>126</ele>
        <time>2024-05-27T08:15:47.841Z</time>
      </trkpt>
      <trkpt lat="48.59671" lon="1.7148">
        <ele>126</ele>
        <time>2024-05-27T08:15:52.083Z</time>
      </trkpt>
      <trkpt lat="48.5967" lon="1.71486">
        <ele>128</ele>
        <time>2024-05-27T08:15:56.140Z</time>
      </trkpt>
      <trkpt lat="48.59668" lon="1.71497">
        <ele>128</ele>
        <time>2024-05-27T08:16:01.143Z</time>
      </trkpt>
      <trkpt lat="48.59665" lon="1.71502">
        <ele>128</ele>
        <time>2024-05-27T08:16:05.141Z</time>
      </trkpt>
      <trkpt lat="48.59663" lon="1.71509">
        <ele>128</ele>
        <time>2024-05-27T08:16:09.582Z</time>
      </trkpt>
      <trkpt lat="48.59661" lon="1.71516">
        <ele>130</ele>
        <time>2024-05-27T08:16:14.107Z</time>
      </trkpt>
      <trkpt lat="48.59661" lon="1.71522">
        <ele>130</ele>
        <time>2024-05-27T08:16:18.141Z</time>
      </trkpt>
      <trkpt lat="48.5966" lon="1.71529">
        <ele>130</ele>
        <time>2024-05-27T08:16:22.781Z</time>
      </trkpt>
      <trkpt lat="48.59657" lon="1.71538">
        <ele>130</ele>
        <time>2024-05-27T08:16:27.141Z</time>
      </trkpt>
      <trkpt lat="48.59654" lon="1.71546">
        <ele>133</ele>
        <time>2024-05-27T08:16:31.902Z</time>
      </trkpt>
      <trkpt lat="48.59652" lon="1.71552">
        <ele>129</ele>
        <time>2024-05-27T08:16:36.141Z</time>
      </trkpt>
      <trkpt lat="48.59651" lon="1.7156">
        <ele>129</ele>
        <time>2024-05-27T08:16:41.117Z</time>
      </trkpt>
      <trkpt lat="48.59649" lon="1.71567">
        <ele>129</ele>
        <time>2024-05-27T08:16:45.141Z</time>
      </trkpt>
      <trkpt lat="48.59649" lon="1.71576">
        <ele>129</ele>
        <time>2024-05-27T08:16:50.045Z</time>
      </trkpt>
      <trkpt lat="48.59646" lon="1.71585">
        <ele>129</ele>
        <time>2024-05-27T08:16:54.683Z</time>
      </trkpt>
      <trkpt lat="48.59644" lon="1.7159">
        <ele>129</ele>
        <time>2024-05-27T08:16:58.702Z</time>
      </trkpt>
      <trkpt lat="48.59643" lon="1.71598">
        <ele>129</ele>
        <time>2024-05-27T08:17:03.141Z</time>
      </trkpt>
      <trkpt lat="48.59641" lon="1.71603">
        <ele>129</ele>
        <time>2024-05-27T08:17:06.141Z</time>
      </trkpt>
      <trkpt lat="48.59636" lon="1.71605">
        <ele>129</ele>
        <time>2024-05-27T08:17:15.141Z</time>
      </trkpt>
      <trkpt lat="48.59632" lon="1.71609">
        <ele>129</ele>
        <time>2024-05-27T08:17:19.299Z</time>
      </trkpt>
      <trkpt lat="48.59626" lon="1.71609">
        <ele>129</ele>
        <time>2024-05-27T08:17:23.784Z</time>
      </trkpt>
      <trkpt lat="48.5962" lon="1.71607">
        <ele>127</ele>
        <time>2024-05-27T08:17:27.843Z</time>
      </trkpt>
      <trkpt lat="48.59615" lon="1.71609">
        <ele>127</ele>
        <time>2024-05-27T08:17:32.074Z</time>
      </trkpt>
      <trkpt lat="48.5961" lon="1.71608">
        <ele>127</ele>
        <time>2024-05-27T08:17:36.149Z</time>
      </trkpt>
      <trkpt lat="48.59604" lon="1.7161">
        <ele>127</ele>
        <time>2024-05-27T08:17:40.784Z</time>
      </trkpt>
      <trkpt lat="48.59599" lon="1.7161">
        <ele>127</ele>
        <time>2024-05-27T08:17:44.967Z</time>
      </trkpt>
      <trkpt lat="48.59594" lon="1.71614">
        <ele>126</ele>
        <time>2024-05-27T08:17:49.860Z</time>
      </trkpt>
      <trkpt lat="48.59589" lon="1.71615">
        <ele>126</ele>
        <time>2024-05-27T08:17:54.341Z</time>
      </trkpt>
      <trkpt lat="48.59583" lon="1.71615">
        <ele>126</ele>
        <time>2024-05-27T08:17:58.864Z</time>
      </trkpt>
      <trkpt lat="48.59579" lon="1.71615">
        <ele>126</ele>
        <time>2024-05-27T08:18:03.378Z</time>
      </trkpt>
      <trkpt lat="48.59573" lon="1.71616">
        <ele>126</ele>
        <time>2024-05-27T08:18:08.019Z</time>
      </trkpt>
      <trkpt lat="48.59568" lon="1.71617">
        <ele>126</ele>
        <time>2024-05-27T08:18:12.525Z</time>
      </trkpt>
      <trkpt lat="48.59562" lon="1.71618">
        <ele>126</ele>
        <time>2024-05-27T08:18:17.141Z</time>
      </trkpt>
      <trkpt lat="48.59557" lon="1.71619">
        <ele>126</ele>
        <time>2024-05-27T08:18:21.600Z</time>
      </trkpt>
      <trkpt lat="48.59549" lon="1.71618">
        <ele>126</ele>
        <time>2024-05-27T08:18:26.141Z</time>
      </trkpt>
      <trkpt lat="48.59545" lon="1.71619">
        <ele>126</ele>
        <time>2024-05-27T08:18:30.560Z</time>
      </trkpt>
      <trkpt lat="48.5954" lon="1.71619">
        <ele>126</ele>
        <time>2024-05-27T08:18:34.637Z</time>
      </trkpt>
      <trkpt lat="48.59535" lon="1.7162">
        <ele>126</ele>
        <time>2024-05-27T08:18:39.141Z</time>
      </trkpt>
      <trkpt lat="48.59534" lon="1.7162">
        <ele>126</ele>
        <time>2024-05-27T08:18:40.140Z</time>
      </trkpt>
      <trkpt lat="48.59533" lon="1.71624">
        <ele>126</ele>
        <time>2024-05-27T08:18:49.141Z</time>
      </trkpt>
      <trkpt lat="48.59527" lon="1.71628">
        <ele>129</ele>
        <time>2024-05-27T08:18:53.183Z</time>
      </trkpt>
      <trkpt lat="48.59522" lon="1.7163">
        <ele>129</ele>
        <time>2024-05-27T08:18:57.923Z</time>
      </trkpt>
      <trkpt lat="48.59519" lon="1.71639">
        <ele>129</ele>
        <time>2024-05-27T08:19:02.141Z</time>
      </trkpt>
      <trkpt lat="48.59514" lon="1.71644">
        <ele>129</ele>
        <time>2024-05-27T08:19:06.742Z</time>
      </trkpt>
      <trkpt lat="48.59508" lon="1.71646">
        <ele>129</ele>
        <time>2024-05-27T08:19:11.141Z</time>
      </trkpt>
      <trkpt lat="48.59501" lon="1.71648">
        <ele>129</ele>
        <time>2024-05-27T08:19:16.080Z</time>
      </trkpt>
      <trkpt lat="48.59496" lon="1.71649">
        <ele>129</ele>
        <time>2024-05-27T08:19:20.141Z</time>
      </trkpt>
      <trkpt lat="48.59488" lon="1.71653">
        <ele>131</ele>
        <time>2024-05-27T08:19:35.141Z</time>
      </trkpt>
      <trkpt lat="48.59486" lon="1.71656">
        <ele>131</ele>
        <time>2024-05-27T08:19:40.140Z</time>
      </trkpt>
      <trkpt lat="48.59487" lon="1.71663">
        <ele>131</ele>
        <time>2024-05-27T08:19:45.141Z</time>
      </trkpt>
      <trkpt lat="48.59488" lon="1.7167">
        <ele>131</ele>
        <time>2024-05-27T08:19:49.744Z</time>
      </trkpt>
      <trkpt lat="48.59487" lon="1.71673">
        <ele>131</ele>
        <time>2024-05-27T08:19:54.141Z</time>
      </trkpt>
      <trkpt lat="48.59487" lon="1.71678">
        <ele>131</ele>
        <time>2024-05-27T08:19:58.642Z</time>
      </trkpt>
      <trkpt lat="48.59487" lon="1.71684">
        <ele>132</ele>
        <time>2024-05-27T08:20:03.062Z</time>
      </trkpt>
      <trkpt lat="48.59487" lon="1.71691">
        <ele>132</ele>
        <time>2024-05-27T08:20:07.823Z</time>
      </trkpt>
      <trkpt lat="48.59485" lon="1.71695">
        <ele>132</ele>
        <time>2024-05-27T08:20:12.141Z</time>
      </trkpt>
      <trkpt lat="48.59483" lon="1.71699">
        <ele>132</ele>
        <time>2024-05-27T08:20:16.961Z</time>
      </trkpt>
      <trkpt lat="48.59482" lon="1.71704">
        <ele>132</ele>
        <time>2024-05-27T08:20:21.363Z</time>
      </trkpt>
      <trkpt lat="48.5948" lon="1.71707">
        <ele>132</ele>
        <time>2024-05-27T08:20:25.400Z</time>
      </trkpt>
      <trkpt lat="48.5948" lon="1.71713">
        <ele>133</ele>
        <time>2024-05-27T08:20:30.141Z</time>
      </trkpt>
      <trkpt lat="48.5948" lon="1.71719">
        <ele>133</ele>
        <time>2024-05-27T08:20:34.861Z</time>
      </trkpt>
      <trkpt lat="48.59478" lon="1.71726">
        <ele>133</ele>
        <time>2024-05-27T08:20:39Z</time>
      </trkpt>
      <trkpt lat="48.59478" lon="1.71731">
        <ele>133</ele>
        <time>2024-05-27T08:20:43.104Z</time>
      </trkpt>
      <trkpt lat="48.59476" lon="1.71738">
        <ele>134</ele>
        <time>2024-05-27T08:20:47.440Z</time>
      </trkpt>
      <trkpt lat="48.59475" lon="1.71744">
        <ele>134</ele>
        <time>2024-05-27T08:20:51.457Z</time>
      </trkpt>
      <trkpt lat="48.59475" lon="1.71752">
        <ele>134</ele>
        <time>2024-05-27T08:20:55.580Z</time>
      </trkpt>
      <trkpt lat="48.59474" lon="1.7176">
        <ele>134</ele>
        <time>2024-05-27T08:21:00.117Z</time>
      </trkpt>
      <trkpt lat="48.59473" lon="1.71768">
        <ele>134</ele>
        <time>2024-05-27T08:21:04.622Z</time>
      </trkpt>
      <trkpt lat="48.59471" lon="1.71776">
        <ele>134</ele>
        <time>2024-05-27T08:21:09.141Z</time>
      </trkpt>
      <trkpt lat="48.5947" lon="1.71785">
        <ele>134</ele>
        <time>2024-05-27T08:21:13.762Z</time>
      </trkpt>
      <trkpt lat="48.59469" lon="1.71792">
        <ele>133</ele>
        <time>2024-05-27T08:21:18.141Z</time>
      </trkpt>
      <trkpt lat="48.59468" lon="1.718">
        <ele>133</ele>
        <time>2024-05-27T08:21:22.241Z</time>
      </trkpt>
      <trkpt lat="48.59468" lon="1.71809">
        <ele>133</ele>
        <time>2024-05-27T08:21:26.822Z</time>
      </trkpt>
      <trkpt lat="48.59469" lon="1.71816">
        <ele>133</ele>
        <time>2024-05-27T08:21:30.919Z</time>
      </trkpt>
      <trkpt lat="48.5947" lon="1.71824">
        <ele>130</ele>
        <time>2024-05-27T08:21:35.440Z</time>
      </trkpt>
      <trkpt lat="48.5947" lon="1.71832">
        <ele>130</ele>
        <time>2024-05-27T08:21:40.021Z</time>
      </trkpt>
      <trkpt lat="48.59471" lon="1.71837">
        <ele>130</ele>
        <time>2024-05-27T08:21:44.040Z</time>
      </trkpt>
      <trkpt lat="48.59471" lon="1.71844">
        <ele>130</ele>
        <time>2024-05-27T08:21:48.141Z</time>
      </trkpt>
      <trkpt lat="48.59471" lon="1.71853">
        <ele>128</ele>
        <time>2024-05-27T08:21:52.700Z</time>
      </trkpt>
      <trkpt lat="48.59471" lon="1.71862">
        <ele>128</ele>
        <time>2024-05-27T08:21:56.864Z</time>
      </trkpt>
      <trkpt lat="48.59472" lon="1.7187">
        <ele>128</ele>
        <time>2024-05-27T08:22:01.802Z</time>
      </trkpt>
      <trkpt lat="48.59473" lon="1.71877">
        <ele>127</ele>
        <time>2024-05-27T08:22:05.942Z</time>
      </trkpt>
      <trkpt lat="48.59473" lon="1.71884">
        <ele>127</ele>
        <time>2024-05-27T08:22:10.141Z</time>
      </trkpt>
      <trkpt lat="48.59474" lon="1.71893">
        <ele>127</ele>
        <time>2024-05-27T08:22:14.942Z</time>
      </trkpt>
      <trkpt lat="48.59475" lon="1.71901">
        <ele>127</ele>
        <time>2024-05-27T08:22:19.141Z</time>
      </trkpt>
      <trkpt lat="48.59476" lon="1.71909">
        <ele>128</ele>
        <time>2024-05-27T08:22:23.320Z</time>
      </trkpt>
      <trkpt lat="48.59476" lon="1.71917">
        <ele>128</ele>
        <time>2024-05-27T08:22:27.980Z</time>
      </trkpt>
      <trkpt lat="48.59477" lon="1.71925">
        <ele>128</ele>
        <time>2024-05-27T08:22:32.099Z</time>
      </trkpt>
      <trkpt lat="48.59478" lon="1.71932">
        <ele>129</ele>
        <time>2024-05-27T08:22:36.725Z</time>
      </trkpt>
      <trkpt lat="48.59478" lon="1.71939">
        <ele>129</ele>
        <time>2024-05-27T08:22:41.140Z</time>
      </trkpt>
      <trkpt lat="48.59479" lon="1.71946">
        <ele>129</ele>
        <time>2024-05-27T08:22:45.384Z</time>
      </trkpt>
      <trkpt lat="48.59479" lon="1.71955">
        <ele>129</ele>
        <time>2024-05-27T08:22:49.719Z</time>
      </trkpt>
      <trkpt lat="48.59479" lon="1.71962">
        <ele>129</ele>
        <time>2024-05-27T08:22:53.983Z</time>
      </trkpt>
      <trkpt lat="48.59478" lon="1.7197">
        <ele>129</ele>
        <time>2024-05-27T08:22:58.566Z</time>
      </trkpt>
      <trkpt lat="48.59478" lon="1.71979">
        <ele>129</ele>
        <time>2024-05-27T08:23:03.141Z</time>
      </trkpt>
      <trkpt lat="48.59478" lon="1.71988">
        <ele>128</ele>
        <time>2024-05-27T08:23:08.105Z</time>
      </trkpt>
      <trkpt lat="48.59476" lon="1.71995">
        <ele>128</ele>
        <time>2024-05-27T08:23:12.141Z</time>
      </trkpt>
      <trkpt lat="48.59476" lon="1.72002">
        <ele>128</ele>
        <time>2024-05-27T08:23:16.140Z</time>
      </trkpt>
      <trkpt lat="48.59475" lon="1.72011">
        <ele>128</ele>
        <time>2024-05-27T08:23:20.620Z</time>
      </trkpt>
      <trkpt lat="48.59474" lon="1.72019">
        <ele>127</ele>
        <time>2024-05-27T08:23:25.141Z</time>
      </trkpt>
      <trkpt lat="48.59472" lon="1.72027">
        <ele>127</ele>
        <time>2024-05-27T08:23:29.944Z</time>
      </trkpt>
      <trkpt lat="48.5947" lon="1.72034">
        <ele>127</ele>
        <time>2024-05-27T08:23:34.090Z</time>
      </trkpt>
      <trkpt lat="48.59468" lon="1.72042">
        <ele>127</ele>
        <time>2024-05-27T08:23:38.141Z</time>
      </trkpt>
      <trkpt lat="48.59467" lon="1.72051">
        <ele>127</ele>
        <time>2024-05-27T08:23:42.401Z</time>
      </trkpt>
      <trkpt lat="48.59466" lon="1.7206">
        <ele>127</ele>
        <time>2024-05-27T08:23:46.806Z</time>
      </trkpt>
      <trkpt lat="48.59463" lon="1.72068">
        <ele>127</ele>
        <time>2024-05-27T08:23:51.141Z</time>
      </trkpt>
      <trkpt lat="48.59464" lon="1.72075">
        <ele>126</ele>
        <time>2024-05-27T08:23:55.905Z</time>
      </trkpt>
      <trkpt lat="48.59462" lon="1.72084">
        <ele>126</ele>
        <time>2024-05-27T08:24:00.141Z</time>
      </trkpt>
      <trkpt lat="48.5946" lon="1.72094">
        <ele>126</ele>
        <time>2024-05-27T08:24:05.145Z</time>
      </trkpt>
      <trkpt lat="48.59457" lon="1.72101">
        <ele>128</ele>
        <time>2024-05-27T08:24:09.623Z</time>
      </trkpt>
      <trkpt lat="48.59455" lon="1.7211">
        <ele>128</ele>
        <time>2024-05-27T08:24:14.141Z</time>
      </trkpt>
      <trkpt lat="48.59452" lon="1.72117">
        <ele>128</ele>
        <time>2024-05-27T08:24:18.624Z</time>
      </trkpt>
      <trkpt lat="48.5945" lon="1.72126">
        <ele>130</ele>
        <time>2024-05-27T08:24:23.044Z</time>
      </trkpt>
      <trkpt lat="48.59448" lon="1.72135">
        <ele>130</ele>
        <time>2024-05-27T08:24:27.463Z</time>
      </trkpt>
      <trkpt lat="48.59447" lon="1.72142">
        <ele>130</ele>
        <time>2024-05-27T08:24:31.881Z</time>
      </trkpt>
      <trkpt lat="48.59445" lon="1.7215">
        <ele>130</ele>
        <time>2024-05-27T08:24:36.140Z</time>
      </trkpt>
      <trkpt lat="48.59444" lon="1.72159">
        <ele>131</ele>
        <time>2024-05-27T08:24:40.739Z</time>
      </trkpt>
      <trkpt lat="48.59442" lon="1.72167">
        <ele>131</ele>
        <time>2024-05-27T08:24:44.943Z</time>
      </trkpt>
      <trkpt lat="48.5944" lon="1.72173">
        <ele>131</ele>
        <time>2024-05-27T08:24:49.140Z</time>
      </trkpt>
      <trkpt lat="48.59437" lon="1.72181">
        <ele>132</ele>
        <time>2024-05-27T08:24:53.740Z</time>
      </trkpt>
      <trkpt lat="48.59433" lon="1.72189">
        <ele>132</ele>
        <time>2024-05-27T08:24:58.082Z</time>
      </trkpt>
      <trkpt lat="48.5943" lon="1.72195">
        <ele>134</ele>
        <time>2024-05-27T08:25:02.175Z</time>
      </trkpt>
      <trkpt lat="48.59426" lon="1.72202">
        <ele>134</ele>
        <time>2024-05-27T08:25:07.140Z</time>
      </trkpt>
      <trkpt lat="48.59424" lon="1.72211">
        <ele>134</ele>
        <time>2024-05-27T08:25:11.663Z</time>
      </trkpt>
      <trkpt lat="48.59422" lon="1.72218">
        <ele>134</ele>
        <time>2024-05-27T08:25:16.140Z</time>
      </trkpt>
      <trkpt lat="48.59418" lon="1.72227">
        <ele>134</ele>
        <time>2024-05-27T08:25:21.140Z</time>
      </trkpt>
      <trkpt lat="48.59416" lon="1.72234">
        <ele>134</ele>
        <time>2024-05-27T08:25:25.382Z</time>
      </trkpt>
      <trkpt lat="48.59411" lon="1.72238">
        <ele>134</ele>
        <time>2024-05-27T08:25:29.777Z</time>
      </trkpt>
      <trkpt lat="48.59408" lon="1.72249">
        <ele>134</ele>
        <time>2024-05-27T08:25:34.601Z</time>
      </trkpt>
      <trkpt lat="48.59404" lon="1.72255">
        <ele>134</ele>
        <time>2024-05-27T08:25:38.981Z</time>
      </trkpt>
      <trkpt lat="48.59402" lon="1.72261">
        <ele>133</ele>
        <time>2024-05-27T08:25:43.076Z</time>
      </trkpt>
      <trkpt lat="48.59397" lon="1.72268">
        <ele>132</ele>
        <time>2024-05-27T08:25:47.863Z</time>
      </trkpt>
      <trkpt lat="48.59394" lon="1.72275">
        <ele>132</ele>
        <time>2024-05-27T08:25:52.043Z</time>
      </trkpt>
      <trkpt lat="48.5939" lon="1.72281">
        <ele>132</ele>
        <time>2024-05-27T08:25:56.140Z</time>
      </trkpt>
      <trkpt lat="48.59386" lon="1.72288">
        <ele>132</ele>
        <time>2024-05-27T08:26:01.140Z</time>
      </trkpt>
      <trkpt lat="48.59382" lon="1.72296">
        <ele>131</ele>
        <time>2024-05-27T08:26:05.139Z</time>
      </trkpt>
      <trkpt lat="48.59379" lon="1.72303">
        <ele>131</ele>
        <time>2024-05-27T08:26:09.261Z</time>
      </trkpt>
      <trkpt lat="48.59379" lon="1.72312">
        <ele>131</ele>
        <time>2024-05-27T08:26:14.140Z</time>
      </trkpt>
      <trkpt lat="48.59377" lon="1.7232">
        <ele>130</ele>
        <time>2024-05-27T08:26:18.703Z</time>
      </trkpt>
      <trkpt lat="48.59377" lon="1.72328">
        <ele>130</ele>
        <time>2024-05-27T08:26:23.139Z</time>
      </trkpt>
      <trkpt lat="48.59375" lon="1.72338">
        <ele>130</ele>
        <time>2024-05-27T08:26:27.500Z</time>
      </trkpt>
      <trkpt lat="48.59375" lon="1.72344">
        <ele>130</ele>
        <time>2024-05-27T08:26:31.510Z</time>
      </trkpt>
      <trkpt lat="48.59375" lon="1.72353">
        <ele>129</ele>
        <time>2024-05-27T08:26:36.140Z</time>
      </trkpt>
      <trkpt lat="48.59376" lon="1.72362">
        <ele>129</ele>
        <time>2024-05-27T08:26:40.723Z</time>
      </trkpt>
      <trkpt lat="48.59375" lon="1.72369">
        <ele>129</ele>
        <time>2024-05-27T08:26:44.741Z</time>
      </trkpt>
      <trkpt lat="48.59375" lon="1.72377">
        <ele>130</ele>
        <time>2024-05-27T08:26:48.808Z</time>
      </trkpt>
      <trkpt lat="48.59375" lon="1.72384">
        <ele>130</ele>
        <time>2024-05-27T08:26:53.383Z</time>
      </trkpt>
      <trkpt lat="48.59374" lon="1.72393">
        <ele>130</ele>
        <time>2024-05-27T08:26:58.140Z</time>
      </trkpt>
      <trkpt lat="48.59374" lon="1.72402">
        <ele>130</ele>
        <time>2024-05-27T08:27:03.083Z</time>
      </trkpt>
      <trkpt lat="48.59374" lon="1.72409">
        <ele>130</ele>
        <time>2024-05-27T08:27:07.139Z</time>
      </trkpt>
      <trkpt lat="48.59373" lon="1.72417">
        <ele>130</ele>
        <time>2024-05-27T08:27:12.060Z</time>
      </trkpt>
      <trkpt lat="48.59373" lon="1.72425">
        <ele>130</ele>
        <time>2024-05-27T08:27:16.140Z</time>
      </trkpt>
      <trkpt lat="48.59373" lon="1.72432">
        <ele>131</ele>
        <time>2024-05-27T08:27:20.598Z</time>
      </trkpt>
      <trkpt lat="48.59372" lon="1.7244">
        <ele>131</ele>
        <time>2024-05-27T08:27:25.140Z</time>
      </trkpt>
      <trkpt lat="48.59372" lon="1.7245">
        <ele>131</ele>
        <time>2024-05-27T08:27:29.922Z</time>
      </trkpt>
      <trkpt lat="48.59371" lon="1.72459">
        <ele>131</ele>
        <time>2024-05-27T08:27:34.140Z</time>
      </trkpt>
      <trkpt lat="48.59372" lon="1.72467">
        <ele>131</ele>
        <time>2024-05-27T08:27:38.718Z</time>
      </trkpt>
      <trkpt lat="48.59369" lon="1.72473">
        <ele>131</ele>
        <time>2024-05-27T08:27:43.140Z</time>
      </trkpt>
      <trkpt lat="48.59363" lon="1.72474">
        <ele>131</ele>
        <time>2024-05-27T08:27:48.140Z</time>
      </trkpt>
      <trkpt lat="48.59358" lon="1.7247">
        <ele>131</ele>
        <time>2024-05-27T08:27:53.119Z</time>
      </trkpt>
      <trkpt lat="48.59352" lon="1.72468">
        <ele>131</ele>
        <time>2024-05-27T08:27:58.082Z</time>
      </trkpt>
      <trkpt lat="48.59348" lon="1.72466">
        <ele>131</ele>
        <time>2024-05-27T08:28:02.140Z</time>
      </trkpt>
      <trkpt lat="48.59342" lon="1.72464">
        <ele>131</ele>
        <time>2024-05-27T08:28:06.903Z</time>
      </trkpt>
      <trkpt lat="48.59338" lon="1.72464">
        <ele>131</ele>
        <time>2024-05-27T08:28:11Z</time>
      </trkpt>
      <trkpt lat="48.59333" lon="1.72464">
        <ele>131</ele>
        <time>2024-05-27T08:28:15.139Z</time>
      </trkpt>
      <trkpt lat="48.59328" lon="1.72466">
        <ele>131</ele>
        <time>2024-05-27T08:28:20.139Z</time>
      </trkpt>
      <trkpt lat="48.59323" lon="1.72471">
        <ele>131</ele>
        <time>2024-05-27T08:28:25.142Z</time>
      </trkpt>
      <trkpt lat="48.59318" lon="1.72474">
        <ele>132</ele>
        <time>2024-05-27T08:28:29.604Z</time>
      </trkpt>
      <trkpt lat="48.59314" lon="1.72478">
        <ele>132</ele>
        <time>2024-05-27T08:28:33.640Z</time>
      </trkpt>
      <trkpt lat="48.59309" lon="1.72483">
        <ele>132</ele>
        <time>2024-05-27T08:28:38.144Z</time>
      </trkpt>
      <trkpt lat="48.59305" lon="1.72489">
        <ele>131</ele>
        <time>2024-05-27T08:28:42.725Z</time>
      </trkpt>
      <trkpt lat="48.59302" lon="1.72493">
        <ele>131</ele>
        <time>2024-05-27T08:28:46.864Z</time>
      </trkpt>
      <trkpt lat="48.59301" lon="1.72493">
        <ele>131</ele>
        <time>2024-05-27T08:28:51.140Z</time>
      </trkpt>
      <trkpt lat="48.59301" lon="1.72494">
        <ele>131</ele>
        <time>2024-05-27T08:28:55.547Z</time>
      </trkpt>
      <trkpt lat="48.59298" lon="1.72502">
        <ele>131</ele>
        <time>2024-05-27T08:29:00.060Z</time>
      </trkpt>
      <trkpt lat="48.59298" lon="1.72512">
        <ele>131</ele>
        <time>2024-05-27T08:29:04.444Z</time>
      </trkpt>
      <trkpt lat="48.59298" lon="1.72522">
        <ele>130</ele>
        <time>2024-05-27T08:29:08.641Z</time>
      </trkpt>
      <trkpt lat="48.59299" lon="1.72532">
        <ele>130</ele>
        <time>2024-05-27T08:29:12.720Z</time>
      </trkpt>
      <trkpt lat="48.59297" lon="1.72537">
        <ele>130</ele>
        <time>2024-05-27T08:29:17.003Z</time>
      </trkpt>
      <trkpt lat="48.59295" lon="1.72542">
        <ele>130</ele>
        <time>2024-05-27T08:29:21.140Z</time>
      </trkpt>
      <trkpt lat="48.59292" lon="1.72545">
        <ele>130</ele>
        <time>2024-05-27T08:29:25.601Z</time>
      </trkpt>
      <trkpt lat="48.59288" lon="1.7255">
        <ele>131</ele>
        <time>2024-05-27T08:29:29.944Z</time>
      </trkpt>
      <trkpt lat="48.59284" lon="1.72553">
        <ele>131</ele>
        <time>2024-05-27T08:29:34.140Z</time>
      </trkpt>
      <trkpt lat="48.59281" lon="1.72556">
        <ele>131</ele>
        <time>2024-05-27T08:29:38.483Z</time>
      </trkpt>
      <trkpt lat="48.59277" lon="1.72555">
        <ele>131</ele>
        <time>2024-05-27T08:29:42.724Z</time>
      </trkpt>
      <trkpt lat="48.59273" lon="1.7256">
        <ele>131</ele>
        <time>2024-05-27T08:29:46.800Z</time>
      </trkpt>
      <trkpt lat="48.59271" lon="1.72564">
        <ele>131</ele>
        <time>2024-05-27T08:29:50.754Z</time>
      </trkpt>
      <trkpt lat="48.59268" lon="1.72569">
        <ele>131</ele>
        <time>2024-05-27T08:29:55.139Z</time>
      </trkpt>
      <trkpt lat="48.59265" lon="1.72577">
        <ele>130</ele>
        <time>2024-05-27T08:30:00.140Z</time>
      </trkpt>
      <trkpt lat="48.59262" lon="1.72584">
        <ele>132</ele>
        <time>2024-05-27T08:30:04.639Z</time>
      </trkpt>
      <trkpt lat="48.59258" lon="1.72589">
        <ele>132</ele>
        <time>2024-05-27T08:30:08.742Z</time>
      </trkpt>
      <trkpt lat="48.59254" lon="1.72596">
        <ele>132</ele>
        <time>2024-05-27T08:30:13.921Z</time>
      </trkpt>
      <trkpt lat="48.59251" lon="1.72602">
        <ele>131</ele>
        <time>2024-05-27T08:30:18.140Z</time>
      </trkpt>
      <trkpt lat="48.59248" lon="1.72608">
        <ele>131</ele>
        <time>2024-05-27T08:30:22.341Z</time>
      </trkpt>
      <trkpt lat="48.59245" lon="1.72613">
        <ele>131</ele>
        <time>2024-05-27T08:30:26.403Z</time>
      </trkpt>
      <trkpt lat="48.59243" lon="1.7262">
        <ele>131</ele>
        <time>2024-05-27T08:30:30.651Z</time>
      </trkpt>
      <trkpt lat="48.5924" lon="1.72627">
        <ele>131</ele>
        <time>2024-05-27T08:30:34.720Z</time>
      </trkpt>
      <trkpt lat="48.59236" lon="1.72633">
        <ele>131</ele>
        <time>2024-05-27T08:30:38.861Z</time>
      </trkpt>
      <trkpt lat="48.59234" lon="1.7264">
        <ele>134</ele>
        <time>2024-05-27T08:30:43.141Z</time>
      </trkpt>
      <trkpt lat="48.5923" lon="1.72644">
        <ele>134</ele>
        <time>2024-05-27T08:30:47.697Z</time>
      </trkpt>
      <trkpt lat="48.59226" lon="1.7265">
        <ele>134</ele>
        <time>2024-05-27T08:30:52.150Z</time>
      </trkpt>
      <trkpt lat="48.59223" lon="1.72656">
        <ele>135</ele>
        <time>2024-05-27T08:30:56.401Z</time>
      </trkpt>
      <trkpt lat="48.59219" lon="1.72661">
        <ele>135</ele>
        <time>2024-05-27T08:31:00.964Z</time>
      </trkpt>
      <trkpt lat="48.59216" lon="1.72662">
        <ele>135</ele>
        <time>2024-05-27T08:31:05.140Z</time>
      </trkpt>
      <trkpt lat="48.59213" lon="1.72668">
        <ele>135</ele>
        <time>2024-05-27T08:31:09.460Z</time>
      </trkpt>
      <trkpt lat="48.59211" lon="1.72675">
        <ele>135</ele>
        <time>2024-05-27T08:31:13.760Z</time>
      </trkpt>
      <trkpt lat="48.59209" lon="1.72683">
        <ele>137</ele>
        <time>2024-05-27T08:31:18.179Z</time>
      </trkpt>
      <trkpt lat="48.59206" lon="1.72691">
        <ele>139</ele>
        <time>2024-05-27T08:31:23.139Z</time>
      </trkpt>
      <trkpt lat="48.59203" lon="1.72698">
        <ele>139</ele>
        <time>2024-05-27T08:31:27.360Z</time>
      </trkpt>
      <trkpt lat="48.59203" lon="1.72709">
        <ele>138</ele>
        <time>2024-05-27T08:31:32.140Z</time>
      </trkpt>
      <trkpt lat="48.59202" lon="1.72716">
        <ele>138</ele>
        <time>2024-05-27T08:31:36.582Z</time>
      </trkpt>
      <trkpt lat="48.59196" lon="1.7272">
        <ele>138</ele>
        <time>2024-05-27T08:31:41.140Z</time>
      </trkpt>
      <trkpt lat="48.5919" lon="1.72721">
        <ele>138</ele>
        <time>2024-05-27T08:31:46.076Z</time>
      </trkpt>
      <trkpt lat="48.59184" lon="1.72722">
        <ele>138</ele>
        <time>2024-05-27T08:31:50.580Z</time>
      </trkpt>
      <trkpt lat="48.59178" lon="1.72723">
        <ele>140</ele>
        <time>2024-05-27T08:31:55.043Z</time>
      </trkpt>
      <trkpt lat="48.59173" lon="1.72725">
        <ele>140</ele>
        <time>2024-05-27T08:31:59.140Z</time>
      </trkpt>
      <trkpt lat="48.59167" lon="1.72727">
        <ele>140</ele>
        <time>2024-05-27T08:32:03.820Z</time>
      </trkpt>
      <trkpt lat="48.59162" lon="1.7273">
        <ele>140</ele>
        <time>2024-05-27T08:32:07.899Z</time>
      </trkpt>
      <trkpt lat="48.59156" lon="1.72732">
        <ele>140</ele>
        <time>2024-05-27T08:32:12.404Z</time>
      </trkpt>
      <trkpt lat="48.59152" lon="1.72736">
        <ele>141</ele>
        <time>2024-05-27T08:32:17.104Z</time>
      </trkpt>
      <trkpt lat="48.59149" lon="1.72741">
        <ele>141</ele>
        <time>2024-05-27T08:32:21.140Z</time>
      </trkpt>
      <trkpt lat="48.59146" lon="1.72747">
        <ele>141</ele>
        <time>2024-05-27T08:32:25.661Z</time>
      </trkpt>
      <trkpt lat="48.59143" lon="1.72751">
        <ele>141</ele>
        <time>2024-05-27T08:32:30.140Z</time>
      </trkpt>
      <trkpt lat="48.5914" lon="1.72755">
        <ele>141</ele>
        <time>2024-05-27T08:32:34.139Z</time>
      </trkpt>
      <trkpt lat="48.59136" lon="1.72763">
        <ele>141</ele>
        <time>2024-05-27T08:32:39.140Z</time>
      </trkpt>
      <trkpt lat="48.59136" lon="1.7277">
        <ele>141</ele>
        <time>2024-05-27T08:32:43.703Z</time>
      </trkpt>
      <trkpt lat="48.59137" lon="1.72781">
        <ele>141</ele>
        <time>2024-05-27T08:32:48.140Z</time>
      </trkpt>
      <trkpt lat="48.59139" lon="1.72785">
        <ele>141</ele>
        <time>2024-05-27T08:32:53.037Z</time>
      </trkpt>
      <trkpt lat="48.59138" lon="1.72794">
        <ele>139</ele>
        <time>2024-05-27T08:32:57.140Z</time>
      </trkpt>
      <trkpt lat="48.59136" lon="1.72805">
        <ele>139</ele>
        <time>2024-05-27T08:33:02.019Z</time>
      </trkpt>
      <trkpt lat="48.59136" lon="1.72814">
        <ele>139</ele>
        <time>2024-05-27T08:33:06.140Z</time>
      </trkpt>
      <trkpt lat="48.59135" lon="1.72823">
        <ele>138</ele>
        <time>2024-05-27T08:33:10.662Z</time>
      </trkpt>
      <trkpt lat="48.59135" lon="1.72831">
        <ele>138</ele>
        <time>2024-05-27T08:33:15.140Z</time>
      </trkpt>
      <trkpt lat="48.59134" lon="1.72839">
        <ele>138</ele>
        <time>2024-05-27T08:33:19.381Z</time>
      </trkpt>
      <trkpt lat="48.59133" lon="1.72845">
        <ele>138</ele>
        <time>2024-05-27T08:33:24.004Z</time>
      </trkpt>
      <trkpt lat="48.59132" lon="1.72854">
        <ele>136</ele>
        <time>2024-05-27T08:33:28.482Z</time>
      </trkpt>
      <trkpt lat="48.59131" lon="1.72863">
        <ele>136</ele>
        <time>2024-05-27T08:33:33.140Z</time>
      </trkpt>
      <trkpt lat="48.5913" lon="1.72871">
        <ele>136</ele>
        <time>2024-05-27T08:33:37.919Z</time>
      </trkpt>
      <trkpt lat="48.5913" lon="1.7288">
        <ele>134</ele>
        <time>2024-05-27T08:33:42.140Z</time>
      </trkpt>
      <trkpt lat="48.5913" lon="1.72889">
        <ele>134</ele>
        <time>2024-05-27T08:33:46.823Z</time>
      </trkpt>
      <trkpt lat="48.59131" lon="1.72897">
        <ele>134</ele>
        <time>2024-05-27T08:33:51.140Z</time>
      </trkpt>
      <trkpt lat="48.59132" lon="1.72906">
        <ele>133</ele>
        <time>2024-05-27T08:33:55.960Z</time>
      </trkpt>
      <trkpt lat="48.59133" lon="1.72915">
        <ele>133</ele>
        <time>2024-05-27T08:34:00.139Z</time>
      </trkpt>
      <trkpt lat="48.59133" lon="1.72923">
        <ele>133</ele>
        <time>2024-05-27T08:34:04.960Z</time>
      </trkpt>
      <trkpt lat="48.59132" lon="1.72931">
        <ele>132</ele>
        <time>2024-05-27T08:34:09.140Z</time>
      </trkpt>
      <trkpt lat="48.5913" lon="1.72937">
        <ele>132</ele>
        <time>2024-05-27T08:34:13.704Z</time>
      </trkpt>
      <trkpt lat="48.59129" lon="1.72943">
        <ele>132</ele>
        <time>2024-05-27T08:34:17.884Z</time>
      </trkpt>
      <trkpt lat="48.59123" lon="1.72949">
        <ele>138</ele>
        <time>2024-05-27T08:34:23.003Z</time>
      </trkpt>
      <trkpt lat="48.59121" lon="1.72958">
        <ele>138</ele>
        <time>2024-05-27T08:34:28.139Z</time>
      </trkpt>
      <trkpt lat="48.59121" lon="1.72966">
        <ele>136</ele>
        <time>2024-05-27T08:34:32.811Z</time>
      </trkpt>
      <trkpt lat="48.59118" lon="1.72974">
        <ele>136</ele>
        <time>2024-05-27T08:34:37.020Z</time>
      </trkpt>
      <trkpt lat="48.59115" lon="1.7298">
        <ele>136</ele>
        <time>2024-05-27T08:34:41.600Z</time>
      </trkpt>
      <trkpt lat="48.5911" lon="1.7298">
        <ele>136</ele>
        <time>2024-05-27T08:34:45.661Z</time>
      </trkpt>
      <trkpt lat="48.59106" lon="1.72977">
        <ele>136</ele>
        <time>2024-05-27T08:34:50.140Z</time>
      </trkpt>
      <trkpt lat="48.591" lon="1.72975">
        <ele>136</ele>
        <time>2024-05-27T08:34:55.140Z</time>
      </trkpt>
      <trkpt lat="48.59095" lon="1.72973">
        <ele>140</ele>
        <time>2024-05-27T08:34:59.174Z</time>
      </trkpt>
      <trkpt lat="48.59091" lon="1.72971">
        <ele>140</ele>
        <time>2024-05-27T08:35:03.643Z</time>
      </trkpt>
      <trkpt lat="48.59088" lon="1.72969">
        <ele>140</ele>
        <time>2024-05-27T08:35:07.679Z</time>
      </trkpt>
      <trkpt lat="48.59084" lon="1.72968">
        <ele>140</ele>
        <time>2024-05-27T08:35:11.902Z</time>
      </trkpt>
      <trkpt lat="48.59081" lon="1.72967">
        <ele>140</ele>
        <time>2024-05-27T08:35:16.024Z</time>
      </trkpt>
      <trkpt lat="48.59075" lon="1.72966">
        <ele>140</ele>
        <time>2024-05-27T08:35:21.140Z</time>
      </trkpt>
      <trkpt lat="48.59071" lon="1.7297">
        <ele>140</ele>
        <time>2024-05-27T08:35:26.123Z</time>
      </trkpt>
      <trkpt lat="48.59067" lon="1.72976">
        <ele>140</ele>
        <time>2024-05-27T08:35:30.139Z</time>
      </trkpt>
      <trkpt lat="48.59065" lon="1.72984">
        <ele>140</ele>
        <time>2024-05-27T08:35:35.140Z</time>
      </trkpt>
      <trkpt lat="48.59062" lon="1.72992">
        <ele>140</ele>
        <time>2024-05-27T08:35:39.543Z</time>
      </trkpt>
      <trkpt lat="48.59059" lon="1.72998">
        <ele>140</ele>
        <time>2024-05-27T08:35:44.004Z</time>
      </trkpt>
      <trkpt lat="48.59058" lon="1.73003">
        <ele>140</ele>
        <time>2024-05-27T08:35:48.508Z</time>
      </trkpt>
      <trkpt lat="48.59055" lon="1.73008">
        <ele>140</ele>
        <time>2024-05-27T08:35:52.604Z</time>
      </trkpt>
      <trkpt lat="48.59053" lon="1.73012">
        <ele>140</ele>
        <time>2024-05-27T08:35:56.939Z</time>
      </trkpt>
      <trkpt lat="48.59049" lon="1.73014">
        <ele>139</ele>
        <time>2024-05-27T08:36:01.140Z</time>
      </trkpt>
      <trkpt lat="48.59048" lon="1.7302">
        <ele>139</ele>
        <time>2024-05-27T08:36:05.166Z</time>
      </trkpt>
      <trkpt lat="48.59048" lon="1.73028">
        <ele>139</ele>
        <time>2024-05-27T08:36:09.359Z</time>
      </trkpt>
      <trkpt lat="48.59046" lon="1.73036">
        <ele>139</ele>
        <time>2024-05-27T08:36:13.599Z</time>
      </trkpt>
      <trkpt lat="48.59045" lon="1.73043">
        <ele>138</ele>
        <time>2024-05-27T08:36:17.985Z</time>
      </trkpt>
      <trkpt lat="48.59043" lon="1.73049">
        <ele>138</ele>
        <time>2024-05-27T08:36:22.003Z</time>
      </trkpt>
      <trkpt lat="48.59042" lon="1.73053">
        <ele>140</ele>
        <time>2024-05-27T08:36:26.039Z</time>
      </trkpt>
      <trkpt lat="48.59037" lon="1.73054">
        <ele>140</ele>
        <time>2024-05-27T08:36:35.140Z</time>
      </trkpt>
      <trkpt lat="48.59036" lon="1.73055">
        <ele>140</ele>
        <time>2024-05-27T08:36:39.821Z</time>
      </trkpt>
      <trkpt lat="48.59037" lon="1.73058">
        <ele>140</ele>
        <time>2024-05-27T08:36:44.139Z</time>
      </trkpt>
      <trkpt lat="48.59037" lon="1.7306">
        <ele>140</ele>
        <time>2024-05-27T08:36:48.603Z</time>
      </trkpt>
      <trkpt lat="48.59042" lon="1.73075">
        <ele>138</ele>
        <time>2024-05-27T08:36:53.140Z</time>
      </trkpt>
      <trkpt lat="48.59043" lon="1.73082">
        <ele>136</ele>
        <time>2024-05-27T08:36:57.523Z</time>
      </trkpt>
      <trkpt lat="48.59043" lon="1.73089">
        <ele>136</ele>
        <time>2024-05-27T08:37:01.942Z</time>
      </trkpt>
      <trkpt lat="48.59043" lon="1.73097">
        <ele>135</ele>
        <time>2024-05-27T08:37:06.140Z</time>
      </trkpt>
      <trkpt lat="48.59043" lon="1.73106">
        <ele>135</ele>
        <time>2024-05-27T08:37:10.542Z</time>
      </trkpt>
      <trkpt lat="48.59045" lon="1.73115">
        <ele>135</ele>
        <time>2024-05-27T08:37:14.904Z</time>
      </trkpt>
      <trkpt lat="48.59044" lon="1.73123">
        <ele>135</ele>
        <time>2024-05-27T08:37:19.343Z</time>
      </trkpt>
      <trkpt lat="48.59046" lon="1.73127">
        <ele>134</ele>
        <time>2024-05-27T08:37:24.139Z</time>
      </trkpt>
      <trkpt lat="48.59046" lon="1.7313">
        <ele>134</ele>
        <time>2024-05-27T08:37:28.567Z</time>
      </trkpt>
      <trkpt lat="48.59045" lon="1.7314">
        <ele>134</ele>
        <time>2024-05-27T08:37:32.940Z</time>
      </trkpt>
      <trkpt lat="48.59048" lon="1.73147">
        <ele>134</ele>
        <time>2024-05-27T08:37:37.140Z</time>
      </trkpt>
      <trkpt lat="48.59048" lon="1.73155">
        <ele>133</ele>
        <time>2024-05-27T08:37:41.347Z</time>
      </trkpt>
      <trkpt lat="48.59044" lon="1.73159">
        <ele>133</ele>
        <time>2024-05-27T08:37:45.484Z</time>
      </trkpt>
      <trkpt lat="48.5904" lon="1.73167">
        <ele>136</ele>
        <time>2024-05-27T08:37:49.785Z</time>
      </trkpt>
      <trkpt lat="48.59036" lon="1.73171">
        <ele>136</ele>
        <time>2024-05-27T08:37:54.106Z</time>
      </trkpt>
      <trkpt lat="48.59034" lon="1.73165">
        <ele>136</ele>
        <time>2024-05-27T08:37:58.140Z</time>
      </trkpt>
      <trkpt lat="48.59031" lon="1.73159">
        <ele>136</ele>
        <time>2024-05-27T08:38:03.140Z</time>
      </trkpt>
      <trkpt lat="48.59032" lon="1.73158">
        <ele>136</ele>
        <time>2024-05-27T08:38:08.140Z</time>
      </trkpt>
      <trkpt lat="48.59032" lon="1.73159">
        <ele>136</ele>
        <time>2024-05-27T08:38:13.140Z</time>
      </trkpt>
      <trkpt lat="48.59028" lon="1.7316">
        <ele>136</ele>
        <time>2024-05-27T08:38:18.140Z</time>
      </trkpt>
      <trkpt lat="48.59024" lon="1.7317">
        <ele>136</ele>
        <time>2024-05-27T08:38:22.763Z</time>
      </trkpt>
      <trkpt lat="48.59021" lon="1.73175">
        <ele>136</ele>
        <time>2024-05-27T08:38:26.968Z</time>
      </trkpt>
      <trkpt lat="48.59017" lon="1.73176">
        <ele>136</ele>
        <time>2024-05-27T08:38:31.140Z</time>
      </trkpt>
      <trkpt lat="48.59014" lon="1.73177">
        <ele>140</ele>
        <time>2024-05-27T08:38:36.140Z</time>
      </trkpt>
      <trkpt lat="48.5901" lon="1.73176">
        <ele>140</ele>
        <time>2024-05-27T08:38:40.923Z</time>
      </trkpt>
      <trkpt lat="48.59008" lon="1.73175">
        <ele>140</ele>
        <time>2024-05-27T08:38:45.139Z</time>
      </trkpt>
      <trkpt lat="48.59005" lon="1.73178">
        <ele>140</ele>
        <time>2024-05-27T08:38:49.139Z</time>
      </trkpt>
      <trkpt lat="48.59001" lon="1.73178">
        <ele>140</ele>
        <time>2024-05-27T08:38:54.139Z</time>
      </trkpt>
      <trkpt lat="48.59" lon="1.73179">
        <ele>140</ele>
        <time>2024-05-27T08:38:58.138Z</time>
      </trkpt>
      <trkpt lat="48.58999" lon="1.7318">
        <ele>140</ele>
        <time>2024-05-27T08:39:03.138Z</time>
      </trkpt>
      <trkpt lat="48.58991" lon="1.73167">
        <ele>140</ele>
        <time>2024-05-27T08:49:38.137Z</time>
      </trkpt>
      <trkpt lat="48.58991" lon="1.73167">
        <ele>140</ele>
        <time>2024-05-27T08:49:42.138Z</time>
      </trkpt>
      <trkpt lat="48.5899" lon="1.73165">
        <ele>140</ele>
        <time>2024-05-27T08:49:47.138Z</time>
      </trkpt>
      <trkpt lat="48.58988" lon="1.73162">
        <ele>140</ele>
        <time>2024-05-27T08:49:51.138Z</time>
      </trkpt>
      <trkpt lat="48.58987" lon="1.73161">
        <ele>140</ele>
        <time>2024-05-27T08:49:56.137Z</time>
      </trkpt>
      <trkpt lat="48.58982" lon="1.73153">
        <ele>143</ele>
        <time>2024-05-27T08:51:03.138Z</time>
      </trkpt>
      <trkpt lat="48.58981" lon="1.73152">
        <ele>143</ele>
        <time>2024-05-27T08:51:08.037Z</time>
      </trkpt>
      <trkpt lat="48.58973" lon="1.73145">
        <ele>143</ele>
        <time>2024-05-27T08:51:12.138Z</time>
      </trkpt>
      <trkpt lat="48.58969" lon="1.73148">
        <ele>143</ele>
        <time>2024-05-27T08:51:17.138Z</time>
      </trkpt>
      <trkpt lat="48.58964" lon="1.73142">
        <ele>143</ele>
        <time>2024-05-27T08:51:21.138Z</time>
      </trkpt>
      <trkpt lat="48.58958" lon="1.7314">
        <ele>145</ele>
        <time>2024-05-27T08:51:25.566Z</time>
      </trkpt>
      <trkpt lat="48.58954" lon="1.73138">
        <ele>145</ele>
        <time>2024-05-27T08:51:29.652Z</time>
      </trkpt>
      <trkpt lat="48.58949" lon="1.73136">
        <ele>145</ele>
        <time>2024-05-27T08:51:33.970Z</time>
      </trkpt>
      <trkpt lat="48.58946" lon="1.73132">
        <ele>145</ele>
        <time>2024-05-27T08:51:38.138Z</time>
      </trkpt>
      <trkpt lat="48.58941" lon="1.7313">
        <ele>145</ele>
        <time>2024-05-27T08:51:42.453Z</time>
      </trkpt>
      <trkpt lat="48.58937" lon="1.73126">
        <ele>145</ele>
        <time>2024-05-27T08:51:46.693Z</time>
      </trkpt>
      <trkpt lat="48.58933" lon="1.73126">
        <ele>145</ele>
        <time>2024-05-27T08:51:50.815Z</time>
      </trkpt>
      <trkpt lat="48.58929" lon="1.7313">
        <ele>146</ele>
        <time>2024-05-27T08:51:54.877Z</time>
      </trkpt>
      <trkpt lat="48.58924" lon="1.73132">
        <ele>146</ele>
        <time>2024-05-27T08:51:59.358Z</time>
      </trkpt>
      <trkpt lat="48.5892" lon="1.73136">
        <ele>146</ele>
        <time>2024-05-27T08:52:03.871Z</time>
      </trkpt>
      <trkpt lat="48.58917" lon="1.7314">
        <ele>146</ele>
        <time>2024-05-27T08:52:08.512Z</time>
      </trkpt>
      <trkpt lat="48.58914" lon="1.73145">
        <ele>146</ele>
        <time>2024-05-27T08:52:12.653Z</time>
      </trkpt>
      <trkpt lat="48.58911" lon="1.73151">
        <ele>146</ele>
        <time>2024-05-27T08:52:17.138Z</time>
      </trkpt>
      <trkpt lat="48.58908" lon="1.73157">
        <ele>147</ele>
        <time>2024-05-27T08:52:21.551Z</time>
      </trkpt>
      <trkpt lat="48.58903" lon="1.73162">
        <ele>147</ele>
        <time>2024-05-27T08:52:25.999Z</time>
      </trkpt>
      <trkpt lat="48.58902" lon="1.73168">
        <ele>149</ele>
        <time>2024-05-27T08:52:30.137Z</time>
      </trkpt>
      <trkpt lat="48.58902" lon="1.73176">
        <ele>149</ele>
        <time>2024-05-27T08:52:34.375Z</time>
      </trkpt>
      <trkpt lat="48.589" lon="1.73183">
        <ele>150</ele>
        <time>2024-05-27T08:52:39.009Z</time>
      </trkpt>
      <trkpt lat="48.58897" lon="1.73191">
        <ele>150</ele>
        <time>2024-05-27T08:52:43.138Z</time>
      </trkpt>
      <trkpt lat="48.58896" lon="1.73198">
        <ele>150</ele>
        <time>2024-05-27T08:52:47.269Z</time>
      </trkpt>
      <trkpt lat="48.58893" lon="1.73204">
        <ele>150</ele>
        <time>2024-05-27T08:52:51.374Z</time>
      </trkpt>
      <trkpt lat="48.58891" lon="1.73211">
        <ele>150</ele>
        <time>2024-05-27T08:52:55.750Z</time>
      </trkpt>
      <trkpt lat="48.58888" lon="1.73219">
        <ele>150</ele>
        <time>2024-05-27T08:53:00.852Z</time>
      </trkpt>
      <trkpt lat="48.58886" lon="1.73225">
        <ele>150</ele>
        <time>2024-05-27T08:53:04.914Z</time>
      </trkpt>
      <trkpt lat="48.58883" lon="1.73233">
        <ele>150</ele>
        <time>2024-05-27T08:53:09.497Z</time>
      </trkpt>
      <trkpt lat="48.58881" lon="1.7324">
        <ele>151</ele>
        <time>2024-05-27T08:53:13.549Z</time>
      </trkpt>
      <trkpt lat="48.58879" lon="1.73246">
        <ele>151</ele>
        <time>2024-05-27T08:53:17.654Z</time>
      </trkpt>
      <trkpt lat="48.58875" lon="1.73252">
        <ele>150</ele>
        <time>2024-05-27T08:53:22.138Z</time>
      </trkpt>
      <trkpt lat="48.58873" lon="1.7326">
        <ele>150</ele>
        <time>2024-05-27T08:53:26.655Z</time>
      </trkpt>
      <trkpt lat="48.58869" lon="1.73262">
        <ele>150</ele>
        <time>2024-05-27T08:53:30.796Z</time>
      </trkpt>
      <trkpt lat="48.58868" lon="1.73272">
        <ele>149</ele>
        <time>2024-05-27T08:53:34.932Z</time>
      </trkpt>
      <trkpt lat="48.58866" lon="1.7328">
        <ele>149</ele>
        <time>2024-05-27T08:53:39.011Z</time>
      </trkpt>
      <trkpt lat="48.58864" lon="1.73286">
        <ele>149</ele>
        <time>2024-05-27T08:53:43.030Z</time>
      </trkpt>
      <trkpt lat="48.58861" lon="1.73294">
        <ele>149</ele>
        <time>2024-05-27T08:53:47.833Z</time>
      </trkpt>
      <trkpt lat="48.58859" lon="1.73301">
        <ele>149</ele>
        <time>2024-05-27T08:53:51.997Z</time>
      </trkpt>
      <trkpt lat="48.58856" lon="1.73307">
        <ele>149</ele>
        <time>2024-05-27T08:53:56.155Z</time>
      </trkpt>
      <trkpt lat="48.58854" lon="1.73315">
        <ele>149</ele>
        <time>2024-05-27T08:54:00.791Z</time>
      </trkpt>
      <trkpt lat="48.58852" lon="1.73322">
        <ele>151</ele>
        <time>2024-05-27T08:54:04.856Z</time>
      </trkpt>
      <trkpt lat="48.58851" lon="1.7333">
        <ele>151</ele>
        <time>2024-05-27T08:54:08.917Z</time>
      </trkpt>
      <trkpt lat="48.58849" lon="1.73335">
        <ele>151</ele>
        <time>2024-05-27T08:54:12.968Z</time>
      </trkpt>
      <trkpt lat="48.58847" lon="1.73342">
        <ele>151</ele>
        <time>2024-05-27T08:54:17.138Z</time>
      </trkpt>
      <trkpt lat="48.58845" lon="1.7335">
        <ele>151</ele>
        <time>2024-05-27T08:54:21.829Z</time>
      </trkpt>
      <trkpt lat="48.58844" lon="1.73358">
        <ele>151</ele>
        <time>2024-05-27T08:54:26.071Z</time>
      </trkpt>
      <trkpt lat="48.58841" lon="1.73364">
        <ele>151</ele>
        <time>2024-05-27T08:54:30.138Z</time>
      </trkpt>
      <trkpt lat="48.58838" lon="1.73372">
        <ele>151</ele>
        <time>2024-05-27T08:54:35.055Z</time>
      </trkpt>
      <trkpt lat="48.58835" lon="1.73378">
        <ele>152</ele>
        <time>2024-05-27T08:54:39.138Z</time>
      </trkpt>
      <trkpt lat="48.58832" lon="1.73384">
        <ele>152</ele>
        <time>2024-05-27T08:54:43.451Z</time>
      </trkpt>
      <trkpt lat="48.58831" lon="1.73392">
        <ele>152</ele>
        <time>2024-05-27T08:54:48.135Z</time>
      </trkpt>
      <trkpt lat="48.58832" lon="1.73401">
        <ele>152</ele>
        <time>2024-05-27T08:54:52.931Z</time>
      </trkpt>
      <trkpt lat="48.58835" lon="1.73406">
        <ele>153</ele>
        <time>2024-05-27T08:54:57.136Z</time>
      </trkpt>
      <trkpt lat="48.58838" lon="1.73415">
        <ele>153</ele>
        <time>2024-05-27T08:55:01.992Z</time>
      </trkpt>
      <trkpt lat="48.58841" lon="1.73424">
        <ele>153</ele>
        <time>2024-05-27T08:55:07.035Z</time>
      </trkpt>
      <trkpt lat="48.58847" lon="1.73429">
        <ele>153</ele>
        <time>2024-05-27T08:55:11.932Z</time>
      </trkpt>
      <trkpt lat="48.58853" lon="1.73432">
        <ele>154</ele>
        <time>2024-05-27T08:55:16.336Z</time>
      </trkpt>
      <trkpt lat="48.58858" lon="1.73435">
        <ele>154</ele>
        <time>2024-05-27T08:55:20.730Z</time>
      </trkpt>
      <trkpt lat="48.58863" lon="1.7344">
        <ele>154</ele>
        <time>2024-05-27T08:55:25.137Z</time>
      </trkpt>
      <trkpt lat="48.58867" lon="1.73444">
        <ele>154</ele>
        <time>2024-05-27T08:55:29.672Z</time>
      </trkpt>
      <trkpt lat="48.58871" lon="1.73448">
        <ele>154</ele>
        <time>2024-05-27T08:55:33.751Z</time>
      </trkpt>
      <trkpt lat="48.58876" lon="1.73452">
        <ele>153</ele>
        <time>2024-05-27T08:55:38.136Z</time>
      </trkpt>
      <trkpt lat="48.58881" lon="1.73456">
        <ele>153</ele>
        <time>2024-05-27T08:55:42.737Z</time>
      </trkpt>
      <trkpt lat="48.58885" lon="1.73461">
        <ele>153</ele>
        <time>2024-05-27T08:55:47.137Z</time>
      </trkpt>
      <trkpt lat="48.5889" lon="1.73463">
        <ele>153</ele>
        <time>2024-05-27T08:55:51.431Z</time>
      </trkpt>
      <trkpt lat="48.58896" lon="1.73466">
        <ele>153</ele>
        <time>2024-05-27T08:55:56.032Z</time>
      </trkpt>
      <trkpt lat="48.58896" lon="1.73475">
        <ele>153</ele>
        <time>2024-05-27T08:56:01.136Z</time>
      </trkpt>
      <trkpt lat="48.58895" lon="1.73474">
        <ele>153</ele>
        <time>2024-05-27T08:56:05.793Z</time>
      </trkpt>
      <trkpt lat="48.58898" lon="1.7347">
        <ele>153</ele>
        <time>2024-05-27T08:56:10.050Z</time>
      </trkpt>
      <trkpt lat="48.58901" lon="1.7346">
        <ele>153</ele>
        <time>2024-05-27T08:56:14.137Z</time>
      </trkpt>
      <trkpt lat="48.58904" lon="1.73453">
        <ele>149</ele>
        <time>2024-05-27T08:56:19.137Z</time>
      </trkpt>
      <trkpt lat="48.5891" lon="1.73447">
        <ele>149</ele>
        <time>2024-05-27T08:56:23.591Z</time>
      </trkpt>
      <trkpt lat="48.58913" lon="1.73445">
        <ele>149</ele>
        <time>2024-05-27T08:56:28.130Z</time>
      </trkpt>
      <trkpt lat="48.58917" lon="1.73438">
        <ele>149</ele>
        <time>2024-05-27T08:56:32.993Z</time>
      </trkpt>
      <trkpt lat="48.58919" lon="1.7343">
        <ele>149</ele>
        <time>2024-05-27T08:56:37.137Z</time>
      </trkpt>
      <trkpt lat="48.58923" lon="1.73423">
        <ele>149</ele>
        <time>2024-05-27T08:56:41.773Z</time>
      </trkpt>
      <trkpt lat="48.58927" lon="1.73417">
        <ele>149</ele>
        <time>2024-05-27T08:56:46.137Z</time>
      </trkpt>
      <trkpt lat="48.58931" lon="1.73411">
        <ele>143</ele>
        <time>2024-05-27T08:56:50.929Z</time>
      </trkpt>
      <trkpt lat="48.58934" lon="1.73403">
        <ele>143</ele>
        <time>2024-05-27T08:56:55.137Z</time>
      </trkpt>
      <trkpt lat="48.58938" lon="1.73398">
        <ele>143</ele>
        <time>2024-05-27T08:56:59.452Z</time>
      </trkpt>
      <trkpt lat="48.58942" lon="1.73394">
        <ele>143</ele>
        <time>2024-05-27T08:57:03.693Z</time>
      </trkpt>
      <trkpt lat="48.58945" lon="1.7339">
        <ele>143</ele>
        <time>2024-05-27T08:57:08.070Z</time>
      </trkpt>
      <trkpt lat="48.58951" lon="1.73383">
        <ele>143</ele>
        <time>2024-05-27T08:57:12.137Z</time>
      </trkpt>
      <trkpt lat="48.58956" lon="1.7338">
        <ele>143</ele>
        <time>2024-05-27T08:57:16.534Z</time>
      </trkpt>
      <trkpt lat="48.5896" lon="1.73381">
        <ele>136</ele>
        <time>2024-05-27T08:57:20.792Z</time>
      </trkpt>
      <trkpt lat="48.58963" lon="1.73379">
        <ele>136</ele>
        <time>2024-05-27T08:57:25.137Z</time>
      </trkpt>
      <trkpt lat="48.58967" lon="1.73372">
        <ele>136</ele>
        <time>2024-05-27T08:57:29.955Z</time>
      </trkpt>
      <trkpt lat="48.58969" lon="1.73364">
        <ele>136</ele>
        <time>2024-05-27T08:57:34.412Z</time>
      </trkpt>
      <trkpt lat="48.58971" lon="1.7336">
        <ele>136</ele>
        <time>2024-05-27T08:57:38.909Z</time>
      </trkpt>
      <trkpt lat="48.58976" lon="1.73359">
        <ele>136</ele>
        <time>2024-05-27T08:57:43.295Z</time>
      </trkpt>
      <trkpt lat="48.58979" lon="1.73363">
        <ele>136</ele>
        <time>2024-05-27T08:57:47.672Z</time>
      </trkpt>
      <trkpt lat="48.58983" lon="1.73371">
        <ele>136</ele>
        <time>2024-05-27T08:58:04.693Z</time>
      </trkpt>
      <trkpt lat="48.58985" lon="1.73364">
        <ele>136</ele>
        <time>2024-05-27T08:58:08.755Z</time>
      </trkpt>
      <trkpt lat="48.58986" lon="1.73353">
        <ele>131</ele>
        <time>2024-05-27T08:58:12.892Z</time>
      </trkpt>
      <trkpt lat="48.58988" lon="1.73346">
        <ele>132</ele>
        <time>2024-05-27T08:58:17.074Z</time>
      </trkpt>
      <trkpt lat="48.5899" lon="1.73339">
        <ele>132</ele>
        <time>2024-05-27T08:58:21.137Z</time>
      </trkpt>
      <trkpt lat="48.58992" lon="1.73333">
        <ele>132</ele>
        <time>2024-05-27T08:58:25.289Z</time>
      </trkpt>
      <trkpt lat="48.58994" lon="1.73326">
        <ele>132</ele>
        <time>2024-05-27T08:58:29.555Z</time>
      </trkpt>
      <trkpt lat="48.58997" lon="1.73319">
        <ele>132</ele>
        <time>2024-05-27T08:58:34.137Z</time>
      </trkpt>
      <trkpt lat="48.59001" lon="1.73314">
        <ele>132</ele>
        <time>2024-05-27T08:58:39.137Z</time>
      </trkpt>
      <trkpt lat="48.59008" lon="1.73302">
        <ele>132</ele>
        <time>2024-05-27T08:59:04.137Z</time>
      </trkpt>
      <trkpt lat="48.59011" lon="1.73303">
        <ele>132</ele>
        <time>2024-05-27T08:59:08.694Z</time>
      </trkpt>
      <trkpt lat="48.59015" lon="1.73305">
        <ele>131</ele>
        <time>2024-05-27T08:59:12.732Z</time>
      </trkpt>
      <trkpt lat="48.59021" lon="1.73294">
        <ele>131</ele>
        <time>2024-05-27T08:59:16.894Z</time>
      </trkpt>
      <trkpt lat="48.59022" lon="1.73281">
        <ele>130</ele>
        <time>2024-05-27T08:59:21.360Z</time>
      </trkpt>
      <trkpt lat="48.59027" lon="1.73278">
        <ele>130</ele>
        <time>2024-05-27T08:59:26.137Z</time>
      </trkpt>
      <trkpt lat="48.59029" lon="1.73282">
        <ele>130</ele>
        <time>2024-05-27T08:59:31.137Z</time>
      </trkpt>
      <trkpt lat="48.5903" lon="1.73288">
        <ele>130</ele>
        <time>2024-05-27T08:59:35.250Z</time>
      </trkpt>
      <trkpt lat="48.59034" lon="1.73291">
        <ele>130</ele>
        <time>2024-05-27T08:59:39.892Z</time>
      </trkpt>
      <trkpt lat="48.5904" lon="1.73292">
        <ele>131</ele>
        <time>2024-05-27T08:59:44.075Z</time>
      </trkpt>
      <trkpt lat="48.59044" lon="1.73298">
        <ele>132</ele>
        <time>2024-05-27T08:59:48.928Z</time>
      </trkpt>
      <trkpt lat="48.59047" lon="1.73304">
        <ele>132</ele>
        <time>2024-05-27T08:59:52.995Z</time>
      </trkpt>
      <trkpt lat="48.59051" lon="1.73311">
        <ele>132</ele>
        <time>2024-05-27T08:59:57.713Z</time>
      </trkpt>
      <trkpt lat="48.59055" lon="1.73315">
        <ele>132</ele>
        <time>2024-05-27T09:00:02.136Z</time>
      </trkpt>
      <trkpt lat="48.59062" lon="1.73318">
        <ele>132</ele>
        <time>2024-05-27T09:00:07.016Z</time>
      </trkpt>
      <trkpt lat="48.59066" lon="1.73321">
        <ele>132</ele>
        <time>2024-05-27T09:00:11.136Z</time>
      </trkpt>
      <trkpt lat="48.59068" lon="1.73327">
        <ele>132</ele>
        <time>2024-05-27T09:00:15.751Z</time>
      </trkpt>
      <trkpt lat="48.59072" lon="1.73329">
        <ele>135</ele>
        <time>2024-05-27T09:00:20.051Z</time>
      </trkpt>
      <trkpt lat="48.59078" lon="1.73327">
        <ele>135</ele>
        <time>2024-05-27T09:00:24.974Z</time>
      </trkpt>
      <trkpt lat="48.59082" lon="1.73326">
        <ele>135</ele>
        <time>2024-05-27T09:00:29.069Z</time>
      </trkpt>
      <trkpt lat="48.59086" lon="1.73327">
        <ele>135</ele>
        <time>2024-05-27T09:00:33.137Z</time>
      </trkpt>
      <trkpt lat="48.5909" lon="1.73329">
        <ele>135</ele>
        <time>2024-05-27T09:00:37.986Z</time>
      </trkpt>
      <trkpt lat="48.59092" lon="1.73329">
        <ele>135</ele>
        <time>2024-05-27T09:00:42.137Z</time>
      </trkpt>
      <trkpt lat="48.59093" lon="1.73329">
        <ele>135</ele>
        <time>2024-05-27T09:00:47.137Z</time>
      </trkpt>
      <trkpt lat="48.59099" lon="1.73329">
        <ele>137</ele>
        <time>2024-05-27T09:00:51.672Z</time>
      </trkpt>
      <trkpt lat="48.59104" lon="1.73326">
        <ele>137</ele>
        <time>2024-05-27T09:00:56.134Z</time>
      </trkpt>
      <trkpt lat="48.59107" lon="1.73321">
        <ele>137</ele>
        <time>2024-05-27T09:01:00.674Z</time>
      </trkpt>
      <trkpt lat="48.59112" lon="1.73319">
        <ele>135</ele>
        <time>2024-05-27T09:01:05.015Z</time>
      </trkpt>
      <trkpt lat="48.59116" lon="1.73313">
        <ele>135</ele>
        <time>2024-05-27T09:01:09.076Z</time>
      </trkpt>
      <trkpt lat="48.59119" lon="1.73305">
        <ele>135</ele>
        <time>2024-05-27T09:01:13.650Z</time>
      </trkpt>
      <trkpt lat="48.59123" lon="1.73301">
        <ele>135</ele>
        <time>2024-05-27T09:01:17.754Z</time>
      </trkpt>
      <trkpt lat="48.59128" lon="1.73296">
        <ele>136</ele>
        <time>2024-05-27T09:01:22.114Z</time>
      </trkpt>
      <trkpt lat="48.59133" lon="1.7329">
        <ele>135</ele>
        <time>2024-05-27T09:01:27.136Z</time>
      </trkpt>
      <trkpt lat="48.59138" lon="1.73287">
        <ele>135</ele>
        <time>2024-05-27T09:01:31.756Z</time>
      </trkpt>
      <trkpt lat="48.59143" lon="1.7328">
        <ele>135</ele>
        <time>2024-05-27T09:01:36.140Z</time>
      </trkpt>
      <trkpt lat="48.59148" lon="1.73275">
        <ele>135</ele>
        <time>2024-05-27T09:01:40.755Z</time>
      </trkpt>
      <trkpt lat="48.59151" lon="1.73268">
        <ele>135</ele>
        <time>2024-05-27T09:01:45.293Z</time>
      </trkpt>
      <trkpt lat="48.59154" lon="1.73263">
        <ele>139</ele>
        <time>2024-05-27T09:01:49.330Z</time>
      </trkpt>
      <trkpt lat="48.59158" lon="1.73256">
        <ele>139</ele>
        <time>2024-05-27T09:01:53.749Z</time>
      </trkpt>
      <trkpt lat="48.59162" lon="1.73251">
        <ele>139</ele>
        <time>2024-05-27T09:01:58.136Z</time>
      </trkpt>
      <trkpt lat="48.59168" lon="1.73248">
        <ele>139</ele>
        <time>2024-05-27T09:02:03.137Z</time>
      </trkpt>
      <trkpt lat="48.59173" lon="1.73247">
        <ele>139</ele>
        <time>2024-05-27T09:02:07.510Z</time>
      </trkpt>
      <trkpt lat="48.59179" lon="1.73249">
        <ele>139</ele>
        <time>2024-05-27T09:02:12.137Z</time>
      </trkpt>
      <trkpt lat="48.59185" lon="1.73244">
        <ele>144</ele>
        <time>2024-05-27T09:02:16.409Z</time>
      </trkpt>
      <trkpt lat="48.59189" lon="1.73236">
        <ele>141</ele>
        <time>2024-05-27T09:02:20.768Z</time>
      </trkpt>
      <trkpt lat="48.59192" lon="1.73229">
        <ele>141</ele>
        <time>2024-05-27T09:02:25.137Z</time>
      </trkpt>
      <trkpt lat="48.59193" lon="1.73221">
        <ele>141</ele>
        <time>2024-05-27T09:02:29.556Z</time>
      </trkpt>
      <trkpt lat="48.59196" lon="1.73214">
        <ele>141</ele>
        <time>2024-05-27T09:02:34.129Z</time>
      </trkpt>
      <trkpt lat="48.59197" lon="1.73206">
        <ele>138</ele>
        <time>2024-05-27T09:02:38.574Z</time>
      </trkpt>
      <trkpt lat="48.59198" lon="1.73197">
        <ele>138</ele>
        <time>2024-05-27T09:02:42.977Z</time>
      </trkpt>
      <trkpt lat="48.59199" lon="1.7319">
        <ele>138</ele>
        <time>2024-05-27T09:02:47.029Z</time>
      </trkpt>
      <trkpt lat="48.59201" lon="1.73182">
        <ele>138</ele>
        <time>2024-05-27T09:02:51.491Z</time>
      </trkpt>
      <trkpt lat="48.59204" lon="1.73175">
        <ele>135</ele>
        <time>2024-05-27T09:02:55.654Z</time>
      </trkpt>
      <trkpt lat="48.59208" lon="1.73169">
        <ele>135</ele>
        <time>2024-05-27T09:02:59.938Z</time>
      </trkpt>
      <trkpt lat="48.59211" lon="1.73161">
        <ele>137</ele>
        <time>2024-05-27T09:03:04.614Z</time>
      </trkpt>
      <trkpt lat="48.59211" lon="1.73152">
        <ele>135</ele>
        <time>2024-05-27T09:03:09.032Z</time>
      </trkpt>
      <trkpt lat="48.59209" lon="1.73143">
        <ele>135</ele>
        <time>2024-05-27T09:03:13.612Z</time>
      </trkpt>
      <trkpt lat="48.59209" lon="1.73134">
        <ele>135</ele>
        <time>2024-05-27T09:03:18.091Z</time>
      </trkpt>
      <trkpt lat="48.59206" lon="1.73117">
        <ele>130</ele>
        <time>2024-05-27T09:03:40.815Z</time>
      </trkpt>
      <trkpt lat="48.59207" lon="1.7311">
        <ele>130</ele>
        <time>2024-05-27T09:03:45.137Z</time>
      </trkpt>
      <trkpt lat="48.59216" lon="1.73102">
        <ele>134</ele>
        <time>2024-05-27T09:03:49.918Z</time>
      </trkpt>
      <trkpt lat="48.59222" lon="1.73096">
        <ele>133</ele>
        <time>2024-05-27T09:03:55.137Z</time>
      </trkpt>
      <trkpt lat="48.59225" lon="1.7309">
        <ele>133</ele>
        <time>2024-05-27T09:03:59.137Z</time>
      </trkpt>
      <trkpt lat="48.5923" lon="1.73085">
        <ele>133</ele>
        <time>2024-05-27T09:04:03.804Z</time>
      </trkpt>
      <trkpt lat="48.59234" lon="1.73079">
        <ele>133</ele>
        <time>2024-05-27T09:04:08.016Z</time>
      </trkpt>
      <trkpt lat="48.59237" lon="1.73072">
        <ele>140</ele>
        <time>2024-05-27T09:04:12.137Z</time>
      </trkpt>
      <trkpt lat="48.59241" lon="1.73066">
        <ele>138</ele>
        <time>2024-05-27T09:04:16.392Z</time>
      </trkpt>
      <trkpt lat="48.59244" lon="1.73058">
        <ele>138</ele>
        <time>2024-05-27T09:04:21.137Z</time>
      </trkpt>
      <trkpt lat="48.59247" lon="1.7305">
        <ele>138</ele>
        <time>2024-05-27T09:04:25.733Z</time>
      </trkpt>
      <trkpt lat="48.5925" lon="1.73043">
        <ele>138</ele>
        <time>2024-05-27T09:04:29.795Z</time>
      </trkpt>
      <trkpt lat="48.59253" lon="1.73037">
        <ele>135</ele>
        <time>2024-05-27T09:04:34.136Z</time>
      </trkpt>
      <trkpt lat="48.59255" lon="1.7303">
        <ele>135</ele>
        <time>2024-05-27T09:04:39.136Z</time>
      </trkpt>
      <trkpt lat="48.59257" lon="1.73024">
        <ele>135</ele>
        <time>2024-05-27T09:04:43.592Z</time>
      </trkpt>
      <trkpt lat="48.5926" lon="1.73015">
        <ele>135</ele>
        <time>2024-05-27T09:04:48.136Z</time>
      </trkpt>
      <trkpt lat="48.59262" lon="1.73007">
        <ele>133</ele>
        <time>2024-05-27T09:04:52.874Z</time>
      </trkpt>
      <trkpt lat="48.59264" lon="1.73">
        <ele>133</ele>
        <time>2024-05-27T09:04:57.055Z</time>
      </trkpt>
      <trkpt lat="48.59265" lon="1.72993">
        <ele>140</ele>
        <time>2024-05-27T09:05:01.552Z</time>
      </trkpt>
      <trkpt lat="48.59267" lon="1.72987">
        <ele>140</ele>
        <time>2024-05-27T09:05:06.092Z</time>
      </trkpt>
      <trkpt lat="48.59267" lon="1.7298">
        <ele>138</ele>
        <time>2024-05-27T09:05:10.135Z</time>
      </trkpt>
      <trkpt lat="48.59268" lon="1.72973">
        <ele>138</ele>
        <time>2024-05-27T09:05:14.956Z</time>
      </trkpt>
      <trkpt lat="48.59271" lon="1.72969">
        <ele>138</ele>
        <time>2024-05-27T09:05:19.111Z</time>
      </trkpt>
      <trkpt lat="48.5927" lon="1.7296">
        <ele>138</ele>
        <time>2024-05-27T09:05:23.590Z</time>
      </trkpt>
      <trkpt lat="48.5927" lon="1.72952">
        <ele>138</ele>
        <time>2024-05-27T09:05:27.915Z</time>
      </trkpt>
      <trkpt lat="48.59271" lon="1.72944">
        <ele>138</ele>
        <time>2024-05-27T09:05:32.135Z</time>
      </trkpt>
      <trkpt lat="48.59272" lon="1.72937">
        <ele>138</ele>
        <time>2024-05-27T09:05:37.071Z</time>
      </trkpt>
      <trkpt lat="48.59274" lon="1.7293">
        <ele>137</ele>
        <time>2024-05-27T09:05:41.533Z</time>
      </trkpt>
      <trkpt lat="48.59276" lon="1.72923">
        <ele>137</ele>
        <time>2024-05-27T09:05:45.995Z</time>
      </trkpt>
      <trkpt lat="48.59279" lon="1.72917">
        <ele>137</ele>
        <time>2024-05-27T09:05:50.136Z</time>
      </trkpt>
      <trkpt lat="48.59282" lon="1.72911">
        <ele>137</ele>
        <time>2024-05-27T09:05:54.416Z</time>
      </trkpt>
      <trkpt lat="48.59284" lon="1.72905">
        <ele>137</ele>
        <time>2024-05-27T09:05:58.810Z</time>
      </trkpt>
      <trkpt lat="48.59287" lon="1.72898">
        <ele>136</ele>
        <time>2024-05-27T09:06:03.135Z</time>
      </trkpt>
      <trkpt lat="48.5929" lon="1.72892">
        <ele>136</ele>
        <time>2024-05-27T09:06:07.471Z</time>
      </trkpt>
      <trkpt lat="48.59293" lon="1.72887">
        <ele>142</ele>
        <time>2024-05-27T09:06:11.573Z</time>
      </trkpt>
      <trkpt lat="48.59296" lon="1.7288">
        <ele>142</ele>
        <time>2024-05-27T09:06:15.952Z</time>
      </trkpt>
      <trkpt lat="48.59299" lon="1.72875">
        <ele>140</ele>
        <time>2024-05-27T09:06:20.114Z</time>
      </trkpt>
      <trkpt lat="48.59302" lon="1.7287">
        <ele>140</ele>
        <time>2024-05-27T09:06:24.135Z</time>
      </trkpt>
      <trkpt lat="48.59307" lon="1.72866">
        <ele>140</ele>
        <time>2024-05-27T09:06:28.716Z</time>
      </trkpt>
      <trkpt lat="48.59312" lon="1.72862">
        <ele>140</ele>
        <time>2024-05-27T09:06:32.754Z</time>
      </trkpt>
      <trkpt lat="48.59316" lon="1.72857">
        <ele>140</ele>
        <time>2024-05-27T09:06:37.136Z</time>
      </trkpt>
      <trkpt lat="48.5932" lon="1.72852">
        <ele>145</ele>
        <time>2024-05-27T09:06:41.376Z</time>
      </trkpt>
      <trkpt lat="48.59324" lon="1.72848">
        <ele>145</ele>
        <time>2024-05-27T09:06:45.975Z</time>
      </trkpt>
      <trkpt lat="48.59328" lon="1.72845">
        <ele>143</ele>
        <time>2024-05-27T09:06:50.136Z</time>
      </trkpt>
      <trkpt lat="48.59332" lon="1.72838">
        <ele>143</ele>
        <time>2024-05-27T09:06:54.136Z</time>
      </trkpt>
      <trkpt lat="48.59336" lon="1.72833">
        <ele>143</ele>
        <time>2024-05-27T09:06:58.389Z</time>
      </trkpt>
      <trkpt lat="48.59339" lon="1.72825">
        <ele>143</ele>
        <time>2024-05-27T09:07:03.136Z</time>
      </trkpt>
      <trkpt lat="48.59342" lon="1.72821">
        <ele>143</ele>
        <time>2024-05-27T09:07:08.031Z</time>
      </trkpt>
      <trkpt lat="48.59345" lon="1.72816">
        <ele>141</ele>
        <time>2024-05-27T09:07:12.136Z</time>
      </trkpt>
      <trkpt lat="48.5935" lon="1.72805">
        <ele>147</ele>
        <time>2024-05-27T09:07:30.631Z</time>
      </trkpt>
      <trkpt lat="48.5935" lon="1.72804">
        <ele>147</ele>
        <time>2024-05-27T09:07:35.135Z</time>
      </trkpt>
      <trkpt lat="48.5935" lon="1.72798">
        <ele>147</ele>
        <time>2024-05-27T09:07:39.734Z</time>
      </trkpt>
      <trkpt lat="48.59352" lon="1.72789">
        <ele>145</ele>
        <time>2024-05-27T09:07:44.231Z</time>
      </trkpt>
      <trkpt lat="48.59354" lon="1.72781">
        <ele>145</ele>
        <time>2024-05-27T09:07:48.693Z</time>
      </trkpt>
      <trkpt lat="48.59355" lon="1.72774">
        <ele>145</ele>
        <time>2024-05-27T09:07:52.813Z</time>
      </trkpt>
      <trkpt lat="48.59353" lon="1.72767">
        <ele>145</ele>
        <time>2024-05-27T09:07:57.136Z</time>
      </trkpt>
      <trkpt lat="48.59354" lon="1.72762">
        <ele>142</ele>
        <time>2024-05-27T09:08:01.652Z</time>
      </trkpt>
      <trkpt lat="48.59354" lon="1.72757">
        <ele>142</ele>
        <time>2024-05-27T09:08:05.756Z</time>
      </trkpt>
      <trkpt lat="48.59355" lon="1.72752">
        <ele>142</ele>
        <time>2024-05-27T09:08:10.090Z</time>
      </trkpt>
      <trkpt lat="48.59356" lon="1.72746">
        <ele>142</ele>
        <time>2024-05-27T09:08:14.136Z</time>
      </trkpt>
      <trkpt lat="48.59357" lon="1.7274">
        <ele>142</ele>
        <time>2024-05-27T09:08:18.290Z</time>
      </trkpt>
      <trkpt lat="48.59358" lon="1.72736">
        <ele>142</ele>
        <time>2024-05-27T09:08:23.136Z</time>
      </trkpt>
      <trkpt lat="48.59358" lon="1.72734">
        <ele>140</ele>
        <time>2024-05-27T09:08:28.033Z</time>
      </trkpt>
      <trkpt lat="48.59358" lon="1.7273">
        <ele>140</ele>
        <time>2024-05-27T09:08:32.531Z</time>
      </trkpt>
      <trkpt lat="48.59357" lon="1.72727">
        <ele>140</ele>
        <time>2024-05-27T09:08:37.136Z</time>
      </trkpt>
      <trkpt lat="48.59357" lon="1.7272">
        <ele>140</ele>
        <time>2024-05-27T09:08:41.674Z</time>
      </trkpt>
      <trkpt lat="48.59362" lon="1.72714">
        <ele>140</ele>
        <time>2024-05-27T09:08:45.992Z</time>
      </trkpt>
      <trkpt lat="48.59368" lon="1.72711">
        <ele>140</ele>
        <time>2024-05-27T09:08:50.136Z</time>
      </trkpt>
      <trkpt lat="48.59372" lon="1.72706">
        <ele>138</ele>
        <time>2024-05-27T09:08:54.889Z</time>
      </trkpt>
      <trkpt lat="48.59374" lon="1.72698">
        <ele>138</ele>
        <time>2024-05-27T09:08:59.136Z</time>
      </trkpt>
      <trkpt lat="48.59377" lon="1.7269">
        <ele>143</ele>
        <time>2024-05-27T09:09:03.814Z</time>
      </trkpt>
      <trkpt lat="48.59379" lon="1.72682">
        <ele>143</ele>
        <time>2024-05-27T09:09:08.136Z</time>
      </trkpt>
      <trkpt lat="48.59381" lon="1.72674">
        <ele>141</ele>
        <time>2024-05-27T09:09:12.814Z</time>
      </trkpt>
      <trkpt lat="48.59384" lon="1.72666">
        <ele>141</ele>
        <time>2024-05-27T09:09:17.149Z</time>
      </trkpt>
      <trkpt lat="48.59388" lon="1.72658">
        <ele>141</ele>
        <time>2024-05-27T09:09:21.876Z</time>
      </trkpt>
      <trkpt lat="48.59391" lon="1.7265">
        <ele>137</ele>
        <time>2024-05-27T09:09:25.936Z</time>
      </trkpt>
      <trkpt lat="48.59394" lon="1.72643">
        <ele>137</ele>
        <time>2024-05-27T09:09:30.136Z</time>
      </trkpt>
      <trkpt lat="48.59396" lon="1.72634">
        <ele>137</ele>
        <time>2024-05-27T09:09:35.136Z</time>
      </trkpt>
      <trkpt lat="48.59398" lon="1.72626">
        <ele>137</ele>
        <time>2024-05-27T09:09:39.793Z</time>
      </trkpt>
      <trkpt lat="48.59401" lon="1.72619">
        <ele>134</ele>
        <time>2024-05-27T09:09:44.136Z</time>
      </trkpt>
      <trkpt lat="48.59405" lon="1.72611">
        <ele>141</ele>
        <time>2024-05-27T09:09:49.136Z</time>
      </trkpt>
      <trkpt lat="48.59407" lon="1.72602">
        <ele>141</ele>
        <time>2024-05-27T09:09:54.091Z</time>
      </trkpt>
      <trkpt lat="48.59406" lon="1.72595">
        <ele>139</ele>
        <time>2024-05-27T09:09:58.136Z</time>
      </trkpt>
      <trkpt lat="48.59409" lon="1.72585">
        <ele>139</ele>
        <time>2024-05-27T09:10:02.971Z</time>
      </trkpt>
      <trkpt lat="48.59411" lon="1.72578">
        <ele>139</ele>
        <time>2024-05-27T09:10:07.136Z</time>
      </trkpt>
      <trkpt lat="48.59413" lon="1.72569">
        <ele>139</ele>
        <time>2024-05-27T09:10:11.895Z</time>
      </trkpt>
      <trkpt lat="48.59414" lon="1.72562">
        <ele>139</ele>
        <time>2024-05-27T09:10:16.331Z</time>
      </trkpt>
      <trkpt lat="48.59415" lon="1.72553">
        <ele>139</ele>
        <time>2024-05-27T09:10:20.693Z</time>
      </trkpt>
      <trkpt lat="48.59414" lon="1.72546">
        <ele>139</ele>
        <time>2024-05-27T09:10:25.111Z</time>
      </trkpt>
      <trkpt lat="48.59414" lon="1.72537">
        <ele>138</ele>
        <time>2024-05-27T09:10:29.412Z</time>
      </trkpt>
      <trkpt lat="48.59416" lon="1.7252">
        <ele>138</ele>
        <time>2024-05-27T09:10:56.814Z</time>
      </trkpt>
      <trkpt lat="48.59419" lon="1.72521">
        <ele>138</ele>
        <time>2024-05-27T09:11:00.892Z</time>
      </trkpt>
      <trkpt lat="48.59427" lon="1.72521">
        <ele>138</ele>
        <time>2024-05-27T09:11:05.131Z</time>
      </trkpt>
      <trkpt lat="48.59431" lon="1.72512">
        <ele>137</ele>
        <time>2024-05-27T09:11:09.136Z</time>
      </trkpt>
      <trkpt lat="48.59431" lon="1.72501">
        <ele>143</ele>
        <time>2024-05-27T09:11:14.136Z</time>
      </trkpt>
      <trkpt lat="48.59433" lon="1.72492">
        <ele>143</ele>
        <time>2024-05-27T09:11:18.595Z</time>
      </trkpt>
      <trkpt lat="48.59433" lon="1.72485">
        <ele>141</ele>
        <time>2024-05-27T09:11:22.835Z</time>
      </trkpt>
      <trkpt lat="48.59434" lon="1.72479">
        <ele>141</ele>
        <time>2024-05-27T09:11:27.136Z</time>
      </trkpt>
      <trkpt lat="48.59438" lon="1.72474">
        <ele>141</ele>
        <time>2024-05-27T09:11:31.913Z</time>
      </trkpt>
      <trkpt lat="48.59442" lon="1.72469">
        <ele>141</ele>
        <time>2024-05-27T09:11:37.135Z</time>
      </trkpt>
      <trkpt lat="48.59445" lon="1.72464">
        <ele>141</ele>
        <time>2024-05-27T09:11:41.912Z</time>
      </trkpt>
      <trkpt lat="48.59446" lon="1.7246">
        <ele>141</ele>
        <time>2024-05-27T09:11:46.510Z</time>
      </trkpt>
      <trkpt lat="48.59446" lon="1.72453">
        <ele>138</ele>
        <time>2024-05-27T09:11:51.136Z</time>
      </trkpt>
      <trkpt lat="48.59447" lon="1.72447">
        <ele>138</ele>
        <time>2024-05-27T09:11:56.136Z</time>
      </trkpt>
      <trkpt lat="48.59451" lon="1.72444">
        <ele>138</ele>
        <time>2024-05-27T09:12:00.689Z</time>
      </trkpt>
      <trkpt lat="48.59454" lon="1.72447">
        <ele>138</ele>
        <time>2024-05-27T09:12:05.136Z</time>
      </trkpt>
      <trkpt lat="48.59457" lon="1.72451">
        <ele>138</ele>
        <time>2024-05-27T09:12:09.989Z</time>
      </trkpt>
      <trkpt lat="48.5946" lon="1.72454">
        <ele>146</ele>
        <time>2024-05-27T09:12:14.695Z</time>
      </trkpt>
      <trkpt lat="48.59463" lon="1.72456">
        <ele>146</ele>
        <time>2024-05-27T09:12:19.135Z</time>
      </trkpt>
      <trkpt lat="48.59465" lon="1.72456">
        <ele>146</ele>
        <time>2024-05-27T09:12:23.929Z</time>
      </trkpt>
      <trkpt lat="48.59469" lon="1.72456">
        <ele>146</ele>
        <time>2024-05-27T09:12:28.516Z</time>
      </trkpt>
      <trkpt lat="48.59472" lon="1.72458">
        <ele>146</ele>
        <time>2024-05-27T09:12:33.135Z</time>
      </trkpt>
      <trkpt lat="48.59474" lon="1.72459">
        <ele>147</ele>
        <time>2024-05-27T09:12:37.136Z</time>
      </trkpt>
      <trkpt lat="48.59477" lon="1.72459">
        <ele>147</ele>
        <time>2024-05-27T09:12:41.974Z</time>
      </trkpt>
      <trkpt lat="48.5948" lon="1.7246">
        <ele>147</ele>
        <time>2024-05-27T09:12:46.316Z</time>
      </trkpt>
      <trkpt lat="48.59484" lon="1.7246">
        <ele>147</ele>
        <time>2024-05-27T09:12:51.017Z</time>
      </trkpt>
      <trkpt lat="48.59487" lon="1.72461">
        <ele>154</ele>
        <time>2024-05-27T09:12:55.156Z</time>
      </trkpt>
      <trkpt lat="48.5949" lon="1.72458">
        <ele>154</ele>
        <time>2024-05-27T09:12:59.617Z</time>
      </trkpt>
      <trkpt lat="48.59493" lon="1.72458">
        <ele>152</ele>
        <time>2024-05-27T09:13:04.096Z</time>
      </trkpt>
      <trkpt lat="48.59497" lon="1.72461">
        <ele>154</ele>
        <time>2024-05-27T09:13:08.651Z</time>
      </trkpt>
      <trkpt lat="48.59501" lon="1.72465">
        <ele>154</ele>
        <time>2024-05-27T09:13:13.135Z</time>
      </trkpt>
      <trkpt lat="48.59505" lon="1.72468">
        <ele>154</ele>
        <time>2024-05-27T09:13:18.136Z</time>
      </trkpt>
      <trkpt lat="48.59509" lon="1.7247">
        <ele>154</ele>
        <time>2024-05-27T09:13:22.694Z</time>
      </trkpt>
      <trkpt lat="48.59512" lon="1.72471">
        <ele>154</ele>
        <time>2024-05-27T09:13:27.136Z</time>
      </trkpt>
      <trkpt lat="48.59514" lon="1.72471">
        <ele>158</ele>
        <time>2024-05-27T09:13:31.815Z</time>
      </trkpt>
      <trkpt lat="48.59517" lon="1.72469">
        <ele>158</ele>
        <time>2024-05-27T09:13:35.879Z</time>
      </trkpt>
      <trkpt lat="48.59521" lon="1.7247">
        <ele>158</ele>
        <time>2024-05-27T09:13:40.714Z</time>
      </trkpt>
      <trkpt lat="48.59524" lon="1.72472">
        <ele>158</ele>
        <time>2024-05-27T09:13:44.834Z</time>
      </trkpt>
      <trkpt lat="48.59527" lon="1.72472">
        <ele>158</ele>
        <time>2024-05-27T09:13:49.393Z</time>
      </trkpt>
      <trkpt lat="48.5953" lon="1.72473">
        <ele>158</ele>
        <time>2024-05-27T09:13:53.408Z</time>
      </trkpt>
      <trkpt lat="48.59534" lon="1.72474">
        <ele>158</ele>
        <time>2024-05-27T09:13:57.666Z</time>
      </trkpt>
      <trkpt lat="48.59539" lon="1.72474">
        <ele>158</ele>
        <time>2024-05-27T09:14:01.992Z</time>
      </trkpt>
      <trkpt lat="48.59544" lon="1.72478">
        <ele>160</ele>
        <time>2024-05-27T09:14:06.135Z</time>
      </trkpt>
      <trkpt lat="48.5955" lon="1.72482">
        <ele>160</ele>
        <time>2024-05-27T09:14:11.156Z</time>
      </trkpt>
      <trkpt lat="48.59553" lon="1.72481">
        <ele>160</ele>
        <time>2024-05-27T09:14:15.454Z</time>
      </trkpt>
      <trkpt lat="48.59555" lon="1.7248">
        <ele>160</ele>
        <time>2024-05-27T09:14:19.976Z</time>
      </trkpt>
      <trkpt lat="48.59558" lon="1.7248">
        <ele>160</ele>
        <time>2024-05-27T09:14:48.136Z</time>
      </trkpt>
      <trkpt lat="48.59558" lon="1.72475">
        <ele>160</ele>
        <time>2024-05-27T09:14:53.136Z</time>
      </trkpt>
      <trkpt lat="48.59559" lon="1.72471">
        <ele>160</ele>
        <time>2024-05-27T09:14:57.657Z</time>
      </trkpt>
      <trkpt lat="48.59563" lon="1.72461">
        <ele>160</ele>
        <time>2024-05-27T09:15:02.135Z</time>
      </trkpt>
      <trkpt lat="48.59566" lon="1.72455">
        <ele>161</ele>
        <time>2024-05-27T09:15:06.695Z</time>
      </trkpt>
      <trkpt lat="48.59567" lon="1.72449">
        <ele>161</ele>
        <time>2024-05-27T09:15:11.136Z</time>
      </trkpt>
      <trkpt lat="48.5957" lon="1.7244">
        <ele>161</ele>
        <time>2024-05-27T09:15:16.136Z</time>
      </trkpt>
      <trkpt lat="48.59572" lon="1.72433">
        <ele>161</ele>
        <time>2024-05-27T09:15:20.758Z</time>
      </trkpt>
      <trkpt lat="48.59574" lon="1.72425">
        <ele>160</ele>
        <time>2024-05-27T09:15:25.136Z</time>
      </trkpt>
      <trkpt lat="48.59577" lon="1.72417">
        <ele>160</ele>
        <time>2024-05-27T09:15:29.817Z</time>
      </trkpt>
      <trkpt lat="48.59579" lon="1.7241">
        <ele>160</ele>
        <time>2024-05-27T09:15:33.853Z</time>
      </trkpt>
      <trkpt lat="48.59581" lon="1.72403">
        <ele>160</ele>
        <time>2024-05-27T09:15:38.016Z</time>
      </trkpt>
      <trkpt lat="48.59582" lon="1.72397">
        <ele>159</ele>
        <time>2024-05-27T09:15:42.136Z</time>
      </trkpt>
      <trkpt lat="48.59584" lon="1.72391">
        <ele>159</ele>
        <time>2024-05-27T09:15:46.530Z</time>
      </trkpt>
      <trkpt lat="48.59586" lon="1.72385">
        <ele>159</ele>
        <time>2024-05-27T09:15:50.754Z</time>
      </trkpt>
      <trkpt lat="48.59587" lon="1.72379">
        <ele>159</ele>
        <time>2024-05-27T09:15:55.189Z</time>
      </trkpt>
      <trkpt lat="48.5959" lon="1.72371">
        <ele>158</ele>
        <time>2024-05-27T09:16:00.136Z</time>
      </trkpt>
      <trkpt lat="48.59591" lon="1.72361">
        <ele>158</ele>
        <time>2024-05-27T09:16:05.135Z</time>
      </trkpt>
      <trkpt lat="48.59595" lon="1.72358">
        <ele>158</ele>
        <time>2024-05-27T09:16:09.554Z</time>
      </trkpt>
      <trkpt lat="48.59598" lon="1.72349">
        <ele>158</ele>
        <time>2024-05-27T09:16:14.015Z</time>
      </trkpt>
      <trkpt lat="48.59601" lon="1.72344">
        <ele>158</ele>
        <time>2024-05-27T09:16:18.290Z</time>
      </trkpt>
      <trkpt lat="48.59603" lon="1.72336">
        <ele>158</ele>
        <time>2024-05-27T09:16:23.033Z</time>
      </trkpt>
      <trkpt lat="48.59606" lon="1.72329">
        <ele>158</ele>
        <time>2024-05-27T09:16:27.792Z</time>
      </trkpt>
      <trkpt lat="48.59607" lon="1.72323">
        <ele>158</ele>
        <time>2024-05-27T09:16:32.078Z</time>
      </trkpt>
      <trkpt lat="48.5961" lon="1.72319">
        <ele>157</ele>
        <time>2024-05-27T09:16:36.134Z</time>
      </trkpt>
      <trkpt lat="48.59611" lon="1.72312">
        <ele>157</ele>
        <time>2024-05-27T09:16:41.135Z</time>
      </trkpt>
      <trkpt lat="48.59612" lon="1.72306">
        <ele>157</ele>
        <time>2024-05-27T09:16:46.135Z</time>
      </trkpt>
      <trkpt lat="48.59615" lon="1.72301">
        <ele>157</ele>
        <time>2024-05-27T09:16:51.017Z</time>
      </trkpt>
      <trkpt lat="48.59617" lon="1.72297">
        <ele>157</ele>
        <time>2024-05-27T09:16:55.135Z</time>
      </trkpt>
      <trkpt lat="48.5962" lon="1.72292">
        <ele>157</ele>
        <time>2024-05-27T09:17:00.135Z</time>
      </trkpt>
      <trkpt lat="48.59623" lon="1.72288">
        <ele>156</ele>
        <time>2024-05-27T09:17:04.710Z</time>
      </trkpt>
      <trkpt lat="48.59627" lon="1.72282">
        <ele>157</ele>
        <time>2024-05-27T09:17:09.134Z</time>
      </trkpt>
      <trkpt lat="48.5963" lon="1.72277">
        <ele>157</ele>
        <time>2024-05-27T09:17:13.515Z</time>
      </trkpt>
      <trkpt lat="48.59633" lon="1.72272">
        <ele>157</ele>
        <time>2024-05-27T09:17:17.891Z</time>
      </trkpt>
      <trkpt lat="48.59637" lon="1.72266">
        <ele>157</ele>
        <time>2024-05-27T09:17:23.135Z</time>
      </trkpt>
      <trkpt lat="48.59641" lon="1.72259">
        <ele>157</ele>
        <time>2024-05-27T09:17:28.135Z</time>
      </trkpt>
      <trkpt lat="48.59646" lon="1.72257">
        <ele>157</ele>
        <time>2024-05-27T09:17:32.336Z</time>
      </trkpt>
      <trkpt lat="48.59649" lon="1.72252">
        <ele>157</ele>
        <time>2024-05-27T09:17:36.389Z</time>
      </trkpt>
      <trkpt lat="48.59653" lon="1.72246">
        <ele>157</ele>
        <time>2024-05-27T09:17:40.654Z</time>
      </trkpt>
      <trkpt lat="48.59656" lon="1.72242">
        <ele>158</ele>
        <time>2024-05-27T09:17:45.135Z</time>
      </trkpt>
      <trkpt lat="48.59658" lon="1.72235">
        <ele>158</ele>
        <time>2024-05-27T09:17:49.375Z</time>
      </trkpt>
      <trkpt lat="48.59662" lon="1.72228">
        <ele>158</ele>
        <time>2024-05-27T09:17:54.135Z</time>
      </trkpt>
      <trkpt lat="48.59664" lon="1.7222">
        <ele>158</ele>
        <time>2024-05-27T09:17:58.591Z</time>
      </trkpt>
      <trkpt lat="48.59667" lon="1.72216">
        <ele>158</ele>
        <time>2024-05-27T09:18:02.616Z</time>
      </trkpt>
      <trkpt lat="48.59671" lon="1.7221">
        <ele>158</ele>
        <time>2024-05-27T09:18:07.135Z</time>
      </trkpt>
      <trkpt lat="48.59675" lon="1.72203">
        <ele>157</ele>
        <time>2024-05-27T09:18:11.873Z</time>
      </trkpt>
      <trkpt lat="48.59678" lon="1.72196">
        <ele>157</ele>
        <time>2024-05-27T09:18:15.994Z</time>
      </trkpt>
      <trkpt lat="48.59681" lon="1.72191">
        <ele>157</ele>
        <time>2024-05-27T09:18:20.135Z</time>
      </trkpt>
      <trkpt lat="48.59683" lon="1.72183">
        <ele>159</ele>
        <time>2024-05-27T09:18:24.875Z</time>
      </trkpt>
      <trkpt lat="48.59688" lon="1.72168">
        <ele>158</ele>
        <time>2024-05-27T09:18:34.030Z</time>
      </trkpt>
      <trkpt lat="48.59692" lon="1.72161">
        <ele>158</ele>
        <time>2024-05-27T09:18:39.088Z</time>
      </trkpt>
      <trkpt lat="48.59695" lon="1.72155">
        <ele>158</ele>
        <time>2024-05-27T09:18:43.135Z</time>
      </trkpt>
      <trkpt lat="48.59699" lon="1.72148">
        <ele>158</ele>
        <time>2024-05-27T09:18:48.133Z</time>
      </trkpt>
      <trkpt lat="48.59703" lon="1.72142">
        <ele>158</ele>
        <time>2024-05-27T09:18:53.135Z</time>
      </trkpt>
      <trkpt lat="48.59706" lon="1.72136">
        <ele>158</ele>
        <time>2024-05-27T09:18:57.688Z</time>
      </trkpt>
      <trkpt lat="48.59709" lon="1.7213">
        <ele>158</ele>
        <time>2024-05-27T09:19:01.835Z</time>
      </trkpt>
      <trkpt lat="48.59712" lon="1.72121">
        <ele>158</ele>
        <time>2024-05-27T09:19:06.851Z</time>
      </trkpt>
      <trkpt lat="48.59714" lon="1.72114">
        <ele>158</ele>
        <time>2024-05-27T09:19:11.076Z</time>
      </trkpt>
      <trkpt lat="48.59717" lon="1.72109">
        <ele>158</ele>
        <time>2024-05-27T09:19:15.135Z</time>
      </trkpt>
      <trkpt lat="48.59719" lon="1.72102">
        <ele>158</ele>
        <time>2024-05-27T09:19:19.301Z</time>
      </trkpt>
      <trkpt lat="48.5972" lon="1.72093">
        <ele>159</ele>
        <time>2024-05-27T09:19:23.993Z</time>
      </trkpt>
      <trkpt lat="48.59722" lon="1.72086">
        <ele>159</ele>
        <time>2024-05-27T09:19:28.975Z</time>
      </trkpt>
      <trkpt lat="48.59723" lon="1.72077">
        <ele>159</ele>
        <time>2024-05-27T09:19:33.135Z</time>
      </trkpt>
      <trkpt lat="48.59722" lon="1.72071">
        <ele>159</ele>
        <time>2024-05-27T09:19:38.135Z</time>
      </trkpt>
      <trkpt lat="48.59719" lon="1.72067">
        <ele>159</ele>
        <time>2024-05-27T09:19:43.073Z</time>
      </trkpt>
      <trkpt lat="48.59724" lon="1.72063">
        <ele>159</ele>
        <time>2024-05-27T09:19:47.135Z</time>
      </trkpt>
      <trkpt lat="48.59728" lon="1.72057">
        <ele>159</ele>
        <time>2024-05-27T09:19:52.135Z</time>
      </trkpt>
      <trkpt lat="48.59729" lon="1.72048">
        <ele>159</ele>
        <time>2024-05-27T09:19:56.832Z</time>
      </trkpt>
      <trkpt lat="48.5973" lon="1.72042">
        <ele>159</ele>
        <time>2024-05-27T09:20:00.995Z</time>
      </trkpt>
      <trkpt lat="48.59729" lon="1.72042">
        <ele>159</ele>
        <time>2024-05-27T09:20:05.373Z</time>
      </trkpt>
      <trkpt lat="48.59731" lon="1.72036">
        <ele>158</ele>
        <time>2024-05-27T09:20:10.031Z</time>
      </trkpt>
      <trkpt lat="48.59733" lon="1.72029">
        <ele>158</ele>
        <time>2024-05-27T09:20:14.135Z</time>
      </trkpt>
      <trkpt lat="48.59735" lon="1.7202">
        <ele>158</ele>
        <time>2024-05-27T09:20:18.955Z</time>
      </trkpt>
      <trkpt lat="48.59736" lon="1.72014">
        <ele>158</ele>
        <time>2024-05-27T09:20:23.135Z</time>
      </trkpt>
      <trkpt lat="48.59741" lon="1.7201">
        <ele>157</ele>
        <time>2024-05-27T09:20:28.135Z</time>
      </trkpt>
      <trkpt lat="48.59745" lon="1.72015">
        <ele>158</ele>
        <time>2024-05-27T09:20:32.853Z</time>
      </trkpt>
      <trkpt lat="48.59749" lon="1.72018">
        <ele>158</ele>
        <time>2024-05-27T09:20:37.134Z</time>
      </trkpt>
      <trkpt lat="48.59754" lon="1.72023">
        <ele>158</ele>
        <time>2024-05-27T09:20:41.692Z</time>
      </trkpt>
      <trkpt lat="48.59759" lon="1.72028">
        <ele>158</ele>
        <time>2024-05-27T09:20:46.135Z</time>
      </trkpt>
      <trkpt lat="48.59763" lon="1.72032">
        <ele>158</ele>
        <time>2024-05-27T09:20:50.616Z</time>
      </trkpt>
      <trkpt lat="48.5977" lon="1.72036">
        <ele>158</ele>
        <time>2024-05-27T09:20:55.035Z</time>
      </trkpt>
      <trkpt lat="48.59774" lon="1.7204">
        <ele>158</ele>
        <time>2024-05-27T09:20:59.328Z</time>
      </trkpt>
      <trkpt lat="48.5978" lon="1.72044">
        <ele>159</ele>
        <time>2024-05-27T09:21:04.135Z</time>
      </trkpt>
      <trkpt lat="48.59785" lon="1.72047">
        <ele>159</ele>
        <time>2024-05-27T09:21:09.072Z</time>
      </trkpt>
      <trkpt lat="48.59791" lon="1.7205">
        <ele>159</ele>
        <time>2024-05-27T09:21:13.895Z</time>
      </trkpt>
      <trkpt lat="48.59796" lon="1.72056">
        <ele>161</ele>
        <time>2024-05-27T09:21:18.732Z</time>
      </trkpt>
      <trkpt lat="48.59801" lon="1.7206">
        <ele>161</ele>
        <time>2024-05-27T09:21:23.049Z</time>
      </trkpt>
      <trkpt lat="48.59806" lon="1.72062">
        <ele>161</ele>
        <time>2024-05-27T09:21:27.315Z</time>
      </trkpt>
      <trkpt lat="48.59812" lon="1.72064">
        <ele>161</ele>
        <time>2024-05-27T09:21:31.734Z</time>
      </trkpt>
      <trkpt lat="48.59816" lon="1.72067">
        <ele>161</ele>
        <time>2024-05-27T09:21:36.111Z</time>
      </trkpt>
      <trkpt lat="48.59821" lon="1.72071">
        <ele>165</ele>
        <time>2024-05-27T09:21:40.558Z</time>
      </trkpt>
      <trkpt lat="48.59826" lon="1.72076">
        <ele>165</ele>
        <time>2024-05-27T09:21:44.890Z</time>
      </trkpt>
      <trkpt lat="48.5983" lon="1.72079">
        <ele>165</ele>
        <time>2024-05-27T09:21:49.396Z</time>
      </trkpt>
      <trkpt lat="48.59836" lon="1.72084">
        <ele>165</ele>
        <time>2024-05-27T09:21:54.135Z</time>
      </trkpt>
      <trkpt lat="48.5984" lon="1.72088">
        <ele>165</ele>
        <time>2024-05-27T09:21:58.848Z</time>
      </trkpt>
      <trkpt lat="48.59846" lon="1.72091">
        <ele>165</ele>
        <time>2024-05-27T09:22:03.320Z</time>
      </trkpt>
      <trkpt lat="48.5985" lon="1.72092">
        <ele>167</ele>
        <time>2024-05-27T09:22:07.696Z</time>
      </trkpt>
      <trkpt lat="48.59856" lon="1.72093">
        <ele>167</ele>
        <time>2024-05-27T09:22:12.030Z</time>
      </trkpt>
      <trkpt lat="48.59862" lon="1.7209">
        <ele>167</ele>
        <time>2024-05-27T09:22:16.135Z</time>
      </trkpt>
      <trkpt lat="48.59866" lon="1.72086">
        <ele>167</ele>
        <time>2024-05-27T09:22:20.391Z</time>
      </trkpt>
      <trkpt lat="48.5987" lon="1.72078">
        <ele>167</ele>
        <time>2024-05-27T09:22:24.736Z</time>
      </trkpt>
      <trkpt lat="48.59875" lon="1.72072">
        <ele>167</ele>
        <time>2024-05-27T09:22:29.135Z</time>
      </trkpt>
      <trkpt lat="48.59877" lon="1.72067">
        <ele>167</ele>
        <time>2024-05-27T09:22:33.376Z</time>
      </trkpt>
      <trkpt lat="48.5988" lon="1.72059">
        <ele>167</ele>
        <time>2024-05-27T09:22:37.678Z</time>
      </trkpt>
      <trkpt lat="48.59883" lon="1.7205">
        <ele>167</ele>
        <time>2024-05-27T09:22:41.935Z</time>
      </trkpt>
      <trkpt lat="48.59885" lon="1.72044">
        <ele>167</ele>
        <time>2024-05-27T09:22:46.134Z</time>
      </trkpt>
      <trkpt lat="48.59887" lon="1.72037">
        <ele>168</ele>
        <time>2024-05-27T09:22:50.134Z</time>
      </trkpt>
      <trkpt lat="48.59889" lon="1.72027">
        <ele>168</ele>
        <time>2024-05-27T09:22:55.055Z</time>
      </trkpt>
      <trkpt lat="48.59892" lon="1.72021">
        <ele>168</ele>
        <time>2024-05-27T09:22:59.135Z</time>
      </trkpt>
      <trkpt lat="48.59894" lon="1.72013">
        <ele>167</ele>
        <time>2024-05-27T09:23:03.595Z</time>
      </trkpt>
      <trkpt lat="48.59896" lon="1.72005">
        <ele>167</ele>
        <time>2024-05-27T09:23:07.955Z</time>
      </trkpt>
      <trkpt lat="48.59898" lon="1.72">
        <ele>167</ele>
        <time>2024-05-27T09:23:12.135Z</time>
      </trkpt>
      <trkpt lat="48.59899" lon="1.71991">
        <ele>167</ele>
        <time>2024-05-27T09:23:16.708Z</time>
      </trkpt>
      <trkpt lat="48.59902" lon="1.71984">
        <ele>165</ele>
        <time>2024-05-27T09:23:21.051Z</time>
      </trkpt>
      <trkpt lat="48.59904" lon="1.71977">
        <ele>164</ele>
        <time>2024-05-27T09:23:25.135Z</time>
      </trkpt>
      <trkpt lat="48.59906" lon="1.71971">
        <ele>164</ele>
        <time>2024-05-27T09:23:29.421Z</time>
      </trkpt>
      <trkpt lat="48.59909" lon="1.71963">
        <ele>164</ele>
        <time>2024-05-27T09:23:33.636Z</time>
      </trkpt>
      <trkpt lat="48.5991" lon="1.71954">
        <ele>164</ele>
        <time>2024-05-27T09:23:38.134Z</time>
      </trkpt>
      <trkpt lat="48.59913" lon="1.71946">
        <ele>164</ele>
        <time>2024-05-27T09:23:42.636Z</time>
      </trkpt>
      <trkpt lat="48.59915" lon="1.7194">
        <ele>164</ele>
        <time>2024-05-27T09:23:46.714Z</time>
      </trkpt>
      <trkpt lat="48.59917" lon="1.71932">
        <ele>164</ele>
        <time>2024-05-27T09:23:50.989Z</time>
      </trkpt>
      <trkpt lat="48.59919" lon="1.71925">
        <ele>165</ele>
        <time>2024-05-27T09:23:55.334Z</time>
      </trkpt>
      <trkpt lat="48.59922" lon="1.71918">
        <ele>165</ele>
        <time>2024-05-27T09:23:59.951Z</time>
      </trkpt>
      <trkpt lat="48.59924" lon="1.71911">
        <ele>165</ele>
        <time>2024-05-27T09:24:04.135Z</time>
      </trkpt>
      <trkpt lat="48.59927" lon="1.71902">
        <ele>165</ele>
        <time>2024-05-27T09:24:09.071Z</time>
      </trkpt>
      <trkpt lat="48.5993" lon="1.71895">
        <ele>165</ele>
        <time>2024-05-27T09:24:13.135Z</time>
      </trkpt>
      <trkpt lat="48.59932" lon="1.71887">
        <ele>165</ele>
        <time>2024-05-27T09:24:17.390Z</time>
      </trkpt>
      <trkpt lat="48.59934" lon="1.7188">
        <ele>165</ele>
        <time>2024-05-27T09:24:21.778Z</time>
      </trkpt>
      <trkpt lat="48.59937" lon="1.71873">
        <ele>166</ele>
        <time>2024-05-27T09:24:25.912Z</time>
      </trkpt>
      <trkpt lat="48.59938" lon="1.71864">
        <ele>166</ele>
        <time>2024-05-27T09:24:38.135Z</time>
      </trkpt>
      <trkpt lat="48.59935" lon="1.71859">
        <ele>166</ele>
        <time>2024-05-27T09:24:43.134Z</time>
      </trkpt>
      <trkpt lat="48.59936" lon="1.71851">
        <ele>166</ele>
        <time>2024-05-27T09:24:48.034Z</time>
      </trkpt>
      <trkpt lat="48.5994" lon="1.71848">
        <ele>166</ele>
        <time>2024-05-27T09:24:52.135Z</time>
      </trkpt>
      <trkpt lat="48.59947" lon="1.71853">
        <ele>166</ele>
        <time>2024-05-27T09:24:56.993Z</time>
      </trkpt>
      <trkpt lat="48.59952" lon="1.7186">
        <ele>166</ele>
        <time>2024-05-27T09:25:01.573Z</time>
      </trkpt>
      <trkpt lat="48.59959" lon="1.71864">
        <ele>163</ele>
        <time>2024-05-27T09:25:06.135Z</time>
      </trkpt>
      <trkpt lat="48.59964" lon="1.7187">
        <ele>163</ele>
        <time>2024-05-27T09:25:11.135Z</time>
      </trkpt>
      <trkpt lat="48.5997" lon="1.71874">
        <ele>163</ele>
        <time>2024-05-27T09:25:15.650Z</time>
      </trkpt>
      <trkpt lat="48.59974" lon="1.71877">
        <ele>163</ele>
        <time>2024-05-27T09:25:19.736Z</time>
      </trkpt>
      <trkpt lat="48.59979" lon="1.71881">
        <ele>163</ele>
        <time>2024-05-27T09:25:24.135Z</time>
      </trkpt>
      <trkpt lat="48.59984" lon="1.71883">
        <ele>163</ele>
        <time>2024-05-27T09:25:28.549Z</time>
      </trkpt>
      <trkpt lat="48.59989" lon="1.71887">
        <ele>162</ele>
        <time>2024-05-27T09:25:33.135Z</time>
      </trkpt>
      <trkpt lat="48.59994" lon="1.71891">
        <ele>162</ele>
        <time>2024-05-27T09:25:37.593Z</time>
      </trkpt>
      <trkpt lat="48.59999" lon="1.71894">
        <ele>162</ele>
        <time>2024-05-27T09:25:42.135Z</time>
      </trkpt>
      <trkpt lat="48.60004" lon="1.71899">
        <ele>162</ele>
        <time>2024-05-27T09:25:47.088Z</time>
      </trkpt>
      <trkpt lat="48.60009" lon="1.71903">
        <ele>162</ele>
        <time>2024-05-27T09:25:52.096Z</time>
      </trkpt>
      <trkpt lat="48.60014" lon="1.71907">
        <ele>162</ele>
        <time>2024-05-27T09:25:56.135Z</time>
      </trkpt>
      <trkpt lat="48.6002" lon="1.71909">
        <ele>162</ele>
        <time>2024-05-27T09:26:00.832Z</time>
      </trkpt>
      <trkpt lat="48.60023" lon="1.71914">
        <ele>162</ele>
        <time>2024-05-27T09:26:05.135Z</time>
      </trkpt>
      <trkpt lat="48.60029" lon="1.71919">
        <ele>162</ele>
        <time>2024-05-27T09:26:10.135Z</time>
      </trkpt>
      <trkpt lat="48.60034" lon="1.71922">
        <ele>162</ele>
        <time>2024-05-27T09:26:14.696Z</time>
      </trkpt>
      <trkpt lat="48.60038" lon="1.71926">
        <ele>162</ele>
        <time>2024-05-27T09:26:19.131Z</time>
      </trkpt>
      <trkpt lat="48.60044" lon="1.71929">
        <ele>162</ele>
        <time>2024-05-27T09:26:23.151Z</time>
      </trkpt>
      <trkpt lat="48.60049" lon="1.71933">
        <ele>162</ele>
        <time>2024-05-27T09:26:27.714Z</time>
      </trkpt>
      <trkpt lat="48.60053" lon="1.71937">
        <ele>162</ele>
        <time>2024-05-27T09:26:32.135Z</time>
      </trkpt>
      <trkpt lat="48.60058" lon="1.71941">
        <ele>162</ele>
        <time>2024-05-27T09:26:36.834Z</time>
      </trkpt>
      <trkpt lat="48.60063" lon="1.71946">
        <ele>162</ele>
        <time>2024-05-27T09:26:40.955Z</time>
      </trkpt>
      <trkpt lat="48.60067" lon="1.71949">
        <ele>162</ele>
        <time>2024-05-27T09:26:45.450Z</time>
      </trkpt>
      <trkpt lat="48.60072" lon="1.71953">
        <ele>161</ele>
        <time>2024-05-27T09:26:49.955Z</time>
      </trkpt>
      <trkpt lat="48.60077" lon="1.71956">
        <ele>161</ele>
        <time>2024-05-27T09:26:54.613Z</time>
      </trkpt>
      <trkpt lat="48.60083" lon="1.7196">
        <ele>162</ele>
        <time>2024-05-27T09:26:59.135Z</time>
      </trkpt>
      <trkpt lat="48.60087" lon="1.71963">
        <ele>162</ele>
        <time>2024-05-27T09:27:04.048Z</time>
      </trkpt>
      <trkpt lat="48.60092" lon="1.71967">
        <ele>162</ele>
        <time>2024-05-27T09:27:08.135Z</time>
      </trkpt>
      <trkpt lat="48.60096" lon="1.71971">
        <ele>162</ele>
        <time>2024-05-27T09:27:12.631Z</time>
      </trkpt>
      <trkpt lat="48.60101" lon="1.71975">
        <ele>161</ele>
        <time>2024-05-27T09:27:17.093Z</time>
      </trkpt>
      <trkpt lat="48.60107" lon="1.71979">
        <ele>161</ele>
        <time>2024-05-27T09:27:22.134Z</time>
      </trkpt>
      <trkpt lat="48.60112" lon="1.71983">
        <ele>161</ele>
        <time>2024-05-27T09:27:26.656Z</time>
      </trkpt>
      <trkpt lat="48.60116" lon="1.71987">
        <ele>161</ele>
        <time>2024-05-27T09:27:31.134Z</time>
      </trkpt>
      <trkpt lat="48.60121" lon="1.71991">
        <ele>161</ele>
        <time>2024-05-27T09:27:35.929Z</time>
      </trkpt>
      <trkpt lat="48.60127" lon="1.71994">
        <ele>161</ele>
        <time>2024-05-27T09:27:40.894Z</time>
      </trkpt>
      <trkpt lat="48.60132" lon="1.71999">
        <ele>161</ele>
        <time>2024-05-27T09:27:44.896Z</time>
      </trkpt>
      <trkpt lat="48.60136" lon="1.72004">
        <ele>161</ele>
        <time>2024-05-27T09:27:49.613Z</time>
      </trkpt>
      <trkpt lat="48.60142" lon="1.72007">
        <ele>161</ele>
        <time>2024-05-27T09:27:54.135Z</time>
      </trkpt>
      <trkpt lat="48.60146" lon="1.72011">
        <ele>161</ele>
        <time>2024-05-27T09:27:58.315Z</time>
      </trkpt>
      <trkpt lat="48.60151" lon="1.72016">
        <ele>161</ele>
        <time>2024-05-27T09:28:02.777Z</time>
      </trkpt>
      <trkpt lat="48.60156" lon="1.72019">
        <ele>161</ele>
        <time>2024-05-27T09:28:07.135Z</time>
      </trkpt>
      <trkpt lat="48.60161" lon="1.72024">
        <ele>161</ele>
        <time>2024-05-27T09:28:11.956Z</time>
      </trkpt>
      <trkpt lat="48.60168" lon="1.7203">
        <ele>161</ele>
        <time>2024-05-27T09:28:17.135Z</time>
      </trkpt>
      <trkpt lat="48.60172" lon="1.72034">
        <ele>161</ele>
        <time>2024-05-27T09:28:21.673Z</time>
      </trkpt>
      <trkpt lat="48.60177" lon="1.72039">
        <ele>161</ele>
        <time>2024-05-27T09:28:26.135Z</time>
      </trkpt>
      <trkpt lat="48.60181" lon="1.72042">
        <ele>162</ele>
        <time>2024-05-27T09:28:30.134Z</time>
      </trkpt>
      <trkpt lat="48.60186" lon="1.72046">
        <ele>162</ele>
        <time>2024-05-27T09:28:34.494Z</time>
      </trkpt>
      <trkpt lat="48.60192" lon="1.72052">
        <ele>162</ele>
        <time>2024-05-27T09:28:38.872Z</time>
      </trkpt>
      <trkpt lat="48.60195" lon="1.72056">
        <ele>162</ele>
        <time>2024-05-27T09:28:43.135Z</time>
      </trkpt>
      <trkpt lat="48.602" lon="1.7206">
        <ele>162</ele>
        <time>2024-05-27T09:28:47.914Z</time>
      </trkpt>
      <trkpt lat="48.60206" lon="1.72065">
        <ele>162</ele>
        <time>2024-05-27T09:28:53.135Z</time>
      </trkpt>
      <trkpt lat="48.60211" lon="1.72069">
        <ele>160</ele>
        <time>2024-05-27T09:28:57.675Z</time>
      </trkpt>
      <trkpt lat="48.60216" lon="1.72073">
        <ele>159</ele>
        <time>2024-05-27T09:29:01.836Z</time>
      </trkpt>
      <trkpt lat="48.60221" lon="1.72078">
        <ele>159</ele>
        <time>2024-05-27T09:29:06.135Z</time>
      </trkpt>
      <trkpt lat="48.60226" lon="1.72083">
        <ele>159</ele>
        <time>2024-05-27T09:29:11.134Z</time>
      </trkpt>
      <trkpt lat="48.60231" lon="1.72087">
        <ele>159</ele>
        <time>2024-05-27T09:29:15.810Z</time>
      </trkpt>
      <trkpt lat="48.60236" lon="1.72092">
        <ele>159</ele>
        <time>2024-05-27T09:29:20.135Z</time>
      </trkpt>
      <trkpt lat="48.6024" lon="1.72096">
        <ele>157</ele>
        <time>2024-05-27T09:29:24.657Z</time>
      </trkpt>
      <trkpt lat="48.60245" lon="1.721">
        <ele>157</ele>
        <time>2024-05-27T09:29:28.752Z</time>
      </trkpt>
      <trkpt lat="48.60249" lon="1.72104">
        <ele>157</ele>
        <time>2024-05-27T09:29:33.135Z</time>
      </trkpt>
      <trkpt lat="48.60254" lon="1.72109">
        <ele>157</ele>
        <time>2024-05-27T09:29:38.135Z</time>
      </trkpt>
      <trkpt lat="48.60259" lon="1.72113">
        <ele>157</ele>
        <time>2024-05-27T09:29:42.856Z</time>
      </trkpt>
      <trkpt lat="48.60263" lon="1.72116">
        <ele>157</ele>
        <time>2024-05-27T09:29:46.956Z</time>
      </trkpt>
      <trkpt lat="48.60268" lon="1.7212">
        <ele>158</ele>
        <time>2024-05-27T09:29:51.376Z</time>
      </trkpt>
      <trkpt lat="48.60273" lon="1.72125">
        <ele>158</ele>
        <time>2024-05-27T09:29:56.135Z</time>
      </trkpt>
      <trkpt lat="48.60279" lon="1.72128">
        <ele>159</ele>
        <time>2024-05-27T09:30:01.015Z</time>
      </trkpt>
      <trkpt lat="48.60283" lon="1.72133">
        <ele>159</ele>
        <time>2024-05-27T09:30:05.135Z</time>
      </trkpt>
      <trkpt lat="48.60288" lon="1.72136">
        <ele>159</ele>
        <time>2024-05-27T09:30:09.809Z</time>
      </trkpt>
      <trkpt lat="48.60292" lon="1.72141">
        <ele>159</ele>
        <time>2024-05-27T09:30:14.135Z</time>
      </trkpt>
      <trkpt lat="48.60297" lon="1.72146">
        <ele>159</ele>
        <time>2024-05-27T09:30:18.797Z</time>
      </trkpt>
      <trkpt lat="48.60301" lon="1.7215">
        <ele>159</ele>
        <time>2024-05-27T09:30:23.134Z</time>
      </trkpt>
      <trkpt lat="48.60306" lon="1.72154">
        <ele>160</ele>
        <time>2024-05-27T09:30:27.674Z</time>
      </trkpt>
      <trkpt lat="48.60311" lon="1.72159">
        <ele>160</ele>
        <time>2024-05-27T09:30:32.049Z</time>
      </trkpt>
      <trkpt lat="48.60315" lon="1.72163">
        <ele>160</ele>
        <time>2024-05-27T09:30:36.574Z</time>
      </trkpt>
      <trkpt lat="48.60321" lon="1.72167">
        <ele>159</ele>
        <time>2024-05-27T09:30:41.015Z</time>
      </trkpt>
      <trkpt lat="48.60325" lon="1.7217">
        <ele>159</ele>
        <time>2024-05-27T09:30:45.134Z</time>
      </trkpt>
      <trkpt lat="48.6033" lon="1.72175">
        <ele>159</ele>
        <time>2024-05-27T09:30:49.427Z</time>
      </trkpt>
      <trkpt lat="48.60333" lon="1.72179">
        <ele>159</ele>
        <time>2024-05-27T09:30:53.768Z</time>
      </trkpt>
      <trkpt lat="48.60339" lon="1.72182">
        <ele>158</ele>
        <time>2024-05-27T09:30:58.133Z</time>
      </trkpt>
      <trkpt lat="48.60343" lon="1.72185">
        <ele>158</ele>
        <time>2024-05-27T09:31:02.530Z</time>
      </trkpt>
      <trkpt lat="48.60347" lon="1.7219">
        <ele>158</ele>
        <time>2024-05-27T09:31:07.134Z</time>
      </trkpt>
      <trkpt lat="48.60352" lon="1.72195">
        <ele>157</ele>
        <time>2024-05-27T09:31:12.134Z</time>
      </trkpt>
      <trkpt lat="48.60356" lon="1.72197">
        <ele>157</ele>
        <time>2024-05-27T09:31:16.408Z</time>
      </trkpt>
      <trkpt lat="48.60362" lon="1.72201">
        <ele>157</ele>
        <time>2024-05-27T09:31:21.134Z</time>
      </trkpt>
      <trkpt lat="48.60366" lon="1.72206">
        <ele>157</ele>
        <time>2024-05-27T09:31:25.809Z</time>
      </trkpt>
      <trkpt lat="48.60371" lon="1.7221">
        <ele>156</ele>
        <time>2024-05-27T09:31:30.134Z</time>
      </trkpt>
      <trkpt lat="48.60376" lon="1.72214">
        <ele>156</ele>
        <time>2024-05-27T09:31:34.469Z</time>
      </trkpt>
      <trkpt lat="48.6038" lon="1.72218">
        <ele>156</ele>
        <time>2024-05-27T09:31:39.134Z</time>
      </trkpt>
      <trkpt lat="48.60385" lon="1.72223">
        <ele>156</ele>
        <time>2024-05-27T09:31:43.597Z</time>
      </trkpt>
      <trkpt lat="48.6039" lon="1.72227">
        <ele>156</ele>
        <time>2024-05-27T09:31:48.036Z</time>
      </trkpt>
      <trkpt lat="48.60394" lon="1.72234">
        <ele>156</ele>
        <time>2024-05-27T09:31:52.134Z</time>
      </trkpt>
      <trkpt lat="48.60398" lon="1.72236">
        <ele>156</ele>
        <time>2024-05-27T09:31:56.956Z</time>
      </trkpt>
      <trkpt lat="48.60403" lon="1.72242">
        <ele>156</ele>
        <time>2024-05-27T09:32:01.134Z</time>
      </trkpt>
      <trkpt lat="48.60408" lon="1.72246">
        <ele>156</ele>
        <time>2024-05-27T09:32:05.973Z</time>
      </trkpt>
      <trkpt lat="48.60411" lon="1.72249">
        <ele>156</ele>
        <time>2024-05-27T09:32:09.992Z</time>
      </trkpt>
      <trkpt lat="48.60415" lon="1.72255">
        <ele>156</ele>
        <time>2024-05-27T09:32:14.134Z</time>
      </trkpt>
      <trkpt lat="48.6042" lon="1.7226">
        <ele>156</ele>
        <time>2024-05-27T09:32:18.291Z</time>
      </trkpt>
      <trkpt lat="48.60422" lon="1.72263">
        <ele>156</ele>
        <time>2024-05-27T09:32:22.514Z</time>
      </trkpt>
      <trkpt lat="48.60427" lon="1.72266">
        <ele>157</ele>
        <time>2024-05-27T09:32:27.134Z</time>
      </trkpt>
      <trkpt lat="48.60427" lon="1.72273">
        <ele>157</ele>
        <time>2024-05-27T09:32:32.134Z</time>
      </trkpt>
      <trkpt lat="48.60431" lon="1.72279">
        <ele>156</ele>
        <time>2024-05-27T09:32:36.633Z</time>
      </trkpt>
      <trkpt lat="48.60432" lon="1.72286">
        <ele>156</ele>
        <time>2024-05-27T09:32:41.134Z</time>
      </trkpt>
      <trkpt lat="48.60432" lon="1.72294">
        <ele>158</ele>
        <time>2024-05-27T09:32:45.514Z</time>
      </trkpt>
      <trkpt lat="48.60431" lon="1.72303">
        <ele>158</ele>
        <time>2024-05-27T09:32:50.134Z</time>
      </trkpt>
      <trkpt lat="48.6043" lon="1.72311">
        <ele>158</ele>
        <time>2024-05-27T09:32:54.811Z</time>
      </trkpt>
      <trkpt lat="48.6043" lon="1.72318">
        <ele>158</ele>
        <time>2024-05-27T09:32:59.134Z</time>
      </trkpt>
      <trkpt lat="48.60428" lon="1.72326">
        <ele>158</ele>
        <time>2024-05-27T09:33:03.452Z</time>
      </trkpt>
      <trkpt lat="48.60428" lon="1.72333">
        <ele>158</ele>
        <time>2024-05-27T09:33:07.798Z</time>
      </trkpt>
      <trkpt lat="48.60428" lon="1.72339">
        <ele>158</ele>
        <time>2024-05-27T09:33:12.095Z</time>
      </trkpt>
      <trkpt lat="48.60427" lon="1.72346">
        <ele>158</ele>
        <time>2024-05-27T09:33:16.429Z</time>
      </trkpt>
      <trkpt lat="48.60429" lon="1.72351">
        <ele>158</ele>
        <time>2024-05-27T09:33:21.134Z</time>
      </trkpt>
      <trkpt lat="48.60433" lon="1.72354">
        <ele>158</ele>
        <time>2024-05-27T09:33:25.590Z</time>
      </trkpt>
      <trkpt lat="48.60437" lon="1.72357">
        <ele>158</ele>
        <time>2024-05-27T09:33:29.889Z</time>
      </trkpt>
      <trkpt lat="48.60442" lon="1.72361">
        <ele>158</ele>
        <time>2024-05-27T09:33:34.095Z</time>
      </trkpt>
      <trkpt lat="48.60445" lon="1.72365">
        <ele>158</ele>
        <time>2024-05-27T09:33:38.292Z</time>
      </trkpt>
      <trkpt lat="48.60449" lon="1.72369">
        <ele>158</ele>
        <time>2024-05-27T09:33:41.974Z</time>
      </trkpt>
      <trkpt lat="48.60457" lon="1.72378">
        <ele>157</ele>
        <time>2024-05-27T09:33:50.861Z</time>
      </trkpt>
      <trkpt lat="48.6046" lon="1.72385">
        <ele>156</ele>
        <time>2024-05-27T09:33:55.049Z</time>
      </trkpt>
      <trkpt lat="48.60463" lon="1.72384">
        <ele>156</ele>
        <time>2024-05-27T09:33:59.133Z</time>
      </trkpt>
      <trkpt lat="48.60462" lon="1.72384">
        <ele>156</ele>
        <time>2024-05-27T09:34:03.962Z</time>
      </trkpt>
      <trkpt lat="48.60465" lon="1.72392">
        <ele>156</ele>
        <time>2024-05-27T09:34:08.964Z</time>
      </trkpt>
      <trkpt lat="48.6047" lon="1.72396">
        <ele>156</ele>
        <time>2024-05-27T09:34:13.134Z</time>
      </trkpt>
      <trkpt lat="48.60474" lon="1.72401">
        <ele>156</ele>
        <time>2024-05-27T09:34:17.342Z</time>
      </trkpt>
      <trkpt lat="48.60478" lon="1.72406">
        <ele>156</ele>
        <time>2024-05-27T09:34:21.403Z</time>
      </trkpt>
      <trkpt lat="48.60482" lon="1.72408">
        <ele>156</ele>
        <time>2024-05-27T09:34:25.687Z</time>
      </trkpt>
      <trkpt lat="48.60487" lon="1.72413">
        <ele>155</ele>
        <time>2024-05-27T09:34:30.156Z</time>
      </trkpt>
      <trkpt lat="48.60489" lon="1.72418">
        <ele>155</ele>
        <time>2024-05-27T09:34:34.662Z</time>
      </trkpt>
      <trkpt lat="48.60491" lon="1.72418">
        <ele>155</ele>
        <time>2024-05-27T09:34:39.134Z</time>
      </trkpt>
      <trkpt lat="48.60496" lon="1.7242">
        <ele>155</ele>
        <time>2024-05-27T09:34:44.029Z</time>
      </trkpt>
      <trkpt lat="48.60499" lon="1.72424">
        <ele>155</ele>
        <time>2024-05-27T09:34:48.134Z</time>
      </trkpt>
      <trkpt lat="48.60504" lon="1.72425">
        <ele>155</ele>
        <time>2024-05-27T09:34:52.662Z</time>
      </trkpt>
      <trkpt lat="48.60509" lon="1.72428">
        <ele>155</ele>
        <time>2024-05-27T09:34:57.134Z</time>
      </trkpt>
      <trkpt lat="48.60512" lon="1.7243">
        <ele>155</ele>
        <time>2024-05-27T09:35:01.134Z</time>
      </trkpt>
      <trkpt lat="48.60515" lon="1.7243">
        <ele>155</ele>
        <time>2024-05-27T09:35:05.442Z</time>
      </trkpt>
      <trkpt lat="48.60519" lon="1.72431">
        <ele>154</ele>
        <time>2024-05-27T09:35:09.528Z</time>
      </trkpt>
      <trkpt lat="48.60523" lon="1.72432">
        <ele>154</ele>
        <time>2024-05-27T09:35:13.592Z</time>
      </trkpt>
      <trkpt lat="48.60528" lon="1.72434">
        <ele>154</ele>
        <time>2024-05-27T09:35:17.890Z</time>
      </trkpt>
      <trkpt lat="48.60532" lon="1.72434">
        <ele>154</ele>
        <time>2024-05-27T09:35:21.924Z</time>
      </trkpt>
      <trkpt lat="48.60536" lon="1.72436">
        <ele>154</ele>
        <time>2024-05-27T09:35:26.104Z</time>
      </trkpt>
      <trkpt lat="48.60541" lon="1.72437">
        <ele>154</ele>
        <time>2024-05-27T09:35:30.567Z</time>
      </trkpt>
      <trkpt lat="48.60546" lon="1.72437">
        <ele>155</ele>
        <time>2024-05-27T09:35:35.148Z</time>
      </trkpt>
      <trkpt lat="48.60551" lon="1.72439">
        <ele>155</ele>
        <time>2024-05-27T09:35:40.106Z</time>
      </trkpt>
      <trkpt lat="48.60558" lon="1.72438">
        <ele>155</ele>
        <time>2024-05-27T09:35:44.864Z</time>
      </trkpt>
      <trkpt lat="48.60562" lon="1.72438">
        <ele>155</ele>
        <time>2024-05-27T09:35:49.134Z</time>
      </trkpt>
      <trkpt lat="48.60567" lon="1.72435">
        <ele>155</ele>
        <time>2024-05-27T09:35:53.326Z</time>
      </trkpt>
      <trkpt lat="48.60572" lon="1.72432">
        <ele>158</ele>
        <time>2024-05-27T09:35:57.523Z</time>
      </trkpt>
      <trkpt lat="48.60577" lon="1.72429">
        <ele>157</ele>
        <time>2024-05-27T09:36:01.747Z</time>
      </trkpt>
      <trkpt lat="48.60581" lon="1.72428">
        <ele>157</ele>
        <time>2024-05-27T09:36:05.754Z</time>
      </trkpt>
      <trkpt lat="48.60586" lon="1.72426">
        <ele>157</ele>
        <time>2024-05-27T09:36:10.306Z</time>
      </trkpt>
      <trkpt lat="48.60591" lon="1.72427">
        <ele>157</ele>
        <time>2024-05-27T09:36:14.705Z</time>
      </trkpt>
      <trkpt lat="48.60596" lon="1.72429">
        <ele>157</ele>
        <time>2024-05-27T09:36:19.134Z</time>
      </trkpt>
      <trkpt lat="48.60601" lon="1.72433">
        <ele>161</ele>
        <time>2024-05-27T09:36:23.825Z</time>
      </trkpt>
      <trkpt lat="48.60606" lon="1.72434">
        <ele>161</ele>
        <time>2024-05-27T09:36:28.081Z</time>
      </trkpt>
      <trkpt lat="48.6061" lon="1.72434">
        <ele>161</ele>
        <time>2024-05-27T09:36:32.467Z</time>
      </trkpt>
      <trkpt lat="48.60616" lon="1.72435">
        <ele>161</ele>
        <time>2024-05-27T09:36:36.545Z</time>
      </trkpt>
      <trkpt lat="48.60622" lon="1.72435">
        <ele>161</ele>
        <time>2024-05-27T09:36:40.802Z</time>
      </trkpt>
      <trkpt lat="48.60627" lon="1.72435">
        <ele>164</ele>
        <time>2024-05-27T09:36:45.084Z</time>
      </trkpt>
      <trkpt lat="48.60633" lon="1.72436">
        <ele>164</ele>
        <time>2024-05-27T09:36:49.588Z</time>
      </trkpt>
      <trkpt lat="48.60638" lon="1.72436">
        <ele>164</ele>
        <time>2024-05-27T09:36:53.930Z</time>
      </trkpt>
      <trkpt lat="48.60642" lon="1.72437">
        <ele>164</ele>
        <time>2024-05-27T09:36:58.134Z</time>
      </trkpt>
      <trkpt lat="48.60647" lon="1.72435">
        <ele>164</ele>
        <time>2024-05-27T09:37:02.649Z</time>
      </trkpt>
      <trkpt lat="48.60652" lon="1.72432">
        <ele>164</ele>
        <time>2024-05-27T09:37:07.042Z</time>
      </trkpt>
      <trkpt lat="48.60657" lon="1.72432">
        <ele>167</ele>
        <time>2024-05-27T09:37:11.563Z</time>
      </trkpt>
      <trkpt lat="48.60662" lon="1.72432">
        <ele>167</ele>
        <time>2024-05-27T09:37:16.008Z</time>
      </trkpt>
      <trkpt lat="48.60666" lon="1.72432">
        <ele>167</ele>
        <time>2024-05-27T09:37:20.428Z</time>
      </trkpt>
      <trkpt lat="48.60671" lon="1.7243">
        <ele>166</ele>
        <time>2024-05-27T09:37:24.810Z</time>
      </trkpt>
      <trkpt lat="48.60677" lon="1.7243">
        <ele>166</ele>
        <time>2024-05-27T09:37:29.133Z</time>
      </trkpt>
      <trkpt lat="48.60683" lon="1.72428">
        <ele>166</ele>
        <time>2024-05-27T09:37:42.666Z</time>
      </trkpt>
      <trkpt lat="48.60689" lon="1.72433">
        <ele>167</ele>
        <time>2024-05-27T09:37:46.982Z</time>
      </trkpt>
      <trkpt lat="48.60694" lon="1.72434">
        <ele>167</ele>
        <time>2024-05-27T09:37:51.134Z</time>
      </trkpt>
      <trkpt lat="48.607" lon="1.72432">
        <ele>167</ele>
        <time>2024-05-27T09:37:55.590Z</time>
      </trkpt>
      <trkpt lat="48.60705" lon="1.7243">
        <ele>166</ele>
        <time>2024-05-27T09:37:59.807Z</time>
      </trkpt>
      <trkpt lat="48.60709" lon="1.72427">
        <ele>167</ele>
        <time>2024-05-27T09:38:04.026Z</time>
      </trkpt>
      <trkpt lat="48.60715" lon="1.72427">
        <ele>167</ele>
        <time>2024-05-27T09:38:08.134Z</time>
      </trkpt>
      <trkpt lat="48.60719" lon="1.7243">
        <ele>167</ele>
        <time>2024-05-27T09:38:12.815Z</time>
      </trkpt>
      <trkpt lat="48.60723" lon="1.72431">
        <ele>168</ele>
        <time>2024-05-27T09:38:17.027Z</time>
      </trkpt>
      <trkpt lat="48.60727" lon="1.72431">
        <ele>168</ele>
        <time>2024-05-27T09:38:21.540Z</time>
      </trkpt>
      <trkpt lat="48.60732" lon="1.72432">
        <ele>168</ele>
        <time>2024-05-27T09:38:25.806Z</time>
      </trkpt>
      <trkpt lat="48.60737" lon="1.72432">
        <ele>170</ele>
        <time>2024-05-27T09:38:30.134Z</time>
      </trkpt>
      <trkpt lat="48.60742" lon="1.72432">
        <ele>170</ele>
        <time>2024-05-27T09:38:34.670Z</time>
      </trkpt>
      <trkpt lat="48.60747" lon="1.72431">
        <ele>170</ele>
        <time>2024-05-27T09:38:38.943Z</time>
      </trkpt>
      <trkpt lat="48.60752" lon="1.72428">
        <ele>168</ele>
        <time>2024-05-27T09:38:43.626Z</time>
      </trkpt>
      <trkpt lat="48.60757" lon="1.72426">
        <ele>168</ele>
        <time>2024-05-27T09:38:48.134Z</time>
      </trkpt>
      <trkpt lat="48.60763" lon="1.72425">
        <ele>168</ele>
        <time>2024-05-27T09:38:52.643Z</time>
      </trkpt>
      <trkpt lat="48.60768" lon="1.72425">
        <ele>169</ele>
        <time>2024-05-27T09:38:56.653Z</time>
      </trkpt>
      <trkpt lat="48.60775" lon="1.72425">
        <ele>169</ele>
        <time>2024-05-27T09:39:01.550Z</time>
      </trkpt>
      <trkpt lat="48.60781" lon="1.72424">
        <ele>169</ele>
        <time>2024-05-27T09:39:05.986Z</time>
      </trkpt>
      <trkpt lat="48.60787" lon="1.72424">
        <ele>169</ele>
        <time>2024-05-27T09:39:10.447Z</time>
      </trkpt>
      <trkpt lat="48.60791" lon="1.72426">
        <ele>169</ele>
        <time>2024-05-27T09:39:14.865Z</time>
      </trkpt>
      <trkpt lat="48.60796" lon="1.72424">
        <ele>169</ele>
        <time>2024-05-27T09:39:19.134Z</time>
      </trkpt>
      <trkpt lat="48.60804" lon="1.72421">
        <ele>169</ele>
        <time>2024-05-27T09:39:24.134Z</time>
      </trkpt>
      <trkpt lat="48.6081" lon="1.72418">
        <ele>169</ele>
        <time>2024-05-27T09:39:28.745Z</time>
      </trkpt>
      <trkpt lat="48.60815" lon="1.72417">
        <ele>169</ele>
        <time>2024-05-27T09:39:32.865Z</time>
      </trkpt>
      <trkpt lat="48.60821" lon="1.72417">
        <ele>169</ele>
        <time>2024-05-27T09:39:37.312Z</time>
      </trkpt>
      <trkpt lat="48.60827" lon="1.72418">
        <ele>169</ele>
        <time>2024-05-27T09:39:41.924Z</time>
      </trkpt>
      <trkpt lat="48.60833" lon="1.72419">
        <ele>169</ele>
        <time>2024-05-27T09:39:46.447Z</time>
      </trkpt>
      <trkpt lat="48.60839" lon="1.72416">
        <ele>169</ele>
        <time>2024-05-27T09:39:51.134Z</time>
      </trkpt>
      <trkpt lat="48.60845" lon="1.72414">
        <ele>169</ele>
        <time>2024-05-27T09:39:56.134Z</time>
      </trkpt>
      <trkpt lat="48.6085" lon="1.72414">
        <ele>169</ele>
        <time>2024-05-27T09:40:00.923Z</time>
      </trkpt>
      <trkpt lat="48.60854" lon="1.72413">
        <ele>169</ele>
        <time>2024-05-27T09:40:05.134Z</time>
      </trkpt>
      <trkpt lat="48.60862" lon="1.72415">
        <ele>169</ele>
        <time>2024-05-27T09:40:34.134Z</time>
      </trkpt>
      <trkpt lat="48.60864" lon="1.72416">
        <ele>169</ele>
        <time>2024-05-27T09:40:39.005Z</time>
      </trkpt>
      <trkpt lat="48.60868" lon="1.72416">
        <ele>169</ele>
        <time>2024-05-27T09:40:43.047Z</time>
      </trkpt>
      <trkpt lat="48.60873" lon="1.72413">
        <ele>169</ele>
        <time>2024-05-27T09:40:47.211Z</time>
      </trkpt>
      <trkpt lat="48.60879" lon="1.72411">
        <ele>169</ele>
        <time>2024-05-27T09:40:52.108Z</time>
      </trkpt>
      <trkpt lat="48.60883" lon="1.7241">
        <ele>169</ele>
        <time>2024-05-27T09:40:56.449Z</time>
      </trkpt>
      <trkpt lat="48.60887" lon="1.72408">
        <ele>169</ele>
        <time>2024-05-27T09:41:00.510Z</time>
      </trkpt>
      <trkpt lat="48.60891" lon="1.72406">
        <ele>169</ele>
        <time>2024-05-27T09:41:05.065Z</time>
      </trkpt>
      <trkpt lat="48.60897" lon="1.72405">
        <ele>169</ele>
        <time>2024-05-27T09:41:10.134Z</time>
      </trkpt>
      <trkpt lat="48.60902" lon="1.724">
        <ele>166</ele>
        <time>2024-05-27T09:41:14.506Z</time>
      </trkpt>
      <trkpt lat="48.60907" lon="1.72397">
        <ele>165</ele>
        <time>2024-05-27T09:41:19.042Z</time>
      </trkpt>
      <trkpt lat="48.60912" lon="1.72395">
        <ele>165</ele>
        <time>2024-05-27T09:41:23.069Z</time>
      </trkpt>
      <trkpt lat="48.60916" lon="1.72392">
        <ele>165</ele>
        <time>2024-05-27T09:41:27.344Z</time>
      </trkpt>
      <trkpt lat="48.6092" lon="1.72387">
        <ele>165</ele>
        <time>2024-05-27T09:41:31.907Z</time>
      </trkpt>
      <trkpt lat="48.60924" lon="1.72382">
        <ele>165</ele>
        <time>2024-05-27T09:41:36.104Z</time>
      </trkpt>
      <trkpt lat="48.60928" lon="1.72377">
        <ele>165</ele>
        <time>2024-05-27T09:41:40.140Z</time>
      </trkpt>
      <trkpt lat="48.60932" lon="1.72371">
        <ele>162</ele>
        <time>2024-05-27T09:41:44.327Z</time>
      </trkpt>
      <trkpt lat="48.60936" lon="1.72365">
        <ele>162</ele>
        <time>2024-05-27T09:41:48.451Z</time>
      </trkpt>
      <trkpt lat="48.60939" lon="1.7236">
        <ele>162</ele>
        <time>2024-05-27T09:41:52.424Z</time>
      </trkpt>
      <trkpt lat="48.60941" lon="1.7235">
        <ele>162</ele>
        <time>2024-05-27T09:41:57.134Z</time>
      </trkpt>
      <trkpt lat="48.60944" lon="1.72343">
        <ele>161</ele>
        <time>2024-05-27T09:42:01.644Z</time>
      </trkpt>
      <trkpt lat="48.60947" lon="1.72338">
        <ele>161</ele>
        <time>2024-05-27T09:42:06.133Z</time>
      </trkpt>
      <trkpt lat="48.6095" lon="1.72331">
        <ele>161</ele>
        <time>2024-05-27T09:42:10.765Z</time>
      </trkpt>
      <trkpt lat="48.60953" lon="1.72326">
        <ele>161</ele>
        <time>2024-05-27T09:42:15.089Z</time>
      </trkpt>
      <trkpt lat="48.60957" lon="1.72322">
        <ele>161</ele>
        <time>2024-05-27T09:42:19.108Z</time>
      </trkpt>
      <trkpt lat="48.60961" lon="1.72316">
        <ele>157</ele>
        <time>2024-05-27T09:42:24.134Z</time>
      </trkpt>
      <trkpt lat="48.60965" lon="1.72309">
        <ele>157</ele>
        <time>2024-05-27T09:42:29.062Z</time>
      </trkpt>
      <trkpt lat="48.60966" lon="1.72305">
        <ele>157</ele>
        <time>2024-05-27T09:42:31.511Z</time>
      </trkpt>
      <trkpt lat="48.60972" lon="1.72294">
        <ele>157</ele>
        <time>2024-05-27T09:42:40.134Z</time>
      </trkpt>
      <trkpt lat="48.6097" lon="1.72294">
        <ele>157</ele>
        <time>2024-05-27T09:42:45.134Z</time>
      </trkpt>
      <trkpt lat="48.6097" lon="1.72291">
        <ele>156</ele>
        <time>2024-05-27T09:42:49.133Z</time>
      </trkpt>
      <trkpt lat="48.60979" lon="1.7228">
        <ele>156</ele>
        <time>2024-05-27T09:42:53.956Z</time>
      </trkpt>
      <trkpt lat="48.60985" lon="1.72277">
        <ele>156</ele>
        <time>2024-05-27T09:42:58.507Z</time>
      </trkpt>
      <trkpt lat="48.60989" lon="1.72271">
        <ele>156</ele>
        <time>2024-05-27T09:43:03.134Z</time>
      </trkpt>
      <trkpt lat="48.60993" lon="1.72264">
        <ele>155</ele>
        <time>2024-05-27T09:43:07.847Z</time>
      </trkpt>
      <trkpt lat="48.60996" lon="1.72255">
        <ele>155</ele>
        <time>2024-05-27T09:43:12.527Z</time>
      </trkpt>
      <trkpt lat="48.60998" lon="1.72248">
        <ele>155</ele>
        <time>2024-05-27T09:43:16.766Z</time>
      </trkpt>
      <trkpt lat="48.61002" lon="1.72244">
        <ele>155</ele>
        <time>2024-05-27T09:43:20.990Z</time>
      </trkpt>
      <trkpt lat="48.61006" lon="1.72239">
        <ele>155</ele>
        <time>2024-05-27T09:43:26.007Z</time>
      </trkpt>
      <trkpt lat="48.61011" lon="1.72235">
        <ele>155</ele>
        <time>2024-05-27T09:43:30.134Z</time>
      </trkpt>
      <trkpt lat="48.61015" lon="1.72231">
        <ele>154</ele>
        <time>2024-05-27T09:43:34.887Z</time>
      </trkpt>
      <trkpt lat="48.61019" lon="1.72225">
        <ele>154</ele>
        <time>2024-05-27T09:43:38.965Z</time>
      </trkpt>
      <trkpt lat="48.61022" lon="1.72222">
        <ele>154</ele>
        <time>2024-05-27T09:43:43.410Z</time>
      </trkpt>
      <trkpt lat="48.61026" lon="1.72218">
        <ele>154</ele>
        <time>2024-05-27T09:43:47.489Z</time>
      </trkpt>
      <trkpt lat="48.61031" lon="1.72215">
        <ele>154</ele>
        <time>2024-05-27T09:43:51.549Z</time>
      </trkpt>
      <trkpt lat="48.61035" lon="1.72212">
        <ele>154</ele>
        <time>2024-05-27T09:43:55.763Z</time>
      </trkpt>
      <trkpt lat="48.6104" lon="1.7221">
        <ele>154</ele>
        <time>2024-05-27T09:44:00.489Z</time>
      </trkpt>
      <trkpt lat="48.61045" lon="1.72207">
        <ele>153</ele>
        <time>2024-05-27T09:44:04.822Z</time>
      </trkpt>
      <trkpt lat="48.61051" lon="1.72206">
        <ele>153</ele>
        <time>2024-05-27T09:44:09.727Z</time>
      </trkpt>
      <trkpt lat="48.61058" lon="1.72207">
        <ele>153</ele>
        <time>2024-05-27T09:44:14.105Z</time>
      </trkpt>
      <trkpt lat="48.61063" lon="1.72206">
        <ele>153</ele>
        <time>2024-05-27T09:44:18.728Z</time>
      </trkpt>
      <trkpt lat="48.61069" lon="1.72205">
        <ele>153</ele>
        <time>2024-05-27T09:44:23.134Z</time>
      </trkpt>
      <trkpt lat="48.61076" lon="1.72205">
        <ele>151</ele>
        <time>2024-05-27T09:44:28.103Z</time>
      </trkpt>
      <trkpt lat="48.61081" lon="1.72205">
        <ele>151</ele>
        <time>2024-05-27T09:44:32.134Z</time>
      </trkpt>
      <trkpt lat="48.61086" lon="1.72205">
        <ele>151</ele>
        <time>2024-05-27T09:44:36.369Z</time>
      </trkpt>
      <trkpt lat="48.61092" lon="1.72205">
        <ele>151</ele>
        <time>2024-05-27T09:44:40.745Z</time>
      </trkpt>
      <trkpt lat="48.61097" lon="1.72205">
        <ele>151</ele>
        <time>2024-05-27T09:44:44.823Z</time>
      </trkpt>
      <trkpt lat="48.61101" lon="1.72205">
        <ele>148</ele>
        <time>2024-05-27T09:44:48.824Z</time>
      </trkpt>
      <trkpt lat="48.61107" lon="1.72209">
        <ele>148</ele>
        <time>2024-05-27T09:44:53.823Z</time>
      </trkpt>
      <trkpt lat="48.61112" lon="1.7221">
        <ele>148</ele>
        <time>2024-05-27T09:44:58.134Z</time>
      </trkpt>
      <trkpt lat="48.61118" lon="1.72212">
        <ele>148</ele>
        <time>2024-05-27T09:45:02.669Z</time>
      </trkpt>
      <trkpt lat="48.61123" lon="1.72215">
        <ele>148</ele>
        <time>2024-05-27T09:45:07.134Z</time>
      </trkpt>
      <trkpt lat="48.61129" lon="1.72218">
        <ele>144</ele>
        <time>2024-05-27T09:45:11.909Z</time>
      </trkpt>
      <trkpt lat="48.61134" lon="1.72221">
        <ele>144</ele>
        <time>2024-05-27T09:45:16.028Z</time>
      </trkpt>
      <trkpt lat="48.61139" lon="1.72224">
        <ele>144</ele>
        <time>2024-05-27T09:45:20.134Z</time>
      </trkpt>
      <trkpt lat="48.61153" lon="1.72232">
        <ele>141</ele>
        <time>2024-05-27T09:48:09.134Z</time>
      </trkpt>
      <trkpt lat="48.61154" lon="1.72232">
        <ele>141</ele>
        <time>2024-05-27T09:48:13.134Z</time>
      </trkpt>
      <trkpt lat="48.61159" lon="1.72235">
        <ele>141</ele>
        <time>2024-05-27T09:48:17.134Z</time>
      </trkpt>
      <trkpt lat="48.61164" lon="1.72238">
        <ele>141</ele>
        <time>2024-05-27T09:48:21.365Z</time>
      </trkpt>
      <trkpt lat="48.61169" lon="1.72239">
        <ele>141</ele>
        <time>2024-05-27T09:48:25.812Z</time>
      </trkpt>
      <trkpt lat="48.61173" lon="1.72238">
        <ele>141</ele>
        <time>2024-05-27T09:48:29.768Z</time>
      </trkpt>
      <trkpt lat="48.61178" lon="1.72233">
        <ele>141</ele>
        <time>2024-05-27T09:48:34.887Z</time>
      </trkpt>
      <trkpt lat="48.61183" lon="1.7223">
        <ele>139</ele>
        <time>2024-05-27T09:48:39.134Z</time>
      </trkpt>
      <trkpt lat="48.61187" lon="1.72226">
        <ele>139</ele>
        <time>2024-05-27T09:48:43.442Z</time>
      </trkpt>
      <trkpt lat="48.61191" lon="1.72222">
        <ele>139</ele>
        <time>2024-05-27T09:48:47.528Z</time>
      </trkpt>
      <trkpt lat="48.61195" lon="1.72223">
        <ele>139</ele>
        <time>2024-05-27T09:48:52.134Z</time>
      </trkpt>
      <trkpt lat="48.612" lon="1.72221">
        <ele>139</ele>
        <time>2024-05-27T09:48:56.963Z</time>
      </trkpt>
      <trkpt lat="48.61205" lon="1.7222">
        <ele>139</ele>
        <time>2024-05-27T09:49:01.133Z</time>
      </trkpt>
      <trkpt lat="48.61208" lon="1.72219">
        <ele>139</ele>
        <time>2024-05-27T09:49:06.134Z</time>
      </trkpt>
      <trkpt lat="48.61212" lon="1.72217">
        <ele>139</ele>
        <time>2024-05-27T09:49:10.767Z</time>
      </trkpt>
      <trkpt lat="48.61216" lon="1.72212">
        <ele>139</ele>
        <time>2024-05-27T09:49:15.134Z</time>
      </trkpt>
      <trkpt lat="48.6122" lon="1.72211">
        <ele>139</ele>
        <time>2024-05-27T09:49:20.134Z</time>
      </trkpt>
      <trkpt lat="48.61226" lon="1.72211">
        <ele>139</ele>
        <time>2024-05-27T09:49:24.587Z</time>
      </trkpt>
      <trkpt lat="48.61231" lon="1.7221">
        <ele>139</ele>
        <time>2024-05-27T09:49:28.604Z</time>
      </trkpt>
      <trkpt lat="48.61234" lon="1.72209">
        <ele>139</ele>
        <time>2024-05-27T09:49:33.134Z</time>
      </trkpt>
      <trkpt lat="48.61239" lon="1.72206">
        <ele>139</ele>
        <time>2024-05-27T09:49:38.133Z</time>
      </trkpt>
      <trkpt lat="48.61245" lon="1.72207">
        <ele>139</ele>
        <time>2024-05-27T09:49:43.100Z</time>
      </trkpt>
      <trkpt lat="48.61249" lon="1.72208">
        <ele>139</ele>
        <time>2024-05-27T09:49:47.134Z</time>
      </trkpt>
      <trkpt lat="48.61254" lon="1.72209">
        <ele>139</ele>
        <time>2024-05-27T09:49:51.802Z</time>
      </trkpt>
      <trkpt lat="48.61258" lon="1.72211">
        <ele>139</ele>
        <time>2024-05-27T09:49:56.083Z</time>
      </trkpt>
      <trkpt lat="48.61263" lon="1.72212">
        <ele>139</ele>
        <time>2024-05-27T09:50:00.134Z</time>
      </trkpt>
      <trkpt lat="48.61269" lon="1.72211">
        <ele>139</ele>
        <time>2024-05-27T09:50:04.520Z</time>
      </trkpt>
      <trkpt lat="48.61275" lon="1.72209">
        <ele>139</ele>
        <time>2024-05-27T09:50:08.790Z</time>
      </trkpt>
      <trkpt lat="48.6128" lon="1.72208">
        <ele>139</ele>
        <time>2024-05-27T09:50:13.134Z</time>
      </trkpt>
      <trkpt lat="48.61292" lon="1.7221">
        <ele>137</ele>
        <time>2024-05-27T09:50:37.134Z</time>
      </trkpt>
      <trkpt lat="48.61292" lon="1.7221">
        <ele>137</ele>
        <time>2024-05-27T09:50:42.133Z</time>
      </trkpt>
      <trkpt lat="48.61293" lon="1.72214">
        <ele>137</ele>
        <time>2024-05-27T09:50:47.134Z</time>
      </trkpt>
      <trkpt lat="48.61298" lon="1.72218">
        <ele>137</ele>
        <time>2024-05-27T09:50:52.133Z</time>
      </trkpt>
      <trkpt lat="48.61302" lon="1.72221">
        <ele>137</ele>
        <time>2024-05-27T09:50:56.762Z</time>
      </trkpt>
      <trkpt lat="48.61306" lon="1.72225">
        <ele>137</ele>
        <time>2024-05-27T09:51:01.134Z</time>
      </trkpt>
      <trkpt lat="48.6131" lon="1.72231">
        <ele>137</ele>
        <time>2024-05-27T09:51:05.807Z</time>
      </trkpt>
      <trkpt lat="48.61313" lon="1.72238">
        <ele>137</ele>
        <time>2024-05-27T09:51:10.134Z</time>
      </trkpt>
      <trkpt lat="48.61317" lon="1.72243">
        <ele>137</ele>
        <time>2024-05-27T09:51:14.925Z</time>
      </trkpt>
      <trkpt lat="48.61321" lon="1.72249">
        <ele>137</ele>
        <time>2024-05-27T09:51:19.134Z</time>
      </trkpt>
      <trkpt lat="48.61326" lon="1.72255">
        <ele>137</ele>
        <time>2024-05-27T09:51:23.925Z</time>
      </trkpt>
      <trkpt lat="48.61329" lon="1.72262">
        <ele>137</ele>
        <time>2024-05-27T09:51:28.134Z</time>
      </trkpt>
      <trkpt lat="48.61333" lon="1.72268">
        <ele>136</ele>
        <time>2024-05-27T09:51:32.499Z</time>
      </trkpt>
      <trkpt lat="48.61336" lon="1.72275">
        <ele>136</ele>
        <time>2024-05-27T09:51:36.884Z</time>
      </trkpt>
      <trkpt lat="48.61338" lon="1.72282">
        <ele>136</ele>
        <time>2024-05-27T09:51:40.963Z</time>
      </trkpt>
      <trkpt lat="48.6134" lon="1.7229">
        <ele>136</ele>
        <time>2024-05-27T09:51:45.134Z</time>
      </trkpt>
      <trkpt lat="48.61342" lon="1.72299">
        <ele>136</ele>
        <time>2024-05-27T09:51:49.962Z</time>
      </trkpt>
      <trkpt lat="48.61346" lon="1.72304">
        <ele>136</ele>
        <time>2024-05-27T09:51:54.560Z</time>
      </trkpt>
      <trkpt lat="48.61351" lon="1.72311">
        <ele>136</ele>
        <time>2024-05-27T09:51:59.134Z</time>
      </trkpt>
      <trkpt lat="48.61355" lon="1.72316">
        <ele>136</ele>
        <time>2024-05-27T09:52:03.706Z</time>
      </trkpt>
      <trkpt lat="48.61358" lon="1.72322">
        <ele>137</ele>
        <time>2024-05-27T09:52:07.772Z</time>
      </trkpt>
      <trkpt lat="48.61361" lon="1.72326">
        <ele>137</ele>
        <time>2024-05-27T09:52:12.134Z</time>
      </trkpt>
      <trkpt lat="48.61365" lon="1.72333">
        <ele>137</ele>
        <time>2024-05-27T09:52:16.882Z</time>
      </trkpt>
      <trkpt lat="48.61369" lon="1.72339">
        <ele>137</ele>
        <time>2024-05-27T09:52:21.507Z</time>
      </trkpt>
      <trkpt lat="48.61372" lon="1.72347">
        <ele>137</ele>
        <time>2024-05-27T09:52:26.134Z</time>
      </trkpt>
      <trkpt lat="48.61377" lon="1.72353">
        <ele>136</ele>
        <time>2024-05-27T09:52:30.823Z</time>
      </trkpt>
      <trkpt lat="48.61382" lon="1.72357">
        <ele>136</ele>
        <time>2024-05-27T09:52:35.521Z</time>
      </trkpt>
      <trkpt lat="48.61386" lon="1.72362">
        <ele>136</ele>
        <time>2024-05-27T09:52:39.685Z</time>
      </trkpt>
      <trkpt lat="48.61389" lon="1.72365">
        <ele>136</ele>
        <time>2024-05-27T09:52:44.134Z</time>
      </trkpt>
      <trkpt lat="48.61394" lon="1.72361">
        <ele>136</ele>
        <time>2024-05-27T09:53:14.133Z</time>
      </trkpt>
      <trkpt lat="48.61395" lon="1.72367">
        <ele>136</ele>
        <time>2024-05-27T09:53:18.706Z</time>
      </trkpt>
      <trkpt lat="48.61395" lon="1.72373">
        <ele>136</ele>
        <time>2024-05-27T09:53:23.167Z</time>
      </trkpt>
      <trkpt lat="48.61394" lon="1.72378">
        <ele>135</ele>
        <time>2024-05-27T09:53:27.281Z</time>
      </trkpt>
      <trkpt lat="48.61395" lon="1.72384">
        <ele>135</ele>
        <time>2024-05-27T09:53:32.006Z</time>
      </trkpt>
      <trkpt lat="48.61396" lon="1.7239">
        <ele>135</ele>
        <time>2024-05-27T09:53:36.345Z</time>
      </trkpt>
      <trkpt lat="48.61398" lon="1.72396">
        <ele>135</ele>
        <time>2024-05-27T09:53:40.504Z</time>
      </trkpt>
      <trkpt lat="48.614" lon="1.72403">
        <ele>135</ele>
        <time>2024-05-27T09:53:45.101Z</time>
      </trkpt>
      <trkpt lat="48.614" lon="1.7241">
        <ele>135</ele>
        <time>2024-05-27T09:53:49.134Z</time>
      </trkpt>
      <trkpt lat="48.61402" lon="1.72419">
        <ele>135</ele>
        <time>2024-05-27T09:53:53.820Z</time>
      </trkpt>
      <trkpt lat="48.61403" lon="1.72424">
        <ele>133</ele>
        <time>2024-05-27T09:53:57.846Z</time>
      </trkpt>
      <trkpt lat="48.61405" lon="1.7243">
        <ele>133</ele>
        <time>2024-05-27T09:54:01.908Z</time>
      </trkpt>
      <trkpt lat="48.61407" lon="1.72437">
        <ele>134</ele>
        <time>2024-05-27T09:54:06.669Z</time>
      </trkpt>
      <trkpt lat="48.61408" lon="1.72444">
        <ele>134</ele>
        <time>2024-05-27T09:54:11.046Z</time>
      </trkpt>
      <trkpt lat="48.6141" lon="1.7245">
        <ele>134</ele>
        <time>2024-05-27T09:54:15.132Z</time>
      </trkpt>
      <trkpt lat="48.61412" lon="1.72456">
        <ele>134</ele>
        <time>2024-05-27T09:54:19.644Z</time>
      </trkpt>
      <trkpt lat="48.61413" lon="1.72462">
        <ele>135</ele>
        <time>2024-05-27T09:54:23.722Z</time>
      </trkpt>
      <trkpt lat="48.61415" lon="1.72469">
        <ele>135</ele>
        <time>2024-05-27T09:54:28.133Z</time>
      </trkpt>
      <trkpt lat="48.61416" lon="1.72477">
        <ele>135</ele>
        <time>2024-05-27T09:54:33.132Z</time>
      </trkpt>
      <trkpt lat="48.61418" lon="1.72485">
        <ele>135</ele>
        <time>2024-05-27T09:54:37.926Z</time>
      </trkpt>
      <trkpt lat="48.6142" lon="1.72492">
        <ele>136</ele>
        <time>2024-05-27T09:54:41.945Z</time>
      </trkpt>
      <trkpt lat="48.61422" lon="1.725">
        <ele>136</ele>
        <time>2024-05-27T09:54:46.065Z</time>
      </trkpt>
      <trkpt lat="48.61423" lon="1.72509">
        <ele>136</ele>
        <time>2024-05-27T09:54:50.860Z</time>
      </trkpt>
      <trkpt lat="48.61425" lon="1.72517">
        <ele>136</ele>
        <time>2024-05-27T09:54:55.133Z</time>
      </trkpt>
      <trkpt lat="48.61428" lon="1.72524">
        <ele>136</ele>
        <time>2024-05-27T09:54:59.665Z</time>
      </trkpt>
      <trkpt lat="48.61431" lon="1.72532">
        <ele>133</ele>
        <time>2024-05-27T09:55:04.145Z</time>
      </trkpt>
      <trkpt lat="48.61433" lon="1.72537">
        <ele>133</ele>
        <time>2024-05-27T09:55:08.460Z</time>
      </trkpt>
      <trkpt lat="48.61437" lon="1.72545">
        <ele>135</ele>
        <time>2024-05-27T09:55:13.133Z</time>
      </trkpt>
      <trkpt lat="48.6144" lon="1.72553">
        <ele>135</ele>
        <time>2024-05-27T09:55:18.101Z</time>
      </trkpt>
      <trkpt lat="48.61444" lon="1.72558">
        <ele>135</ele>
        <time>2024-05-27T09:55:22.133Z</time>
      </trkpt>
      <trkpt lat="48.61448" lon="1.72564">
        <ele>135</ele>
        <time>2024-05-27T09:55:27.133Z</time>
      </trkpt>
      <trkpt lat="48.61451" lon="1.7257">
        <ele>137</ele>
        <time>2024-05-27T09:55:31.947Z</time>
      </trkpt>
      <trkpt lat="48.61452" lon="1.72578">
        <ele>137</ele>
        <time>2024-05-27T09:55:36.133Z</time>
      </trkpt>
      <trkpt lat="48.61453" lon="1.72589">
        <ele>137</ele>
        <time>2024-05-27T09:55:41.133Z</time>
      </trkpt>
      <trkpt lat="48.6145" lon="1.72597">
        <ele>137</ele>
        <time>2024-05-27T09:55:45.801Z</time>
      </trkpt>
      <trkpt lat="48.61449" lon="1.72605">
        <ele>138</ele>
        <time>2024-05-27T09:55:50.503Z</time>
      </trkpt>
      <trkpt lat="48.61449" lon="1.72613">
        <ele>138</ele>
        <time>2024-05-27T09:55:54.725Z</time>
      </trkpt>
      <trkpt lat="48.6145" lon="1.72621">
        <ele>138</ele>
        <time>2024-05-27T09:55:59.136Z</time>
      </trkpt>
      <trkpt lat="48.61453" lon="1.72626">
        <ele>140</ele>
        <time>2024-05-27T09:56:03.666Z</time>
      </trkpt>
      <trkpt lat="48.61455" lon="1.72633">
        <ele>140</ele>
        <time>2024-05-27T09:56:07.965Z</time>
      </trkpt>
      <trkpt lat="48.61457" lon="1.7264">
        <ele>140</ele>
        <time>2024-05-27T09:56:12.444Z</time>
      </trkpt>
      <trkpt lat="48.61461" lon="1.72647">
        <ele>137</ele>
        <time>2024-05-27T09:56:16.847Z</time>
      </trkpt>
      <trkpt lat="48.61465" lon="1.72654">
        <ele>139</ele>
        <time>2024-05-27T09:56:21.133Z</time>
      </trkpt>
      <trkpt lat="48.61467" lon="1.72662">
        <ele>139</ele>
        <time>2024-05-27T09:56:25.685Z</time>
      </trkpt>
      <trkpt lat="48.61468" lon="1.72671">
        <ele>139</ele>
        <time>2024-05-27T09:56:30.087Z</time>
      </trkpt>
      <trkpt lat="48.6147" lon="1.7268">
        <ele>139</ele>
        <time>2024-05-27T09:56:34.133Z</time>
      </trkpt>
      <trkpt lat="48.61471" lon="1.72688">
        <ele>140</ele>
        <time>2024-05-27T09:56:38.858Z</time>
      </trkpt>
      <trkpt lat="48.61473" lon="1.72695">
        <ele>140</ele>
        <time>2024-05-27T09:56:43.874Z</time>
      </trkpt>
      <trkpt lat="48.61476" lon="1.72704">
        <ele>140</ele>
        <time>2024-05-27T09:56:48.523Z</time>
      </trkpt>
      <trkpt lat="48.61477" lon="1.72713">
        <ele>139</ele>
        <time>2024-05-27T09:56:53.004Z</time>
      </trkpt>
      <trkpt lat="48.61478" lon="1.7272">
        <ele>139</ele>
        <time>2024-05-27T09:56:57.133Z</time>
      </trkpt>
      <trkpt lat="48.6148" lon="1.72728">
        <ele>139</ele>
        <time>2024-05-27T09:57:01.627Z</time>
      </trkpt>
      <trkpt lat="48.61482" lon="1.72735">
        <ele>139</ele>
        <time>2024-05-27T09:57:05.944Z</time>
      </trkpt>
      <trkpt lat="48.61485" lon="1.72742">
        <ele>139</ele>
        <time>2024-05-27T09:57:10.628Z</time>
      </trkpt>
      <trkpt lat="48.61487" lon="1.7275">
        <ele>136</ele>
        <time>2024-05-27T09:57:15.132Z</time>
      </trkpt>
      <trkpt lat="48.6149" lon="1.72757">
        <ele>136</ele>
        <time>2024-05-27T09:57:19.543Z</time>
      </trkpt>
      <trkpt lat="48.61491" lon="1.72763">
        <ele>136</ele>
        <time>2024-05-27T09:57:24.006Z</time>
      </trkpt>
      <trkpt lat="48.61499" lon="1.72775">
        <ele>136</ele>
        <time>2024-05-27T09:58:58.133Z</time>
      </trkpt>
      <trkpt lat="48.61499" lon="1.72775">
        <ele>136</ele>
        <time>2024-05-27T09:59:03.133Z</time>
      </trkpt>
      <trkpt lat="48.61499" lon="1.72775">
        <ele>136</ele>
        <time>2024-05-27T09:59:08.133Z</time>
      </trkpt>
      <trkpt lat="48.61499" lon="1.72775">
        <ele>136</ele>
        <time>2024-05-27T09:59:12.133Z</time>
      </trkpt>
      <trkpt lat="48.61504" lon="1.72777">
        <ele>136</ele>
        <time>2024-05-27T09:59:17.133Z</time>
      </trkpt>
      <trkpt lat="48.61507" lon="1.7278">
        <ele>136</ele>
        <time>2024-05-27T09:59:22.133Z</time>
      </trkpt>
      <trkpt lat="48.61512" lon="1.72788">
        <ele>136</ele>
        <time>2024-05-27T09:59:26.470Z</time>
      </trkpt>
      <trkpt lat="48.61517" lon="1.72796">
        <ele>132</ele>
        <time>2024-05-27T09:59:30.749Z</time>
      </trkpt>
      <trkpt lat="48.6152" lon="1.72806">
        <ele>132</ele>
        <time>2024-05-27T09:59:35.133Z</time>
      </trkpt>
      <trkpt lat="48.61524" lon="1.72814">
        <ele>132</ele>
        <time>2024-05-27T09:59:39.766Z</time>
      </trkpt>
      <trkpt lat="48.61524" lon="1.72824">
        <ele>131</ele>
        <time>2024-05-27T09:59:43.843Z</time>
      </trkpt>
      <trkpt lat="48.61525" lon="1.72833">
        <ele>131</ele>
        <time>2024-05-27T09:59:48.133Z</time>
      </trkpt>
      <trkpt lat="48.61527" lon="1.72841">
        <ele>131</ele>
        <time>2024-05-27T09:59:52.606Z</time>
      </trkpt>
      <trkpt lat="48.61528" lon="1.72849">
        <ele>132</ele>
        <time>2024-05-27T09:59:57.084Z</time>
      </trkpt>
      <trkpt lat="48.6153" lon="1.72857">
        <ele>132</ele>
        <time>2024-05-27T10:00:01.325Z</time>
      </trkpt>
      <trkpt lat="48.61532" lon="1.72865">
        <ele>132</ele>
        <time>2024-05-27T10:00:05.727Z</time>
      </trkpt>
      <trkpt lat="48.61533" lon="1.72873">
        <ele>132</ele>
        <time>2024-05-27T10:00:10.132Z</time>
      </trkpt>
      <trkpt lat="48.61536" lon="1.72882">
        <ele>134</ele>
        <time>2024-05-27T10:00:15.133Z</time>
      </trkpt>
      <trkpt lat="48.61538" lon="1.72891">
        <ele>134</ele>
        <time>2024-05-27T10:00:20.133Z</time>
      </trkpt>
      <trkpt lat="48.6154" lon="1.729">
        <ele>134</ele>
        <time>2024-05-27T10:00:24.668Z</time>
      </trkpt>
      <trkpt lat="48.61542" lon="1.72909">
        <ele>135</ele>
        <time>2024-05-27T10:00:28.822Z</time>
      </trkpt>
      <trkpt lat="48.61544" lon="1.72917">
        <ele>135</ele>
        <time>2024-05-27T10:00:33.019Z</time>
      </trkpt>
      <trkpt lat="48.61545" lon="1.72925">
        <ele>135</ele>
        <time>2024-05-27T10:00:37.601Z</time>
      </trkpt>
      <trkpt lat="48.61546" lon="1.72933">
        <ele>136</ele>
        <time>2024-05-27T10:00:42.132Z</time>
      </trkpt>
      <trkpt lat="48.61546" lon="1.72941">
        <ele>136</ele>
        <time>2024-05-27T10:00:46.708Z</time>
      </trkpt>
      <trkpt lat="48.61548" lon="1.72949">
        <ele>136</ele>
        <time>2024-05-27T10:00:51.132Z</time>
      </trkpt>
      <trkpt lat="48.61549" lon="1.72958">
        <ele>136</ele>
        <time>2024-05-27T10:00:55.804Z</time>
      </trkpt>
      <trkpt lat="48.61552" lon="1.72966">
        <ele>138</ele>
        <time>2024-05-27T10:01:00.132Z</time>
      </trkpt>
      <trkpt lat="48.61553" lon="1.72974">
        <ele>138</ele>
        <time>2024-05-27T10:01:04.399Z</time>
      </trkpt>
      <trkpt lat="48.61555" lon="1.72981">
        <ele>138</ele>
        <time>2024-05-27T10:01:08.426Z</time>
      </trkpt>
      <trkpt lat="48.61556" lon="1.7299">
        <ele>139</ele>
        <time>2024-05-27T10:01:12.924Z</time>
      </trkpt>
      <trkpt lat="48.61559" lon="1.72998">
        <ele>139</ele>
        <time>2024-05-27T10:01:18.133Z</time>
      </trkpt>
      <trkpt lat="48.61561" lon="1.73006">
        <ele>139</ele>
        <time>2024-05-27T10:01:22.964Z</time>
      </trkpt>
      <trkpt lat="48.61564" lon="1.73014">
        <ele>141</ele>
        <time>2024-05-27T10:01:27.133Z</time>
      </trkpt>
      <trkpt lat="48.61566" lon="1.73024">
        <ele>141</ele>
        <time>2024-05-27T10:01:32.133Z</time>
      </trkpt>
      <trkpt lat="48.61568" lon="1.73032">
        <ele>141</ele>
        <time>2024-05-27T10:01:36.662Z</time>
      </trkpt>
      <trkpt lat="48.61569" lon="1.7304">
        <ele>141</ele>
        <time>2024-05-27T10:01:40.884Z</time>
      </trkpt>
      <trkpt lat="48.6157" lon="1.73048">
        <ele>140</ele>
        <time>2024-05-27T10:01:44.947Z</time>
      </trkpt>
      <trkpt lat="48.61572" lon="1.73056">
        <ele>140</ele>
        <time>2024-05-27T10:01:49.133Z</time>
      </trkpt>
      <trkpt lat="48.61574" lon="1.73062">
        <ele>140</ele>
        <time>2024-05-27T10:01:53.777Z</time>
      </trkpt>
      <trkpt lat="48.61576" lon="1.73071">
        <ele>143</ele>
        <time>2024-05-27T10:01:58.844Z</time>
      </trkpt>
      <trkpt lat="48.61578" lon="1.73078">
        <ele>143</ele>
        <time>2024-05-27T10:02:03.133Z</time>
      </trkpt>
      <trkpt lat="48.6158" lon="1.73086">
        <ele>143</ele>
        <time>2024-05-27T10:02:07.709Z</time>
      </trkpt>
      <trkpt lat="48.61582" lon="1.73094">
        <ele>143</ele>
        <time>2024-05-27T10:02:11.906Z</time>
      </trkpt>
      <trkpt lat="48.61583" lon="1.73101">
        <ele>144</ele>
        <time>2024-05-27T10:02:16.120Z</time>
      </trkpt>
      <trkpt lat="48.61584" lon="1.73107">
        <ele>144</ele>
        <time>2024-05-27T10:02:20.133Z</time>
      </trkpt>
      <trkpt lat="48.61585" lon="1.73116">
        <ele>144</ele>
        <time>2024-05-27T10:02:25.133Z</time>
      </trkpt>
      <trkpt lat="48.61587" lon="1.73124">
        <ele>144</ele>
        <time>2024-05-27T10:02:29.480Z</time>
      </trkpt>
      <trkpt lat="48.61588" lon="1.7313">
        <ele>145</ele>
        <time>2024-05-27T10:02:33.908Z</time>
      </trkpt>
      <trkpt lat="48.6159" lon="1.73138">
        <ele>145</ele>
        <time>2024-05-27T10:02:38.133Z</time>
      </trkpt>
      <trkpt lat="48.61592" lon="1.73146">
        <ele>145</ele>
        <time>2024-05-27T10:02:42.422Z</time>
      </trkpt>
      <trkpt lat="48.61594" lon="1.73153">
        <ele>146</ele>
        <time>2024-05-27T10:02:46.585Z</time>
      </trkpt>
      <trkpt lat="48.61596" lon="1.73161">
        <ele>146</ele>
        <time>2024-05-27T10:02:51.133Z</time>
      </trkpt>
      <trkpt lat="48.61598" lon="1.73169">
        <ele>142</ele>
        <time>2024-05-27T10:02:55.407Z</time>
      </trkpt>
      <trkpt lat="48.616" lon="1.73177">
        <ele>142</ele>
        <time>2024-05-27T10:02:59.561Z</time>
      </trkpt>
      <trkpt lat="48.61602" lon="1.73183">
        <ele>144</ele>
        <time>2024-05-27T10:03:03.604Z</time>
      </trkpt>
      <trkpt lat="48.61603" lon="1.7319">
        <ele>144</ele>
        <time>2024-05-27T10:03:07.831Z</time>
      </trkpt>
      <trkpt lat="48.61603" lon="1.73196">
        <ele>144</ele>
        <time>2024-05-27T10:03:11.939Z</time>
      </trkpt>
      <trkpt lat="48.61606" lon="1.73204">
        <ele>144</ele>
        <time>2024-05-27T10:03:16.043Z</time>
      </trkpt>
      <trkpt lat="48.61607" lon="1.73211">
        <ele>148</ele>
        <time>2024-05-27T10:03:20.133Z</time>
      </trkpt>
      <trkpt lat="48.61609" lon="1.73218">
        <ele>148</ele>
        <time>2024-05-27T10:03:24.480Z</time>
      </trkpt>
      <trkpt lat="48.61611" lon="1.73225">
        <ele>148</ele>
        <time>2024-05-27T10:03:29.133Z</time>
      </trkpt>
      <trkpt lat="48.61614" lon="1.73232">
        <ele>148</ele>
        <time>2024-05-27T10:03:33.388Z</time>
      </trkpt>
      <trkpt lat="48.61616" lon="1.7324">
        <ele>151</ele>
        <time>2024-05-27T10:03:37.867Z</time>
      </trkpt>
      <trkpt lat="48.61617" lon="1.73248">
        <ele>151</ele>
        <time>2024-05-27T10:03:41.944Z</time>
      </trkpt>
      <trkpt lat="48.61619" lon="1.73255">
        <ele>151</ele>
        <time>2024-05-27T10:03:45.988Z</time>
      </trkpt>
      <trkpt lat="48.61621" lon="1.73262">
        <ele>151</ele>
        <time>2024-05-27T10:03:50.066Z</time>
      </trkpt>
      <trkpt lat="48.61623" lon="1.73268">
        <ele>152</ele>
        <time>2024-05-27T10:03:54.133Z</time>
      </trkpt>
      <trkpt lat="48.61626" lon="1.73276">
        <ele>146</ele>
        <time>2024-05-27T10:03:59.133Z</time>
      </trkpt>
      <trkpt lat="48.61629" lon="1.73282">
        <ele>146</ele>
        <time>2024-05-27T10:04:04.022Z</time>
      </trkpt>
      <trkpt lat="48.61633" lon="1.73286">
        <ele>146</ele>
        <time>2024-05-27T10:04:08.133Z</time>
      </trkpt>
      <trkpt lat="48.61636" lon="1.7329">
        <ele>146</ele>
        <time>2024-05-27T10:04:12.133Z</time>
      </trkpt>
      <trkpt lat="48.61638" lon="1.73296">
        <ele>147</ele>
        <time>2024-05-27T10:04:16.487Z</time>
      </trkpt>
      <trkpt lat="48.61641" lon="1.73303">
        <ele>147</ele>
        <time>2024-05-27T10:04:21.133Z</time>
      </trkpt>
      <trkpt lat="48.61644" lon="1.7331">
        <ele>147</ele>
        <time>2024-05-27T10:04:25.927Z</time>
      </trkpt>
      <trkpt lat="48.61646" lon="1.73317">
        <ele>147</ele>
        <time>2024-05-27T10:04:30.132Z</time>
      </trkpt>
      <trkpt lat="48.6165" lon="1.73325">
        <ele>149</ele>
        <time>2024-05-27T10:04:35.133Z</time>
      </trkpt>
      <trkpt lat="48.61654" lon="1.73331">
        <ele>142</ele>
        <time>2024-05-27T10:04:39.700Z</time>
      </trkpt>
      <trkpt lat="48.61657" lon="1.73337">
        <ele>142</ele>
        <time>2024-05-27T10:04:44.133Z</time>
      </trkpt>
      <trkpt lat="48.61661" lon="1.73344">
        <ele>142</ele>
        <time>2024-05-27T10:04:49.133Z</time>
      </trkpt>
      <trkpt lat="48.61664" lon="1.73352">
        <ele>143</ele>
        <time>2024-05-27T10:04:54.133Z</time>
      </trkpt>
      <trkpt lat="48.61669" lon="1.73356">
        <ele>143</ele>
        <time>2024-05-27T10:04:59.006Z</time>
      </trkpt>
      <trkpt lat="48.61672" lon="1.73364">
        <ele>143</ele>
        <time>2024-05-27T10:05:03.989Z</time>
      </trkpt>
      <trkpt lat="48.61674" lon="1.73372">
        <ele>143</ele>
        <time>2024-05-27T10:05:08.365Z</time>
      </trkpt>
      <trkpt lat="48.61678" lon="1.73381">
        <ele>142</ele>
        <time>2024-05-27T10:05:13.007Z</time>
      </trkpt>
      <trkpt lat="48.6168" lon="1.73387">
        <ele>142</ele>
        <time>2024-05-27T10:05:17.126Z</time>
      </trkpt>
      <trkpt lat="48.61681" lon="1.73394">
        <ele>139</ele>
        <time>2024-05-27T10:05:21.133Z</time>
      </trkpt>
      <trkpt lat="48.61681" lon="1.73401">
        <ele>139</ele>
        <time>2024-05-27T10:05:26.126Z</time>
      </trkpt>
      <trkpt lat="48.61681" lon="1.73408">
        <ele>137</ele>
        <time>2024-05-27T10:05:30.133Z</time>
      </trkpt>
      <trkpt lat="48.61682" lon="1.73411">
        <ele>137</ele>
        <time>2024-05-27T10:05:32.969Z</time>
      </trkpt>
      <trkpt lat="48.61683" lon="1.73411">
        <ele>137</ele>
        <time>2024-05-27T10:05:42.133Z</time>
      </trkpt>
      <trkpt lat="48.61684" lon="1.73412">
        <ele>137</ele>
        <time>2024-05-27T10:05:46.853Z</time>
      </trkpt>
      <trkpt lat="48.61686" lon="1.73421">
        <ele>137</ele>
        <time>2024-05-27T10:05:51.133Z</time>
      </trkpt>
      <trkpt lat="48.61689" lon="1.7343">
        <ele>137</ele>
        <time>2024-05-27T10:05:56.133Z</time>
      </trkpt>
      <trkpt lat="48.61695" lon="1.73439">
        <ele>136</ele>
        <time>2024-05-27T10:06:01.133Z</time>
      </trkpt>
      <trkpt lat="48.617" lon="1.73446">
        <ele>136</ele>
        <time>2024-05-27T10:06:05.686Z</time>
      </trkpt>
      <trkpt lat="48.61702" lon="1.73453">
        <ele>136</ele>
        <time>2024-05-27T10:06:10.132Z</time>
      </trkpt>
      <trkpt lat="48.61705" lon="1.73461">
        <ele>137</ele>
        <time>2024-05-27T10:06:14.825Z</time>
      </trkpt>
      <trkpt lat="48.61709" lon="1.73468">
        <ele>131</ele>
        <time>2024-05-27T10:06:18.920Z</time>
      </trkpt>
      <trkpt lat="48.61714" lon="1.73464">
        <ele>131</ele>
        <time>2024-05-27T10:06:23.132Z</time>
      </trkpt>
      <trkpt lat="48.6172" lon="1.73462">
        <ele>131</ele>
        <time>2024-05-27T10:06:27.281Z</time>
      </trkpt>
      <trkpt lat="48.61727" lon="1.73462">
        <ele>131</ele>
        <time>2024-05-27T10:06:31.926Z</time>
      </trkpt>
      <trkpt lat="48.61733" lon="1.73459">
        <ele>131</ele>
        <time>2024-05-27T10:06:36.133Z</time>
      </trkpt>
      <trkpt lat="48.6174" lon="1.73458">
        <ele>130</ele>
        <time>2024-05-27T10:06:41.004Z</time>
      </trkpt>
      <trkpt lat="48.61746" lon="1.73457">
        <ele>130</ele>
        <time>2024-05-27T10:06:45.244Z</time>
      </trkpt>
      <trkpt lat="48.61752" lon="1.73455">
        <ele>130</ele>
        <time>2024-05-27T10:06:50.133Z</time>
      </trkpt>
      <trkpt lat="48.61759" lon="1.73455">
        <ele>130</ele>
        <time>2024-05-27T10:06:54.826Z</time>
      </trkpt>
      <trkpt lat="48.61765" lon="1.73455">
        <ele>130</ele>
        <time>2024-05-27T10:06:59.100Z</time>
      </trkpt>
      <trkpt lat="48.6177" lon="1.73453">
        <ele>130</ele>
        <time>2024-05-27T10:07:03.443Z</time>
      </trkpt>
      <trkpt lat="48.61776" lon="1.73451">
        <ele>130</ele>
        <time>2024-05-27T10:07:08.133Z</time>
      </trkpt>
      <trkpt lat="48.6178" lon="1.73453">
        <ele>130</ele>
        <time>2024-05-27T10:07:13.133Z</time>
      </trkpt>
      <trkpt lat="48.61787" lon="1.73452">
        <ele>130</ele>
        <time>2024-05-27T10:07:17.589Z</time>
      </trkpt>
      <trkpt lat="48.61792" lon="1.7345">
        <ele>128</ele>
        <time>2024-05-27T10:07:22.025Z</time>
      </trkpt>
      <trkpt lat="48.61797" lon="1.73448">
        <ele>128</ele>
        <time>2024-05-27T10:07:26.586Z</time>
      </trkpt>
      <trkpt lat="48.61803" lon="1.73449">
        <ele>128</ele>
        <time>2024-05-27T10:07:31.133Z</time>
      </trkpt>
      <trkpt lat="48.61808" lon="1.73449">
        <ele>128</ele>
        <time>2024-05-27T10:07:35.309Z</time>
      </trkpt>
      <trkpt lat="48.61812" lon="1.73451">
        <ele>128</ele>
        <time>2024-05-27T10:07:39.847Z</time>
      </trkpt>
      <trkpt lat="48.61817" lon="1.73448">
        <ele>128</ele>
        <time>2024-05-27T10:07:44.086Z</time>
      </trkpt>
      <trkpt lat="48.61824" lon="1.73448">
        <ele>128</ele>
        <time>2024-05-27T10:07:49.133Z</time>
      </trkpt>
      <trkpt lat="48.61829" lon="1.73446">
        <ele>128</ele>
        <time>2024-05-27T10:07:53.626Z</time>
      </trkpt>
      <trkpt lat="48.61834" lon="1.73442">
        <ele>128</ele>
        <time>2024-05-27T10:07:58.133Z</time>
      </trkpt>
      <trkpt lat="48.61838" lon="1.73439">
        <ele>128</ele>
        <time>2024-05-27T10:08:02.347Z</time>
      </trkpt>
      <trkpt lat="48.61847" lon="1.73443">
        <ele>130</ele>
        <time>2024-05-27T10:08:23.132Z</time>
      </trkpt>
      <trkpt lat="48.61849" lon="1.73432">
        <ele>130</ele>
        <time>2024-05-27T10:08:28.132Z</time>
      </trkpt>
      <trkpt lat="48.61856" lon="1.73434">
        <ele>130</ele>
        <time>2024-05-27T10:08:32.828Z</time>
      </trkpt>
      <trkpt lat="48.61861" lon="1.73438">
        <ele>130</ele>
        <time>2024-05-27T10:08:37.348Z</time>
      </trkpt>
      <trkpt lat="48.61866" lon="1.73444">
        <ele>130</ele>
        <time>2024-05-27T10:08:42.131Z</time>
      </trkpt>
      <trkpt lat="48.61868" lon="1.73449">
        <ele>130</ele>
        <time>2024-05-27T10:08:46.361Z</time>
      </trkpt>
      <trkpt lat="48.61872" lon="1.73454">
        <ele>130</ele>
        <time>2024-05-27T10:08:50.882Z</time>
      </trkpt>
      <trkpt lat="48.61876" lon="1.73458">
        <ele>132</ele>
        <time>2024-05-27T10:08:55.108Z</time>
      </trkpt>
      <trkpt lat="48.61878" lon="1.73465">
        <ele>131</ele>
        <time>2024-05-27T10:08:59.132Z</time>
      </trkpt>
      <trkpt lat="48.61882" lon="1.7347">
        <ele>131</ele>
        <time>2024-05-27T10:09:03.503Z</time>
      </trkpt>
      <trkpt lat="48.61885" lon="1.73477">
        <ele>131</ele>
        <time>2024-05-27T10:09:07.805Z</time>
      </trkpt>
      <trkpt lat="48.61889" lon="1.73482">
        <ele>131</ele>
        <time>2024-05-27T10:09:12.043Z</time>
      </trkpt>
      <trkpt lat="48.61893" lon="1.73489">
        <ele>131</ele>
        <time>2024-05-27T10:09:17.132Z</time>
      </trkpt>
      <trkpt lat="48.61897" lon="1.73494">
        <ele>131</ele>
        <time>2024-05-27T10:09:21.846Z</time>
      </trkpt>
      <trkpt lat="48.61902" lon="1.73501">
        <ele>131</ele>
        <time>2024-05-27T10:09:25.866Z</time>
      </trkpt>
      <trkpt lat="48.61904" lon="1.73507">
        <ele>133</ele>
        <time>2024-05-27T10:09:29.988Z</time>
      </trkpt>
      <trkpt lat="48.61908" lon="1.73512">
        <ele>133</ele>
        <time>2024-05-27T10:09:34.132Z</time>
      </trkpt>
      <trkpt lat="48.61912" lon="1.73518">
        <ele>133</ele>
        <time>2024-05-27T10:09:38.647Z</time>
      </trkpt>
      <trkpt lat="48.61916" lon="1.73522">
        <ele>133</ele>
        <time>2024-05-27T10:09:43.132Z</time>
      </trkpt>
      <trkpt lat="48.61921" lon="1.73526">
        <ele>133</ele>
        <time>2024-05-27T10:09:47.759Z</time>
      </trkpt>
      <trkpt lat="48.61925" lon="1.73533">
        <ele>133</ele>
        <time>2024-05-27T10:09:52.602Z</time>
      </trkpt>
      <trkpt lat="48.61926" lon="1.73537">
        <ele>133</ele>
        <time>2024-05-27T10:09:54.068Z</time>
      </trkpt>
      <trkpt lat="48.61932" lon="1.73547">
        <ele>134</ele>
        <time>2024-05-27T10:10:03.132Z</time>
      </trkpt>
      <trkpt lat="48.61933" lon="1.73552">
        <ele>134</ele>
        <time>2024-05-27T10:10:08.041Z</time>
      </trkpt>
      <trkpt lat="48.61934" lon="1.73556">
        <ele>134</ele>
        <time>2024-05-27T10:10:12.132Z</time>
      </trkpt>
      <trkpt lat="48.61937" lon="1.7356">
        <ele>134</ele>
        <time>2024-05-27T10:10:41.131Z</time>
      </trkpt>
      <trkpt lat="48.61937" lon="1.73559">
        <ele>134</ele>
        <time>2024-05-27T10:10:45.132Z</time>
      </trkpt>
      <trkpt lat="48.61938" lon="1.73559">
        <ele>134</ele>
        <time>2024-05-27T10:10:50.132Z</time>
      </trkpt>
      <trkpt lat="48.6194" lon="1.73565">
        <ele>134</ele>
        <time>2024-05-27T10:10:54.131Z</time>
      </trkpt>
      <trkpt lat="48.61946" lon="1.73573">
        <ele>133</ele>
        <time>2024-05-27T10:10:58.967Z</time>
      </trkpt>
      <trkpt lat="48.61953" lon="1.73574">
        <ele>133</ele>
        <time>2024-05-27T10:11:04.132Z</time>
      </trkpt>
      <trkpt lat="48.61958" lon="1.73577">
        <ele>133</ele>
        <time>2024-05-27T10:11:08.526Z</time>
      </trkpt>
      <trkpt lat="48.61961" lon="1.73586">
        <ele>135</ele>
        <time>2024-05-27T10:11:12.985Z</time>
      </trkpt>
      <trkpt lat="48.61966" lon="1.73591">
        <ele>135</ele>
        <time>2024-05-27T10:11:18.063Z</time>
      </trkpt>
      <trkpt lat="48.61965" lon="1.736">
        <ele>134</ele>
        <time>2024-05-27T10:11:22.273Z</time>
      </trkpt>
      <trkpt lat="48.61961" lon="1.73606">
        <ele>134</ele>
        <time>2024-05-27T10:11:26.388Z</time>
      </trkpt>
      <trkpt lat="48.61955" lon="1.73609">
        <ele>132</ele>
        <time>2024-05-27T10:11:31.131Z</time>
      </trkpt>
      <trkpt lat="48.6195" lon="1.73609">
        <ele>132</ele>
        <time>2024-05-27T10:11:35.345Z</time>
      </trkpt>
      <trkpt lat="48.61946" lon="1.73613">
        <ele>132</ele>
        <time>2024-05-27T10:11:40.053Z</time>
      </trkpt>
      <trkpt lat="48.61943" lon="1.73617">
        <ele>132</ele>
        <time>2024-05-27T10:11:44.132Z</time>
      </trkpt>
      <trkpt lat="48.61939" lon="1.73621">
        <ele>132</ele>
        <time>2024-05-27T10:11:48.805Z</time>
      </trkpt>
      <trkpt lat="48.61935" lon="1.73625">
        <ele>131</ele>
        <time>2024-05-27T10:11:52.867Z</time>
      </trkpt>
      <trkpt lat="48.61928" lon="1.7364">
        <ele>129</ele>
        <time>2024-05-27T10:12:45.132Z</time>
      </trkpt>
      <trkpt lat="48.61928" lon="1.7364">
        <ele>129</ele>
        <time>2024-05-27T10:12:50.132Z</time>
      </trkpt>
      <trkpt lat="48.61928" lon="1.7364">
        <ele>129</ele>
        <time>2024-05-27T10:12:54.132Z</time>
      </trkpt>
      <trkpt lat="48.61931" lon="1.73643">
        <ele>131</ele>
        <time>2024-05-27T10:12:58.664Z</time>
      </trkpt>
      <trkpt lat="48.61936" lon="1.73648">
        <ele>131</ele>
        <time>2024-05-27T10:13:03.007Z</time>
      </trkpt>
      <trkpt lat="48.61939" lon="1.73655">
        <ele>130</ele>
        <time>2024-05-27T10:13:07.132Z</time>
      </trkpt>
      <trkpt lat="48.61943" lon="1.7366">
        <ele>130</ele>
        <time>2024-05-27T10:13:11.490Z</time>
      </trkpt>
      <trkpt lat="48.61946" lon="1.73665">
        <ele>130</ele>
        <time>2024-05-27T10:13:15.765Z</time>
      </trkpt>
      <trkpt lat="48.6195" lon="1.7367">
        <ele>130</ele>
        <time>2024-05-27T10:13:19.812Z</time>
      </trkpt>
      <trkpt lat="48.61954" lon="1.73674">
        <ele>130</ele>
        <time>2024-05-27T10:13:24.132Z</time>
      </trkpt>
      <trkpt lat="48.61957" lon="1.73678">
        <ele>130</ele>
        <time>2024-05-27T10:13:28.693Z</time>
      </trkpt>
      <trkpt lat="48.61961" lon="1.73684">
        <ele>130</ele>
        <time>2024-05-27T10:13:33.001Z</time>
      </trkpt>
      <trkpt lat="48.61964" lon="1.73688">
        <ele>130</ele>
        <time>2024-05-27T10:13:37.132Z</time>
      </trkpt>
      <trkpt lat="48.6197" lon="1.73692">
        <ele>130</ele>
        <time>2024-05-27T10:13:42.132Z</time>
      </trkpt>
      <trkpt lat="48.61973" lon="1.73698">
        <ele>130</ele>
        <time>2024-05-27T10:13:47.132Z</time>
      </trkpt>
      <trkpt lat="48.61973" lon="1.73705">
        <ele>130</ele>
        <time>2024-05-27T10:13:51.622Z</time>
      </trkpt>
      <trkpt lat="48.61971" lon="1.73711">
        <ele>130</ele>
        <time>2024-05-27T10:13:55.683Z</time>
      </trkpt>
      <trkpt lat="48.61968" lon="1.73717">
        <ele>130</ele>
        <time>2024-05-27T10:13:59.984Z</time>
      </trkpt>
      <trkpt lat="48.61965" lon="1.73723">
        <ele>130</ele>
        <time>2024-05-27T10:14:04.132Z</time>
      </trkpt>
      <trkpt lat="48.61962" lon="1.73729">
        <ele>130</ele>
        <time>2024-05-27T10:14:08.833Z</time>
      </trkpt>
      <trkpt lat="48.61959" lon="1.73735">
        <ele>130</ele>
        <time>2024-05-27T10:14:13.132Z</time>
      </trkpt>
      <trkpt lat="48.61956" lon="1.73739">
        <ele>131</ele>
        <time>2024-05-27T10:14:18.132Z</time>
      </trkpt>
      <trkpt lat="48.61953" lon="1.73741">
        <ele>131</ele>
        <time>2024-05-27T10:14:27.131Z</time>
      </trkpt>
      <trkpt lat="48.61953" lon="1.73741">
        <ele>131</ele>
        <time>2024-05-27T10:14:31.674Z</time>
      </trkpt>
      <trkpt lat="48.6195" lon="1.73748">
        <ele>131</ele>
        <time>2024-05-27T10:14:36.132Z</time>
      </trkpt>
      <trkpt lat="48.61949" lon="1.73758">
        <ele>131</ele>
        <time>2024-05-27T10:14:40.746Z</time>
      </trkpt>
      <trkpt lat="48.61947" lon="1.73765">
        <ele>132</ele>
        <time>2024-05-27T10:14:45.131Z</time>
      </trkpt>
      <trkpt lat="48.61944" lon="1.73772">
        <ele>132</ele>
        <time>2024-05-27T10:14:49.732Z</time>
      </trkpt>
      <trkpt lat="48.61939" lon="1.73778">
        <ele>132</ele>
        <time>2024-05-27T10:14:54.132Z</time>
      </trkpt>
      <trkpt lat="48.61936" lon="1.73785">
        <ele>132</ele>
        <time>2024-05-27T10:14:59.022Z</time>
      </trkpt>
      <trkpt lat="48.61933" lon="1.73791">
        <ele>132</ele>
        <time>2024-05-27T10:15:03.132Z</time>
      </trkpt>
      <trkpt lat="48.6193" lon="1.73799">
        <ele>134</ele>
        <time>2024-05-27T10:15:08.131Z</time>
      </trkpt>
      <trkpt lat="48.61928" lon="1.73805">
        <ele>134</ele>
        <time>2024-05-27T10:15:12.390Z</time>
      </trkpt>
      <trkpt lat="48.61924" lon="1.7381">
        <ele>134</ele>
        <time>2024-05-27T10:15:16.811Z</time>
      </trkpt>
      <trkpt lat="48.61918" lon="1.73806">
        <ele>134</ele>
        <time>2024-05-27T10:15:30.131Z</time>
      </trkpt>
      <trkpt lat="48.61918" lon="1.73806">
        <ele>134</ele>
        <time>2024-05-27T10:15:35.140Z</time>
      </trkpt>
      <trkpt lat="48.61912" lon="1.73798">
        <ele>134</ele>
        <time>2024-05-27T10:15:39.647Z</time>
      </trkpt>
      <trkpt lat="48.61904" lon="1.73792">
        <ele>133</ele>
        <time>2024-05-27T10:15:43.990Z</time>
      </trkpt>
      <trkpt lat="48.619" lon="1.73789">
        <ele>133</ele>
        <time>2024-05-27T10:15:48.131Z</time>
      </trkpt>
      <trkpt lat="48.61896" lon="1.73798">
        <ele>136</ele>
        <time>2024-05-27T10:15:52.824Z</time>
      </trkpt>
      <trkpt lat="48.61895" lon="1.73805">
        <ele>136</ele>
        <time>2024-05-27T10:15:57.131Z</time>
      </trkpt>
      <trkpt lat="48.61899" lon="1.73812">
        <ele>136</ele>
        <time>2024-05-27T10:16:01.606Z</time>
      </trkpt>
      <trkpt lat="48.61905" lon="1.73814">
        <ele>134</ele>
        <time>2024-05-27T10:16:06.067Z</time>
      </trkpt>
      <trkpt lat="48.61909" lon="1.73818">
        <ele>134</ele>
        <time>2024-05-27T10:47:32.126Z</time>
      </trkpt>
      <trkpt lat="48.61905" lon="1.73814">
        <ele>134</ele>
        <time>2024-05-27T10:47:37.126Z</time>
      </trkpt>
      <trkpt lat="48.61902" lon="1.7381">
        <ele>136</ele>
        <time>2024-05-27T10:47:41.557Z</time>
      </trkpt>
      <trkpt lat="48.61897" lon="1.73807">
        <ele>136</ele>
        <time>2024-05-27T10:47:45.948Z</time>
      </trkpt>
      <trkpt lat="48.61896" lon="1.73805">
        <ele>136</ele>
        <time>2024-05-27T10:47:50.033Z</time>
      </trkpt>
      <trkpt lat="48.61899" lon="1.73809">
        <ele>136</ele>
        <time>2024-05-27T10:48:11.125Z</time>
      </trkpt>
      <trkpt lat="48.61899" lon="1.73811">
        <ele>136</ele>
        <time>2024-05-27T10:48:16.126Z</time>
      </trkpt>
      <trkpt lat="48.61899" lon="1.73812">
        <ele>136</ele>
        <time>2024-05-27T10:48:21.126Z</time>
      </trkpt>
      <trkpt lat="48.619" lon="1.73815">
        <ele>136</ele>
        <time>2024-05-27T10:48:26.126Z</time>
      </trkpt>
      <trkpt lat="48.61902" lon="1.73817">
        <ele>136</ele>
        <time>2024-05-27T10:48:30.126Z</time>
      </trkpt>
      <trkpt lat="48.61903" lon="1.73817">
        <ele>134</ele>
        <time>2024-05-27T10:49:09.126Z</time>
      </trkpt>
      <trkpt lat="48.61903" lon="1.73819">
        <ele>134</ele>
        <time>2024-05-27T10:49:13.126Z</time>
      </trkpt>
      <trkpt lat="48.61903" lon="1.73823">
        <ele>137</ele>
        <time>2024-05-27T10:49:17.881Z</time>
      </trkpt>
      <trkpt lat="48.61906" lon="1.73828">
        <ele>137</ele>
        <time>2024-05-27T10:49:21.920Z</time>
      </trkpt>
      <trkpt lat="48.61908" lon="1.73834">
        <ele>137</ele>
        <time>2024-05-27T10:49:26.535Z</time>
      </trkpt>
      <trkpt lat="48.61911" lon="1.7384">
        <ele>137</ele>
        <time>2024-05-27T10:49:31.126Z</time>
      </trkpt>
      <trkpt lat="48.61913" lon="1.73846">
        <ele>137</ele>
        <time>2024-05-27T10:49:35.580Z</time>
      </trkpt>
      <trkpt lat="48.61915" lon="1.73852">
        <ele>140</ele>
        <time>2024-05-27T10:49:39.693Z</time>
      </trkpt>
      <trkpt lat="48.61917" lon="1.73858">
        <ele>140</ele>
        <time>2024-05-27T10:49:43.901Z</time>
      </trkpt>
      <trkpt lat="48.61921" lon="1.73863">
        <ele>140</ele>
        <time>2024-05-27T10:49:48.099Z</time>
      </trkpt>
      <trkpt lat="48.61926" lon="1.73866">
        <ele>140</ele>
        <time>2024-05-27T10:49:52.700Z</time>
      </trkpt>
      <trkpt lat="48.61931" lon="1.7387">
        <ele>136</ele>
        <time>2024-05-27T10:49:56.940Z</time>
      </trkpt>
      <trkpt lat="48.61936" lon="1.73874">
        <ele>136</ele>
        <time>2024-05-27T10:50:01.140Z</time>
      </trkpt>
      <trkpt lat="48.61941" lon="1.73879">
        <ele>138</ele>
        <time>2024-05-27T10:50:05.840Z</time>
      </trkpt>
      <trkpt lat="48.61945" lon="1.73883">
        <ele>138</ele>
        <time>2024-05-27T10:50:10.101Z</time>
      </trkpt>
      <trkpt lat="48.6195" lon="1.73887">
        <ele>138</ele>
        <time>2024-05-27T10:50:14.126Z</time>
      </trkpt>
      <trkpt lat="48.61955" lon="1.73888">
        <ele>138</ele>
        <time>2024-05-27T10:50:18.514Z</time>
      </trkpt>
      <trkpt lat="48.61959" lon="1.7389">
        <ele>138</ele>
        <time>2024-05-27T10:50:22.635Z</time>
      </trkpt>
      <trkpt lat="48.61964" lon="1.73892">
        <ele>138</ele>
        <time>2024-05-27T10:50:26.654Z</time>
      </trkpt>
      <trkpt lat="48.6197" lon="1.73892">
        <ele>138</ele>
        <time>2024-05-27T10:50:30.718Z</time>
      </trkpt>
      <trkpt lat="48.61975" lon="1.73893">
        <ele>138</ele>
        <time>2024-05-27T10:50:34.840Z</time>
      </trkpt>
      <trkpt lat="48.61979" lon="1.73894">
        <ele>138</ele>
        <time>2024-05-27T10:50:39.053Z</time>
      </trkpt>
      <trkpt lat="48.61984" lon="1.73896">
        <ele>138</ele>
        <time>2024-05-27T10:50:43.740Z</time>
      </trkpt>
      <trkpt lat="48.61989" lon="1.73897">
        <ele>135</ele>
        <time>2024-05-27T10:50:48.126Z</time>
      </trkpt>
      <trkpt lat="48.61993" lon="1.73898">
        <ele>135</ele>
        <time>2024-05-27T10:50:52.596Z</time>
      </trkpt>
      <trkpt lat="48.61998" lon="1.73899">
        <ele>135</ele>
        <time>2024-05-27T10:50:56.837Z</time>
      </trkpt>
      <trkpt lat="48.62002" lon="1.73901">
        <ele>135</ele>
        <time>2024-05-27T10:51:01.421Z</time>
      </trkpt>
      <trkpt lat="48.62007" lon="1.73903">
        <ele>135</ele>
        <time>2024-05-27T10:51:05.814Z</time>
      </trkpt>
      <trkpt lat="48.62011" lon="1.73905">
        <ele>139</ele>
        <time>2024-05-27T10:51:10.099Z</time>
      </trkpt>
      <trkpt lat="48.62015" lon="1.73909">
        <ele>134</ele>
        <time>2024-05-27T10:51:14.296Z</time>
      </trkpt>
      <trkpt lat="48.62019" lon="1.73913">
        <ele>134</ele>
        <time>2024-05-27T10:51:18.896Z</time>
      </trkpt>
      <trkpt lat="48.62023" lon="1.73917">
        <ele>134</ele>
        <time>2024-05-27T10:51:23.421Z</time>
      </trkpt>
      <trkpt lat="48.62027" lon="1.7392">
        <ele>134</ele>
        <time>2024-05-27T10:51:27.915Z</time>
      </trkpt>
      <trkpt lat="48.62032" lon="1.73922">
        <ele>134</ele>
        <time>2024-05-27T10:51:32.941Z</time>
      </trkpt>
      <trkpt lat="48.62037" lon="1.73924">
        <ele>134</ele>
        <time>2024-05-27T10:51:37.125Z</time>
      </trkpt>
      <trkpt lat="48.62041" lon="1.73927">
        <ele>134</ele>
        <time>2024-05-27T10:51:41.619Z</time>
      </trkpt>
      <trkpt lat="48.62045" lon="1.73934">
        <ele>135</ele>
        <time>2024-05-27T10:51:46.126Z</time>
      </trkpt>
      <trkpt lat="48.62049" lon="1.73939">
        <ele>135</ele>
        <time>2024-05-27T10:51:51.040Z</time>
      </trkpt>
      <trkpt lat="48.62054" lon="1.73941">
        <ele>135</ele>
        <time>2024-05-27T10:51:55.401Z</time>
      </trkpt>
      <trkpt lat="48.62057" lon="1.73944">
        <ele>135</ele>
        <time>2024-05-27T10:51:59.916Z</time>
      </trkpt>
      <trkpt lat="48.62061" lon="1.73948">
        <ele>135</ele>
        <time>2024-05-27T10:52:04.276Z</time>
      </trkpt>
      <trkpt lat="48.62065" lon="1.73952">
        <ele>135</ele>
        <time>2024-05-27T10:52:08.636Z</time>
      </trkpt>
      <trkpt lat="48.62068" lon="1.73955">
        <ele>135</ele>
        <time>2024-05-27T10:52:12.681Z</time>
      </trkpt>
      <trkpt lat="48.6207" lon="1.73964">
        <ele>135</ele>
        <time>2024-05-27T10:52:16.761Z</time>
      </trkpt>
      <trkpt lat="48.62072" lon="1.73968">
        <ele>135</ele>
        <time>2024-05-27T10:52:21.126Z</time>
      </trkpt>
      <trkpt lat="48.62075" lon="1.73972">
        <ele>135</ele>
        <time>2024-05-27T10:52:25.575Z</time>
      </trkpt>
      <trkpt lat="48.62078" lon="1.73974">
        <ele>135</ele>
        <time>2024-05-27T10:52:29.620Z</time>
      </trkpt>
      <trkpt lat="48.6208" lon="1.73977">
        <ele>135</ele>
        <time>2024-05-27T10:52:33.999Z</time>
      </trkpt>
      <trkpt lat="48.62084" lon="1.73982">
        <ele>135</ele>
        <time>2024-05-27T10:52:38.125Z</time>
      </trkpt>
      <trkpt lat="48.62087" lon="1.73989">
        <ele>137</ele>
        <time>2024-05-27T10:52:42.898Z</time>
      </trkpt>
      <trkpt lat="48.62092" lon="1.73993">
        <ele>137</ele>
        <time>2024-05-27T10:52:47.915Z</time>
      </trkpt>
      <trkpt lat="48.62096" lon="1.73998">
        <ele>137</ele>
        <time>2024-05-27T10:52:52.125Z</time>
      </trkpt>
      <trkpt lat="48.621" lon="1.74002">
        <ele>134</ele>
        <time>2024-05-27T10:52:56.841Z</time>
      </trkpt>
      <trkpt lat="48.62104" lon="1.74006">
        <ele>134</ele>
        <time>2024-05-27T10:53:01.125Z</time>
      </trkpt>
      <trkpt lat="48.62107" lon="1.7401">
        <ele>134</ele>
        <time>2024-05-27T10:53:06.146Z</time>
      </trkpt>
      <trkpt lat="48.62111" lon="1.74014">
        <ele>134</ele>
        <time>2024-05-27T10:53:10.979Z</time>
      </trkpt>
      <trkpt lat="48.62114" lon="1.74018">
        <ele>136</ele>
        <time>2024-05-27T10:53:15.125Z</time>
      </trkpt>
      <trkpt lat="48.62119" lon="1.74022">
        <ele>136</ele>
        <time>2024-05-27T10:53:19.316Z</time>
      </trkpt>
      <trkpt lat="48.62123" lon="1.74027">
        <ele>136</ele>
        <time>2024-05-27T10:53:24.125Z</time>
      </trkpt>
      <trkpt lat="48.62129" lon="1.7403">
        <ele>133</ele>
        <time>2024-05-27T10:53:28.617Z</time>
      </trkpt>
      <trkpt lat="48.62134" lon="1.74033">
        <ele>133</ele>
        <time>2024-05-27T10:53:32.960Z</time>
      </trkpt>
      <trkpt lat="48.6214" lon="1.74035">
        <ele>133</ele>
        <time>2024-05-27T10:53:36.997Z</time>
      </trkpt>
      <trkpt lat="48.62144" lon="1.74036">
        <ele>133</ele>
        <time>2024-05-27T10:53:41.125Z</time>
      </trkpt>
      <trkpt lat="48.6215" lon="1.74037">
        <ele>133</ele>
        <time>2024-05-27T10:53:46.125Z</time>
      </trkpt>
      <trkpt lat="48.62155" lon="1.7404">
        <ele>131</ele>
        <time>2024-05-27T10:53:51.120Z</time>
      </trkpt>
      <trkpt lat="48.62166" lon="1.74045">
        <ele>136</ele>
        <time>2024-05-27T10:54:49.125Z</time>
      </trkpt>
      <trkpt lat="48.62168" lon="1.74045">
        <ele>136</ele>
        <time>2024-05-27T10:54:54.125Z</time>
      </trkpt>
      <trkpt lat="48.62172" lon="1.74045">
        <ele>136</ele>
        <time>2024-05-27T10:54:59.125Z</time>
      </trkpt>
      <trkpt lat="48.62179" lon="1.7405">
        <ele>136</ele>
        <time>2024-05-27T10:55:03.860Z</time>
      </trkpt>
      <trkpt lat="48.62184" lon="1.74055">
        <ele>135</ele>
        <time>2024-05-27T10:55:08.062Z</time>
      </trkpt>
      <trkpt lat="48.62204" lon="1.74054">
        <ele>135</ele>
        <time>2024-05-27T10:55:41.125Z</time>
      </trkpt>
      <trkpt lat="48.62211" lon="1.74059">
        <ele>133</ele>
        <time>2024-05-27T10:55:45.414Z</time>
      </trkpt>
      <trkpt lat="48.62217" lon="1.74064">
        <ele>133</ele>
        <time>2024-05-27T10:55:50.146Z</time>
      </trkpt>
      <trkpt lat="48.62221" lon="1.74067">
        <ele>133</ele>
        <time>2024-05-27T10:55:54.125Z</time>
      </trkpt>
      <trkpt lat="48.62228" lon="1.74069">
        <ele>133</ele>
        <time>2024-05-27T10:55:59.045Z</time>
      </trkpt>
      <trkpt lat="48.62234" lon="1.7407">
        <ele>137</ele>
        <time>2024-05-27T10:56:03.125Z</time>
      </trkpt>
      <trkpt lat="48.6224" lon="1.74072">
        <ele>134</ele>
        <time>2024-05-27T10:56:07.738Z</time>
      </trkpt>
      <trkpt lat="48.62245" lon="1.74075">
        <ele>134</ele>
        <time>2024-05-27T10:56:11.890Z</time>
      </trkpt>
      <trkpt lat="48.6225" lon="1.74077">
        <ele>134</ele>
        <time>2024-05-27T10:56:16.125Z</time>
      </trkpt>
      <trkpt lat="48.62256" lon="1.7408">
        <ele>134</ele>
        <time>2024-05-27T10:56:21.045Z</time>
      </trkpt>
      <trkpt lat="48.62261" lon="1.74084">
        <ele>134</ele>
        <time>2024-05-27T10:56:25.399Z</time>
      </trkpt>
      <trkpt lat="48.62267" lon="1.74085">
        <ele>130</ele>
        <time>2024-05-27T10:56:30.125Z</time>
      </trkpt>
      <trkpt lat="48.62272" lon="1.74086">
        <ele>130</ele>
        <time>2024-05-27T10:56:34.374Z</time>
      </trkpt>
      <trkpt lat="48.62277" lon="1.74087">
        <ele>130</ele>
        <time>2024-05-27T10:56:38.761Z</time>
      </trkpt>
      <trkpt lat="48.62282" lon="1.7409">
        <ele>130</ele>
        <time>2024-05-27T10:56:42.977Z</time>
      </trkpt>
      <trkpt lat="48.62287" lon="1.74092">
        <ele>130</ele>
        <time>2024-05-27T10:56:47.339Z</time>
      </trkpt>
      <trkpt lat="48.62292" lon="1.74095">
        <ele>129</ele>
        <time>2024-05-27T10:56:51.760Z</time>
      </trkpt>
      <trkpt lat="48.62297" lon="1.74098">
        <ele>133</ele>
        <time>2024-05-27T10:56:55.791Z</time>
      </trkpt>
      <trkpt lat="48.62302" lon="1.741">
        <ele>133</ele>
        <time>2024-05-27T10:57:00.095Z</time>
      </trkpt>
      <trkpt lat="48.62306" lon="1.74103">
        <ele>133</ele>
        <time>2024-05-27T10:57:04.322Z</time>
      </trkpt>
      <trkpt lat="48.6231" lon="1.74106">
        <ele>133</ele>
        <time>2024-05-27T10:57:08.740Z</time>
      </trkpt>
      <trkpt lat="48.62315" lon="1.74109">
        <ele>133</ele>
        <time>2024-05-27T10:57:12.939Z</time>
      </trkpt>
      <trkpt lat="48.62318" lon="1.74114">
        <ele>133</ele>
        <time>2024-05-27T10:57:17.139Z</time>
      </trkpt>
      <trkpt lat="48.62321" lon="1.74117">
        <ele>132</ele>
        <time>2024-05-27T10:57:21.455Z</time>
      </trkpt>
      <trkpt lat="48.62324" lon="1.74116">
        <ele>132</ele>
        <time>2024-05-27T10:57:26.125Z</time>
      </trkpt>
      <trkpt lat="48.62324" lon="1.74115">
        <ele>132</ele>
        <time>2024-05-27T10:57:30.757Z</time>
      </trkpt>
      <trkpt lat="48.62328" lon="1.7412">
        <ele>132</ele>
        <time>2024-05-27T10:57:35.075Z</time>
      </trkpt>
      <trkpt lat="48.62331" lon="1.74124">
        <ele>132</ele>
        <time>2024-05-27T10:57:39.120Z</time>
      </trkpt>
      <trkpt lat="48.62335" lon="1.74132">
        <ele>136</ele>
        <time>2024-05-27T10:57:44.064Z</time>
      </trkpt>
      <trkpt lat="48.62339" lon="1.74136">
        <ele>136</ele>
        <time>2024-05-27T10:57:48.125Z</time>
      </trkpt>
      <trkpt lat="48.62342" lon="1.74139">
        <ele>136</ele>
        <time>2024-05-27T10:57:53.125Z</time>
      </trkpt>
      <trkpt lat="48.62344" lon="1.74144">
        <ele>136</ele>
        <time>2024-05-27T10:57:57.800Z</time>
      </trkpt>
      <trkpt lat="48.62347" lon="1.74151">
        <ele>136</ele>
        <time>2024-05-27T10:58:02.135Z</time>
      </trkpt>
      <trkpt lat="48.62349" lon="1.74156">
        <ele>131</ele>
        <time>2024-05-27T10:58:06.607Z</time>
      </trkpt>
      <trkpt lat="48.62352" lon="1.74162">
        <ele>131</ele>
        <time>2024-05-27T10:58:10.755Z</time>
      </trkpt>
      <trkpt lat="48.62355" lon="1.74166">
        <ele>131</ele>
        <time>2024-05-27T10:58:15.125Z</time>
      </trkpt>
      <trkpt lat="48.62356" lon="1.74166">
        <ele>131</ele>
        <time>2024-05-27T10:58:16.125Z</time>
      </trkpt>
      <trkpt lat="48.62355" lon="1.7417">
        <ele>131</ele>
        <time>2024-05-27T10:58:25.125Z</time>
      </trkpt>
      <trkpt lat="48.62359" lon="1.74182">
        <ele>134</ele>
        <time>2024-05-27T10:58:29.625Z</time>
      </trkpt>
      <trkpt lat="48.62361" lon="1.74191">
        <ele>134</ele>
        <time>2024-05-27T10:58:33.961Z</time>
      </trkpt>
      <trkpt lat="48.62363" lon="1.74198">
        <ele>134</ele>
        <time>2024-05-27T10:58:38.022Z</time>
      </trkpt>
      <trkpt lat="48.62365" lon="1.74205">
        <ele>134</ele>
        <time>2024-05-27T10:58:42.124Z</time>
      </trkpt>
      <trkpt lat="48.62365" lon="1.74211">
        <ele>135</ele>
        <time>2024-05-27T10:58:46.381Z</time>
      </trkpt>
      <trkpt lat="48.62365" lon="1.74214">
        <ele>135</ele>
        <time>2024-05-27T10:58:47.603Z</time>
      </trkpt>
      <trkpt lat="48.62361" lon="1.7423">
        <ele>135</ele>
        <time>2024-05-27T10:58:57.124Z</time>
      </trkpt>
      <trkpt lat="48.6236" lon="1.74238">
        <ele>134</ele>
        <time>2024-05-27T10:59:01.375Z</time>
      </trkpt>
      <trkpt lat="48.6236" lon="1.74245">
        <ele>134</ele>
        <time>2024-05-27T10:59:05.642Z</time>
      </trkpt>
      <trkpt lat="48.62362" lon="1.74249">
        <ele>134</ele>
        <time>2024-05-27T10:59:09.861Z</time>
      </trkpt>
      <trkpt lat="48.62363" lon="1.74263">
        <ele>134</ele>
        <time>2024-05-27T10:59:15.124Z</time>
      </trkpt>
      <trkpt lat="48.62364" lon="1.74271">
        <ele>134</ele>
        <time>2024-05-27T10:59:19.262Z</time>
      </trkpt>
      <trkpt lat="48.62365" lon="1.74277">
        <ele>134</ele>
        <time>2024-05-27T10:59:23.417Z</time>
      </trkpt>
      <trkpt lat="48.62367" lon="1.74282">
        <ele>134</ele>
        <time>2024-05-27T10:59:27.676Z</time>
      </trkpt>
      <trkpt lat="48.62367" lon="1.74284">
        <ele>134</ele>
        <time>2024-05-27T10:59:30.124Z</time>
      </trkpt>
      <trkpt lat="48.62368" lon="1.74281">
        <ele>134</ele>
        <time>2024-05-27T10:59:39.124Z</time>
      </trkpt>
      <trkpt lat="48.62368" lon="1.74284">
        <ele>134</ele>
        <time>2024-05-27T10:59:43.637Z</time>
      </trkpt>
      <trkpt lat="48.6237" lon="1.74298">
        <ele>137</ele>
        <time>2024-05-27T10:59:48.124Z</time>
      </trkpt>
      <trkpt lat="48.62373" lon="1.7431">
        <ele>137</ele>
        <time>2024-05-27T10:59:53.040Z</time>
      </trkpt>
      <trkpt lat="48.62375" lon="1.74319">
        <ele>137</ele>
        <time>2024-05-27T10:59:57.124Z</time>
      </trkpt>
      <trkpt lat="48.62376" lon="1.74327">
        <ele>133</ele>
        <time>2024-05-27T11:00:02.124Z</time>
      </trkpt>
      <trkpt lat="48.62378" lon="1.74331">
        <ele>133</ele>
        <time>2024-05-27T11:00:06.520Z</time>
      </trkpt>
      <trkpt lat="48.6238" lon="1.74337">
        <ele>133</ele>
        <time>2024-05-27T11:00:10.701Z</time>
      </trkpt>
      <trkpt lat="48.62382" lon="1.74345">
        <ele>133</ele>
        <time>2024-05-27T11:00:15.124Z</time>
      </trkpt>
      <trkpt lat="48.62384" lon="1.74351">
        <ele>134</ele>
        <time>2024-05-27T11:00:19.355Z</time>
      </trkpt>
      <trkpt lat="48.62387" lon="1.74357">
        <ele>134</ele>
        <time>2024-05-27T11:00:23.879Z</time>
      </trkpt>
      <trkpt lat="48.6239" lon="1.7436">
        <ele>134</ele>
        <time>2024-05-27T11:00:28.124Z</time>
      </trkpt>
      <trkpt lat="48.62391" lon="1.74367">
        <ele>134</ele>
        <time>2024-05-27T11:00:32.616Z</time>
      </trkpt>
      <trkpt lat="48.62392" lon="1.74375">
        <ele>136</ele>
        <time>2024-05-27T11:00:36.801Z</time>
      </trkpt>
      <trkpt lat="48.62396" lon="1.74383">
        <ele>136</ele>
        <time>2024-05-27T11:00:41.235Z</time>
      </trkpt>
      <trkpt lat="48.62398" lon="1.74391">
        <ele>136</ele>
        <time>2024-05-27T11:00:46.124Z</time>
      </trkpt>
      <trkpt lat="48.62399" lon="1.74398">
        <ele>136</ele>
        <time>2024-05-27T11:00:50.939Z</time>
      </trkpt>
      <trkpt lat="48.62401" lon="1.74404">
        <ele>139</ele>
        <time>2024-05-27T11:00:55.120Z</time>
      </trkpt>
      <trkpt lat="48.62402" lon="1.74414">
        <ele>139</ele>
        <time>2024-05-27T11:01:00.124Z</time>
      </trkpt>
      <trkpt lat="48.62404" lon="1.74422">
        <ele>136</ele>
        <time>2024-05-27T11:01:04.899Z</time>
      </trkpt>
      <trkpt lat="48.62406" lon="1.7443">
        <ele>136</ele>
        <time>2024-05-27T11:01:09.124Z</time>
      </trkpt>
      <trkpt lat="48.62405" lon="1.74437">
        <ele>137</ele>
        <time>2024-05-27T11:01:13.680Z</time>
      </trkpt>
      <trkpt lat="48.62405" lon="1.74445">
        <ele>137</ele>
        <time>2024-05-27T11:01:18.124Z</time>
      </trkpt>
      <trkpt lat="48.62403" lon="1.74453">
        <ele>137</ele>
        <time>2024-05-27T11:01:22.436Z</time>
      </trkpt>
      <trkpt lat="48.62402" lon="1.7446">
        <ele>141</ele>
        <time>2024-05-27T11:01:27.124Z</time>
      </trkpt>
      <trkpt lat="48.62401" lon="1.74468">
        <ele>141</ele>
        <time>2024-05-27T11:01:31.575Z</time>
      </trkpt>
      <trkpt lat="48.62401" lon="1.74476">
        <ele>141</ele>
        <time>2024-05-27T11:01:36.124Z</time>
      </trkpt>
      <trkpt lat="48.62403" lon="1.74482">
        <ele>141</ele>
        <time>2024-05-27T11:01:40.124Z</time>
      </trkpt>
      <trkpt lat="48.62404" lon="1.74488">
        <ele>138</ele>
        <time>2024-05-27T11:02:03.124Z</time>
      </trkpt>
      <trkpt lat="48.62405" lon="1.74488">
        <ele>138</ele>
        <time>2024-05-27T11:02:07.123Z</time>
      </trkpt>
      <trkpt lat="48.62405" lon="1.74489">
        <ele>138</ele>
        <time>2024-05-27T11:02:11.724Z</time>
      </trkpt>
      <trkpt lat="48.6241" lon="1.74503">
        <ele>138</ele>
        <time>2024-05-27T11:02:16.063Z</time>
      </trkpt>
      <trkpt lat="48.62415" lon="1.74509">
        <ele>138</ele>
        <time>2024-05-27T11:02:20.158Z</time>
      </trkpt>
      <trkpt lat="48.62419" lon="1.74516">
        <ele>138</ele>
        <time>2024-05-27T11:02:24.123Z</time>
      </trkpt>
      <trkpt lat="48.62424" lon="1.74523">
        <ele>138</ele>
        <time>2024-05-27T11:02:28.259Z</time>
      </trkpt>
      <trkpt lat="48.62427" lon="1.7453">
        <ele>138</ele>
        <time>2024-05-27T11:02:32.362Z</time>
      </trkpt>
      <trkpt lat="48.6243" lon="1.74539">
        <ele>138</ele>
        <time>2024-05-27T11:02:37.123Z</time>
      </trkpt>
      <trkpt lat="48.62432" lon="1.74547">
        <ele>138</ele>
        <time>2024-05-27T11:02:41.123Z</time>
      </trkpt>
      <trkpt lat="48.62436" lon="1.74556">
        <ele>138</ele>
        <time>2024-05-27T11:02:46.124Z</time>
      </trkpt>
      <trkpt lat="48.62439" lon="1.74565">
        <ele>138</ele>
        <time>2024-05-27T11:02:51.123Z</time>
      </trkpt>
      <trkpt lat="48.62445" lon="1.74573">
        <ele>140</ele>
        <time>2024-05-27T11:02:55.992Z</time>
      </trkpt>
      <trkpt lat="48.62448" lon="1.74579">
        <ele>140</ele>
        <time>2024-05-27T11:03:00.310Z</time>
      </trkpt>
      <trkpt lat="48.62452" lon="1.74585">
        <ele>140</ele>
        <time>2024-05-27T11:03:04.773Z</time>
      </trkpt>
      <trkpt lat="48.62455" lon="1.74591">
        <ele>140</ele>
        <time>2024-05-27T11:03:09.124Z</time>
      </trkpt>
      <trkpt lat="48.62458" lon="1.74598">
        <ele>137</ele>
        <time>2024-05-27T11:03:13.468Z</time>
      </trkpt>
      <trkpt lat="48.62461" lon="1.74604">
        <ele>137</ele>
        <time>2024-05-27T11:03:17.411Z</time>
      </trkpt>
      <trkpt lat="48.62465" lon="1.74611">
        <ele>137</ele>
        <time>2024-05-27T11:03:21.533Z</time>
      </trkpt>
      <trkpt lat="48.62468" lon="1.74618">
        <ele>137</ele>
        <time>2024-05-27T11:03:26.073Z</time>
      </trkpt>
      <trkpt lat="48.6247" lon="1.74624">
        <ele>137</ele>
        <time>2024-05-27T11:03:30.124Z</time>
      </trkpt>
      <trkpt lat="48.6247" lon="1.74634">
        <ele>139</ele>
        <time>2024-05-27T11:03:35.134Z</time>
      </trkpt>
      <trkpt lat="48.62473" lon="1.74642">
        <ele>139</ele>
        <time>2024-05-27T11:03:39.734Z</time>
      </trkpt>
      <trkpt lat="48.62477" lon="1.74648">
        <ele>139</ele>
        <time>2024-05-27T11:03:44.123Z</time>
      </trkpt>
      <trkpt lat="48.6248" lon="1.74654">
        <ele>140</ele>
        <time>2024-05-27T11:03:48.532Z</time>
      </trkpt>
      <trkpt lat="48.62483" lon="1.74662">
        <ele>140</ele>
        <time>2024-05-27T11:03:53.123Z</time>
      </trkpt>
      <trkpt lat="48.62485" lon="1.74668">
        <ele>140</ele>
        <time>2024-05-27T11:03:57.551Z</time>
      </trkpt>
      <trkpt lat="48.62487" lon="1.74675">
        <ele>138</ele>
        <time>2024-05-27T11:04:02.075Z</time>
      </trkpt>
      <trkpt lat="48.6249" lon="1.74681">
        <ele>141</ele>
        <time>2024-05-27T11:04:06.433Z</time>
      </trkpt>
      <trkpt lat="48.62494" lon="1.74689">
        <ele>141</ele>
        <time>2024-05-27T11:04:11.050Z</time>
      </trkpt>
      <trkpt lat="48.62498" lon="1.74694">
        <ele>141</ele>
        <time>2024-05-27T11:04:15.667Z</time>
      </trkpt>
      <trkpt lat="48.62501" lon="1.74699">
        <ele>141</ele>
        <time>2024-05-27T11:04:19.847Z</time>
      </trkpt>
      <trkpt lat="48.62505" lon="1.74705">
        <ele>141</ele>
        <time>2024-05-27T11:04:25.123Z</time>
      </trkpt>
      <trkpt lat="48.6251" lon="1.74709">
        <ele>144</ele>
        <time>2024-05-27T11:04:29.877Z</time>
      </trkpt>
      <trkpt lat="48.62513" lon="1.74714">
        <ele>144</ele>
        <time>2024-05-27T11:04:33.910Z</time>
      </trkpt>
      <trkpt lat="48.62516" lon="1.74719">
        <ele>139</ele>
        <time>2024-05-27T11:04:38.090Z</time>
      </trkpt>
      <trkpt lat="48.62519" lon="1.74724">
        <ele>139</ele>
        <time>2024-05-27T11:04:42.124Z</time>
      </trkpt>
      <trkpt lat="48.62522" lon="1.74729">
        <ele>139</ele>
        <time>2024-05-27T11:04:46.548Z</time>
      </trkpt>
      <trkpt lat="48.62526" lon="1.74734">
        <ele>139</ele>
        <time>2024-05-27T11:04:50.573Z</time>
      </trkpt>
      <trkpt lat="48.62529" lon="1.74741">
        <ele>140</ele>
        <time>2024-05-27T11:04:54.755Z</time>
      </trkpt>
      <trkpt lat="48.62532" lon="1.74748">
        <ele>140</ele>
        <time>2024-05-27T11:04:59.124Z</time>
      </trkpt>
      <trkpt lat="48.62534" lon="1.74754">
        <ele>140</ele>
        <time>2024-05-27T11:05:03.595Z</time>
      </trkpt>
      <trkpt lat="48.62536" lon="1.74763">
        <ele>140</ele>
        <time>2024-05-27T11:05:08.124Z</time>
      </trkpt>
      <trkpt lat="48.62537" lon="1.74772">
        <ele>140</ele>
        <time>2024-05-27T11:05:13.124Z</time>
      </trkpt>
      <trkpt lat="48.62539" lon="1.74776">
        <ele>140</ele>
        <time>2024-05-27T11:05:17.792Z</time>
      </trkpt>
      <trkpt lat="48.62538" lon="1.74772">
        <ele>140</ele>
        <time>2024-05-27T11:05:52.123Z</time>
      </trkpt>
      <trkpt lat="48.62536" lon="1.74785">
        <ele>140</ele>
        <time>2024-05-27T11:05:56.633Z</time>
      </trkpt>
      <trkpt lat="48.62534" lon="1.74796">
        <ele>140</ele>
        <time>2024-05-27T11:06:01.112Z</time>
      </trkpt>
      <trkpt lat="48.62532" lon="1.74806">
        <ele>140</ele>
        <time>2024-05-27T11:06:05.122Z</time>
      </trkpt>
      <trkpt lat="48.6253" lon="1.74817">
        <ele>140</ele>
        <time>2024-05-27T11:06:09.654Z</time>
      </trkpt>
      <trkpt lat="48.62528" lon="1.74828">
        <ele>139</ele>
        <time>2024-05-27T11:06:13.673Z</time>
      </trkpt>
      <trkpt lat="48.62528" lon="1.74843">
        <ele>139</ele>
        <time>2024-05-27T11:06:17.973Z</time>
      </trkpt>
      <trkpt lat="48.6253" lon="1.74858">
        <ele>140</ele>
        <time>2024-05-27T11:06:22.692Z</time>
      </trkpt>
      <trkpt lat="48.62532" lon="1.74868">
        <ele>140</ele>
        <time>2024-05-27T11:06:26.992Z</time>
      </trkpt>
      <trkpt lat="48.62535" lon="1.74878">
        <ele>141</ele>
        <time>2024-05-27T11:06:31.932Z</time>
      </trkpt>
      <trkpt lat="48.62537" lon="1.74886">
        <ele>141</ele>
        <time>2024-05-27T11:06:36.115Z</time>
      </trkpt>
      <trkpt lat="48.6254" lon="1.74894">
        <ele>141</ele>
        <time>2024-05-27T11:06:40.123Z</time>
      </trkpt>
      <trkpt lat="48.62543" lon="1.74902">
        <ele>135</ele>
        <time>2024-05-27T11:06:44.671Z</time>
      </trkpt>
      <trkpt lat="48.62545" lon="1.74909">
        <ele>136</ele>
        <time>2024-05-27T11:06:49.123Z</time>
      </trkpt>
      <trkpt lat="48.6255" lon="1.74917">
        <ele>136</ele>
        <time>2024-05-27T11:06:53.647Z</time>
      </trkpt>
      <trkpt lat="48.62554" lon="1.74923">
        <ele>136</ele>
        <time>2024-05-27T11:06:58.092Z</time>
      </trkpt>
      <trkpt lat="48.62559" lon="1.74929">
        <ele>136</ele>
        <time>2024-05-27T11:07:02.452Z</time>
      </trkpt>
      <trkpt lat="48.62564" lon="1.74935">
        <ele>138</ele>
        <time>2024-05-27T11:07:06.608Z</time>
      </trkpt>
      <trkpt lat="48.62569" lon="1.74941">
        <ele>138</ele>
        <time>2024-05-27T11:07:10.874Z</time>
      </trkpt>
      <trkpt lat="48.62573" lon="1.74947">
        <ele>134</ele>
        <time>2024-05-27T11:07:15.292Z</time>
      </trkpt>
      <trkpt lat="48.62577" lon="1.74953">
        <ele>134</ele>
        <time>2024-05-27T11:07:19.653Z</time>
      </trkpt>
      <trkpt lat="48.62581" lon="1.74957">
        <ele>134</ele>
        <time>2024-05-27T11:07:23.749Z</time>
      </trkpt>
      <trkpt lat="48.62585" lon="1.74962">
        <ele>137</ele>
        <time>2024-05-27T11:07:28.123Z</time>
      </trkpt>
      <trkpt lat="48.6259" lon="1.74967">
        <ele>137</ele>
        <time>2024-05-27T11:07:33.123Z</time>
      </trkpt>
      <trkpt lat="48.62594" lon="1.74974">
        <ele>137</ele>
        <time>2024-05-27T11:07:38.123Z</time>
      </trkpt>
      <trkpt lat="48.62596" lon="1.7498">
        <ele>137</ele>
        <time>2024-05-27T11:07:42.809Z</time>
      </trkpt>
      <trkpt lat="48.626" lon="1.74985">
        <ele>134</ele>
        <time>2024-05-27T11:07:47.123Z</time>
      </trkpt>
      <trkpt lat="48.62604" lon="1.74991">
        <ele>135</ele>
        <time>2024-05-27T11:07:52.122Z</time>
      </trkpt>
      <trkpt lat="48.62608" lon="1.74997">
        <ele>135</ele>
        <time>2024-05-27T11:07:56.630Z</time>
      </trkpt>
      <trkpt lat="48.62611" lon="1.75003">
        <ele>135</ele>
        <time>2024-05-27T11:08:01.123Z</time>
      </trkpt>
      <trkpt lat="48.62615" lon="1.75009">
        <ele>135</ele>
        <time>2024-05-27T11:08:05.709Z</time>
      </trkpt>
      <trkpt lat="48.62618" lon="1.75016">
        <ele>137</ele>
        <time>2024-05-27T11:08:10.123Z</time>
      </trkpt>
      <trkpt lat="48.62622" lon="1.75024">
        <ele>137</ele>
        <time>2024-05-27T11:08:14.798Z</time>
      </trkpt>
      <trkpt lat="48.62625" lon="1.75029">
        <ele>134</ele>
        <time>2024-05-27T11:08:19.123Z</time>
      </trkpt>
      <trkpt lat="48.6263" lon="1.75035">
        <ele>134</ele>
        <time>2024-05-27T11:08:24.123Z</time>
      </trkpt>
      <trkpt lat="48.62632" lon="1.75044">
        <ele>135</ele>
        <time>2024-05-27T11:08:29.123Z</time>
      </trkpt>
      <trkpt lat="48.62634" lon="1.7505">
        <ele>135</ele>
        <time>2024-05-27T11:08:33.492Z</time>
      </trkpt>
      <trkpt lat="48.62636" lon="1.75049">
        <ele>135</ele>
        <time>2024-05-27T11:08:37.989Z</time>
      </trkpt>
      <trkpt lat="48.62636" lon="1.7505">
        <ele>135</ele>
        <time>2024-05-27T11:08:42.123Z</time>
      </trkpt>
      <trkpt lat="48.62634" lon="1.75055">
        <ele>135</ele>
        <time>2024-05-27T11:08:46.570Z</time>
      </trkpt>
      <trkpt lat="48.62632" lon="1.75063">
        <ele>135</ele>
        <time>2024-05-27T11:08:51.032Z</time>
      </trkpt>
      <trkpt lat="48.62632" lon="1.75071">
        <ele>135</ele>
        <time>2024-05-27T11:08:55.093Z</time>
      </trkpt>
      <trkpt lat="48.62631" lon="1.75076">
        <ele>135</ele>
        <time>2024-05-27T11:08:59.123Z</time>
      </trkpt>
      <trkpt lat="48.62629" lon="1.75083">
        <ele>135</ele>
        <time>2024-05-27T11:09:03.334Z</time>
      </trkpt>
      <trkpt lat="48.62627" lon="1.75087">
        <ele>135</ele>
        <time>2024-05-27T11:09:07.122Z</time>
      </trkpt>
      <trkpt lat="48.62628" lon="1.75092">
        <ele>135</ele>
        <time>2024-05-27T11:09:16.123Z</time>
      </trkpt>
      <trkpt lat="48.62629" lon="1.75093">
        <ele>135</ele>
        <time>2024-05-27T11:09:21.123Z</time>
      </trkpt>
      <trkpt lat="48.62629" lon="1.75102">
        <ele>134</ele>
        <time>2024-05-27T11:09:25.434Z</time>
      </trkpt>
      <trkpt lat="48.62627" lon="1.75109">
        <ele>134</ele>
        <time>2024-05-27T11:09:29.695Z</time>
      </trkpt>
      <trkpt lat="48.62623" lon="1.75119">
        <ele>141</ele>
        <time>2024-05-27T11:09:34.012Z</time>
      </trkpt>
      <trkpt lat="48.62621" lon="1.75128">
        <ele>141</ele>
        <time>2024-05-27T11:09:38.554Z</time>
      </trkpt>
      <trkpt lat="48.6262" lon="1.75137">
        <ele>141</ele>
        <time>2024-05-27T11:09:43.123Z</time>
      </trkpt>
      <trkpt lat="48.62617" lon="1.75145">
        <ele>141</ele>
        <time>2024-05-27T11:09:47.417Z</time>
      </trkpt>
      <trkpt lat="48.62617" lon="1.75153">
        <ele>141</ele>
        <time>2024-05-27T11:09:52.053Z</time>
      </trkpt>
      <trkpt lat="48.62615" lon="1.75161">
        <ele>141</ele>
        <time>2024-05-27T11:09:56.468Z</time>
      </trkpt>
      <trkpt lat="48.62614" lon="1.7517">
        <ele>141</ele>
        <time>2024-05-27T11:10:01.122Z</time>
      </trkpt>
      <trkpt lat="48.62611" lon="1.75178">
        <ele>141</ele>
        <time>2024-05-27T11:10:05.615Z</time>
      </trkpt>
      <trkpt lat="48.62609" lon="1.75186">
        <ele>142</ele>
        <time>2024-05-27T11:10:10.123Z</time>
      </trkpt>
      <trkpt lat="48.62608" lon="1.75195">
        <ele>142</ele>
        <time>2024-05-27T11:10:14.808Z</time>
      </trkpt>
      <trkpt lat="48.62609" lon="1.75204">
        <ele>142</ele>
        <time>2024-05-27T11:10:19.572Z</time>
      </trkpt>
      <trkpt lat="48.62612" lon="1.75212">
        <ele>143</ele>
        <time>2024-05-27T11:10:24.123Z</time>
      </trkpt>
      <trkpt lat="48.62614" lon="1.75219">
        <ele>143</ele>
        <time>2024-05-27T11:10:28.310Z</time>
      </trkpt>
      <trkpt lat="48.62615" lon="1.75227">
        <ele>143</ele>
        <time>2024-05-27T11:10:32.815Z</time>
      </trkpt>
      <trkpt lat="48.62617" lon="1.75234">
        <ele>143</ele>
        <time>2024-05-27T11:10:37.034Z</time>
      </trkpt>
      <trkpt lat="48.62619" lon="1.75243">
        <ele>144</ele>
        <time>2024-05-27T11:10:41.627Z</time>
      </trkpt>
      <trkpt lat="48.62622" lon="1.7525">
        <ele>144</ele>
        <time>2024-05-27T11:10:46.123Z</time>
      </trkpt>
      <trkpt lat="48.62623" lon="1.75258">
        <ele>144</ele>
        <time>2024-05-27T11:10:50.390Z</time>
      </trkpt>
      <trkpt lat="48.62624" lon="1.75267">
        <ele>145</ele>
        <time>2024-05-27T11:10:54.954Z</time>
      </trkpt>
      <trkpt lat="48.62624" lon="1.75275">
        <ele>145</ele>
        <time>2024-05-27T11:10:58.989Z</time>
      </trkpt>
      <trkpt lat="48.62626" lon="1.75281">
        <ele>136</ele>
        <time>2024-05-27T11:11:03.123Z</time>
      </trkpt>
      <trkpt lat="48.62627" lon="1.7529">
        <ele>136</ele>
        <time>2024-05-27T11:11:07.555Z</time>
      </trkpt>
      <trkpt lat="48.62629" lon="1.75297">
        <ele>138</ele>
        <time>2024-05-27T11:11:11.634Z</time>
      </trkpt>
      <trkpt lat="48.6263" lon="1.75303">
        <ele>138</ele>
        <time>2024-05-27T11:11:15.731Z</time>
      </trkpt>
      <trkpt lat="48.62632" lon="1.7531">
        <ele>138</ele>
        <time>2024-05-27T11:11:20.353Z</time>
      </trkpt>
      <trkpt lat="48.62634" lon="1.75317">
        <ele>138</ele>
        <time>2024-05-27T11:11:24.721Z</time>
      </trkpt>
      <trkpt lat="48.62636" lon="1.75325">
        <ele>140</ele>
        <time>2024-05-27T11:11:29.029Z</time>
      </trkpt>
      <trkpt lat="48.62638" lon="1.75333">
        <ele>140</ele>
        <time>2024-05-27T11:11:34.055Z</time>
      </trkpt>
      <trkpt lat="48.62639" lon="1.75341">
        <ele>140</ele>
        <time>2024-05-27T11:11:38.371Z</time>
      </trkpt>
      <trkpt lat="48.62642" lon="1.75349">
        <ele>142</ele>
        <time>2024-05-27T11:11:43.012Z</time>
      </trkpt>
      <trkpt lat="48.62644" lon="1.75357">
        <ele>142</ele>
        <time>2024-05-27T11:11:47.123Z</time>
      </trkpt>
      <trkpt lat="48.62646" lon="1.75363">
        <ele>142</ele>
        <time>2024-05-27T11:11:51.271Z</time>
      </trkpt>
      <trkpt lat="48.62649" lon="1.7537">
        <ele>142</ele>
        <time>2024-05-27T11:11:55.528Z</time>
      </trkpt>
      <trkpt lat="48.6265" lon="1.75376">
        <ele>144</ele>
        <time>2024-05-27T11:11:59.837Z</time>
      </trkpt>
      <trkpt lat="48.62652" lon="1.75384">
        <ele>144</ele>
        <time>2024-05-27T11:12:04.529Z</time>
      </trkpt>
      <trkpt lat="48.62654" lon="1.75393">
        <ele>140</ele>
        <time>2024-05-27T11:12:09.123Z</time>
      </trkpt>
      <trkpt lat="48.62656" lon="1.75401">
        <ele>140</ele>
        <time>2024-05-27T11:12:13.930Z</time>
      </trkpt>
      <trkpt lat="48.62659" lon="1.75407">
        <ele>144</ele>
        <time>2024-05-27T11:12:17.976Z</time>
      </trkpt>
      <trkpt lat="48.62661" lon="1.75414">
        <ele>144</ele>
        <time>2024-05-27T11:12:22.123Z</time>
      </trkpt>
      <trkpt lat="48.62664" lon="1.75422">
        <ele>144</ele>
        <time>2024-05-27T11:12:27.051Z</time>
      </trkpt>
      <trkpt lat="48.62667" lon="1.75428">
        <ele>144</ele>
        <time>2024-05-27T11:12:31.112Z</time>
      </trkpt>
      <trkpt lat="48.6267" lon="1.75434">
        <ele>146</ele>
        <time>2024-05-27T11:12:35.123Z</time>
      </trkpt>
      <trkpt lat="48.62673" lon="1.75438">
        <ele>146</ele>
        <time>2024-05-27T11:12:39.430Z</time>
      </trkpt>
      <trkpt lat="48.62676" lon="1.75444">
        <ele>146</ele>
        <time>2024-05-27T11:12:43.951Z</time>
      </trkpt>
      <trkpt lat="48.62677" lon="1.75452">
        <ele>146</ele>
        <time>2024-05-27T11:12:48.123Z</time>
      </trkpt>
      <trkpt lat="48.6268" lon="1.75459">
        <ele>150</ele>
        <time>2024-05-27T11:12:52.509Z</time>
      </trkpt>
      <trkpt lat="48.62682" lon="1.75467">
        <ele>144</ele>
        <time>2024-05-27T11:12:56.612Z</time>
      </trkpt>
      <trkpt lat="48.62684" lon="1.75474">
        <ele>144</ele>
        <time>2024-05-27T11:13:01.014Z</time>
      </trkpt>
      <trkpt lat="48.62686" lon="1.75481">
        <ele>144</ele>
        <time>2024-05-27T11:13:05.288Z</time>
      </trkpt>
      <trkpt lat="48.62688" lon="1.75487">
        <ele>148</ele>
        <time>2024-05-27T11:13:09.809Z</time>
      </trkpt>
      <trkpt lat="48.6269" lon="1.75493">
        <ele>148</ele>
        <time>2024-05-27T11:13:14.493Z</time>
      </trkpt>
      <trkpt lat="48.62691" lon="1.75497">
        <ele>148</ele>
        <time>2024-05-27T11:13:19.029Z</time>
      </trkpt>
      <trkpt lat="48.62691" lon="1.75497">
        <ele>148</ele>
        <time>2024-05-27T11:13:28.123Z</time>
      </trkpt>
      <trkpt lat="48.6269" lon="1.75498">
        <ele>148</ele>
        <time>2024-05-27T11:13:33.123Z</time>
      </trkpt>
      <trkpt lat="48.6269" lon="1.75505">
        <ele>148</ele>
        <time>2024-05-27T11:13:38.123Z</time>
      </trkpt>
      <trkpt lat="48.62692" lon="1.7551">
        <ele>148</ele>
        <time>2024-05-27T11:13:43.122Z</time>
      </trkpt>
      <trkpt lat="48.62693" lon="1.75516">
        <ele>150</ele>
        <time>2024-05-27T11:13:47.610Z</time>
      </trkpt>
      <trkpt lat="48.62693" lon="1.75522">
        <ele>150</ele>
        <time>2024-05-27T11:13:51.853Z</time>
      </trkpt>
      <trkpt lat="48.62692" lon="1.75525">
        <ele>150</ele>
        <time>2024-05-27T11:13:56.122Z</time>
      </trkpt>
      <trkpt lat="48.6269" lon="1.75533">
        <ele>150</ele>
        <time>2024-05-27T11:14:00.749Z</time>
      </trkpt>
      <trkpt lat="48.62691" lon="1.75538">
        <ele>150</ele>
        <time>2024-05-27T11:14:04.912Z</time>
      </trkpt>
      <trkpt lat="48.62692" lon="1.75545">
        <ele>151</ele>
        <time>2024-05-27T11:14:09.123Z</time>
      </trkpt>
      <trkpt lat="48.62693" lon="1.7555">
        <ele>151</ele>
        <time>2024-05-27T11:14:13.374Z</time>
      </trkpt>
      <trkpt lat="48.62695" lon="1.75557">
        <ele>151</ele>
        <time>2024-05-27T11:14:17.973Z</time>
      </trkpt>
      <trkpt lat="48.62693" lon="1.75563">
        <ele>151</ele>
        <time>2024-05-27T11:14:22.123Z</time>
      </trkpt>
      <trkpt lat="48.62692" lon="1.7557">
        <ele>154</ele>
        <time>2024-05-27T11:14:26.572Z</time>
      </trkpt>
      <trkpt lat="48.62691" lon="1.75576">
        <ele>154</ele>
        <time>2024-05-27T11:14:30.872Z</time>
      </trkpt>
      <trkpt lat="48.62689" lon="1.7558">
        <ele>154</ele>
        <time>2024-05-27T11:14:34.950Z</time>
      </trkpt>
      <trkpt lat="48.62692" lon="1.75586">
        <ele>154</ele>
        <time>2024-05-27T11:14:39.123Z</time>
      </trkpt>
      <trkpt lat="48.62695" lon="1.75596">
        <ele>154</ele>
        <time>2024-05-27T11:14:43.932Z</time>
      </trkpt>
      <trkpt lat="48.62695" lon="1.75602">
        <ele>155</ele>
        <time>2024-05-27T11:14:48.573Z</time>
      </trkpt>
      <trkpt lat="48.62696" lon="1.7561">
        <ele>155</ele>
        <time>2024-05-27T11:14:52.950Z</time>
      </trkpt>
      <trkpt lat="48.62693" lon="1.75617">
        <ele>155</ele>
        <time>2024-05-27T11:14:57.574Z</time>
      </trkpt>
      <trkpt lat="48.62691" lon="1.75625">
        <ele>155</ele>
        <time>2024-05-27T11:15:02.028Z</time>
      </trkpt>
      <trkpt lat="48.62691" lon="1.7563">
        <ele>157</ele>
        <time>2024-05-27T11:15:06.488Z</time>
      </trkpt>
      <trkpt lat="48.62691" lon="1.75638">
        <ele>157</ele>
        <time>2024-05-27T11:15:11.053Z</time>
      </trkpt>
      <trkpt lat="48.62692" lon="1.75645">
        <ele>157</ele>
        <time>2024-05-27T11:15:15.473Z</time>
      </trkpt>
      <trkpt lat="48.62692" lon="1.75651">
        <ele>157</ele>
        <time>2024-05-27T11:15:19.951Z</time>
      </trkpt>
      <trkpt lat="48.62691" lon="1.7566">
        <ele>160</ele>
        <time>2024-05-27T11:15:24.235Z</time>
      </trkpt>
      <trkpt lat="48.62692" lon="1.75668">
        <ele>160</ele>
        <time>2024-05-27T11:15:28.653Z</time>
      </trkpt>
      <trkpt lat="48.62693" lon="1.75676">
        <ele>160</ele>
        <time>2024-05-27T11:15:32.953Z</time>
      </trkpt>
      <trkpt lat="48.62694" lon="1.75685">
        <ele>162</ele>
        <time>2024-05-27T11:15:38.123Z</time>
      </trkpt>
      <trkpt lat="48.62693" lon="1.75692">
        <ele>162</ele>
        <time>2024-05-27T11:15:42.747Z</time>
      </trkpt>
      <trkpt lat="48.62693" lon="1.75698">
        <ele>162</ele>
        <time>2024-05-27T11:15:47.012Z</time>
      </trkpt>
      <trkpt lat="48.62692" lon="1.75703">
        <ele>162</ele>
        <time>2024-05-27T11:15:52.123Z</time>
      </trkpt>
      <trkpt lat="48.62693" lon="1.75702">
        <ele>162</ele>
        <time>2024-05-27T11:15:57.123Z</time>
      </trkpt>
      <trkpt lat="48.62696" lon="1.75708">
        <ele>163</ele>
        <time>2024-05-27T11:16:01.575Z</time>
      </trkpt>
      <trkpt lat="48.62697" lon="1.75716">
        <ele>163</ele>
        <time>2024-05-27T11:16:06.123Z</time>
      </trkpt>
      <trkpt lat="48.62695" lon="1.75724">
        <ele>163</ele>
        <time>2024-05-27T11:16:10.669Z</time>
      </trkpt>
      <trkpt lat="48.62694" lon="1.75731">
        <ele>163</ele>
        <time>2024-05-27T11:16:15.011Z</time>
      </trkpt>
      <trkpt lat="48.62694" lon="1.75738">
        <ele>163</ele>
        <time>2024-05-27T11:16:19.123Z</time>
      </trkpt>
      <trkpt lat="48.62694" lon="1.75745">
        <ele>163</ele>
        <time>2024-05-27T11:16:23.354Z</time>
      </trkpt>
      <trkpt lat="48.62694" lon="1.75753">
        <ele>163</ele>
        <time>2024-05-27T11:16:28.089Z</time>
      </trkpt>
      <trkpt lat="48.62693" lon="1.75761">
        <ele>163</ele>
        <time>2024-05-27T11:16:32.123Z</time>
      </trkpt>
      <trkpt lat="48.62692" lon="1.75769">
        <ele>163</ele>
        <time>2024-05-27T11:16:36.927Z</time>
      </trkpt>
      <trkpt lat="48.62692" lon="1.7578">
        <ele>163</ele>
        <time>2024-05-27T11:16:41.892Z</time>
      </trkpt>
      <trkpt lat="48.62692" lon="1.75786">
        <ele>163</ele>
        <time>2024-05-27T11:16:46.123Z</time>
      </trkpt>
      <trkpt lat="48.6269" lon="1.75793">
        <ele>164</ele>
        <time>2024-05-27T11:16:50.611Z</time>
      </trkpt>
      <trkpt lat="48.62688" lon="1.75801">
        <ele>164</ele>
        <time>2024-05-27T11:16:54.971Z</time>
      </trkpt>
      <trkpt lat="48.62686" lon="1.75808">
        <ele>164</ele>
        <time>2024-05-27T11:16:59.123Z</time>
      </trkpt>
      <trkpt lat="48.62683" lon="1.75816">
        <ele>164</ele>
        <time>2024-05-27T11:17:03.715Z</time>
      </trkpt>
      <trkpt lat="48.62681" lon="1.75823">
        <ele>164</ele>
        <time>2024-05-27T11:17:08.107Z</time>
      </trkpt>
      <trkpt lat="48.62679" lon="1.75829">
        <ele>164</ele>
        <time>2024-05-27T11:17:12.122Z</time>
      </trkpt>
      <trkpt lat="48.62676" lon="1.75836">
        <ele>164</ele>
        <time>2024-05-27T11:17:16.289Z</time>
      </trkpt>
      <trkpt lat="48.62674" lon="1.75843">
        <ele>164</ele>
        <time>2024-05-27T11:17:20.895Z</time>
      </trkpt>
      <trkpt lat="48.62671" lon="1.7585">
        <ele>164</ele>
        <time>2024-05-27T11:17:25.436Z</time>
      </trkpt>
      <trkpt lat="48.62668" lon="1.75857">
        <ele>164</ele>
        <time>2024-05-27T11:17:29.450Z</time>
      </trkpt>
      <trkpt lat="48.62666" lon="1.75863">
        <ele>164</ele>
        <time>2024-05-27T11:17:33.495Z</time>
      </trkpt>
      <trkpt lat="48.62663" lon="1.7587">
        <ele>164</ele>
        <time>2024-05-27T11:17:38.110Z</time>
      </trkpt>
      <trkpt lat="48.6266" lon="1.75877">
        <ele>164</ele>
        <time>2024-05-27T11:17:42.691Z</time>
      </trkpt>
      <trkpt lat="48.62657" lon="1.75884">
        <ele>164</ele>
        <time>2024-05-27T11:17:47.123Z</time>
      </trkpt>
      <trkpt lat="48.62654" lon="1.75891">
        <ele>164</ele>
        <time>2024-05-27T11:17:51.289Z</time>
      </trkpt>
      <trkpt lat="48.62651" lon="1.75898">
        <ele>163</ele>
        <time>2024-05-27T11:17:55.751Z</time>
      </trkpt>
      <trkpt lat="48.62648" lon="1.75905">
        <ele>162</ele>
        <time>2024-05-27T11:17:59.855Z</time>
      </trkpt>
      <trkpt lat="48.62645" lon="1.75912">
        <ele>162</ele>
        <time>2024-05-27T11:18:04.350Z</time>
      </trkpt>
      <trkpt lat="48.62642" lon="1.75921">
        <ele>162</ele>
        <time>2024-05-27T11:18:08.915Z</time>
      </trkpt>
      <trkpt lat="48.6264" lon="1.75928">
        <ele>162</ele>
        <time>2024-05-27T11:18:13.470Z</time>
      </trkpt>
      <trkpt lat="48.62638" lon="1.75935">
        <ele>161</ele>
        <time>2024-05-27T11:18:18.051Z</time>
      </trkpt>
      <trkpt lat="48.62636" lon="1.75943">
        <ele>161</ele>
        <time>2024-05-27T11:18:22.123Z</time>
      </trkpt>
      <trkpt lat="48.62634" lon="1.7595">
        <ele>161</ele>
        <time>2024-05-27T11:18:26.429Z</time>
      </trkpt>
      <trkpt lat="48.62632" lon="1.75957">
        <ele>161</ele>
        <time>2024-05-27T11:18:30.455Z</time>
      </trkpt>
      <trkpt lat="48.62629" lon="1.75964">
        <ele>159</ele>
        <time>2024-05-27T11:18:35.051Z</time>
      </trkpt>
      <trkpt lat="48.62626" lon="1.75971">
        <ele>159</ele>
        <time>2024-05-27T11:18:39.726Z</time>
      </trkpt>
      <trkpt lat="48.62624" lon="1.75978">
        <ele>159</ele>
        <time>2024-05-27T11:18:44.123Z</time>
      </trkpt>
      <trkpt lat="48.62619" lon="1.75985">
        <ele>159</ele>
        <time>2024-05-27T11:18:48.812Z</time>
      </trkpt>
      <trkpt lat="48.62615" lon="1.75991">
        <ele>158</ele>
        <time>2024-05-27T11:18:52.846Z</time>
      </trkpt>
      <trkpt lat="48.62611" lon="1.75998">
        <ele>158</ele>
        <time>2024-05-27T11:18:57.309Z</time>
      </trkpt>
      <trkpt lat="48.62608" lon="1.76003">
        <ele>158</ele>
        <time>2024-05-27T11:19:01.411Z</time>
      </trkpt>
      <trkpt lat="48.62606" lon="1.76009">
        <ele>158</ele>
        <time>2024-05-27T11:19:05.550Z</time>
      </trkpt>
      <trkpt lat="48.62603" lon="1.76015">
        <ele>158</ele>
        <time>2024-05-27T11:19:09.713Z</time>
      </trkpt>
      <trkpt lat="48.626" lon="1.76021">
        <ele>158</ele>
        <time>2024-05-27T11:19:14.131Z</time>
      </trkpt>
      <trkpt lat="48.62595" lon="1.76025">
        <ele>156</ele>
        <time>2024-05-27T11:19:18.490Z</time>
      </trkpt>
      <trkpt lat="48.62589" lon="1.76028">
        <ele>156</ele>
        <time>2024-05-27T11:19:23.121Z</time>
      </trkpt>
      <trkpt lat="48.62582" lon="1.76029">
        <ele>156</ele>
        <time>2024-05-27T11:19:27.728Z</time>
      </trkpt>
      <trkpt lat="48.62576" lon="1.7603">
        <ele>156</ele>
        <time>2024-05-27T11:19:32.122Z</time>
      </trkpt>
      <trkpt lat="48.62572" lon="1.76031">
        <ele>156</ele>
        <time>2024-05-27T11:19:36.413Z</time>
      </trkpt>
      <trkpt lat="48.62567" lon="1.76033">
        <ele>156</ele>
        <time>2024-05-27T11:19:41.122Z</time>
      </trkpt>
      <trkpt lat="48.62562" lon="1.76034">
        <ele>156</ele>
        <time>2024-05-27T11:19:45.801Z</time>
      </trkpt>
      <trkpt lat="48.62557" lon="1.76038">
        <ele>156</ele>
        <time>2024-05-27T11:19:50.369Z</time>
      </trkpt>
      <trkpt lat="48.62552" lon="1.76041">
        <ele>156</ele>
        <time>2024-05-27T11:19:54.932Z</time>
      </trkpt>
      <trkpt lat="48.62545" lon="1.76036">
        <ele>156</ele>
        <time>2024-05-27T11:19:59.122Z</time>
      </trkpt>
      <trkpt lat="48.62539" lon="1.76036">
        <ele>153</ele>
        <time>2024-05-27T11:20:04.122Z</time>
      </trkpt>
      <trkpt lat="48.62537" lon="1.76042">
        <ele>154</ele>
        <time>2024-05-27T11:20:08.974Z</time>
      </trkpt>
      <trkpt lat="48.62535" lon="1.7605">
        <ele>154</ele>
        <time>2024-05-27T11:20:13.122Z</time>
      </trkpt>
      <trkpt lat="48.62534" lon="1.76057">
        <ele>154</ele>
        <time>2024-05-27T11:20:17.214Z</time>
      </trkpt>
      <trkpt lat="48.62534" lon="1.76064">
        <ele>154</ele>
        <time>2024-05-27T11:20:21.974Z</time>
      </trkpt>
      <trkpt lat="48.62532" lon="1.76072">
        <ele>155</ele>
        <time>2024-05-27T11:20:26.122Z</time>
      </trkpt>
      <trkpt lat="48.62529" lon="1.76079">
        <ele>155</ele>
        <time>2024-05-27T11:20:30.412Z</time>
      </trkpt>
      <trkpt lat="48.62528" lon="1.76086">
        <ele>155</ele>
        <time>2024-05-27T11:20:34.633Z</time>
      </trkpt>
      <trkpt lat="48.62526" lon="1.76092">
        <ele>155</ele>
        <time>2024-05-27T11:20:39.122Z</time>
      </trkpt>
      <trkpt lat="48.62524" lon="1.76099">
        <ele>156</ele>
        <time>2024-05-27T11:20:43.334Z</time>
      </trkpt>
      <trkpt lat="48.62522" lon="1.76106">
        <ele>156</ele>
        <time>2024-05-27T11:20:47.715Z</time>
      </trkpt>
      <trkpt lat="48.6252" lon="1.76113">
        <ele>156</ele>
        <time>2024-05-27T11:20:51.967Z</time>
      </trkpt>
      <trkpt lat="48.6252" lon="1.76121">
        <ele>156</ele>
        <time>2024-05-27T11:20:56.122Z</time>
      </trkpt>
      <trkpt lat="48.62518" lon="1.76128">
        <ele>157</ele>
        <time>2024-05-27T11:21:00.533Z</time>
      </trkpt>
      <trkpt lat="48.62516" lon="1.76135">
        <ele>157</ele>
        <time>2024-05-27T11:21:04.728Z</time>
      </trkpt>
      <trkpt lat="48.62514" lon="1.76144">
        <ele>154</ele>
        <time>2024-05-27T11:21:09.414Z</time>
      </trkpt>
      <trkpt lat="48.62512" lon="1.76151">
        <ele>154</ele>
        <time>2024-05-27T11:21:13.592Z</time>
      </trkpt>
      <trkpt lat="48.62511" lon="1.76157">
        <ele>155</ele>
        <time>2024-05-27T11:21:17.968Z</time>
      </trkpt>
      <trkpt lat="48.62508" lon="1.76164">
        <ele>155</ele>
        <time>2024-05-27T11:21:22.122Z</time>
      </trkpt>
      <trkpt lat="48.62507" lon="1.76173">
        <ele>155</ele>
        <time>2024-05-27T11:21:26.994Z</time>
      </trkpt>
      <trkpt lat="48.62506" lon="1.76179">
        <ele>155</ele>
        <time>2024-05-27T11:21:31.122Z</time>
      </trkpt>
      <trkpt lat="48.62504" lon="1.76187">
        <ele>155</ele>
        <time>2024-05-27T11:21:35.567Z</time>
      </trkpt>
      <trkpt lat="48.62503" lon="1.76194">
        <ele>155</ele>
        <time>2024-05-27T11:21:39.816Z</time>
      </trkpt>
      <trkpt lat="48.62501" lon="1.762">
        <ele>155</ele>
        <time>2024-05-27T11:21:44.122Z</time>
      </trkpt>
      <trkpt lat="48.62503" lon="1.76211">
        <ele>157</ele>
        <time>2024-05-27T11:23:38.122Z</time>
      </trkpt>
      <trkpt lat="48.62503" lon="1.7622">
        <ele>157</ele>
        <time>2024-05-27T11:23:42.121Z</time>
      </trkpt>
      <trkpt lat="48.62504" lon="1.76227">
        <ele>157</ele>
        <time>2024-05-27T11:23:46.733Z</time>
      </trkpt>
      <trkpt lat="48.62508" lon="1.76234">
        <ele>157</ele>
        <time>2024-05-27T11:23:50.793Z</time>
      </trkpt>
      <trkpt lat="48.62512" lon="1.76237">
        <ele>159</ele>
        <time>2024-05-27T11:23:55.122Z</time>
      </trkpt>
      <trkpt lat="48.62516" lon="1.76242">
        <ele>161</ele>
        <time>2024-05-27T11:23:59.528Z</time>
      </trkpt>
      <trkpt lat="48.6252" lon="1.76248">
        <ele>161</ele>
        <time>2024-05-27T11:24:04.122Z</time>
      </trkpt>
      <trkpt lat="48.62524" lon="1.76253">
        <ele>161</ele>
        <time>2024-05-27T11:24:08.392Z</time>
      </trkpt>
      <trkpt lat="48.62527" lon="1.76259">
        <ele>161</ele>
        <time>2024-05-27T11:24:12.512Z</time>
      </trkpt>
      <trkpt lat="48.62533" lon="1.76271">
        <ele>161</ele>
        <time>2024-05-27T11:24:39.122Z</time>
      </trkpt>
      <trkpt lat="48.62534" lon="1.76272">
        <ele>161</ele>
        <time>2024-05-27T11:24:43.930Z</time>
      </trkpt>
      <trkpt lat="48.6254" lon="1.76279">
        <ele>161</ele>
        <time>2024-05-27T11:24:49.122Z</time>
      </trkpt>
      <trkpt lat="48.62545" lon="1.76287">
        <ele>162</ele>
        <time>2024-05-27T11:24:53.715Z</time>
      </trkpt>
      <trkpt lat="48.6255" lon="1.76297">
        <ele>162</ele>
        <time>2024-05-27T11:24:58.122Z</time>
      </trkpt>
      <trkpt lat="48.62551" lon="1.76304">
        <ele>162</ele>
        <time>2024-05-27T11:25:03.122Z</time>
      </trkpt>
      <trkpt lat="48.62553" lon="1.76309">
        <ele>162</ele>
        <time>2024-05-27T11:25:07.398Z</time>
      </trkpt>
      <trkpt lat="48.62558" lon="1.76313">
        <ele>162</ele>
        <time>2024-05-27T11:25:11.808Z</time>
      </trkpt>
      <trkpt lat="48.62562" lon="1.76315">
        <ele>162</ele>
        <time>2024-05-27T11:25:16.122Z</time>
      </trkpt>
      <trkpt lat="48.62567" lon="1.76318">
        <ele>162</ele>
        <time>2024-05-27T11:25:21.122Z</time>
      </trkpt>
      <trkpt lat="48.62569" lon="1.7632">
        <ele>162</ele>
        <time>2024-05-27T11:25:25.628Z</time>
      </trkpt>
      <trkpt lat="48.62573" lon="1.76322">
        <ele>162</ele>
        <time>2024-05-27T11:25:30.055Z</time>
      </trkpt>
      <trkpt lat="48.62576" lon="1.76322">
        <ele>162</ele>
        <time>2024-05-27T11:25:34.122Z</time>
      </trkpt>
      <trkpt lat="48.62579" lon="1.76318">
        <ele>162</ele>
        <time>2024-05-27T11:25:39.134Z</time>
      </trkpt>
      <trkpt lat="48.62583" lon="1.76317">
        <ele>162</ele>
        <time>2024-05-27T11:25:43.730Z</time>
      </trkpt>
      <trkpt lat="48.62588" lon="1.76317">
        <ele>162</ele>
        <time>2024-05-27T11:25:48.122Z</time>
      </trkpt>
      <trkpt lat="48.62592" lon="1.76319">
        <ele>162</ele>
        <time>2024-05-27T11:25:52.952Z</time>
      </trkpt>
      <trkpt lat="48.62595" lon="1.76318">
        <ele>162</ele>
        <time>2024-05-27T11:25:57.354Z</time>
      </trkpt>
      <trkpt lat="48.62598" lon="1.76319">
        <ele>165</ele>
        <time>2024-05-27T11:26:01.672Z</time>
      </trkpt>
      <trkpt lat="48.62603" lon="1.76319">
        <ele>165</ele>
        <time>2024-05-27T11:26:06.055Z</time>
      </trkpt>
      <trkpt lat="48.62606" lon="1.76318">
        <ele>165</ele>
        <time>2024-05-27T11:26:10.122Z</time>
      </trkpt>
      <trkpt lat="48.6261" lon="1.76319">
        <ele>165</ele>
        <time>2024-05-27T11:26:14.122Z</time>
      </trkpt>
      <trkpt lat="48.62614" lon="1.76322">
        <ele>163</ele>
        <time>2024-05-27T11:26:18.671Z</time>
      </trkpt>
      <trkpt lat="48.62618" lon="1.76323">
        <ele>163</ele>
        <time>2024-05-27T11:26:22.893Z</time>
      </trkpt>
      <trkpt lat="48.6262" lon="1.76325">
        <ele>163</ele>
        <time>2024-05-27T11:26:27.122Z</time>
      </trkpt>
      <trkpt lat="48.62624" lon="1.7633">
        <ele>163</ele>
        <time>2024-05-27T11:26:31.611Z</time>
      </trkpt>
      <trkpt lat="48.62628" lon="1.76335">
        <ele>165</ele>
        <time>2024-05-27T11:26:36.121Z</time>
      </trkpt>
      <trkpt lat="48.62633" lon="1.7634">
        <ele>165</ele>
        <time>2024-05-27T11:26:40.867Z</time>
      </trkpt>
      <trkpt lat="48.62637" lon="1.76344">
        <ele>165</ele>
        <time>2024-05-27T11:26:45.013Z</time>
      </trkpt>
      <trkpt lat="48.62642" lon="1.76349">
        <ele>163</ele>
        <time>2024-05-27T11:26:49.432Z</time>
      </trkpt>
      <trkpt lat="48.62646" lon="1.76351">
        <ele>163</ele>
        <time>2024-05-27T11:26:54.122Z</time>
      </trkpt>
      <trkpt lat="48.62651" lon="1.76355">
        <ele>163</ele>
        <time>2024-05-27T11:26:58.610Z</time>
      </trkpt>
      <trkpt lat="48.62655" lon="1.76361">
        <ele>164</ele>
        <time>2024-05-27T11:27:02.677Z</time>
      </trkpt>
      <trkpt lat="48.62658" lon="1.76365">
        <ele>164</ele>
        <time>2024-05-27T11:27:07.122Z</time>
      </trkpt>
      <trkpt lat="48.62662" lon="1.7637">
        <ele>164</ele>
        <time>2024-05-27T11:27:11.552Z</time>
      </trkpt>
      <trkpt lat="48.62666" lon="1.76375">
        <ele>163</ele>
        <time>2024-05-27T11:27:16.122Z</time>
      </trkpt>
      <trkpt lat="48.6267" lon="1.7638">
        <ele>163</ele>
        <time>2024-05-27T11:27:20.355Z</time>
      </trkpt>
      <trkpt lat="48.62673" lon="1.76385">
        <ele>163</ele>
        <time>2024-05-27T11:27:24.552Z</time>
      </trkpt>
      <trkpt lat="48.62675" lon="1.76392">
        <ele>163</ele>
        <time>2024-05-27T11:27:28.587Z</time>
      </trkpt>
      <trkpt lat="48.62676" lon="1.764">
        <ele>163</ele>
        <time>2024-05-27T11:27:32.971Z</time>
      </trkpt>
      <trkpt lat="48.62677" lon="1.76407">
        <ele>163</ele>
        <time>2024-05-27T11:27:37.731Z</time>
      </trkpt>
      <trkpt lat="48.62678" lon="1.76413">
        <ele>163</ele>
        <time>2024-05-27T11:27:41.774Z</time>
      </trkpt>
      <trkpt lat="48.6268" lon="1.76419">
        <ele>163</ele>
        <time>2024-05-27T11:27:46.121Z</time>
      </trkpt>
      <trkpt lat="48.62682" lon="1.76427">
        <ele>166</ele>
        <time>2024-05-27T11:27:51.121Z</time>
      </trkpt>
      <trkpt lat="48.62683" lon="1.76435">
        <ele>166</ele>
        <time>2024-05-27T11:27:55.893Z</time>
      </trkpt>
      <trkpt lat="48.62684" lon="1.76441">
        <ele>166</ele>
        <time>2024-05-27T11:28:00.122Z</time>
      </trkpt>
      <trkpt lat="48.62683" lon="1.76448">
        <ele>166</ele>
        <time>2024-05-27T11:28:04.493Z</time>
      </trkpt>
      <trkpt lat="48.62686" lon="1.76454">
        <ele>166</ele>
        <time>2024-05-27T11:28:09.122Z</time>
      </trkpt>
      <trkpt lat="48.62688" lon="1.76461">
        <ele>165</ele>
        <time>2024-05-27T11:28:13.671Z</time>
      </trkpt>
      <trkpt lat="48.62689" lon="1.76468">
        <ele>165</ele>
        <time>2024-05-27T11:28:17.688Z</time>
      </trkpt>
      <trkpt lat="48.6269" lon="1.76475">
        <ele>165</ele>
        <time>2024-05-27T11:28:21.748Z</time>
      </trkpt>
      <trkpt lat="48.62691" lon="1.76484">
        <ele>165</ele>
        <time>2024-05-27T11:28:25.808Z</time>
      </trkpt>
      <trkpt lat="48.62693" lon="1.76492">
        <ele>163</ele>
        <time>2024-05-27T11:28:30.075Z</time>
      </trkpt>
      <trkpt lat="48.62695" lon="1.76497">
        <ele>163</ele>
        <time>2024-05-27T11:28:35.073Z</time>
      </trkpt>
      <trkpt lat="48.62698" lon="1.76504">
        <ele>163</ele>
        <time>2024-05-27T11:28:39.122Z</time>
      </trkpt>
      <trkpt lat="48.627" lon="1.76511">
        <ele>163</ele>
        <time>2024-05-27T11:28:43.275Z</time>
      </trkpt>
      <trkpt lat="48.62701" lon="1.7652">
        <ele>162</ele>
        <time>2024-05-27T11:28:47.455Z</time>
      </trkpt>
      <trkpt lat="48.62703" lon="1.76527">
        <ele>162</ele>
        <time>2024-05-27T11:28:51.652Z</time>
      </trkpt>
      <trkpt lat="48.62703" lon="1.76534">
        <ele>162</ele>
        <time>2024-05-27T11:28:56.122Z</time>
      </trkpt>
      <trkpt lat="48.62704" lon="1.76541">
        <ele>162</ele>
        <time>2024-05-27T11:29:00.634Z</time>
      </trkpt>
      <trkpt lat="48.62706" lon="1.76548">
        <ele>162</ele>
        <time>2024-05-27T11:29:05.121Z</time>
      </trkpt>
      <trkpt lat="48.62708" lon="1.76555">
        <ele>162</ele>
        <time>2024-05-27T11:29:09.933Z</time>
      </trkpt>
      <trkpt lat="48.62708" lon="1.76562">
        <ele>162</ele>
        <time>2024-05-27T11:29:13.951Z</time>
      </trkpt>
      <trkpt lat="48.62711" lon="1.76569">
        <ele>163</ele>
        <time>2024-05-27T11:29:18.121Z</time>
      </trkpt>
      <trkpt lat="48.62712" lon="1.76575">
        <ele>163</ele>
        <time>2024-05-27T11:29:22.293Z</time>
      </trkpt>
      <trkpt lat="48.62714" lon="1.76581">
        <ele>163</ele>
        <time>2024-05-27T11:29:26.474Z</time>
      </trkpt>
      <trkpt lat="48.62717" lon="1.76589">
        <ele>163</ele>
        <time>2024-05-27T11:29:31.121Z</time>
      </trkpt>
      <trkpt lat="48.62718" lon="1.76597">
        <ele>163</ele>
        <time>2024-05-27T11:29:35.695Z</time>
      </trkpt>
      <trkpt lat="48.62719" lon="1.76605">
        <ele>163</ele>
        <time>2024-05-27T11:29:40.122Z</time>
      </trkpt>
      <trkpt lat="48.6272" lon="1.76613">
        <ele>163</ele>
        <time>2024-05-27T11:29:45.122Z</time>
      </trkpt>
      <trkpt lat="48.62721" lon="1.76619">
        <ele>163</ele>
        <time>2024-05-27T11:29:49.421Z</time>
      </trkpt>
      <trkpt lat="48.62724" lon="1.76629">
        <ele>163</ele>
        <time>2024-05-27T11:29:54.122Z</time>
      </trkpt>
      <trkpt lat="48.62725" lon="1.76636">
        <ele>163</ele>
        <time>2024-05-27T11:29:58.727Z</time>
      </trkpt>
      <trkpt lat="48.62727" lon="1.76644">
        <ele>163</ele>
        <time>2024-05-27T11:30:03.122Z</time>
      </trkpt>
      <trkpt lat="48.6273" lon="1.76651">
        <ele>163</ele>
        <time>2024-05-27T11:30:08.034Z</time>
      </trkpt>
      <trkpt lat="48.62733" lon="1.76658">
        <ele>163</ele>
        <time>2024-05-27T11:30:12.675Z</time>
      </trkpt>
      <trkpt lat="48.62736" lon="1.76666">
        <ele>165</ele>
        <time>2024-05-27T11:30:17.122Z</time>
      </trkpt>
      <trkpt lat="48.6274" lon="1.76672">
        <ele>165</ele>
        <time>2024-05-27T11:30:21.769Z</time>
      </trkpt>
      <trkpt lat="48.62744" lon="1.76677">
        <ele>165</ele>
        <time>2024-05-27T11:30:25.889Z</time>
      </trkpt>
      <trkpt lat="48.62748" lon="1.76682">
        <ele>162</ele>
        <time>2024-05-27T11:30:30.122Z</time>
      </trkpt>
      <trkpt lat="48.62752" lon="1.76685">
        <ele>162</ele>
        <time>2024-05-27T11:30:34.428Z</time>
      </trkpt>
      <trkpt lat="48.62757" lon="1.76685">
        <ele>162</ele>
        <time>2024-05-27T11:30:38.668Z</time>
      </trkpt>
      <trkpt lat="48.62762" lon="1.76685">
        <ele>162</ele>
        <time>2024-05-27T11:30:43.053Z</time>
      </trkpt>
      <trkpt lat="48.62768" lon="1.76685">
        <ele>165</ele>
        <time>2024-05-27T11:30:47.353Z</time>
      </trkpt>
      <trkpt lat="48.62773" lon="1.76686">
        <ele>165</ele>
        <time>2024-05-27T11:30:51.770Z</time>
      </trkpt>
      <trkpt lat="48.62777" lon="1.76688">
        <ele>165</ele>
        <time>2024-05-27T11:30:55.968Z</time>
      </trkpt>
      <trkpt lat="48.62782" lon="1.76691">
        <ele>165</ele>
        <time>2024-05-27T11:31:00.413Z</time>
      </trkpt>
      <trkpt lat="48.62787" lon="1.76694">
        <ele>165</ele>
        <time>2024-05-27T11:31:05.122Z</time>
      </trkpt>
      <trkpt lat="48.6279" lon="1.76702">
        <ele>165</ele>
        <time>2024-05-27T11:31:10.122Z</time>
      </trkpt>
      <trkpt lat="48.62794" lon="1.76705">
        <ele>168</ele>
        <time>2024-05-27T11:31:14.335Z</time>
      </trkpt>
      <trkpt lat="48.62797" lon="1.76708">
        <ele>168</ele>
        <time>2024-05-27T11:31:18.481Z</time>
      </trkpt>
      <trkpt lat="48.62802" lon="1.76709">
        <ele>165</ele>
        <time>2024-05-27T11:31:22.993Z</time>
      </trkpt>
      <trkpt lat="48.62807" lon="1.76709">
        <ele>165</ele>
        <time>2024-05-27T11:31:27.122Z</time>
      </trkpt>
      <trkpt lat="48.62812" lon="1.76712">
        <ele>165</ele>
        <time>2024-05-27T11:31:31.416Z</time>
      </trkpt>
      <trkpt lat="48.62817" lon="1.76713">
        <ele>165</ele>
        <time>2024-05-27T11:31:35.595Z</time>
      </trkpt>
      <trkpt lat="48.62822" lon="1.76717">
        <ele>167</ele>
        <time>2024-05-27T11:31:40.121Z</time>
      </trkpt>
      <trkpt lat="48.62828" lon="1.76718">
        <ele>167</ele>
        <time>2024-05-27T11:31:44.807Z</time>
      </trkpt>
      <trkpt lat="48.62833" lon="1.76722">
        <ele>167</ele>
        <time>2024-05-27T11:31:49.389Z</time>
      </trkpt>
      <trkpt lat="48.62839" lon="1.76724">
        <ele>167</ele>
        <time>2024-05-27T11:31:54.122Z</time>
      </trkpt>
      <trkpt lat="48.62845" lon="1.76725">
        <ele>167</ele>
        <time>2024-05-27T11:31:58.713Z</time>
      </trkpt>
      <trkpt lat="48.6285" lon="1.76728">
        <ele>168</ele>
        <time>2024-05-27T11:32:03.122Z</time>
      </trkpt>
      <trkpt lat="48.62856" lon="1.7673">
        <ele>168</ele>
        <time>2024-05-27T11:32:07.686Z</time>
      </trkpt>
      <trkpt lat="48.62862" lon="1.76732">
        <ele>168</ele>
        <time>2024-05-27T11:32:12.123Z</time>
      </trkpt>
      <trkpt lat="48.62867" lon="1.76736">
        <ele>168</ele>
        <time>2024-05-27T11:32:16.968Z</time>
      </trkpt>
      <trkpt lat="48.62872" lon="1.76738">
        <ele>166</ele>
        <time>2024-05-27T11:32:21.115Z</time>
      </trkpt>
      <trkpt lat="48.62877" lon="1.76741">
        <ele>166</ele>
        <time>2024-05-27T11:32:26.071Z</time>
      </trkpt>
      <trkpt lat="48.62882" lon="1.76745">
        <ele>166</ele>
        <time>2024-05-27T11:32:30.132Z</time>
      </trkpt>
      <trkpt lat="48.62886" lon="1.76751">
        <ele>166</ele>
        <time>2024-05-27T11:32:34.755Z</time>
      </trkpt>
      <trkpt lat="48.62891" lon="1.76753">
        <ele>166</ele>
        <time>2024-05-27T11:32:39.122Z</time>
      </trkpt>
      <trkpt lat="48.62897" lon="1.76753">
        <ele>166</ele>
        <time>2024-05-27T11:32:43.295Z</time>
      </trkpt>
      <trkpt lat="48.62901" lon="1.76756">
        <ele>166</ele>
        <time>2024-05-27T11:32:47.952Z</time>
      </trkpt>
      <trkpt lat="48.62908" lon="1.7676">
        <ele>168</ele>
        <time>2024-05-27T11:32:53.032Z</time>
      </trkpt>
      <trkpt lat="48.62913" lon="1.76759">
        <ele>168</ele>
        <time>2024-05-27T11:32:57.122Z</time>
      </trkpt>
      <trkpt lat="48.62919" lon="1.76762">
        <ele>168</ele>
        <time>2024-05-27T11:33:01.947Z</time>
      </trkpt>
      <trkpt lat="48.62925" lon="1.76764">
        <ele>165</ele>
        <time>2024-05-27T11:33:06.835Z</time>
      </trkpt>
      <trkpt lat="48.6293" lon="1.76764">
        <ele>165</ele>
        <time>2024-05-27T11:33:11.077Z</time>
      </trkpt>
      <trkpt lat="48.62934" lon="1.76764">
        <ele>166</ele>
        <time>2024-05-27T11:33:15.648Z</time>
      </trkpt>
      <trkpt lat="48.6294" lon="1.76763">
        <ele>169</ele>
        <time>2024-05-27T11:33:20.122Z</time>
      </trkpt>
      <trkpt lat="48.62945" lon="1.7676">
        <ele>169</ele>
        <time>2024-05-27T11:33:24.834Z</time>
      </trkpt>
      <trkpt lat="48.62949" lon="1.76761">
        <ele>169</ele>
        <time>2024-05-27T11:33:28.971Z</time>
      </trkpt>
      <trkpt lat="48.62955" lon="1.7676">
        <ele>169</ele>
        <time>2024-05-27T11:33:33.122Z</time>
      </trkpt>
      <trkpt lat="48.6296" lon="1.76759">
        <ele>168</ele>
        <time>2024-05-27T11:33:38.049Z</time>
      </trkpt>
      <trkpt lat="48.62965" lon="1.76757">
        <ele>168</ele>
        <time>2024-05-27T11:33:42.122Z</time>
      </trkpt>
      <trkpt lat="48.6297" lon="1.76754">
        <ele>168</ele>
        <time>2024-05-27T11:33:46.912Z</time>
      </trkpt>
      <trkpt lat="48.62976" lon="1.76752">
        <ele>168</ele>
        <time>2024-05-27T11:33:51.959Z</time>
      </trkpt>
      <trkpt lat="48.62981" lon="1.76749">
        <ele>168</ele>
        <time>2024-05-27T11:33:56.122Z</time>
      </trkpt>
      <trkpt lat="48.62987" lon="1.76747">
        <ele>166</ele>
        <time>2024-05-27T11:34:00.749Z</time>
      </trkpt>
      <trkpt lat="48.62993" lon="1.76746">
        <ele>166</ele>
        <time>2024-05-27T11:34:05.122Z</time>
      </trkpt>
      <trkpt lat="48.62998" lon="1.76743">
        <ele>166</ele>
        <time>2024-05-27T11:34:09.927Z</time>
      </trkpt>
      <trkpt lat="48.63003" lon="1.76742">
        <ele>166</ele>
        <time>2024-05-27T11:34:13.988Z</time>
      </trkpt>
      <trkpt lat="48.63009" lon="1.76743">
        <ele>166</ele>
        <time>2024-05-27T11:34:18.914Z</time>
      </trkpt>
      <trkpt lat="48.63014" lon="1.7674">
        <ele>165</ele>
        <time>2024-05-27T11:34:23.121Z</time>
      </trkpt>
      <trkpt lat="48.63018" lon="1.76735">
        <ele>167</ele>
        <time>2024-05-27T11:34:27.609Z</time>
      </trkpt>
      <trkpt lat="48.63023" lon="1.76734">
        <ele>167</ele>
        <time>2024-05-27T11:34:31.820Z</time>
      </trkpt>
      <trkpt lat="48.63029" lon="1.76732">
        <ele>167</ele>
        <time>2024-05-27T11:34:36.122Z</time>
      </trkpt>
      <trkpt lat="48.63035" lon="1.76732">
        <ele>167</ele>
        <time>2024-05-27T11:34:41.122Z</time>
      </trkpt>
      <trkpt lat="48.6304" lon="1.76728">
        <ele>167</ele>
        <time>2024-05-27T11:34:45.513Z</time>
      </trkpt>
      <trkpt lat="48.63046" lon="1.76727">
        <ele>167</ele>
        <time>2024-05-27T11:34:50.122Z</time>
      </trkpt>
      <trkpt lat="48.63051" lon="1.76723">
        <ele>167</ele>
        <time>2024-05-27T11:34:54.668Z</time>
      </trkpt>
      <trkpt lat="48.63057" lon="1.76721">
        <ele>167</ele>
        <time>2024-05-27T11:34:59.122Z</time>
      </trkpt>
      <trkpt lat="48.63062" lon="1.76719">
        <ele>167</ele>
        <time>2024-05-27T11:35:03.420Z</time>
      </trkpt>
      <trkpt lat="48.63068" lon="1.76717">
        <ele>167</ele>
        <time>2024-05-27T11:35:07.807Z</time>
      </trkpt>
      <trkpt lat="48.63072" lon="1.76714">
        <ele>167</ele>
        <time>2024-05-27T11:35:11.874Z</time>
      </trkpt>
      <trkpt lat="48.63078" lon="1.76713">
        <ele>167</ele>
        <time>2024-05-27T11:35:16.121Z</time>
      </trkpt>
      <trkpt lat="48.63084" lon="1.7671">
        <ele>167</ele>
        <time>2024-05-27T11:35:20.932Z</time>
      </trkpt>
      <trkpt lat="48.63089" lon="1.76707">
        <ele>169</ele>
        <time>2024-05-27T11:35:25.327Z</time>
      </trkpt>
      <trkpt lat="48.63095" lon="1.76704">
        <ele>169</ele>
        <time>2024-05-27T11:35:30.001Z</time>
      </trkpt>
      <trkpt lat="48.631" lon="1.76701">
        <ele>168</ele>
        <time>2024-05-27T11:35:34.600Z</time>
      </trkpt>
      <trkpt lat="48.63106" lon="1.76698">
        <ele>168</ele>
        <time>2024-05-27T11:35:39.080Z</time>
      </trkpt>
      <trkpt lat="48.63112" lon="1.76694">
        <ele>168</ele>
        <time>2024-05-27T11:35:43.983Z</time>
      </trkpt>
      <trkpt lat="48.63117" lon="1.76692">
        <ele>168</ele>
        <time>2024-05-27T11:35:48.521Z</time>
      </trkpt>
      <trkpt lat="48.63121" lon="1.76688">
        <ele>168</ele>
        <time>2024-05-27T11:35:52.940Z</time>
      </trkpt>
      <trkpt lat="48.63127" lon="1.76685">
        <ele>166</ele>
        <time>2024-05-27T11:35:57.122Z</time>
      </trkpt>
      <trkpt lat="48.63131" lon="1.76683">
        <ele>166</ele>
        <time>2024-05-27T11:36:01.463Z</time>
      </trkpt>
      <trkpt lat="48.63138" lon="1.7668">
        <ele>168</ele>
        <time>2024-05-27T11:36:05.961Z</time>
      </trkpt>
      <trkpt lat="48.63143" lon="1.76678">
        <ele>168</ele>
        <time>2024-05-27T11:36:10.403Z</time>
      </trkpt>
      <trkpt lat="48.63149" lon="1.76675">
        <ele>168</ele>
        <time>2024-05-27T11:36:15.122Z</time>
      </trkpt>
      <trkpt lat="48.63154" lon="1.76672">
        <ele>167</ele>
        <time>2024-05-27T11:36:19.439Z</time>
      </trkpt>
      <trkpt lat="48.6316" lon="1.76669">
        <ele>167</ele>
        <time>2024-05-27T11:36:24.008Z</time>
      </trkpt>
      <trkpt lat="48.63164" lon="1.76665">
        <ele>167</ele>
        <time>2024-05-27T11:36:28.122Z</time>
      </trkpt>
      <trkpt lat="48.6317" lon="1.76663">
        <ele>167</ele>
        <time>2024-05-27T11:36:32.942Z</time>
      </trkpt>
      <trkpt lat="48.63175" lon="1.76659">
        <ele>167</ele>
        <time>2024-05-27T11:36:37.881Z</time>
      </trkpt>
      <trkpt lat="48.63181" lon="1.76658">
        <ele>166</ele>
        <time>2024-05-27T11:36:41.900Z</time>
      </trkpt>
      <trkpt lat="48.63187" lon="1.76654">
        <ele>166</ele>
        <time>2024-05-27T11:36:46.803Z</time>
      </trkpt>
      <trkpt lat="48.63193" lon="1.76651">
        <ele>168</ele>
        <time>2024-05-27T11:36:50.857Z</time>
      </trkpt>
      <trkpt lat="48.63198" lon="1.76647">
        <ele>168</ele>
        <time>2024-05-27T11:36:55.361Z</time>
      </trkpt>
      <trkpt lat="48.63203" lon="1.76644">
        <ele>168</ele>
        <time>2024-05-27T11:36:59.822Z</time>
      </trkpt>
      <trkpt lat="48.63209" lon="1.76642">
        <ele>167</ele>
        <time>2024-05-27T11:37:04.122Z</time>
      </trkpt>
      <trkpt lat="48.63215" lon="1.7664">
        <ele>167</ele>
        <time>2024-05-27T11:37:08.660Z</time>
      </trkpt>
      <trkpt lat="48.63221" lon="1.7664">
        <ele>167</ele>
        <time>2024-05-27T11:37:13.096Z</time>
      </trkpt>
      <trkpt lat="48.63225" lon="1.76645">
        <ele>167</ele>
        <time>2024-05-27T11:37:17.543Z</time>
      </trkpt>
      <trkpt lat="48.6323" lon="1.76651">
        <ele>167</ele>
        <time>2024-05-27T11:37:21.945Z</time>
      </trkpt>
      <trkpt lat="48.63233" lon="1.76656">
        <ele>165</ele>
        <time>2024-05-27T11:37:26.540Z</time>
      </trkpt>
      <trkpt lat="48.63238" lon="1.76664">
        <ele>163</ele>
        <time>2024-05-27T11:37:30.977Z</time>
      </trkpt>
      <trkpt lat="48.6324" lon="1.7667">
        <ele>163</ele>
        <time>2024-05-27T11:37:35.122Z</time>
      </trkpt>
      <trkpt lat="48.63244" lon="1.76679">
        <ele>163</ele>
        <time>2024-05-27T11:37:39.601Z</time>
      </trkpt>
      <trkpt lat="48.63248" lon="1.76686">
        <ele>161</ele>
        <time>2024-05-27T11:37:43.901Z</time>
      </trkpt>
      <trkpt lat="48.6325" lon="1.76692">
        <ele>161</ele>
        <time>2024-05-27T11:37:48.320Z</time>
      </trkpt>
      <trkpt lat="48.63253" lon="1.767">
        <ele>161</ele>
        <time>2024-05-27T11:37:52.680Z</time>
      </trkpt>
      <trkpt lat="48.63256" lon="1.76709">
        <ele>158</ele>
        <time>2024-05-27T11:37:57.022Z</time>
      </trkpt>
      <trkpt lat="48.63259" lon="1.76713">
        <ele>158</ele>
        <time>2024-05-27T11:38:01.121Z</time>
      </trkpt>
      <trkpt lat="48.63262" lon="1.76721">
        <ele>158</ele>
        <time>2024-05-27T11:38:05.280Z</time>
      </trkpt>
      <trkpt lat="48.63265" lon="1.76727">
        <ele>156</ele>
        <time>2024-05-27T11:38:09.740Z</time>
      </trkpt>
      <trkpt lat="48.63268" lon="1.76734">
        <ele>156</ele>
        <time>2024-05-27T11:38:13.821Z</time>
      </trkpt>
      <trkpt lat="48.63271" lon="1.76741">
        <ele>156</ele>
        <time>2024-05-27T11:38:18.297Z</time>
      </trkpt>
      <trkpt lat="48.63274" lon="1.76747">
        <ele>156</ele>
        <time>2024-05-27T11:38:22.701Z</time>
      </trkpt>
      <trkpt lat="48.63276" lon="1.76756">
        <ele>156</ele>
        <time>2024-05-27T11:38:27.122Z</time>
      </trkpt>
      <trkpt lat="48.63279" lon="1.76763">
        <ele>156</ele>
        <time>2024-05-27T11:38:31.622Z</time>
      </trkpt>
      <trkpt lat="48.63281" lon="1.76772">
        <ele>156</ele>
        <time>2024-05-27T11:38:36.062Z</time>
      </trkpt>
      <trkpt lat="48.63283" lon="1.76778">
        <ele>156</ele>
        <time>2024-05-27T11:38:40.520Z</time>
      </trkpt>
      <trkpt lat="48.63285" lon="1.76789">
        <ele>156</ele>
        <time>2024-05-27T11:38:45.040Z</time>
      </trkpt>
      <trkpt lat="48.63288" lon="1.76795">
        <ele>156</ele>
        <time>2024-05-27T11:38:49.562Z</time>
      </trkpt>
      <trkpt lat="48.63291" lon="1.76803">
        <ele>156</ele>
        <time>2024-05-27T11:38:54.024Z</time>
      </trkpt>
      <trkpt lat="48.63293" lon="1.7681">
        <ele>153</ele>
        <time>2024-05-27T11:38:58.460Z</time>
      </trkpt>
      <trkpt lat="48.63296" lon="1.76818">
        <ele>153</ele>
        <time>2024-05-27T11:39:02.802Z</time>
      </trkpt>
      <trkpt lat="48.63299" lon="1.76826">
        <ele>154</ele>
        <time>2024-05-27T11:39:07.122Z</time>
      </trkpt>
      <trkpt lat="48.63302" lon="1.76833">
        <ele>154</ele>
        <time>2024-05-27T11:39:11.742Z</time>
      </trkpt>
      <trkpt lat="48.63306" lon="1.76839">
        <ele>154</ele>
        <time>2024-05-27T11:39:16.122Z</time>
      </trkpt>
      <trkpt lat="48.63308" lon="1.76847">
        <ele>154</ele>
        <time>2024-05-27T11:39:20.284Z</time>
      </trkpt>
      <trkpt lat="48.63309" lon="1.76852">
        <ele>154</ele>
        <time>2024-05-27T11:39:24.504Z</time>
      </trkpt>
      <trkpt lat="48.63312" lon="1.76862">
        <ele>154</ele>
        <time>2024-05-27T11:39:29.060Z</time>
      </trkpt>
      <trkpt lat="48.63316" lon="1.76863">
        <ele>154</ele>
        <time>2024-05-27T11:39:33.122Z</time>
      </trkpt>
      <trkpt lat="48.63318" lon="1.76872">
        <ele>154</ele>
        <time>2024-05-27T11:39:37.685Z</time>
      </trkpt>
      <trkpt lat="48.6332" lon="1.76877">
        <ele>153</ele>
        <time>2024-05-27T11:39:41.840Z</time>
      </trkpt>
      <trkpt lat="48.63322" lon="1.76884">
        <ele>153</ele>
        <time>2024-05-27T11:39:45.916Z</time>
      </trkpt>
      <trkpt lat="48.63324" lon="1.76892">
        <ele>153</ele>
        <time>2024-05-27T11:39:50.096Z</time>
      </trkpt>
      <trkpt lat="48.63326" lon="1.76898">
        <ele>153</ele>
        <time>2024-05-27T11:39:54.122Z</time>
      </trkpt>
      <trkpt lat="48.63329" lon="1.76905">
        <ele>154</ele>
        <time>2024-05-27T11:39:58.740Z</time>
      </trkpt>
      <trkpt lat="48.63332" lon="1.76911">
        <ele>154</ele>
        <time>2024-05-27T11:40:02.901Z</time>
      </trkpt>
      <trkpt lat="48.63334" lon="1.76917">
        <ele>154</ele>
        <time>2024-05-27T11:40:07.456Z</time>
      </trkpt>
      <trkpt lat="48.63337" lon="1.76928">
        <ele>154</ele>
        <time>2024-05-27T11:40:12.040Z</time>
      </trkpt>
      <trkpt lat="48.6334" lon="1.76932">
        <ele>154</ele>
        <time>2024-05-27T11:40:16.100Z</time>
      </trkpt>
      <trkpt lat="48.63341" lon="1.76941">
        <ele>154</ele>
        <time>2024-05-27T11:40:20.144Z</time>
      </trkpt>
      <trkpt lat="48.63343" lon="1.76949">
        <ele>154</ele>
        <time>2024-05-27T11:40:25.122Z</time>
      </trkpt>
      <trkpt lat="48.63344" lon="1.76954">
        <ele>154</ele>
        <time>2024-05-27T11:40:29.620Z</time>
      </trkpt>
      <trkpt lat="48.63345" lon="1.76956">
        <ele>154</ele>
        <time>2024-05-27T11:40:34.122Z</time>
      </trkpt>
      <trkpt lat="48.63346" lon="1.76961">
        <ele>155</ele>
        <time>2024-05-27T11:40:38.121Z</time>
      </trkpt>
      <trkpt lat="48.63349" lon="1.76969">
        <ele>153</ele>
        <time>2024-05-27T11:40:43.121Z</time>
      </trkpt>
      <trkpt lat="48.63352" lon="1.76975">
        <ele>153</ele>
        <time>2024-05-27T11:40:47.722Z</time>
      </trkpt>
      <trkpt lat="48.63352" lon="1.76985">
        <ele>153</ele>
        <time>2024-05-27T11:40:52.122Z</time>
      </trkpt>
      <trkpt lat="48.63354" lon="1.76992">
        <ele>153</ele>
        <time>2024-05-27T11:40:56.543Z</time>
      </trkpt>
      <trkpt lat="48.63358" lon="1.77001">
        <ele>153</ele>
        <time>2024-05-27T11:41:00.935Z</time>
      </trkpt>
      <trkpt lat="48.63359" lon="1.77008">
        <ele>153</ele>
        <time>2024-05-27T11:41:05.122Z</time>
      </trkpt>
      <trkpt lat="48.63359" lon="1.77017">
        <ele>155</ele>
        <time>2024-05-27T11:41:10.063Z</time>
      </trkpt>
      <trkpt lat="48.6336" lon="1.77026">
        <ele>155</ele>
        <time>2024-05-27T11:41:14.122Z</time>
      </trkpt>
      <trkpt lat="48.63361" lon="1.77034">
        <ele>155</ele>
        <time>2024-05-27T11:41:19.122Z</time>
      </trkpt>
      <trkpt lat="48.63364" lon="1.77044">
        <ele>156</ele>
        <time>2024-05-27T11:41:24.002Z</time>
      </trkpt>
      <trkpt lat="48.63364" lon="1.77052">
        <ele>156</ele>
        <time>2024-05-27T11:41:28.561Z</time>
      </trkpt>
      <trkpt lat="48.63366" lon="1.77059">
        <ele>156</ele>
        <time>2024-05-27T11:41:32.786Z</time>
      </trkpt>
      <trkpt lat="48.63368" lon="1.77071">
        <ele>157</ele>
        <time>2024-05-27T11:41:57.122Z</time>
      </trkpt>
      <trkpt lat="48.6337" lon="1.77073">
        <ele>157</ele>
        <time>2024-05-27T11:42:01.944Z</time>
      </trkpt>
      <trkpt lat="48.63373" lon="1.77077">
        <ele>157</ele>
        <time>2024-05-27T11:42:05.984Z</time>
      </trkpt>
      <trkpt lat="48.63375" lon="1.77084">
        <ele>155</ele>
        <time>2024-05-27T11:42:10.380Z</time>
      </trkpt>
      <trkpt lat="48.63377" lon="1.77092">
        <ele>155</ele>
        <time>2024-05-27T11:42:14.687Z</time>
      </trkpt>
      <trkpt lat="48.63378" lon="1.77101">
        <ele>156</ele>
        <time>2024-05-27T11:42:19.122Z</time>
      </trkpt>
      <trkpt lat="48.63379" lon="1.7711">
        <ele>156</ele>
        <time>2024-05-27T11:42:23.904Z</time>
      </trkpt>
      <trkpt lat="48.6338" lon="1.77116">
        <ele>156</ele>
        <time>2024-05-27T11:42:28.122Z</time>
      </trkpt>
      <trkpt lat="48.63381" lon="1.77124">
        <ele>156</ele>
        <time>2024-05-27T11:42:33.122Z</time>
      </trkpt>
      <trkpt lat="48.63384" lon="1.77129">
        <ele>156</ele>
        <time>2024-05-27T11:42:37.122Z</time>
      </trkpt>
      <trkpt lat="48.63384" lon="1.77138">
        <ele>156</ele>
        <time>2024-05-27T11:42:41.806Z</time>
      </trkpt>
      <trkpt lat="48.63387" lon="1.77145">
        <ele>156</ele>
        <time>2024-05-27T11:42:46.084Z</time>
      </trkpt>
      <trkpt lat="48.63388" lon="1.77147">
        <ele>156</ele>
        <time>2024-05-27T11:42:50.122Z</time>
      </trkpt>
      <trkpt lat="48.63387" lon="1.77149">
        <ele>156</ele>
        <time>2024-05-27T11:42:55.122Z</time>
      </trkpt>
      <trkpt lat="48.63387" lon="1.7715">
        <ele>156</ele>
        <time>2024-05-27T11:42:59.806Z</time>
      </trkpt>
      <trkpt lat="48.63393" lon="1.77161">
        <ele>156</ele>
        <time>2024-05-27T11:43:04.121Z</time>
      </trkpt>
      <trkpt lat="48.63398" lon="1.77169">
        <ele>156</ele>
        <time>2024-05-27T11:43:09.047Z</time>
      </trkpt>
      <trkpt lat="48.63403" lon="1.77172">
        <ele>155</ele>
        <time>2024-05-27T11:43:13.484Z</time>
      </trkpt>
      <trkpt lat="48.63405" lon="1.77183">
        <ele>155</ele>
        <time>2024-05-27T11:43:18.121Z</time>
      </trkpt>
      <trkpt lat="48.63407" lon="1.77188">
        <ele>155</ele>
        <time>2024-05-27T11:43:22.636Z</time>
      </trkpt>
      <trkpt lat="48.63408" lon="1.77197">
        <ele>155</ele>
        <time>2024-05-27T11:43:27.121Z</time>
      </trkpt>
      <trkpt lat="48.63408" lon="1.77206">
        <ele>155</ele>
        <time>2024-05-27T11:43:31.288Z</time>
      </trkpt>
      <trkpt lat="48.63407" lon="1.77215">
        <ele>154</ele>
        <time>2024-05-27T11:43:35.709Z</time>
      </trkpt>
      <trkpt lat="48.63407" lon="1.77223">
        <ele>154</ele>
        <time>2024-05-27T11:43:39.784Z</time>
      </trkpt>
      <trkpt lat="48.63406" lon="1.7723">
        <ele>154</ele>
        <time>2024-05-27T11:43:44.122Z</time>
      </trkpt>
      <trkpt lat="48.63404" lon="1.77238">
        <ele>151</ele>
        <time>2024-05-27T11:43:48.725Z</time>
      </trkpt>
      <trkpt lat="48.63403" lon="1.77247">
        <ele>151</ele>
        <time>2024-05-27T11:43:53.122Z</time>
      </trkpt>
      <trkpt lat="48.63403" lon="1.77256">
        <ele>154</ele>
        <time>2024-05-27T11:43:57.726Z</time>
      </trkpt>
      <trkpt lat="48.63401" lon="1.77261">
        <ele>154</ele>
        <time>2024-05-27T11:44:02.121Z</time>
      </trkpt>
      <trkpt lat="48.63402" lon="1.77271">
        <ele>152</ele>
        <time>2024-05-27T11:44:06.708Z</time>
      </trkpt>
      <trkpt lat="48.634" lon="1.77278">
        <ele>152</ele>
        <time>2024-05-27T11:44:11.121Z</time>
      </trkpt>
      <trkpt lat="48.63401" lon="1.77288">
        <ele>152</ele>
        <time>2024-05-27T11:44:15.666Z</time>
      </trkpt>
      <trkpt lat="48.63397" lon="1.77294">
        <ele>148</ele>
        <time>2024-05-27T11:44:20.103Z</time>
      </trkpt>
      <trkpt lat="48.63398" lon="1.77302">
        <ele>148</ele>
        <time>2024-05-27T11:44:33.425Z</time>
      </trkpt>
      <trkpt lat="48.63398" lon="1.77303">
        <ele>148</ele>
        <time>2024-05-27T11:44:38.121Z</time>
      </trkpt>
      <trkpt lat="48.63398" lon="1.77303">
        <ele>148</ele>
        <time>2024-05-27T11:44:42.121Z</time>
      </trkpt>
      <trkpt lat="48.63398" lon="1.77313">
        <ele>148</ele>
        <time>2024-05-27T11:44:46.866Z</time>
      </trkpt>
      <trkpt lat="48.63401" lon="1.77322">
        <ele>145</ele>
        <time>2024-05-27T11:44:51.123Z</time>
      </trkpt>
      <trkpt lat="48.63404" lon="1.77327">
        <ele>144</ele>
        <time>2024-05-27T11:44:55.560Z</time>
      </trkpt>
      <trkpt lat="48.63409" lon="1.77332">
        <ele>144</ele>
        <time>2024-05-27T11:45:00.121Z</time>
      </trkpt>
      <trkpt lat="48.63413" lon="1.77339">
        <ele>144</ele>
        <time>2024-05-27T11:45:05.004Z</time>
      </trkpt>
      <trkpt lat="48.63416" lon="1.77343">
        <ele>144</ele>
        <time>2024-05-27T11:45:09.121Z</time>
      </trkpt>
      <trkpt lat="48.63418" lon="1.77343">
        <ele>144</ele>
        <time>2024-05-27T11:45:33.121Z</time>
      </trkpt>
      <trkpt lat="48.63418" lon="1.77342">
        <ele>144</ele>
        <time>2024-05-27T11:45:37.120Z</time>
      </trkpt>
      <trkpt lat="48.6342" lon="1.77343">
        <ele>144</ele>
        <time>2024-05-27T11:45:42.121Z</time>
      </trkpt>
      <trkpt lat="48.63424" lon="1.77347">
        <ele>142</ele>
        <time>2024-05-27T11:45:47.121Z</time>
      </trkpt>
      <trkpt lat="48.63425" lon="1.77352">
        <ele>142</ele>
        <time>2024-05-27T11:45:51.581Z</time>
      </trkpt>
      <trkpt lat="48.63429" lon="1.77356">
        <ele>142</ele>
        <time>2024-05-27T11:45:55.827Z</time>
      </trkpt>
      <trkpt lat="48.63433" lon="1.77359">
        <ele>143</ele>
        <time>2024-05-27T11:46:00.121Z</time>
      </trkpt>
      <trkpt lat="48.63438" lon="1.7736">
        <ele>143</ele>
        <time>2024-05-27T11:46:04.901Z</time>
      </trkpt>
      <trkpt lat="48.63442" lon="1.77365">
        <ele>143</ele>
        <time>2024-05-27T11:46:09.199Z</time>
      </trkpt>
      <trkpt lat="48.63445" lon="1.77363">
        <ele>143</ele>
        <time>2024-05-27T11:46:33.121Z</time>
      </trkpt>
      <trkpt lat="48.63443" lon="1.77366">
        <ele>143</ele>
        <time>2024-05-27T11:46:38.063Z</time>
      </trkpt>
      <trkpt lat="48.63439" lon="1.77366">
        <ele>143</ele>
        <time>2024-05-27T11:46:42.121Z</time>
      </trkpt>
      <trkpt lat="48.63435" lon="1.77369">
        <ele>143</ele>
        <time>2024-05-27T11:46:46.909Z</time>
      </trkpt>
      <trkpt lat="48.63432" lon="1.77376">
        <ele>142</ele>
        <time>2024-05-27T11:46:51.121Z</time>
      </trkpt>
      <trkpt lat="48.63431" lon="1.77383">
        <ele>142</ele>
        <time>2024-05-27T11:46:56.120Z</time>
      </trkpt>
      <trkpt lat="48.6343" lon="1.77389">
        <ele>142</ele>
        <time>2024-05-27T11:47:00.703Z</time>
      </trkpt>
      <trkpt lat="48.63429" lon="1.77393">
        <ele>142</ele>
        <time>2024-05-27T11:47:05.121Z</time>
      </trkpt>
      <trkpt lat="48.63428" lon="1.77396">
        <ele>142</ele>
        <time>2024-05-27T11:47:09.121Z</time>
      </trkpt>
      <trkpt lat="48.63426" lon="1.7738">
        <ele>142</ele>
        <time>2024-05-27T11:47:55.121Z</time>
      </trkpt>
      <trkpt lat="48.63426" lon="1.7738">
        <ele>142</ele>
        <time>2024-05-27T11:48:00.121Z</time>
      </trkpt>
      <trkpt lat="48.63426" lon="1.7738">
        <ele>142</ele>
        <time>2024-05-27T11:48:05.121Z</time>
      </trkpt>
      <trkpt lat="48.63426" lon="1.77378">
        <ele>142</ele>
        <time>2024-05-27T11:48:10.023Z</time>
      </trkpt>
      <trkpt lat="48.63428" lon="1.77374">
        <ele>142</ele>
        <time>2024-05-27T11:48:14.099Z</time>
      </trkpt>
      <trkpt lat="48.63432" lon="1.77373">
        <ele>143</ele>
        <time>2024-05-27T11:48:41.121Z</time>
      </trkpt>
      <trkpt lat="48.63434" lon="1.77373">
        <ele>143</ele>
        <time>2024-05-27T11:48:45.648Z</time>
      </trkpt>
      <trkpt lat="48.63435" lon="1.77374">
        <ele>143</ele>
        <time>2024-05-27T11:48:50.121Z</time>
      </trkpt>
      <trkpt lat="48.63437" lon="1.77373">
        <ele>143</ele>
        <time>2024-05-27T11:48:54.587Z</time>
      </trkpt>
      <trkpt lat="48.63442" lon="1.77375">
        <ele>143</ele>
        <time>2024-05-27T11:48:58.811Z</time>
      </trkpt>
      <trkpt lat="48.63443" lon="1.7738">
        <ele>142</ele>
        <time>2024-05-27T11:49:03.121Z</time>
      </trkpt>
      <trkpt lat="48.63446" lon="1.77384">
        <ele>142</ele>
        <time>2024-05-27T11:49:08.121Z</time>
      </trkpt>
      <trkpt lat="48.63446" lon="1.77391">
        <ele>142</ele>
        <time>2024-05-27T11:49:12.796Z</time>
      </trkpt>
      <trkpt lat="48.63446" lon="1.77398">
        <ele>142</ele>
        <time>2024-05-27T11:49:17.120Z</time>
      </trkpt>
      <trkpt lat="48.63444" lon="1.77405">
        <ele>141</ele>
        <time>2024-05-27T11:49:21.685Z</time>
      </trkpt>
      <trkpt lat="48.63444" lon="1.7741">
        <ele>141</ele>
        <time>2024-05-27T11:49:25.923Z</time>
      </trkpt>
      <trkpt lat="48.63441" lon="1.77416">
        <ele>141</ele>
        <time>2024-05-27T11:49:30.360Z</time>
      </trkpt>
      <trkpt lat="48.63437" lon="1.7742">
        <ele>141</ele>
        <time>2024-05-27T11:49:35.120Z</time>
      </trkpt>
      <trkpt lat="48.63435" lon="1.77423">
        <ele>141</ele>
        <time>2024-05-27T11:49:45.120Z</time>
      </trkpt>
      <trkpt lat="48.63433" lon="1.77424">
        <ele>141</ele>
        <time>2024-05-27T11:49:50.120Z</time>
      </trkpt>
      <trkpt lat="48.63432" lon="1.77426">
        <ele>141</ele>
        <time>2024-05-27T11:49:55.120Z</time>
      </trkpt>
      <trkpt lat="48.63431" lon="1.77428">
        <ele>141</ele>
        <time>2024-05-27T11:49:57.903Z</time>
      </trkpt>
      <trkpt lat="48.63428" lon="1.77431">
        <ele>140</ele>
        <time>2024-05-27T11:50:07.124Z</time>
      </trkpt>
      <trkpt lat="48.63432" lon="1.77433">
        <ele>140</ele>
        <time>2024-05-27T11:50:11.120Z</time>
      </trkpt>
      <trkpt lat="48.63434" lon="1.77443">
        <ele>140</ele>
        <time>2024-05-27T11:50:15.440Z</time>
      </trkpt>
      <trkpt lat="48.63434" lon="1.77457">
        <ele>140</ele>
        <time>2024-05-27T11:50:19.483Z</time>
      </trkpt>
      <trkpt lat="48.63438" lon="1.77459">
        <ele>140</ele>
        <time>2024-05-27T11:50:23.603Z</time>
      </trkpt>
      <trkpt lat="48.63443" lon="1.77459">
        <ele>140</ele>
        <time>2024-05-27T11:50:28.120Z</time>
      </trkpt>
      <trkpt lat="48.63448" lon="1.77462">
        <ele>140</ele>
        <time>2024-05-27T11:50:32.958Z</time>
      </trkpt>
      <trkpt lat="48.63453" lon="1.77466">
        <ele>140</ele>
        <time>2024-05-27T11:50:37.120Z</time>
      </trkpt>
      <trkpt lat="48.63454" lon="1.77467">
        <ele>140</ele>
        <time>2024-05-27T11:50:42.120Z</time>
      </trkpt>
      <trkpt lat="48.63456" lon="1.7747">
        <ele>140</ele>
        <time>2024-05-27T11:50:46.669Z</time>
      </trkpt>
      <trkpt lat="48.6346" lon="1.77477">
        <ele>138</ele>
        <time>2024-05-27T11:50:51.120Z</time>
      </trkpt>
      <trkpt lat="48.63464" lon="1.77482">
        <ele>138</ele>
        <time>2024-05-27T11:50:55.986Z</time>
      </trkpt>
      <trkpt lat="48.63466" lon="1.7748">
        <ele>138</ele>
        <time>2024-05-27T11:51:00.304Z</time>
      </trkpt>
      <trkpt lat="48.63473" lon="1.7749">
        <ele>138</ele>
        <time>2024-05-27T11:51:19.108Z</time>
      </trkpt>
      <trkpt lat="48.63477" lon="1.77491">
        <ele>138</ele>
        <time>2024-05-27T11:51:24.112Z</time>
      </trkpt>
      <trkpt lat="48.63483" lon="1.775">
        <ele>138</ele>
        <time>2024-05-27T11:51:28.120Z</time>
      </trkpt>
      <trkpt lat="48.63488" lon="1.77503">
        <ele>138</ele>
        <time>2024-05-27T11:51:32.422Z</time>
      </trkpt>
      <trkpt lat="48.63493" lon="1.77508">
        <ele>138</ele>
        <time>2024-05-27T11:51:36.863Z</time>
      </trkpt>
      <trkpt lat="48.63495" lon="1.77513">
        <ele>138</ele>
        <time>2024-05-27T11:51:41.120Z</time>
      </trkpt>
      <trkpt lat="48.63497" lon="1.77521">
        <ele>138</ele>
        <time>2024-05-27T11:51:45.547Z</time>
      </trkpt>
      <trkpt lat="48.63499" lon="1.77529">
        <ele>138</ele>
        <time>2024-05-27T11:51:49.988Z</time>
      </trkpt>
      <trkpt lat="48.63501" lon="1.77535">
        <ele>138</ele>
        <time>2024-05-27T11:51:54.120Z</time>
      </trkpt>
      <trkpt lat="48.63502" lon="1.77537">
        <ele>138</ele>
        <time>2024-05-27T11:51:55.391Z</time>
      </trkpt>
      <trkpt lat="48.63508" lon="1.77552">
        <ele>139</ele>
        <time>2024-05-27T11:52:04.537Z</time>
      </trkpt>
      <trkpt lat="48.63512" lon="1.77559">
        <ele>139</ele>
        <time>2024-05-27T11:52:09.120Z</time>
      </trkpt>
      <trkpt lat="48.63516" lon="1.77565">
        <ele>141</ele>
        <time>2024-05-27T11:52:13.818Z</time>
      </trkpt>
      <trkpt lat="48.6352" lon="1.77569">
        <ele>141</ele>
        <time>2024-05-27T11:52:18.099Z</time>
      </trkpt>
      <trkpt lat="48.63523" lon="1.77576">
        <ele>143</ele>
        <time>2024-05-27T11:52:22.120Z</time>
      </trkpt>
      <trkpt lat="48.63525" lon="1.77584">
        <ele>143</ele>
        <time>2024-05-27T11:52:26.583Z</time>
      </trkpt>
      <trkpt lat="48.63528" lon="1.77589">
        <ele>143</ele>
        <time>2024-05-27T11:52:30.722Z</time>
      </trkpt>
      <trkpt lat="48.63532" lon="1.77595">
        <ele>143</ele>
        <time>2024-05-27T11:52:35.120Z</time>
      </trkpt>
      <trkpt lat="48.63535" lon="1.77602">
        <ele>147</ele>
        <time>2024-05-27T11:52:39.313Z</time>
      </trkpt>
      <trkpt lat="48.63538" lon="1.7761">
        <ele>147</ele>
        <time>2024-05-27T11:52:43.583Z</time>
      </trkpt>
      <trkpt lat="48.6354" lon="1.77617">
        <ele>147</ele>
        <time>2024-05-27T11:52:47.876Z</time>
      </trkpt>
      <trkpt lat="48.63542" lon="1.77622">
        <ele>148</ele>
        <time>2024-05-27T11:52:52.120Z</time>
      </trkpt>
      <trkpt lat="48.63545" lon="1.77628">
        <ele>152</ele>
        <time>2024-05-27T11:52:56.660Z</time>
      </trkpt>
      <trkpt lat="48.63547" lon="1.77634">
        <ele>152</ele>
        <time>2024-05-27T11:53:01.121Z</time>
      </trkpt>
      <trkpt lat="48.63549" lon="1.77639">
        <ele>152</ele>
        <time>2024-05-27T11:53:05.260Z</time>
      </trkpt>
      <trkpt lat="48.63551" lon="1.77646">
        <ele>152</ele>
        <time>2024-05-27T11:53:09.903Z</time>
      </trkpt>
      <trkpt lat="48.63552" lon="1.77652">
        <ele>152</ele>
        <time>2024-05-27T11:53:14.043Z</time>
      </trkpt>
      <trkpt lat="48.63553" lon="1.77659">
        <ele>155</ele>
        <time>2024-05-27T11:53:18.120Z</time>
      </trkpt>
      <trkpt lat="48.63555" lon="1.77667">
        <ele>155</ele>
        <time>2024-05-27T11:53:22.856Z</time>
      </trkpt>
      <trkpt lat="48.63557" lon="1.77674">
        <ele>155</ele>
        <time>2024-05-27T11:53:26.936Z</time>
      </trkpt>
      <trkpt lat="48.63557" lon="1.77681">
        <ele>159</ele>
        <time>2024-05-27T11:53:31.120Z</time>
      </trkpt>
      <trkpt lat="48.63555" lon="1.77688">
        <ele>159</ele>
        <time>2024-05-27T11:53:35.880Z</time>
      </trkpt>
      <trkpt lat="48.63555" lon="1.77696">
        <ele>159</ele>
        <time>2024-05-27T11:53:40.001Z</time>
      </trkpt>
      <trkpt lat="48.63554" lon="1.77701">
        <ele>159</ele>
        <time>2024-05-27T11:53:44.021Z</time>
      </trkpt>
      <trkpt lat="48.6355" lon="1.77703">
        <ele>159</ele>
        <time>2024-05-27T11:53:48.120Z</time>
      </trkpt>
      <trkpt lat="48.63551" lon="1.7771">
        <ele>162</ele>
        <time>2024-05-27T11:53:53.120Z</time>
      </trkpt>
      <trkpt lat="48.63552" lon="1.77717">
        <ele>162</ele>
        <time>2024-05-27T11:53:57.283Z</time>
      </trkpt>
      <trkpt lat="48.63552" lon="1.77725">
        <ele>162</ele>
        <time>2024-05-27T11:54:01.643Z</time>
      </trkpt>
      <trkpt lat="48.63552" lon="1.77731">
        <ele>162</ele>
        <time>2024-05-27T11:54:05.680Z</time>
      </trkpt>
      <trkpt lat="48.63554" lon="1.77739">
        <ele>163</ele>
        <time>2024-05-27T11:54:10.120Z</time>
      </trkpt>
      <trkpt lat="48.63553" lon="1.77748">
        <ele>163</ele>
        <time>2024-05-27T11:54:15.120Z</time>
      </trkpt>
      <trkpt lat="48.63553" lon="1.77755">
        <ele>163</ele>
        <time>2024-05-27T11:54:19.452Z</time>
      </trkpt>
      <trkpt lat="48.63552" lon="1.77762">
        <ele>163</ele>
        <time>2024-05-27T11:54:23.641Z</time>
      </trkpt>
      <trkpt lat="48.63552" lon="1.77771">
        <ele>163</ele>
        <time>2024-05-27T11:54:28.002Z</time>
      </trkpt>
      <trkpt lat="48.63553" lon="1.77778">
        <ele>163</ele>
        <time>2024-05-27T11:54:32.120Z</time>
      </trkpt>
      <trkpt lat="48.63553" lon="1.77783">
        <ele>163</ele>
        <time>2024-05-27T11:54:36.484Z</time>
      </trkpt>
      <trkpt lat="48.6355" lon="1.77786">
        <ele>163</ele>
        <time>2024-05-27T11:54:41.120Z</time>
      </trkpt>
      <trkpt lat="48.63546" lon="1.77788">
        <ele>163</ele>
        <time>2024-05-27T11:54:45.820Z</time>
      </trkpt>
      <trkpt lat="48.63548" lon="1.77793">
        <ele>161</ele>
        <time>2024-05-27T11:54:50.060Z</time>
      </trkpt>
      <trkpt lat="48.63551" lon="1.77799">
        <ele>161</ele>
        <time>2024-05-27T11:54:54.120Z</time>
      </trkpt>
      <trkpt lat="48.63553" lon="1.77804">
        <ele>161</ele>
        <time>2024-05-27T11:54:58.825Z</time>
      </trkpt>
      <trkpt lat="48.63554" lon="1.77809">
        <ele>161</ele>
        <time>2024-05-27T11:55:03.120Z</time>
      </trkpt>
      <trkpt lat="48.63553" lon="1.77817">
        <ele>161</ele>
        <time>2024-05-27T11:55:07.562Z</time>
      </trkpt>
      <trkpt lat="48.63554" lon="1.77824">
        <ele>160</ele>
        <time>2024-05-27T11:55:11.760Z</time>
      </trkpt>
      <trkpt lat="48.63554" lon="1.77831">
        <ele>160</ele>
        <time>2024-05-27T11:55:16.119Z</time>
      </trkpt>
      <trkpt lat="48.63553" lon="1.77838">
        <ele>160</ele>
        <time>2024-05-27T11:55:20.923Z</time>
      </trkpt>
      <trkpt lat="48.63554" lon="1.77846">
        <ele>160</ele>
        <time>2024-05-27T11:55:25.122Z</time>
      </trkpt>
      <trkpt lat="48.63553" lon="1.77854">
        <ele>160</ele>
        <time>2024-05-27T11:55:29.422Z</time>
      </trkpt>
      <trkpt lat="48.63551" lon="1.77861">
        <ele>160</ele>
        <time>2024-05-27T11:55:33.740Z</time>
      </trkpt>
      <trkpt lat="48.63552" lon="1.77869">
        <ele>160</ele>
        <time>2024-05-27T11:55:38.119Z</time>
      </trkpt>
      <trkpt lat="48.63551" lon="1.77877">
        <ele>160</ele>
        <time>2024-05-27T11:55:43.084Z</time>
      </trkpt>
      <trkpt lat="48.63551" lon="1.77883">
        <ele>160</ele>
        <time>2024-05-27T11:55:47.419Z</time>
      </trkpt>
      <trkpt lat="48.63549" lon="1.77892">
        <ele>160</ele>
        <time>2024-05-27T11:55:51.863Z</time>
      </trkpt>
      <trkpt lat="48.63549" lon="1.77897">
        <ele>160</ele>
        <time>2024-05-27T11:55:56.119Z</time>
      </trkpt>
      <trkpt lat="48.63548" lon="1.77904">
        <ele>161</ele>
        <time>2024-05-27T11:56:00.918Z</time>
      </trkpt>
      <trkpt lat="48.63547" lon="1.77912">
        <ele>161</ele>
        <time>2024-05-27T11:56:05.123Z</time>
      </trkpt>
      <trkpt lat="48.63546" lon="1.77919">
        <ele>161</ele>
        <time>2024-05-27T11:56:09.322Z</time>
      </trkpt>
      <trkpt lat="48.63546" lon="1.77927">
        <ele>161</ele>
        <time>2024-05-27T11:56:14.022Z</time>
      </trkpt>
      <trkpt lat="48.63545" lon="1.77935">
        <ele>162</ele>
        <time>2024-05-27T11:56:18.119Z</time>
      </trkpt>
      <trkpt lat="48.63544" lon="1.77943">
        <ele>162</ele>
        <time>2024-05-27T11:56:22.300Z</time>
      </trkpt>
      <trkpt lat="48.63543" lon="1.77949">
        <ele>162</ele>
        <time>2024-05-27T11:56:26.523Z</time>
      </trkpt>
      <trkpt lat="48.63541" lon="1.77959">
        <ele>162</ele>
        <time>2024-05-27T11:56:31.119Z</time>
      </trkpt>
      <trkpt lat="48.63542" lon="1.77966">
        <ele>165</ele>
        <time>2024-05-27T11:56:35.364Z</time>
      </trkpt>
      <trkpt lat="48.6354" lon="1.77974">
        <ele>162</ele>
        <time>2024-05-27T11:56:39.739Z</time>
      </trkpt>
      <trkpt lat="48.63539" lon="1.77981">
        <ele>162</ele>
        <time>2024-05-27T11:56:44.328Z</time>
      </trkpt>
      <trkpt lat="48.63538" lon="1.77989">
        <ele>163</ele>
        <time>2024-05-27T11:56:48.384Z</time>
      </trkpt>
      <trkpt lat="48.63537" lon="1.77995">
        <ele>163</ele>
        <time>2024-05-27T11:56:52.582Z</time>
      </trkpt>
      <trkpt lat="48.63536" lon="1.78004">
        <ele>163</ele>
        <time>2024-05-27T11:56:56.647Z</time>
      </trkpt>
      <trkpt lat="48.63536" lon="1.7801">
        <ele>163</ele>
        <time>2024-05-27T11:57:00.799Z</time>
      </trkpt>
      <trkpt lat="48.63536" lon="1.78018">
        <ele>165</ele>
        <time>2024-05-27T11:57:04.937Z</time>
      </trkpt>
      <trkpt lat="48.63535" lon="1.78024">
        <ele>165</ele>
        <time>2024-05-27T11:57:09.920Z</time>
      </trkpt>
      <trkpt lat="48.63536" lon="1.78032">
        <ele>165</ele>
        <time>2024-05-27T11:57:14.119Z</time>
      </trkpt>
      <trkpt lat="48.63536" lon="1.78039">
        <ele>165</ele>
        <time>2024-05-27T11:57:18.724Z</time>
      </trkpt>
      <trkpt lat="48.63537" lon="1.78045">
        <ele>167</ele>
        <time>2024-05-27T11:57:23.119Z</time>
      </trkpt>
      <trkpt lat="48.63536" lon="1.78051">
        <ele>167</ele>
        <time>2024-05-27T11:57:28.119Z</time>
      </trkpt>
      <trkpt lat="48.63534" lon="1.78055">
        <ele>167</ele>
        <time>2024-05-27T11:57:32.119Z</time>
      </trkpt>
      <trkpt lat="48.63532" lon="1.78057">
        <ele>167</ele>
        <time>2024-05-27T11:57:37.119Z</time>
      </trkpt>
      <trkpt lat="48.63531" lon="1.78058">
        <ele>167</ele>
        <time>2024-05-27T11:57:42.119Z</time>
      </trkpt>
      <trkpt lat="48.63532" lon="1.78065">
        <ele>167</ele>
        <time>2024-05-27T11:57:47.119Z</time>
      </trkpt>
      <trkpt lat="48.63536" lon="1.78072">
        <ele>168</ele>
        <time>2024-05-27T11:57:52.120Z</time>
      </trkpt>
      <trkpt lat="48.63531" lon="1.78078">
        <ele>168</ele>
        <time>2024-05-27T11:58:10.119Z</time>
      </trkpt>
      <trkpt lat="48.63529" lon="1.78083">
        <ele>168</ele>
        <time>2024-05-27T11:58:14.884Z</time>
      </trkpt>
      <trkpt lat="48.63529" lon="1.78088">
        <ele>168</ele>
        <time>2024-05-27T11:58:19.101Z</time>
      </trkpt>
      <trkpt lat="48.63528" lon="1.78094">
        <ele>168</ele>
        <time>2024-05-27T11:58:23.562Z</time>
      </trkpt>
      <trkpt lat="48.63527" lon="1.78099">
        <ele>168</ele>
        <time>2024-05-27T11:58:27.820Z</time>
      </trkpt>
      <trkpt lat="48.63526" lon="1.78105">
        <ele>168</ele>
        <time>2024-05-27T11:58:32.639Z</time>
      </trkpt>
      <trkpt lat="48.63525" lon="1.7811">
        <ele>168</ele>
        <time>2024-05-27T11:58:37.119Z</time>
      </trkpt>
      <trkpt lat="48.63525" lon="1.78114">
        <ele>168</ele>
        <time>2024-05-27T11:58:41.778Z</time>
      </trkpt>
      <trkpt lat="48.63525" lon="1.78119">
        <ele>168</ele>
        <time>2024-05-27T11:58:45.823Z</time>
      </trkpt>
      <trkpt lat="48.63524" lon="1.78126">
        <ele>168</ele>
        <time>2024-05-27T11:58:50.301Z</time>
      </trkpt>
      <trkpt lat="48.63523" lon="1.78135">
        <ele>168</ele>
        <time>2024-05-27T11:58:55.005Z</time>
      </trkpt>
      <trkpt lat="48.63523" lon="1.78142">
        <ele>168</ele>
        <time>2024-05-27T11:58:59.119Z</time>
      </trkpt>
      <trkpt lat="48.63522" lon="1.7815">
        <ele>168</ele>
        <time>2024-05-27T11:59:03.980Z</time>
      </trkpt>
      <trkpt lat="48.6352" lon="1.78157">
        <ele>168</ele>
        <time>2024-05-27T11:59:08.280Z</time>
      </trkpt>
      <trkpt lat="48.6352" lon="1.78165">
        <ele>168</ele>
        <time>2024-05-27T11:59:12.460Z</time>
      </trkpt>
      <trkpt lat="48.63519" lon="1.78172">
        <ele>168</ele>
        <time>2024-05-27T11:59:16.700Z</time>
      </trkpt>
      <trkpt lat="48.63518" lon="1.78178">
        <ele>168</ele>
        <time>2024-05-27T11:59:20.940Z</time>
      </trkpt>
      <trkpt lat="48.63519" lon="1.78186">
        <ele>169</ele>
        <time>2024-05-27T11:59:25.926Z</time>
      </trkpt>
      <trkpt lat="48.63519" lon="1.78193">
        <ele>169</ele>
        <time>2024-05-27T11:59:29.985Z</time>
      </trkpt>
      <trkpt lat="48.63518" lon="1.782">
        <ele>169</ele>
        <time>2024-05-27T11:59:34.118Z</time>
      </trkpt>
      <trkpt lat="48.63517" lon="1.78208">
        <ele>169</ele>
        <time>2024-05-27T11:59:38.704Z</time>
      </trkpt>
      <trkpt lat="48.63517" lon="1.78218">
        <ele>169</ele>
        <time>2024-05-27T11:59:43.119Z</time>
      </trkpt>
      <trkpt lat="48.63517" lon="1.78228">
        <ele>169</ele>
        <time>2024-05-27T11:59:47.722Z</time>
      </trkpt>
      <trkpt lat="48.63516" lon="1.78235">
        <ele>169</ele>
        <time>2024-05-27T11:59:52.124Z</time>
      </trkpt>
      <trkpt lat="48.63517" lon="1.78242">
        <ele>169</ele>
        <time>2024-05-27T11:59:56.119Z</time>
      </trkpt>
      <trkpt lat="48.63516" lon="1.78252">
        <ele>169</ele>
        <time>2024-05-27T12:00:00.580Z</time>
      </trkpt>
      <trkpt lat="48.63516" lon="1.78259">
        <ele>169</ele>
        <time>2024-05-27T12:00:04.683Z</time>
      </trkpt>
      <trkpt lat="48.63515" lon="1.78267">
        <ele>169</ele>
        <time>2024-05-27T12:00:09.119Z</time>
      </trkpt>
      <trkpt lat="48.63514" lon="1.78274">
        <ele>168</ele>
        <time>2024-05-27T12:00:13.863Z</time>
      </trkpt>
      <trkpt lat="48.63511" lon="1.78283">
        <ele>168</ele>
        <time>2024-05-27T12:00:18.463Z</time>
      </trkpt>
      <trkpt lat="48.63511" lon="1.78292">
        <ele>168</ele>
        <time>2024-05-27T12:00:23.044Z</time>
      </trkpt>
      <trkpt lat="48.63512" lon="1.78301">
        <ele>168</ele>
        <time>2024-05-27T12:00:27.643Z</time>
      </trkpt>
      <trkpt lat="48.6351" lon="1.78311">
        <ele>168</ele>
        <time>2024-05-27T12:00:32.119Z</time>
      </trkpt>
      <trkpt lat="48.63509" lon="1.78317">
        <ele>168</ele>
        <time>2024-05-27T12:00:36.345Z</time>
      </trkpt>
      <trkpt lat="48.63509" lon="1.78326">
        <ele>168</ele>
        <time>2024-05-27T12:00:40.959Z</time>
      </trkpt>
      <trkpt lat="48.63511" lon="1.78333">
        <ele>168</ele>
        <time>2024-05-27T12:00:45.354Z</time>
      </trkpt>
      <trkpt lat="48.63511" lon="1.78344">
        <ele>168</ele>
        <time>2024-05-27T12:00:49.943Z</time>
      </trkpt>
      <trkpt lat="48.63511" lon="1.78351">
        <ele>166</ele>
        <time>2024-05-27T12:00:54.022Z</time>
      </trkpt>
      <trkpt lat="48.6351" lon="1.78359">
        <ele>166</ele>
        <time>2024-05-27T12:00:58.057Z</time>
      </trkpt>
      <trkpt lat="48.63511" lon="1.78368">
        <ele>166</ele>
        <time>2024-05-27T12:01:02.760Z</time>
      </trkpt>
      <trkpt lat="48.6351" lon="1.78376">
        <ele>165</ele>
        <time>2024-05-27T12:01:06.845Z</time>
      </trkpt>
      <trkpt lat="48.63511" lon="1.78383">
        <ele>165</ele>
        <time>2024-05-27T12:01:10.983Z</time>
      </trkpt>
      <trkpt lat="48.6351" lon="1.78391">
        <ele>165</ele>
        <time>2024-05-27T12:01:15.862Z</time>
      </trkpt>
      <trkpt lat="48.63513" lon="1.78399">
        <ele>165</ele>
        <time>2024-05-27T12:01:20.119Z</time>
      </trkpt>
      <trkpt lat="48.63514" lon="1.78412">
        <ele>164</ele>
        <time>2024-05-27T12:01:24.897Z</time>
      </trkpt>
      <trkpt lat="48.63514" lon="1.78421">
        <ele>163</ele>
        <time>2024-05-27T12:01:29.119Z</time>
      </trkpt>
      <trkpt lat="48.63517" lon="1.78427">
        <ele>163</ele>
        <time>2024-05-27T12:01:33.803Z</time>
      </trkpt>
      <trkpt lat="48.63518" lon="1.78436">
        <ele>161</ele>
        <time>2024-05-27T12:01:38.118Z</time>
      </trkpt>
      <trkpt lat="48.63517" lon="1.78446">
        <ele>161</ele>
        <time>2024-05-27T12:01:43.103Z</time>
      </trkpt>
      <trkpt lat="48.63518" lon="1.78455">
        <ele>161</ele>
        <time>2024-05-27T12:01:47.437Z</time>
      </trkpt>
      <trkpt lat="48.63516" lon="1.78464">
        <ele>158</ele>
        <time>2024-05-27T12:01:51.822Z</time>
      </trkpt>
      <trkpt lat="48.63517" lon="1.78471">
        <ele>158</ele>
        <time>2024-05-27T12:01:56.064Z</time>
      </trkpt>
      <trkpt lat="48.6352" lon="1.78478">
        <ele>158</ele>
        <time>2024-05-27T12:02:00.524Z</time>
      </trkpt>
      <trkpt lat="48.63522" lon="1.78486">
        <ele>158</ele>
        <time>2024-05-27T12:02:04.619Z</time>
      </trkpt>
      <trkpt lat="48.63522" lon="1.78493">
        <ele>156</ele>
        <time>2024-05-27T12:02:09.119Z</time>
      </trkpt>
      <trkpt lat="48.63522" lon="1.78503">
        <ele>156</ele>
        <time>2024-05-27T12:02:13.920Z</time>
      </trkpt>
      <trkpt lat="48.63522" lon="1.78513">
        <ele>156</ele>
        <time>2024-05-27T12:02:19.080Z</time>
      </trkpt>
      <trkpt lat="48.6352" lon="1.7852">
        <ele>153</ele>
        <time>2024-05-27T12:02:23.123Z</time>
      </trkpt>
      <trkpt lat="48.63521" lon="1.78529">
        <ele>153</ele>
        <time>2024-05-27T12:02:27.840Z</time>
      </trkpt>
      <trkpt lat="48.63521" lon="1.78538">
        <ele>153</ele>
        <time>2024-05-27T12:02:31.980Z</time>
      </trkpt>
      <trkpt lat="48.63521" lon="1.78545">
        <ele>151</ele>
        <time>2024-05-27T12:02:36.306Z</time>
      </trkpt>
      <trkpt lat="48.63519" lon="1.78554">
        <ele>151</ele>
        <time>2024-05-27T12:02:41.119Z</time>
      </trkpt>
      <trkpt lat="48.6352" lon="1.78562">
        <ele>151</ele>
        <time>2024-05-27T12:02:45.441Z</time>
      </trkpt>
      <trkpt lat="48.63518" lon="1.78571">
        <ele>149</ele>
        <time>2024-05-27T12:02:50.100Z</time>
      </trkpt>
      <trkpt lat="48.63517" lon="1.78582">
        <ele>149</ele>
        <time>2024-05-27T12:02:54.901Z</time>
      </trkpt>
      <trkpt lat="48.63518" lon="1.78589">
        <ele>149</ele>
        <time>2024-05-27T12:02:59.022Z</time>
      </trkpt>
      <trkpt lat="48.63517" lon="1.78595">
        <ele>149</ele>
        <time>2024-05-27T12:03:03.119Z</time>
      </trkpt>
      <trkpt lat="48.63515" lon="1.78605">
        <ele>148</ele>
        <time>2024-05-27T12:03:07.741Z</time>
      </trkpt>
      <trkpt lat="48.63514" lon="1.78612">
        <ele>148</ele>
        <time>2024-05-27T12:03:11.820Z</time>
      </trkpt>
      <trkpt lat="48.63514" lon="1.7862">
        <ele>151</ele>
        <time>2024-05-27T12:03:15.922Z</time>
      </trkpt>
      <trkpt lat="48.63511" lon="1.78628">
        <ele>149</ele>
        <time>2024-05-27T12:03:20.119Z</time>
      </trkpt>
      <trkpt lat="48.63509" lon="1.78638">
        <ele>149</ele>
        <time>2024-05-27T12:03:25.119Z</time>
      </trkpt>
      <trkpt lat="48.63509" lon="1.78646">
        <ele>149</ele>
        <time>2024-05-27T12:03:29.820Z</time>
      </trkpt>
      <trkpt lat="48.63507" lon="1.78655">
        <ele>147</ele>
        <time>2024-05-27T12:03:33.922Z</time>
      </trkpt>
      <trkpt lat="48.63506" lon="1.7866">
        <ele>147</ele>
        <time>2024-05-27T12:03:38.119Z</time>
      </trkpt>
      <trkpt lat="48.63504" lon="1.7867">
        <ele>147</ele>
        <time>2024-05-27T12:03:43.119Z</time>
      </trkpt>
      <trkpt lat="48.63502" lon="1.78677">
        <ele>147</ele>
        <time>2024-05-27T12:03:48.119Z</time>
      </trkpt>
      <trkpt lat="48.635" lon="1.78687">
        <ele>147</ele>
        <time>2024-05-27T12:03:53.119Z</time>
      </trkpt>
      <trkpt lat="48.63497" lon="1.78694">
        <ele>147</ele>
        <time>2024-05-27T12:03:57.807Z</time>
      </trkpt>
      <trkpt lat="48.63496" lon="1.78702">
        <ele>147</ele>
        <time>2024-05-27T12:04:02.119Z</time>
      </trkpt>
      <trkpt lat="48.63493" lon="1.7871">
        <ele>146</ele>
        <time>2024-05-27T12:04:06.878Z</time>
      </trkpt>
      <trkpt lat="48.63491" lon="1.78717">
        <ele>146</ele>
        <time>2024-05-27T12:04:11.331Z</time>
      </trkpt>
      <trkpt lat="48.63489" lon="1.78726">
        <ele>146</ele>
        <time>2024-05-27T12:04:16.082Z</time>
      </trkpt>
      <trkpt lat="48.63486" lon="1.78733">
        <ele>146</ele>
        <time>2024-05-27T12:04:20.279Z</time>
      </trkpt>
      <trkpt lat="48.63483" lon="1.78742">
        <ele>146</ele>
        <time>2024-05-27T12:04:25.119Z</time>
      </trkpt>
      <trkpt lat="48.63482" lon="1.7875">
        <ele>146</ele>
        <time>2024-05-27T12:04:30.084Z</time>
      </trkpt>
      <trkpt lat="48.63479" lon="1.78756">
        <ele>146</ele>
        <time>2024-05-27T12:04:34.486Z</time>
      </trkpt>
      <trkpt lat="48.63477" lon="1.78764">
        <ele>146</ele>
        <time>2024-05-27T12:04:38.877Z</time>
      </trkpt>
      <trkpt lat="48.63475" lon="1.78771">
        <ele>146</ele>
        <time>2024-05-27T12:04:43.119Z</time>
      </trkpt>
      <trkpt lat="48.63473" lon="1.78778">
        <ele>146</ele>
        <time>2024-05-27T12:04:48.119Z</time>
      </trkpt>
      <trkpt lat="48.63472" lon="1.78787">
        <ele>146</ele>
        <time>2024-05-27T12:04:52.961Z</time>
      </trkpt>
      <trkpt lat="48.63469" lon="1.78794">
        <ele>146</ele>
        <time>2024-05-27T12:04:57.119Z</time>
      </trkpt>
      <trkpt lat="48.63467" lon="1.78803">
        <ele>146</ele>
        <time>2024-05-27T12:05:01.876Z</time>
      </trkpt>
      <trkpt lat="48.63467" lon="1.78809">
        <ele>146</ele>
        <time>2024-05-27T12:05:05.996Z</time>
      </trkpt>
      <trkpt lat="48.63466" lon="1.78816">
        <ele>146</ele>
        <time>2024-05-27T12:05:10.400Z</time>
      </trkpt>
      <trkpt lat="48.63467" lon="1.78824">
        <ele>146</ele>
        <time>2024-05-27T12:05:15.116Z</time>
      </trkpt>
      <trkpt lat="48.63465" lon="1.78832">
        <ele>146</ele>
        <time>2024-05-27T12:05:19.119Z</time>
      </trkpt>
      <trkpt lat="48.63465" lon="1.7884">
        <ele>146</ele>
        <time>2024-05-27T12:05:23.789Z</time>
      </trkpt>
      <trkpt lat="48.63465" lon="1.78848">
        <ele>146</ele>
        <time>2024-05-27T12:05:28.026Z</time>
      </trkpt>
      <trkpt lat="48.63466" lon="1.78856">
        <ele>146</ele>
        <time>2024-05-27T12:05:32.119Z</time>
      </trkpt>
      <trkpt lat="48.63466" lon="1.78865">
        <ele>146</ele>
        <time>2024-05-27T12:05:36.921Z</time>
      </trkpt>
      <trkpt lat="48.63466" lon="1.78869">
        <ele>146</ele>
        <time>2024-05-27T12:05:41.119Z</time>
      </trkpt>
      <trkpt lat="48.63466" lon="1.78869">
        <ele>146</ele>
        <time>2024-05-27T12:05:44.118Z</time>
      </trkpt>
      <trkpt lat="48.63467" lon="1.78875">
        <ele>146</ele>
        <time>2024-05-27T12:05:53.468Z</time>
      </trkpt>
      <trkpt lat="48.63466" lon="1.78887">
        <ele>146</ele>
        <time>2024-05-27T12:05:58.119Z</time>
      </trkpt>
      <trkpt lat="48.63469" lon="1.78894">
        <ele>146</ele>
        <time>2024-05-27T12:06:02.432Z</time>
      </trkpt>
      <trkpt lat="48.6347" lon="1.789">
        <ele>146</ele>
        <time>2024-05-27T12:06:06.744Z</time>
      </trkpt>
      <trkpt lat="48.63473" lon="1.78908">
        <ele>145</ele>
        <time>2024-05-27T12:06:10.965Z</time>
      </trkpt>
      <trkpt lat="48.63473" lon="1.78916">
        <ele>145</ele>
        <time>2024-05-27T12:06:15.119Z</time>
      </trkpt>
      <trkpt lat="48.63475" lon="1.78925">
        <ele>145</ele>
        <time>2024-05-27T12:06:20.119Z</time>
      </trkpt>
      <trkpt lat="48.63478" lon="1.78932">
        <ele>145</ele>
        <time>2024-05-27T12:06:25.045Z</time>
      </trkpt>
      <trkpt lat="48.63479" lon="1.78939">
        <ele>145</ele>
        <time>2024-05-27T12:06:29.085Z</time>
      </trkpt>
      <trkpt lat="48.63479" lon="1.78946">
        <ele>145</ele>
        <time>2024-05-27T12:06:33.119Z</time>
      </trkpt>
      <trkpt lat="48.63479" lon="1.78947">
        <ele>145</ele>
        <time>2024-05-27T12:07:12.117Z</time>
      </trkpt>
      <trkpt lat="48.63482" lon="1.78951">
        <ele>145</ele>
        <time>2024-05-27T12:07:17.118Z</time>
      </trkpt>
      <trkpt lat="48.63487" lon="1.78952">
        <ele>145</ele>
        <time>2024-05-27T12:07:21.583Z</time>
      </trkpt>
      <trkpt lat="48.63493" lon="1.78951">
        <ele>145</ele>
        <time>2024-05-27T12:07:25.883Z</time>
      </trkpt>
      <trkpt lat="48.63498" lon="1.78951">
        <ele>145</ele>
        <time>2024-05-27T12:07:29.988Z</time>
      </trkpt>
      <trkpt lat="48.63503" lon="1.78951">
        <ele>145</ele>
        <time>2024-05-27T12:07:34.040Z</time>
      </trkpt>
      <trkpt lat="48.63507" lon="1.78951">
        <ele>145</ele>
        <time>2024-05-27T12:07:38.040Z</time>
      </trkpt>
      <trkpt lat="48.63512" lon="1.78951">
        <ele>145</ele>
        <time>2024-05-27T12:07:42.468Z</time>
      </trkpt>
      <trkpt lat="48.63517" lon="1.78951">
        <ele>146</ele>
        <time>2024-05-27T12:07:46.864Z</time>
      </trkpt>
      <trkpt lat="48.63523" lon="1.78952">
        <ele>146</ele>
        <time>2024-05-27T12:07:51.118Z</time>
      </trkpt>
      <trkpt lat="48.63527" lon="1.78954">
        <ele>146</ele>
        <time>2024-05-27T12:07:55.588Z</time>
      </trkpt>
      <trkpt lat="48.63532" lon="1.78955">
        <ele>146</ele>
        <time>2024-05-27T12:07:59.642Z</time>
      </trkpt>
      <trkpt lat="48.63536" lon="1.78955">
        <ele>146</ele>
        <time>2024-05-27T12:08:03.940Z</time>
      </trkpt>
      <trkpt lat="48.63542" lon="1.78957">
        <ele>146</ele>
        <time>2024-05-27T12:08:08.420Z</time>
      </trkpt>
      <trkpt lat="48.63548" lon="1.78959">
        <ele>149</ele>
        <time>2024-05-27T12:08:13.122Z</time>
      </trkpt>
      <trkpt lat="48.63553" lon="1.7896">
        <ele>149</ele>
        <time>2024-05-27T12:08:17.789Z</time>
      </trkpt>
      <trkpt lat="48.63559" lon="1.78962">
        <ele>149</ele>
        <time>2024-05-27T12:08:22.118Z</time>
      </trkpt>
      <trkpt lat="48.63564" lon="1.78965">
        <ele>149</ele>
        <time>2024-05-27T12:08:26.824Z</time>
      </trkpt>
      <trkpt lat="48.63569" lon="1.78968">
        <ele>149</ele>
        <time>2024-05-27T12:08:31.463Z</time>
      </trkpt>
      <trkpt lat="48.63574" lon="1.78972">
        <ele>151</ele>
        <time>2024-05-27T12:08:35.791Z</time>
      </trkpt>
      <trkpt lat="48.63578" lon="1.78976">
        <ele>151</ele>
        <time>2024-05-27T12:08:40.219Z</time>
      </trkpt>
      <trkpt lat="48.63583" lon="1.7898">
        <ele>151</ele>
        <time>2024-05-27T12:08:44.579Z</time>
      </trkpt>
      <trkpt lat="48.63588" lon="1.78984">
        <ele>151</ele>
        <time>2024-05-27T12:08:48.883Z</time>
      </trkpt>
      <trkpt lat="48.63593" lon="1.78989">
        <ele>151</ele>
        <time>2024-05-27T12:08:53.118Z</time>
      </trkpt>
      <trkpt lat="48.63597" lon="1.78994">
        <ele>151</ele>
        <time>2024-05-27T12:08:57.583Z</time>
      </trkpt>
      <trkpt lat="48.63601" lon="1.78999">
        <ele>153</ele>
        <time>2024-05-27T12:09:01.790Z</time>
      </trkpt>
      <trkpt lat="48.63606" lon="1.79004">
        <ele>153</ele>
        <time>2024-05-27T12:09:06.100Z</time>
      </trkpt>
      <trkpt lat="48.6361" lon="1.79008">
        <ele>153</ele>
        <time>2024-05-27T12:09:10.399Z</time>
      </trkpt>
      <trkpt lat="48.63614" lon="1.79012">
        <ele>153</ele>
        <time>2024-05-27T12:09:14.563Z</time>
      </trkpt>
      <trkpt lat="48.63618" lon="1.79018">
        <ele>153</ele>
        <time>2024-05-27T12:09:18.780Z</time>
      </trkpt>
      <trkpt lat="48.63622" lon="1.79024">
        <ele>153</ele>
        <time>2024-05-27T12:09:23.004Z</time>
      </trkpt>
      <trkpt lat="48.63626" lon="1.79029">
        <ele>152</ele>
        <time>2024-05-27T12:09:27.118Z</time>
      </trkpt>
      <trkpt lat="48.63631" lon="1.79035">
        <ele>152</ele>
        <time>2024-05-27T12:09:31.322Z</time>
      </trkpt>
      <trkpt lat="48.63635" lon="1.79041">
        <ele>152</ele>
        <time>2024-05-27T12:09:36.057Z</time>
      </trkpt>
      <trkpt lat="48.63638" lon="1.79047">
        <ele>152</ele>
        <time>2024-05-27T12:09:40.118Z</time>
      </trkpt>
      <trkpt lat="48.63642" lon="1.79054">
        <ele>152</ele>
        <time>2024-05-27T12:09:44.863Z</time>
      </trkpt>
      <trkpt lat="48.63645" lon="1.7906">
        <ele>152</ele>
        <time>2024-05-27T12:09:49.079Z</time>
      </trkpt>
      <trkpt lat="48.63649" lon="1.79066">
        <ele>152</ele>
        <time>2024-05-27T12:09:53.302Z</time>
      </trkpt>
      <trkpt lat="48.63653" lon="1.79072">
        <ele>150</ele>
        <time>2024-05-27T12:09:57.576Z</time>
      </trkpt>
      <trkpt lat="48.63656" lon="1.79078">
        <ele>150</ele>
        <time>2024-05-27T12:10:01.877Z</time>
      </trkpt>
      <trkpt lat="48.6366" lon="1.79083">
        <ele>150</ele>
        <time>2024-05-27T12:10:06.041Z</time>
      </trkpt>
      <trkpt lat="48.63664" lon="1.79088">
        <ele>150</ele>
        <time>2024-05-27T12:10:10.222Z</time>
      </trkpt>
      <trkpt lat="48.63669" lon="1.79093">
        <ele>150</ele>
        <time>2024-05-27T12:10:14.436Z</time>
      </trkpt>
      <trkpt lat="48.63673" lon="1.79098">
        <ele>149</ele>
        <time>2024-05-27T12:10:18.583Z</time>
      </trkpt>
      <trkpt lat="48.63677" lon="1.79104">
        <ele>149</ele>
        <time>2024-05-27T12:10:22.741Z</time>
      </trkpt>
      <trkpt lat="48.63679" lon="1.79111">
        <ele>149</ele>
        <time>2024-05-27T12:10:26.935Z</time>
      </trkpt>
      <trkpt lat="48.63682" lon="1.79118">
        <ele>151</ele>
        <time>2024-05-27T12:10:31.118Z</time>
      </trkpt>
      <trkpt lat="48.63687" lon="1.79122">
        <ele>151</ele>
        <time>2024-05-27T12:10:35.383Z</time>
      </trkpt>
      <trkpt lat="48.63692" lon="1.79127">
        <ele>151</ele>
        <time>2024-05-27T12:10:39.522Z</time>
      </trkpt>
      <trkpt lat="48.63696" lon="1.79131">
        <ele>151</ele>
        <time>2024-05-27T12:10:43.669Z</time>
      </trkpt>
      <trkpt lat="48.637" lon="1.79137">
        <ele>151</ele>
        <time>2024-05-27T12:10:47.840Z</time>
      </trkpt>
      <trkpt lat="48.63704" lon="1.79143">
        <ele>151</ele>
        <time>2024-05-27T12:10:52.063Z</time>
      </trkpt>
      <trkpt lat="48.63707" lon="1.79149">
        <ele>151</ele>
        <time>2024-05-27T12:10:56.280Z</time>
      </trkpt>
      <trkpt lat="48.63711" lon="1.79154">
        <ele>151</ele>
        <time>2024-05-27T12:11:00.479Z</time>
      </trkpt>
      <trkpt lat="48.63715" lon="1.79161">
        <ele>151</ele>
        <time>2024-05-27T12:11:04.659Z</time>
      </trkpt>
      <trkpt lat="48.63718" lon="1.79167">
        <ele>151</ele>
        <time>2024-05-27T12:11:08.863Z</time>
      </trkpt>
      <trkpt lat="48.63721" lon="1.79173">
        <ele>151</ele>
        <time>2024-05-27T12:11:13.020Z</time>
      </trkpt>
      <trkpt lat="48.63724" lon="1.7918">
        <ele>151</ele>
        <time>2024-05-27T12:11:17.201Z</time>
      </trkpt>
      <trkpt lat="48.63727" lon="1.79186">
        <ele>149</ele>
        <time>2024-05-27T12:11:21.440Z</time>
      </trkpt>
      <trkpt lat="48.6373" lon="1.79193">
        <ele>149</ele>
        <time>2024-05-27T12:11:25.724Z</time>
      </trkpt>
      <trkpt lat="48.63732" lon="1.79199">
        <ele>149</ele>
        <time>2024-05-27T12:11:30Z</time>
      </trkpt>
      <trkpt lat="48.63736" lon="1.79206">
        <ele>149</ele>
        <time>2024-05-27T12:11:34.180Z</time>
      </trkpt>
      <trkpt lat="48.63739" lon="1.79212">
        <ele>147</ele>
        <time>2024-05-27T12:11:38.344Z</time>
      </trkpt>
      <trkpt lat="48.63742" lon="1.79218">
        <ele>147</ele>
        <time>2024-05-27T12:11:42.661Z</time>
      </trkpt>
      <trkpt lat="48.63745" lon="1.79226">
        <ele>147</ele>
        <time>2024-05-27T12:11:47.003Z</time>
      </trkpt>
      <trkpt lat="48.63748" lon="1.79232">
        <ele>147</ele>
        <time>2024-05-27T12:11:51.483Z</time>
      </trkpt>
      <trkpt lat="48.63752" lon="1.79239">
        <ele>147</ele>
        <time>2024-05-27T12:11:56.118Z</time>
      </trkpt>
      <trkpt lat="48.63754" lon="1.79245">
        <ele>147</ele>
        <time>2024-05-27T12:12:00.460Z</time>
      </trkpt>
      <trkpt lat="48.63757" lon="1.79253">
        <ele>147</ele>
        <time>2024-05-27T12:12:04.741Z</time>
      </trkpt>
      <trkpt lat="48.63757" lon="1.79277">
        <ele>146</ele>
        <time>2024-05-27T12:12:27.087Z</time>
      </trkpt>
      <trkpt lat="48.63762" lon="1.79286">
        <ele>146</ele>
        <time>2024-05-27T12:12:31.117Z</time>
      </trkpt>
      <trkpt lat="48.63766" lon="1.79295">
        <ele>148</ele>
        <time>2024-05-27T12:12:36.118Z</time>
      </trkpt>
      <trkpt lat="48.63769" lon="1.79302">
        <ele>148</ele>
        <time>2024-05-27T12:12:40.539Z</time>
      </trkpt>
      <trkpt lat="48.63772" lon="1.79309">
        <ele>148</ele>
        <time>2024-05-27T12:12:44.582Z</time>
      </trkpt>
      <trkpt lat="48.63775" lon="1.79316">
        <ele>148</ele>
        <time>2024-05-27T12:12:49.118Z</time>
      </trkpt>
      <trkpt lat="48.63778" lon="1.79325">
        <ele>146</ele>
        <time>2024-05-27T12:12:53.644Z</time>
      </trkpt>
      <trkpt lat="48.63779" lon="1.79333">
        <ele>146</ele>
        <time>2024-05-27T12:12:57.875Z</time>
      </trkpt>
      <trkpt lat="48.63782" lon="1.79341">
        <ele>146</ele>
        <time>2024-05-27T12:13:02.799Z</time>
      </trkpt>
      <trkpt lat="48.63785" lon="1.79351">
        <ele>146</ele>
        <time>2024-05-27T12:13:07.118Z</time>
      </trkpt>
      <trkpt lat="48.63788" lon="1.7936">
        <ele>146</ele>
        <time>2024-05-27T12:13:12.118Z</time>
      </trkpt>
      <trkpt lat="48.63792" lon="1.7937">
        <ele>146</ele>
        <time>2024-05-27T12:13:17.083Z</time>
      </trkpt>
      <trkpt lat="48.63793" lon="1.79375">
        <ele>147</ele>
        <time>2024-05-27T12:13:21.118Z</time>
      </trkpt>
      <trkpt lat="48.63796" lon="1.79382">
        <ele>146</ele>
        <time>2024-05-27T12:13:25.520Z</time>
      </trkpt>
      <trkpt lat="48.63799" lon="1.7939">
        <ele>146</ele>
        <time>2024-05-27T12:13:29.900Z</time>
      </trkpt>
      <trkpt lat="48.63801" lon="1.79396">
        <ele>146</ele>
        <time>2024-05-27T12:13:34.118Z</time>
      </trkpt>
      <trkpt lat="48.63805" lon="1.79404">
        <ele>145</ele>
        <time>2024-05-27T12:13:39.121Z</time>
      </trkpt>
      <trkpt lat="48.63807" lon="1.79411">
        <ele>145</ele>
        <time>2024-05-27T12:13:44.117Z</time>
      </trkpt>
      <trkpt lat="48.63811" lon="1.79412">
        <ele>145</ele>
        <time>2024-05-27T12:13:48.702Z</time>
      </trkpt>
      <trkpt lat="48.63816" lon="1.79413">
        <ele>145</ele>
        <time>2024-05-27T12:13:52.901Z</time>
      </trkpt>
      <trkpt lat="48.63822" lon="1.79417">
        <ele>147</ele>
        <time>2024-05-27T12:13:57.039Z</time>
      </trkpt>
      <trkpt lat="48.63826" lon="1.79421">
        <ele>147</ele>
        <time>2024-05-27T12:14:01.152Z</time>
      </trkpt>
      <trkpt lat="48.63831" lon="1.79427">
        <ele>147</ele>
        <time>2024-05-27T12:14:06.118Z</time>
      </trkpt>
      <trkpt lat="48.63835" lon="1.79432">
        <ele>147</ele>
        <time>2024-05-27T12:14:10.501Z</time>
      </trkpt>
      <trkpt lat="48.6384" lon="1.79437">
        <ele>147</ele>
        <time>2024-05-27T12:14:14.820Z</time>
      </trkpt>
      <trkpt lat="48.63845" lon="1.79437">
        <ele>147</ele>
        <time>2024-05-27T12:14:19.118Z</time>
      </trkpt>
      <trkpt lat="48.63848" lon="1.79442">
        <ele>149</ele>
        <time>2024-05-27T12:14:23.564Z</time>
      </trkpt>
      <trkpt lat="48.63851" lon="1.7945">
        <ele>149</ele>
        <time>2024-05-27T12:14:28.118Z</time>
      </trkpt>
      <trkpt lat="48.63855" lon="1.79456">
        <ele>149</ele>
        <time>2024-05-27T12:14:32.764Z</time>
      </trkpt>
      <trkpt lat="48.63858" lon="1.7946">
        <ele>149</ele>
        <time>2024-05-27T12:14:37.020Z</time>
      </trkpt>
      <trkpt lat="48.63862" lon="1.79465">
        <ele>149</ele>
        <time>2024-05-27T12:14:42.118Z</time>
      </trkpt>
      <trkpt lat="48.63866" lon="1.7947">
        <ele>149</ele>
        <time>2024-05-27T12:14:46.284Z</time>
      </trkpt>
      <trkpt lat="48.6387" lon="1.79475">
        <ele>149</ele>
        <time>2024-05-27T12:14:51.118Z</time>
      </trkpt>
      <trkpt lat="48.63874" lon="1.79481">
        <ele>149</ele>
        <time>2024-05-27T12:14:56.002Z</time>
      </trkpt>
      <trkpt lat="48.63878" lon="1.79486">
        <ele>151</ele>
        <time>2024-05-27T12:15:00.118Z</time>
      </trkpt>
      <trkpt lat="48.63884" lon="1.79492">
        <ele>151</ele>
        <time>2024-05-27T12:15:04.575Z</time>
      </trkpt>
      <trkpt lat="48.63887" lon="1.79496">
        <ele>151</ele>
        <time>2024-05-27T12:15:08.818Z</time>
      </trkpt>
      <trkpt lat="48.6389" lon="1.79501">
        <ele>151</ele>
        <time>2024-05-27T12:15:13.118Z</time>
      </trkpt>
      <trkpt lat="48.63895" lon="1.79507">
        <ele>151</ele>
        <time>2024-05-27T12:15:18.118Z</time>
      </trkpt>
      <trkpt lat="48.63899" lon="1.79514">
        <ele>150</ele>
        <time>2024-05-27T12:15:22.879Z</time>
      </trkpt>
      <trkpt lat="48.63903" lon="1.79519">
        <ele>152</ele>
        <time>2024-05-27T12:15:27.117Z</time>
      </trkpt>
      <trkpt lat="48.63908" lon="1.79528">
        <ele>152</ele>
        <time>2024-05-27T12:15:31.620Z</time>
      </trkpt>
      <trkpt lat="48.63908" lon="1.79533">
        <ele>152</ele>
        <time>2024-05-27T12:15:35.921Z</time>
      </trkpt>
      <trkpt lat="48.63915" lon="1.79537">
        <ele>152</ele>
        <time>2024-05-27T12:15:40.118Z</time>
      </trkpt>
      <trkpt lat="48.6392" lon="1.79541">
        <ele>152</ele>
        <time>2024-05-27T12:15:45.118Z</time>
      </trkpt>
      <trkpt lat="48.63926" lon="1.79546">
        <ele>152</ele>
        <time>2024-05-27T12:15:49.657Z</time>
      </trkpt>
      <trkpt lat="48.63931" lon="1.7955">
        <ele>152</ele>
        <time>2024-05-27T12:15:54.118Z</time>
      </trkpt>
      <trkpt lat="48.63935" lon="1.79557">
        <ele>152</ele>
        <time>2024-05-27T12:15:59.117Z</time>
      </trkpt>
      <trkpt lat="48.63941" lon="1.79564">
        <ele>152</ele>
        <time>2024-05-27T12:16:04.117Z</time>
      </trkpt>
      <trkpt lat="48.63945" lon="1.7957">
        <ele>153</ele>
        <time>2024-05-27T12:16:08.622Z</time>
      </trkpt>
      <trkpt lat="48.63948" lon="1.79576">
        <ele>153</ele>
        <time>2024-05-27T12:16:12.842Z</time>
      </trkpt>
      <trkpt lat="48.63952" lon="1.79584">
        <ele>153</ele>
        <time>2024-05-27T12:16:18.117Z</time>
      </trkpt>
      <trkpt lat="48.63956" lon="1.79591">
        <ele>153</ele>
        <time>2024-05-27T12:16:23.117Z</time>
      </trkpt>
      <trkpt lat="48.6396" lon="1.79598">
        <ele>152</ele>
        <time>2024-05-27T12:16:27.382Z</time>
      </trkpt>
      <trkpt lat="48.63963" lon="1.79604">
        <ele>152</ele>
        <time>2024-05-27T12:16:31.640Z</time>
      </trkpt>
      <trkpt lat="48.63966" lon="1.7961">
        <ele>152</ele>
        <time>2024-05-27T12:16:35.650Z</time>
      </trkpt>
      <trkpt lat="48.63969" lon="1.79617">
        <ele>152</ele>
        <time>2024-05-27T12:16:40.116Z</time>
      </trkpt>
      <trkpt lat="48.63973" lon="1.79623">
        <ele>152</ele>
        <time>2024-05-27T12:16:44.865Z</time>
      </trkpt>
      <trkpt lat="48.63977" lon="1.79629">
        <ele>151</ele>
        <time>2024-05-27T12:16:49.117Z</time>
      </trkpt>
      <trkpt lat="48.63979" lon="1.79635">
        <ele>151</ele>
        <time>2024-05-27T12:16:53.702Z</time>
      </trkpt>
      <trkpt lat="48.63982" lon="1.79641">
        <ele>151</ele>
        <time>2024-05-27T12:16:58.117Z</time>
      </trkpt>
      <trkpt lat="48.63986" lon="1.79648">
        <ele>152</ele>
        <time>2024-05-27T12:17:03.105Z</time>
      </trkpt>
      <trkpt lat="48.63989" lon="1.79656">
        <ele>151</ele>
        <time>2024-05-27T12:17:07.720Z</time>
      </trkpt>
      <trkpt lat="48.63994" lon="1.7966">
        <ele>151</ele>
        <time>2024-05-27T12:17:11.961Z</time>
      </trkpt>
      <trkpt lat="48.63998" lon="1.7967">
        <ele>151</ele>
        <time>2024-05-27T12:17:16.344Z</time>
      </trkpt>
      <trkpt lat="48.64002" lon="1.79678">
        <ele>151</ele>
        <time>2024-05-27T12:17:21.117Z</time>
      </trkpt>
      <trkpt lat="48.64007" lon="1.79684">
        <ele>150</ele>
        <time>2024-05-27T12:17:25.924Z</time>
      </trkpt>
      <trkpt lat="48.64008" lon="1.7969">
        <ele>150</ele>
        <time>2024-05-27T12:17:30.117Z</time>
      </trkpt>
      <trkpt lat="48.64011" lon="1.79697">
        <ele>150</ele>
        <time>2024-05-27T12:17:35.117Z</time>
      </trkpt>
      <trkpt lat="48.64016" lon="1.79703">
        <ele>150</ele>
        <time>2024-05-27T12:17:39.641Z</time>
      </trkpt>
      <trkpt lat="48.64019" lon="1.79709">
        <ele>149</ele>
        <time>2024-05-27T12:17:43.661Z</time>
      </trkpt>
      <trkpt lat="48.64022" lon="1.79716">
        <ele>149</ele>
        <time>2024-05-27T12:17:48.063Z</time>
      </trkpt>
      <trkpt lat="48.64024" lon="1.79722">
        <ele>149</ele>
        <time>2024-05-27T12:17:52.117Z</time>
      </trkpt>
      <trkpt lat="48.64027" lon="1.79729">
        <ele>149</ele>
        <time>2024-05-27T12:17:56.817Z</time>
      </trkpt>
      <trkpt lat="48.64029" lon="1.79735">
        <ele>149</ele>
        <time>2024-05-27T12:18:01.117Z</time>
      </trkpt>
      <trkpt lat="48.64033" lon="1.79741">
        <ele>150</ele>
        <time>2024-05-27T12:18:06.116Z</time>
      </trkpt>
      <trkpt lat="48.64035" lon="1.79747">
        <ele>150</ele>
        <time>2024-05-27T12:18:10.900Z</time>
      </trkpt>
      <trkpt lat="48.64038" lon="1.79752">
        <ele>150</ele>
        <time>2024-05-27T12:18:14.944Z</time>
      </trkpt>
      <trkpt lat="48.64041" lon="1.79756">
        <ele>150</ele>
        <time>2024-05-27T12:18:19.397Z</time>
      </trkpt>
      <trkpt lat="48.64043" lon="1.79761">
        <ele>150</ele>
        <time>2024-05-27T12:18:23.619Z</time>
      </trkpt>
      <trkpt lat="48.64046" lon="1.79766">
        <ele>150</ele>
        <time>2024-05-27T12:18:27.725Z</time>
      </trkpt>
      <trkpt lat="48.6405" lon="1.79772">
        <ele>150</ele>
        <time>2024-05-27T12:18:32.039Z</time>
      </trkpt>
      <trkpt lat="48.64053" lon="1.79779">
        <ele>150</ele>
        <time>2024-05-27T12:18:36.383Z</time>
      </trkpt>
      <trkpt lat="48.64056" lon="1.79787">
        <ele>150</ele>
        <time>2024-05-27T12:18:40.880Z</time>
      </trkpt>
      <trkpt lat="48.64058" lon="1.79793">
        <ele>151</ele>
        <time>2024-05-27T12:18:45.120Z</time>
      </trkpt>
      <trkpt lat="48.64062" lon="1.79798">
        <ele>151</ele>
        <time>2024-05-27T12:18:49.117Z</time>
      </trkpt>
      <trkpt lat="48.64066" lon="1.79804">
        <ele>151</ele>
        <time>2024-05-27T12:18:53.717Z</time>
      </trkpt>
      <trkpt lat="48.64067" lon="1.79811">
        <ele>151</ele>
        <time>2024-05-27T12:18:57.794Z</time>
      </trkpt>
      <trkpt lat="48.64072" lon="1.79817">
        <ele>149</ele>
        <time>2024-05-27T12:19:01.936Z</time>
      </trkpt>
      <trkpt lat="48.64077" lon="1.79825">
        <ele>150</ele>
        <time>2024-05-27T12:19:06.116Z</time>
      </trkpt>
      <trkpt lat="48.6408" lon="1.79831">
        <ele>150</ele>
        <time>2024-05-27T12:19:10.620Z</time>
      </trkpt>
      <trkpt lat="48.64082" lon="1.79837">
        <ele>150</ele>
        <time>2024-05-27T12:19:15.117Z</time>
      </trkpt>
      <trkpt lat="48.64084" lon="1.79841">
        <ele>150</ele>
        <time>2024-05-27T12:19:19.117Z</time>
      </trkpt>
      <trkpt lat="48.64088" lon="1.79846">
        <ele>150</ele>
        <time>2024-05-27T12:19:23.879Z</time>
      </trkpt>
      <trkpt lat="48.64091" lon="1.79854">
        <ele>151</ele>
        <time>2024-05-27T12:19:28.263Z</time>
      </trkpt>
      <trkpt lat="48.64095" lon="1.79863">
        <ele>151</ele>
        <time>2024-05-27T12:19:33.116Z</time>
      </trkpt>
      <trkpt lat="48.64099" lon="1.79869">
        <ele>151</ele>
        <time>2024-05-27T12:19:37.724Z</time>
      </trkpt>
      <trkpt lat="48.64103" lon="1.79874">
        <ele>151</ele>
        <time>2024-05-27T12:19:42.039Z</time>
      </trkpt>
      <trkpt lat="48.64106" lon="1.79881">
        <ele>153</ele>
        <time>2024-05-27T12:19:46.639Z</time>
      </trkpt>
      <trkpt lat="48.64109" lon="1.79887">
        <ele>153</ele>
        <time>2024-05-27T12:19:50.963Z</time>
      </trkpt>
      <trkpt lat="48.64112" lon="1.79893">
        <ele>153</ele>
        <time>2024-05-27T12:19:55.442Z</time>
      </trkpt>
      <trkpt lat="48.64115" lon="1.79899">
        <ele>153</ele>
        <time>2024-05-27T12:19:59.503Z</time>
      </trkpt>
      <trkpt lat="48.64119" lon="1.79904">
        <ele>153</ele>
        <time>2024-05-27T12:20:04.084Z</time>
      </trkpt>
      <trkpt lat="48.64122" lon="1.79911">
        <ele>153</ele>
        <time>2024-05-27T12:20:08.656Z</time>
      </trkpt>
      <trkpt lat="48.64125" lon="1.79917">
        <ele>153</ele>
        <time>2024-05-27T12:20:13.117Z</time>
      </trkpt>
      <trkpt lat="48.64128" lon="1.79922">
        <ele>153</ele>
        <time>2024-05-27T12:20:17.477Z</time>
      </trkpt>
      <trkpt lat="48.64132" lon="1.79927">
        <ele>153</ele>
        <time>2024-05-27T12:20:21.802Z</time>
      </trkpt>
      <trkpt lat="48.64135" lon="1.79933">
        <ele>154</ele>
        <time>2024-05-27T12:20:26.161Z</time>
      </trkpt>
      <trkpt lat="48.64139" lon="1.7994">
        <ele>154</ele>
        <time>2024-05-27T12:20:30.980Z</time>
      </trkpt>
      <trkpt lat="48.64142" lon="1.79947">
        <ele>154</ele>
        <time>2024-05-27T12:20:35.340Z</time>
      </trkpt>
      <trkpt lat="48.64145" lon="1.79954">
        <ele>154</ele>
        <time>2024-05-27T12:20:39.657Z</time>
      </trkpt>
      <trkpt lat="48.64148" lon="1.79961">
        <ele>153</ele>
        <time>2024-05-27T12:20:44Z</time>
      </trkpt>
      <trkpt lat="48.64151" lon="1.79968">
        <ele>153</ele>
        <time>2024-05-27T12:20:48.180Z</time>
      </trkpt>
      <trkpt lat="48.64154" lon="1.79975">
        <ele>153</ele>
        <time>2024-05-27T12:20:52.524Z</time>
      </trkpt>
      <trkpt lat="48.64156" lon="1.79982">
        <ele>153</ele>
        <time>2024-05-27T12:20:56.824Z</time>
      </trkpt>
      <trkpt lat="48.64159" lon="1.79989">
        <ele>152</ele>
        <time>2024-05-27T12:21:01.117Z</time>
      </trkpt>
      <trkpt lat="48.64162" lon="1.79995">
        <ele>152</ele>
        <time>2024-05-27T12:21:05.321Z</time>
      </trkpt>
      <trkpt lat="48.64164" lon="1.80002">
        <ele>152</ele>
        <time>2024-05-27T12:21:09.703Z</time>
      </trkpt>
      <trkpt lat="48.64168" lon="1.80009">
        <ele>152</ele>
        <time>2024-05-27T12:21:13.919Z</time>
      </trkpt>
      <trkpt lat="48.64172" lon="1.80016">
        <ele>152</ele>
        <time>2024-05-27T12:21:18.117Z</time>
      </trkpt>
      <trkpt lat="48.64174" lon="1.80022">
        <ele>152</ele>
        <time>2024-05-27T12:21:22.541Z</time>
      </trkpt>
      <trkpt lat="48.64177" lon="1.80029">
        <ele>152</ele>
        <time>2024-05-27T12:21:26.901Z</time>
      </trkpt>
      <trkpt lat="48.6418" lon="1.80034">
        <ele>152</ele>
        <time>2024-05-27T12:21:31.116Z</time>
      </trkpt>
      <trkpt lat="48.64179" lon="1.80039">
        <ele>152</ele>
        <time>2024-05-27T12:21:35.943Z</time>
      </trkpt>
      <trkpt lat="48.64179" lon="1.80046">
        <ele>150</ele>
        <time>2024-05-27T12:21:40.380Z</time>
      </trkpt>
      <trkpt lat="48.64176" lon="1.80052">
        <ele>150</ele>
        <time>2024-05-27T12:21:44.561Z</time>
      </trkpt>
      <trkpt lat="48.64172" lon="1.80052">
        <ele>150</ele>
        <time>2024-05-27T12:21:47.681Z</time>
      </trkpt>
      <trkpt lat="48.64163" lon="1.8006">
        <ele>150</ele>
        <time>2024-05-27T12:21:55.950Z</time>
      </trkpt>
      <trkpt lat="48.64159" lon="1.80064">
        <ele>150</ele>
        <time>2024-05-27T12:22:00.117Z</time>
      </trkpt>
      <trkpt lat="48.64159" lon="1.80069">
        <ele>150</ele>
        <time>2024-05-27T12:22:04.117Z</time>
      </trkpt>
      <trkpt lat="48.64155" lon="1.80069">
        <ele>150</ele>
        <time>2024-05-27T12:22:08.629Z</time>
      </trkpt>
      <trkpt lat="48.64145" lon="1.80068">
        <ele>149</ele>
        <time>2024-05-27T12:22:13.117Z</time>
      </trkpt>
      <trkpt lat="48.64142" lon="1.80068">
        <ele>149</ele>
        <time>2024-05-27T12:22:17.606Z</time>
      </trkpt>
      <trkpt lat="48.64138" lon="1.80072">
        <ele>147</ele>
        <time>2024-05-27T12:22:21.780Z</time>
      </trkpt>
      <trkpt lat="48.64134" lon="1.80077">
        <ele>147</ele>
        <time>2024-05-27T12:22:26.041Z</time>
      </trkpt>
      <trkpt lat="48.64129" lon="1.80081">
        <ele>147</ele>
        <time>2024-05-27T12:22:30.117Z</time>
      </trkpt>
      <trkpt lat="48.64123" lon="1.80083">
        <ele>147</ele>
        <time>2024-05-27T12:22:35.116Z</time>
      </trkpt>
      <trkpt lat="48.64118" lon="1.80086">
        <ele>147</ele>
        <time>2024-05-27T12:22:39.482Z</time>
      </trkpt>
      <trkpt lat="48.64114" lon="1.8009">
        <ele>147</ele>
        <time>2024-05-27T12:22:44.117Z</time>
      </trkpt>
      <trkpt lat="48.64111" lon="1.80096">
        <ele>147</ele>
        <time>2024-05-27T12:22:49.117Z</time>
      </trkpt>
      <trkpt lat="48.6411" lon="1.80097">
        <ele>147</ele>
        <time>2024-05-27T12:22:53.934Z</time>
      </trkpt>
      <trkpt lat="48.64108" lon="1.80098">
        <ele>147</ele>
        <time>2024-05-27T12:22:58.116Z</time>
      </trkpt>
      <trkpt lat="48.64102" lon="1.801">
        <ele>147</ele>
        <time>2024-05-27T12:23:02.639Z</time>
      </trkpt>
      <trkpt lat="48.64096" lon="1.801">
        <ele>150</ele>
        <time>2024-05-27T12:23:07.117Z</time>
      </trkpt>
      <trkpt lat="48.64091" lon="1.801">
        <ele>150</ele>
        <time>2024-05-27T12:23:11.387Z</time>
      </trkpt>
      <trkpt lat="48.64085" lon="1.80101">
        <ele>150</ele>
        <time>2024-05-27T12:23:16.117Z</time>
      </trkpt>
      <trkpt lat="48.6408" lon="1.80102">
        <ele>150</ele>
        <time>2024-05-27T12:23:20.425Z</time>
      </trkpt>
      <trkpt lat="48.64075" lon="1.80104">
        <ele>150</ele>
        <time>2024-05-27T12:23:24.904Z</time>
      </trkpt>
      <trkpt lat="48.64069" lon="1.80102">
        <ele>153</ele>
        <time>2024-05-27T12:23:29.847Z</time>
      </trkpt>
      <trkpt lat="48.64064" lon="1.80101">
        <ele>153</ele>
        <time>2024-05-27T12:23:34.117Z</time>
      </trkpt>
      <trkpt lat="48.64059" lon="1.80099">
        <ele>153</ele>
        <time>2024-05-27T12:23:38.117Z</time>
      </trkpt>
      <trkpt lat="48.64053" lon="1.80098">
        <ele>153</ele>
        <time>2024-05-27T12:23:42.702Z</time>
      </trkpt>
      <trkpt lat="48.64047" lon="1.80098">
        <ele>153</ele>
        <time>2024-05-27T12:23:47.126Z</time>
      </trkpt>
      <trkpt lat="48.64042" lon="1.80097">
        <ele>149</ele>
        <time>2024-05-27T12:23:51.748Z</time>
      </trkpt>
      <trkpt lat="48.64037" lon="1.80094">
        <ele>152</ele>
        <time>2024-05-27T12:23:56.117Z</time>
      </trkpt>
      <trkpt lat="48.64031" lon="1.80093">
        <ele>152</ele>
        <time>2024-05-27T12:24:00.683Z</time>
      </trkpt>
      <trkpt lat="48.64026" lon="1.8009">
        <ele>152</ele>
        <time>2024-05-27T12:24:05.117Z</time>
      </trkpt>
      <trkpt lat="48.64022" lon="1.80092">
        <ele>152</ele>
        <time>2024-05-27T12:24:09.885Z</time>
      </trkpt>
      <trkpt lat="48.64018" lon="1.80089">
        <ele>152</ele>
        <time>2024-05-27T12:24:14.027Z</time>
      </trkpt>
      <trkpt lat="48.64013" lon="1.80087">
        <ele>157</ele>
        <time>2024-05-27T12:24:18.117Z</time>
      </trkpt>
      <trkpt lat="48.64008" lon="1.80086">
        <ele>157</ele>
        <time>2024-05-27T12:24:23.116Z</time>
      </trkpt>
      <trkpt lat="48.64002" lon="1.80085">
        <ele>157</ele>
        <time>2024-05-27T12:24:27.775Z</time>
      </trkpt>
      <trkpt lat="48.63996" lon="1.80084">
        <ele>157</ele>
        <time>2024-05-27T12:24:32.348Z</time>
      </trkpt>
      <trkpt lat="48.63992" lon="1.80084">
        <ele>157</ele>
        <time>2024-05-27T12:24:36.431Z</time>
      </trkpt>
      <trkpt lat="48.63987" lon="1.80083">
        <ele>157</ele>
        <time>2024-05-27T12:24:41.106Z</time>
      </trkpt>
      <trkpt lat="48.63983" lon="1.80079">
        <ele>163</ele>
        <time>2024-05-27T12:24:45.381Z</time>
      </trkpt>
      <trkpt lat="48.63979" lon="1.80077">
        <ele>163</ele>
        <time>2024-05-27T12:24:49.525Z</time>
      </trkpt>
      <trkpt lat="48.63974" lon="1.80077">
        <ele>163</ele>
        <time>2024-05-27T12:24:53.760Z</time>
      </trkpt>
      <trkpt lat="48.63969" lon="1.80079">
        <ele>163</ele>
        <time>2024-05-27T12:24:58.461Z</time>
      </trkpt>
      <trkpt lat="48.63965" lon="1.80078">
        <ele>163</ele>
        <time>2024-05-27T12:25:02.705Z</time>
      </trkpt>
      <trkpt lat="48.63965" lon="1.8008">
        <ele>163</ele>
        <time>2024-05-27T12:25:07.117Z</time>
      </trkpt>
      <trkpt lat="48.63965" lon="1.80081">
        <ele>163</ele>
        <time>2024-05-27T12:25:12.062Z</time>
      </trkpt>
      <trkpt lat="48.63971" lon="1.80092">
        <ele>163</ele>
        <time>2024-05-27T12:25:17.116Z</time>
      </trkpt>
      <trkpt lat="48.63973" lon="1.80096">
        <ele>163</ele>
        <time>2024-05-27T12:25:21.977Z</time>
      </trkpt>
      <trkpt lat="48.63974" lon="1.80105">
        <ele>164</ele>
        <time>2024-05-27T12:25:27.117Z</time>
      </trkpt>
      <trkpt lat="48.63973" lon="1.80113">
        <ele>164</ele>
        <time>2024-05-27T12:25:32.117Z</time>
      </trkpt>
      <trkpt lat="48.63973" lon="1.80122">
        <ele>164</ele>
        <time>2024-05-27T12:25:37.117Z</time>
      </trkpt>
      <trkpt lat="48.63972" lon="1.80131">
        <ele>165</ele>
        <time>2024-05-27T12:25:41.942Z</time>
      </trkpt>
      <trkpt lat="48.63971" lon="1.8014">
        <ele>165</ele>
        <time>2024-05-27T12:25:46.117Z</time>
      </trkpt>
      <trkpt lat="48.63969" lon="1.80148">
        <ele>165</ele>
        <time>2024-05-27T12:25:50.661Z</time>
      </trkpt>
      <trkpt lat="48.6397" lon="1.80156">
        <ele>165</ele>
        <time>2024-05-27T12:25:55.021Z</time>
      </trkpt>
      <trkpt lat="48.63971" lon="1.80164">
        <ele>165</ele>
        <time>2024-05-27T12:25:59.116Z</time>
      </trkpt>
      <trkpt lat="48.63971" lon="1.80172">
        <ele>165</ele>
        <time>2024-05-27T12:26:03.342Z</time>
      </trkpt>
      <trkpt lat="48.6397" lon="1.80181">
        <ele>167</ele>
        <time>2024-05-27T12:26:07.581Z</time>
      </trkpt>
      <trkpt lat="48.63971" lon="1.80188">
        <ele>167</ele>
        <time>2024-05-27T12:26:11.660Z</time>
      </trkpt>
      <trkpt lat="48.63971" lon="1.80195">
        <ele>167</ele>
        <time>2024-05-27T12:26:15.794Z</time>
      </trkpt>
      <trkpt lat="48.63971" lon="1.80202">
        <ele>167</ele>
        <time>2024-05-27T12:26:20.117Z</time>
      </trkpt>
      <trkpt lat="48.63973" lon="1.80209">
        <ele>168</ele>
        <time>2024-05-27T12:26:24.663Z</time>
      </trkpt>
      <trkpt lat="48.63974" lon="1.80215">
        <ele>168</ele>
        <time>2024-05-27T12:26:29.064Z</time>
      </trkpt>
      <trkpt lat="48.63975" lon="1.80222">
        <ele>168</ele>
        <time>2024-05-27T12:26:33.603Z</time>
      </trkpt>
      <trkpt lat="48.63976" lon="1.80228">
        <ele>168</ele>
        <time>2024-05-27T12:26:37.903Z</time>
      </trkpt>
      <trkpt lat="48.63977" lon="1.80234">
        <ele>168</ele>
        <time>2024-05-27T12:26:42.117Z</time>
      </trkpt>
      <trkpt lat="48.6398" lon="1.80236">
        <ele>168</ele>
        <time>2024-05-27T12:26:46.383Z</time>
      </trkpt>
      <trkpt lat="48.63984" lon="1.80232">
        <ele>168</ele>
        <time>2024-05-27T12:26:51.116Z</time>
      </trkpt>
      <trkpt lat="48.63989" lon="1.8023">
        <ele>165</ele>
        <time>2024-05-27T12:26:55.860Z</time>
      </trkpt>
      <trkpt lat="48.63994" lon="1.80228">
        <ele>165</ele>
        <time>2024-05-27T12:27:00.298Z</time>
      </trkpt>
      <trkpt lat="48.63999" lon="1.80229">
        <ele>165</ele>
        <time>2024-05-27T12:27:04.674Z</time>
      </trkpt>
      <trkpt lat="48.64001" lon="1.80231">
        <ele>165</ele>
        <time>2024-05-27T12:27:06.117Z</time>
      </trkpt>
      <trkpt lat="48.6401" lon="1.80232">
        <ele>165</ele>
        <time>2024-05-27T12:27:14.915Z</time>
      </trkpt>
      <trkpt lat="48.64013" lon="1.80233">
        <ele>165</ele>
        <time>2024-05-27T12:27:19.117Z</time>
      </trkpt>
      <trkpt lat="48.64017" lon="1.80234">
        <ele>160</ele>
        <time>2024-05-27T12:27:23.525Z</time>
      </trkpt>
      <trkpt lat="48.64021" lon="1.80237">
        <ele>160</ele>
        <time>2024-05-27T12:27:28.117Z</time>
      </trkpt>
      <trkpt lat="48.64026" lon="1.80235">
        <ele>160</ele>
        <time>2024-05-27T12:27:32.839Z</time>
      </trkpt>
      <trkpt lat="48.64029" lon="1.8023">
        <ele>160</ele>
        <time>2024-05-27T12:27:36.904Z</time>
      </trkpt>
      <trkpt lat="48.64033" lon="1.80225">
        <ele>160</ele>
        <time>2024-05-27T12:27:41.008Z</time>
      </trkpt>
      <trkpt lat="48.64034" lon="1.80218">
        <ele>160</ele>
        <time>2024-05-27T12:27:45.566Z</time>
      </trkpt>
      <trkpt lat="48.64035" lon="1.80216">
        <ele>160</ele>
        <time>2024-05-27T12:27:49.762Z</time>
      </trkpt>
      <trkpt lat="48.64027" lon="1.80218">
        <ele>160</ele>
        <time>2024-05-27T12:27:54.117Z</time>
      </trkpt>
      <trkpt lat="48.64025" lon="1.80215">
        <ele>160</ele>
        <time>2024-05-27T12:27:59.117Z</time>
      </trkpt>
      <trkpt lat="48.64024" lon="1.80216">
        <ele>160</ele>
        <time>2024-05-27T12:28:04.116Z</time>
      </trkpt>
      <trkpt lat="48.64025" lon="1.80223">
        <ele>160</ele>
        <time>2024-05-27T12:28:48.116Z</time>
      </trkpt>
      <trkpt lat="48.64026" lon="1.80224">
        <ele>160</ele>
        <time>2024-05-27T12:28:53.116Z</time>
      </trkpt>
      <trkpt lat="48.6403" lon="1.80226">
        <ele>160</ele>
        <time>2024-05-27T12:28:58.116Z</time>
      </trkpt>
      <trkpt lat="48.64032" lon="1.80221">
        <ele>160</ele>
        <time>2024-05-27T12:29:03.116Z</time>
      </trkpt>
      <trkpt lat="48.64034" lon="1.80218">
        <ele>160</ele>
        <time>2024-05-27T12:29:05.116Z</time>
      </trkpt>
      <trkpt lat="48.64039" lon="1.80216">
        <ele>160</ele>
        <time>2024-05-27T12:29:14.526Z</time>
      </trkpt>
      <trkpt lat="48.64044" lon="1.8022">
        <ele>156</ele>
        <time>2024-05-27T12:29:19.092Z</time>
      </trkpt>
      <trkpt lat="48.64045" lon="1.80215">
        <ele>156</ele>
        <time>2024-05-27T12:29:23.482Z</time>
      </trkpt>
      <trkpt lat="48.64047" lon="1.80208">
        <ele>156</ele>
        <time>2024-05-27T12:29:28.115Z</time>
      </trkpt>
      <trkpt lat="48.64051" lon="1.8021">
        <ele>156</ele>
        <time>2024-05-27T12:30:16.116Z</time>
      </trkpt>
      <trkpt lat="48.64052" lon="1.80205">
        <ele>156</ele>
        <time>2024-05-27T12:30:20.697Z</time>
      </trkpt>
      <trkpt lat="48.64053" lon="1.80199">
        <ele>156</ele>
        <time>2024-05-27T12:30:24.937Z</time>
      </trkpt>
      <trkpt lat="48.64057" lon="1.80196">
        <ele>156</ele>
        <time>2024-05-27T12:30:29.460Z</time>
      </trkpt>
      <trkpt lat="48.64061" lon="1.80194">
        <ele>156</ele>
        <time>2024-05-27T12:30:33.565Z</time>
      </trkpt>
      <trkpt lat="48.64065" lon="1.8019">
        <ele>156</ele>
        <time>2024-05-27T12:30:38.062Z</time>
      </trkpt>
      <trkpt lat="48.64068" lon="1.80185">
        <ele>156</ele>
        <time>2024-05-27T12:30:43.116Z</time>
      </trkpt>
      <trkpt lat="48.64072" lon="1.80179">
        <ele>155</ele>
        <time>2024-05-27T12:30:47.661Z</time>
      </trkpt>
      <trkpt lat="48.64075" lon="1.80173">
        <ele>155</ele>
        <time>2024-05-27T12:30:51.979Z</time>
      </trkpt>
      <trkpt lat="48.64078" lon="1.80166">
        <ele>155</ele>
        <time>2024-05-27T12:30:56.483Z</time>
      </trkpt>
      <trkpt lat="48.64082" lon="1.8016">
        <ele>155</ele>
        <time>2024-05-27T12:31:00.748Z</time>
      </trkpt>
      <trkpt lat="48.64085" lon="1.80154">
        <ele>155</ele>
        <time>2024-05-27T12:31:05.116Z</time>
      </trkpt>
      <trkpt lat="48.64087" lon="1.80149">
        <ele>152</ele>
        <time>2024-05-27T12:31:09.165Z</time>
      </trkpt>
      <trkpt lat="48.64094" lon="1.80133">
        <ele>152</ele>
        <time>2024-05-27T12:31:32.116Z</time>
      </trkpt>
      <trkpt lat="48.64094" lon="1.80132">
        <ele>152</ele>
        <time>2024-05-27T12:31:37.116Z</time>
      </trkpt>
      <trkpt lat="48.64094" lon="1.80132">
        <ele>152</ele>
        <time>2024-05-27T12:31:42.116Z</time>
      </trkpt>
      <trkpt lat="48.64094" lon="1.8013">
        <ele>152</ele>
        <time>2024-05-27T12:31:47.116Z</time>
      </trkpt>
      <trkpt lat="48.64093" lon="1.80129">
        <ele>152</ele>
        <time>2024-05-27T12:31:52.116Z</time>
      </trkpt>
      <trkpt lat="48.64095" lon="1.80124">
        <ele>150</ele>
        <time>2024-05-27T12:32:31.116Z</time>
      </trkpt>
      <trkpt lat="48.64098" lon="1.80121">
        <ele>147</ele>
        <time>2024-05-27T12:32:35.116Z</time>
      </trkpt>
      <trkpt lat="48.64104" lon="1.80122">
        <ele>147</ele>
        <time>2024-05-27T12:32:39.896Z</time>
      </trkpt>
      <trkpt lat="48.64107" lon="1.8013">
        <ele>148</ele>
        <time>2024-05-27T12:32:44.461Z</time>
      </trkpt>
      <trkpt lat="48.64112" lon="1.80138">
        <ele>148</ele>
        <time>2024-05-27T12:32:49.116Z</time>
      </trkpt>
      <trkpt lat="48.64113" lon="1.80146">
        <ele>148</ele>
        <time>2024-05-27T12:32:53.720Z</time>
      </trkpt>
      <trkpt lat="48.64113" lon="1.80152">
        <ele>148</ele>
        <time>2024-05-27T12:32:57.780Z</time>
      </trkpt>
      <trkpt lat="48.64112" lon="1.80159">
        <ele>150</ele>
        <time>2024-05-27T12:33:02.116Z</time>
      </trkpt>
      <trkpt lat="48.64112" lon="1.80167">
        <ele>150</ele>
        <time>2024-05-27T12:33:06.959Z</time>
      </trkpt>
      <trkpt lat="48.64112" lon="1.80175">
        <ele>150</ele>
        <time>2024-05-27T12:33:11.116Z</time>
      </trkpt>
      <trkpt lat="48.64112" lon="1.80182">
        <ele>153</ele>
        <time>2024-05-27T12:33:15.116Z</time>
      </trkpt>
      <trkpt lat="48.64113" lon="1.80189">
        <ele>153</ele>
        <time>2024-05-27T12:33:19.289Z</time>
      </trkpt>
      <trkpt lat="48.64113" lon="1.80197">
        <ele>153</ele>
        <time>2024-05-27T12:33:23.504Z</time>
      </trkpt>
      <trkpt lat="48.64113" lon="1.80205">
        <ele>153</ele>
        <time>2024-05-27T12:33:28.116Z</time>
      </trkpt>
      <trkpt lat="48.64112" lon="1.80213">
        <ele>154</ele>
        <time>2024-05-27T12:33:32.863Z</time>
      </trkpt>
      <trkpt lat="48.64113" lon="1.80221">
        <ele>154</ele>
        <time>2024-05-27T12:33:37.497Z</time>
      </trkpt>
      <trkpt lat="48.64112" lon="1.8023">
        <ele>154</ele>
        <time>2024-05-27T12:33:42.103Z</time>
      </trkpt>
      <trkpt lat="48.64112" lon="1.80238">
        <ele>153</ele>
        <time>2024-05-27T12:33:46.882Z</time>
      </trkpt>
      <trkpt lat="48.6411" lon="1.80246">
        <ele>153</ele>
        <time>2024-05-27T12:33:51.116Z</time>
      </trkpt>
      <trkpt lat="48.64108" lon="1.80254">
        <ele>153</ele>
        <time>2024-05-27T12:33:55.824Z</time>
      </trkpt>
      <trkpt lat="48.64106" lon="1.80262">
        <ele>153</ele>
        <time>2024-05-27T12:34:00.099Z</time>
      </trkpt>
      <trkpt lat="48.64104" lon="1.80269">
        <ele>151</ele>
        <time>2024-05-27T12:34:04.116Z</time>
      </trkpt>
      <trkpt lat="48.64103" lon="1.8028">
        <ele>151</ele>
        <time>2024-05-27T12:34:08.795Z</time>
      </trkpt>
      <trkpt lat="48.64104" lon="1.80289">
        <ele>151</ele>
        <time>2024-05-27T12:34:13.116Z</time>
      </trkpt>
      <trkpt lat="48.64103" lon="1.80298">
        <ele>147</ele>
        <time>2024-05-27T12:34:17.622Z</time>
      </trkpt>
      <trkpt lat="48.64103" lon="1.80307">
        <ele>147</ele>
        <time>2024-05-27T12:34:22.017Z</time>
      </trkpt>
      <trkpt lat="48.64101" lon="1.80316">
        <ele>147</ele>
        <time>2024-05-27T12:34:26.923Z</time>
      </trkpt>
      <trkpt lat="48.641" lon="1.80324">
        <ele>146</ele>
        <time>2024-05-27T12:34:31.060Z</time>
      </trkpt>
      <trkpt lat="48.64101" lon="1.80334">
        <ele>146</ele>
        <time>2024-05-27T12:34:35.116Z</time>
      </trkpt>
      <trkpt lat="48.64101" lon="1.80343">
        <ele>146</ele>
        <time>2024-05-27T12:34:39.576Z</time>
      </trkpt>
      <trkpt lat="48.64102" lon="1.80351">
        <ele>146</ele>
        <time>2024-05-27T12:34:44.116Z</time>
      </trkpt>
      <trkpt lat="48.64103" lon="1.8036">
        <ele>146</ele>
        <time>2024-05-27T12:34:48.662Z</time>
      </trkpt>
      <trkpt lat="48.64104" lon="1.80368">
        <ele>146</ele>
        <time>2024-05-27T12:34:52.860Z</time>
      </trkpt>
      <trkpt lat="48.64107" lon="1.80376">
        <ele>145</ele>
        <time>2024-05-27T12:34:57.024Z</time>
      </trkpt>
      <trkpt lat="48.64108" lon="1.80383">
        <ele>145</ele>
        <time>2024-05-27T12:35:01.119Z</time>
      </trkpt>
      <trkpt lat="48.6411" lon="1.8039">
        <ele>145</ele>
        <time>2024-05-27T12:35:05.359Z</time>
      </trkpt>
      <trkpt lat="48.64112" lon="1.80398">
        <ele>145</ele>
        <time>2024-05-27T12:35:09.600Z</time>
      </trkpt>
      <trkpt lat="48.64113" lon="1.80401">
        <ele>145</ele>
        <time>2024-05-27T12:35:10.744Z</time>
      </trkpt>
      <trkpt lat="48.64119" lon="1.80412">
        <ele>146</ele>
        <time>2024-05-27T12:35:19.981Z</time>
      </trkpt>
      <trkpt lat="48.64119" lon="1.80422">
        <ele>146</ele>
        <time>2024-05-27T12:35:24.115Z</time>
      </trkpt>
      <trkpt lat="48.6412" lon="1.80432">
        <ele>147</ele>
        <time>2024-05-27T12:35:28.760Z</time>
      </trkpt>
      <trkpt lat="48.6412" lon="1.8044">
        <ele>147</ele>
        <time>2024-05-27T12:35:33.005Z</time>
      </trkpt>
      <trkpt lat="48.64123" lon="1.8045">
        <ele>147</ele>
        <time>2024-05-27T12:35:37.762Z</time>
      </trkpt>
      <trkpt lat="48.64126" lon="1.80457">
        <ele>146</ele>
        <time>2024-05-27T12:35:42.116Z</time>
      </trkpt>
      <trkpt lat="48.64129" lon="1.80463">
        <ele>146</ele>
        <time>2024-05-27T12:35:46.600Z</time>
      </trkpt>
      <trkpt lat="48.6413" lon="1.80472">
        <ele>146</ele>
        <time>2024-05-27T12:35:50.988Z</time>
      </trkpt>
      <trkpt lat="48.64133" lon="1.80481">
        <ele>146</ele>
        <time>2024-05-27T12:35:55.100Z</time>
      </trkpt>
      <trkpt lat="48.64134" lon="1.8049">
        <ele>146</ele>
        <time>2024-05-27T12:35:59.116Z</time>
      </trkpt>
      <trkpt lat="48.64134" lon="1.80498">
        <ele>146</ele>
        <time>2024-05-27T12:36:03.142Z</time>
      </trkpt>
      <trkpt lat="48.64135" lon="1.80506">
        <ele>146</ele>
        <time>2024-05-27T12:36:07.363Z</time>
      </trkpt>
      <trkpt lat="48.64137" lon="1.80513">
        <ele>146</ele>
        <time>2024-05-27T12:36:11.624Z</time>
      </trkpt>
      <trkpt lat="48.64137" lon="1.80522">
        <ele>145</ele>
        <time>2024-05-27T12:36:16.115Z</time>
      </trkpt>
      <trkpt lat="48.64135" lon="1.8053">
        <ele>145</ele>
        <time>2024-05-27T12:36:20.573Z</time>
      </trkpt>
      <trkpt lat="48.64135" lon="1.80538">
        <ele>145</ele>
        <time>2024-05-27T12:36:24.689Z</time>
      </trkpt>
      <trkpt lat="48.64136" lon="1.80546">
        <ele>144</ele>
        <time>2024-05-27T12:36:29.031Z</time>
      </trkpt>
      <trkpt lat="48.64137" lon="1.80553">
        <ele>144</ele>
        <time>2024-05-27T12:36:33.116Z</time>
      </trkpt>
      <trkpt lat="48.64139" lon="1.80556">
        <ele>144</ele>
        <time>2024-05-27T12:36:37.698Z</time>
      </trkpt>
      <trkpt lat="48.64137" lon="1.80567">
        <ele>144</ele>
        <time>2024-05-27T12:36:42.116Z</time>
      </trkpt>
      <trkpt lat="48.64141" lon="1.80576">
        <ele>145</ele>
        <time>2024-05-27T12:36:46.178Z</time>
      </trkpt>
      <trkpt lat="48.64143" lon="1.80586">
        <ele>145</ele>
        <time>2024-05-27T12:36:50.988Z</time>
      </trkpt>
      <trkpt lat="48.64145" lon="1.80594">
        <ele>145</ele>
        <time>2024-05-27T12:36:55.012Z</time>
      </trkpt>
      <trkpt lat="48.64142" lon="1.80605">
        <ele>146</ele>
        <time>2024-05-27T12:36:59.730Z</time>
      </trkpt>
      <trkpt lat="48.64142" lon="1.80613">
        <ele>146</ele>
        <time>2024-05-27T12:37:04.050Z</time>
      </trkpt>
      <trkpt lat="48.64142" lon="1.80622">
        <ele>146</ele>
        <time>2024-05-27T12:37:09.115Z</time>
      </trkpt>
      <trkpt lat="48.64142" lon="1.8063">
        <ele>147</ele>
        <time>2024-05-27T12:37:13.870Z</time>
      </trkpt>
      <trkpt lat="48.64145" lon="1.80641">
        <ele>147</ele>
        <time>2024-05-27T12:37:30.396Z</time>
      </trkpt>
      <trkpt lat="48.64145" lon="1.80628">
        <ele>147</ele>
        <time>2024-05-27T12:37:34.897Z</time>
      </trkpt>
      <trkpt lat="48.64144" lon="1.80621">
        <ele>146</ele>
        <time>2024-05-27T12:37:39.376Z</time>
      </trkpt>
      <trkpt lat="48.64142" lon="1.80613">
        <ele>146</ele>
        <time>2024-05-27T12:37:43.569Z</time>
      </trkpt>
      <trkpt lat="48.64143" lon="1.80606">
        <ele>146</ele>
        <time>2024-05-27T12:37:47.913Z</time>
      </trkpt>
      <trkpt lat="48.64148" lon="1.80605">
        <ele>146</ele>
        <time>2024-05-27T12:37:52.032Z</time>
      </trkpt>
      <trkpt lat="48.64153" lon="1.80608">
        <ele>146</ele>
        <time>2024-05-27T12:37:56.115Z</time>
      </trkpt>
      <trkpt lat="48.64158" lon="1.80608">
        <ele>146</ele>
        <time>2024-05-27T12:38:00.506Z</time>
      </trkpt>
      <trkpt lat="48.64162" lon="1.80606">
        <ele>146</ele>
        <time>2024-05-27T12:38:04.937Z</time>
      </trkpt>
      <trkpt lat="48.64167" lon="1.80602">
        <ele>146</ele>
        <time>2024-05-27T12:38:09.115Z</time>
      </trkpt>
      <trkpt lat="48.64171" lon="1.80598">
        <ele>146</ele>
        <time>2024-05-27T12:38:13.579Z</time>
      </trkpt>
      <trkpt lat="48.64177" lon="1.80598">
        <ele>146</ele>
        <time>2024-05-27T12:38:17.673Z</time>
      </trkpt>
      <trkpt lat="48.64183" lon="1.80592">
        <ele>148</ele>
        <time>2024-05-27T12:38:22.115Z</time>
      </trkpt>
      <trkpt lat="48.64185" lon="1.8058">
        <ele>148</ele>
        <time>2024-05-27T12:38:26.990Z</time>
      </trkpt>
      <trkpt lat="48.64189" lon="1.80575">
        <ele>148</ele>
        <time>2024-05-27T12:38:31.115Z</time>
      </trkpt>
      <trkpt lat="48.64191" lon="1.80566">
        <ele>148</ele>
        <time>2024-05-27T12:38:35.231Z</time>
      </trkpt>
      <trkpt lat="48.64197" lon="1.80559">
        <ele>148</ele>
        <time>2024-05-27T12:38:40.115Z</time>
      </trkpt>
      <trkpt lat="48.642" lon="1.80551">
        <ele>148</ele>
        <time>2024-05-27T12:38:44.409Z</time>
      </trkpt>
      <trkpt lat="48.64204" lon="1.80544">
        <ele>148</ele>
        <time>2024-05-27T12:38:48.605Z</time>
      </trkpt>
      <trkpt lat="48.64209" lon="1.80539">
        <ele>149</ele>
        <time>2024-05-27T12:38:53.053Z</time>
      </trkpt>
      <trkpt lat="48.64215" lon="1.80538">
        <ele>149</ele>
        <time>2024-05-27T12:38:57.115Z</time>
      </trkpt>
      <trkpt lat="48.64217" lon="1.80535">
        <ele>149</ele>
        <time>2024-05-27T12:39:02.067Z</time>
      </trkpt>
      <trkpt lat="48.64219" lon="1.80532">
        <ele>149</ele>
        <time>2024-05-27T12:39:06.115Z</time>
      </trkpt>
      <trkpt lat="48.6422" lon="1.80526">
        <ele>149</ele>
        <time>2024-05-27T12:39:11.115Z</time>
      </trkpt>
      <trkpt lat="48.64221" lon="1.80525">
        <ele>149</ele>
        <time>2024-05-27T12:39:15.852Z</time>
      </trkpt>
      <trkpt lat="48.64222" lon="1.80521">
        <ele>149</ele>
        <time>2024-05-27T12:39:19.991Z</time>
      </trkpt>
      <trkpt lat="48.64224" lon="1.80518">
        <ele>149</ele>
        <time>2024-05-27T12:39:24.115Z</time>
      </trkpt>
      <trkpt lat="48.64226" lon="1.80513">
        <ele>149</ele>
        <time>2024-05-27T12:39:28.114Z</time>
      </trkpt>
      <trkpt lat="48.64227" lon="1.80509">
        <ele>149</ele>
        <time>2024-05-27T12:39:32.513Z</time>
      </trkpt>
      <trkpt lat="48.64232" lon="1.80508">
        <ele>149</ele>
        <time>2024-05-27T12:39:37.115Z</time>
      </trkpt>
      <trkpt lat="48.64237" lon="1.80508">
        <ele>150</ele>
        <time>2024-05-27T12:41:19.548Z</time>
      </trkpt>
      <trkpt lat="48.64238" lon="1.80506">
        <ele>150</ele>
        <time>2024-05-27T12:41:24.114Z</time>
      </trkpt>
      <trkpt lat="48.64238" lon="1.80498">
        <ele>150</ele>
        <time>2024-05-27T12:41:34.115Z</time>
      </trkpt>
      <trkpt lat="48.64238" lon="1.80495">
        <ele>150</ele>
        <time>2024-05-27T12:41:39.115Z</time>
      </trkpt>
      <trkpt lat="48.64237" lon="1.80493">
        <ele>150</ele>
        <time>2024-05-27T12:41:44.115Z</time>
      </trkpt>
      <trkpt lat="48.64238" lon="1.80483">
        <ele>151</ele>
        <time>2024-05-27T12:42:24.115Z</time>
      </trkpt>
      <trkpt lat="48.64239" lon="1.80482">
        <ele>151</ele>
        <time>2024-05-27T12:42:28.114Z</time>
      </trkpt>
      <trkpt lat="48.6424" lon="1.80483">
        <ele>151</ele>
        <time>2024-05-27T12:42:33.115Z</time>
      </trkpt>
      <trkpt lat="48.64243" lon="1.80483">
        <ele>151</ele>
        <time>2024-05-27T12:42:37.833Z</time>
      </trkpt>
      <trkpt lat="48.6425" lon="1.80479">
        <ele>151</ele>
        <time>2024-05-27T12:42:43.046Z</time>
      </trkpt>
      <trkpt lat="48.6427" lon="1.80488">
        <ele>150</ele>
        <time>2024-05-27T12:43:26.114Z</time>
      </trkpt>
      <trkpt lat="48.6427" lon="1.8049">
        <ele>150</ele>
        <time>2024-05-27T12:43:31.114Z</time>
      </trkpt>
      <trkpt lat="48.6427" lon="1.80492">
        <ele>150</ele>
        <time>2024-05-27T12:43:36.069Z</time>
      </trkpt>
      <trkpt lat="48.64272" lon="1.80504">
        <ele>150</ele>
        <time>2024-05-27T12:43:40.987Z</time>
      </trkpt>
      <trkpt lat="48.64274" lon="1.80507">
        <ele>150</ele>
        <time>2024-05-27T12:43:45.114Z</time>
      </trkpt>
      <trkpt lat="48.64277" lon="1.80511">
        <ele>150</ele>
        <time>2024-05-27T12:43:50.114Z</time>
      </trkpt>
      <trkpt lat="48.64281" lon="1.80517">
        <ele>149</ele>
        <time>2024-05-27T12:43:54.595Z</time>
      </trkpt>
      <trkpt lat="48.64284" lon="1.80524">
        <ele>149</ele>
        <time>2024-05-27T12:43:59.113Z</time>
      </trkpt>
      <trkpt lat="48.64284" lon="1.80532">
        <ele>149</ele>
        <time>2024-05-27T12:44:03.113Z</time>
      </trkpt>
      <trkpt lat="48.64283" lon="1.80549">
        <ele>148</ele>
        <time>2024-05-27T12:44:13.114Z</time>
      </trkpt>
      <trkpt lat="48.64283" lon="1.80549">
        <ele>148</ele>
        <time>2024-05-27T12:44:18.114Z</time>
      </trkpt>
      <trkpt lat="48.64283" lon="1.8055">
        <ele>148</ele>
        <time>2024-05-27T12:44:23.114Z</time>
      </trkpt>
      <trkpt lat="48.64286" lon="1.80557">
        <ele>148</ele>
        <time>2024-05-27T12:44:27.705Z</time>
      </trkpt>
      <trkpt lat="48.64291" lon="1.80568">
        <ele>148</ele>
        <time>2024-05-27T12:44:31.789Z</time>
      </trkpt>
      <trkpt lat="48.64298" lon="1.80578">
        <ele>147</ele>
        <time>2024-05-27T12:44:37.089Z</time>
      </trkpt>
      <trkpt lat="48.64301" lon="1.80587">
        <ele>147</ele>
        <time>2024-05-27T12:44:41.312Z</time>
      </trkpt>
      <trkpt lat="48.64304" lon="1.80596">
        <ele>147</ele>
        <time>2024-05-27T12:44:45.940Z</time>
      </trkpt>
      <trkpt lat="48.64307" lon="1.80604">
        <ele>145</ele>
        <time>2024-05-27T12:44:49.988Z</time>
      </trkpt>
      <trkpt lat="48.64308" lon="1.80611">
        <ele>145</ele>
        <time>2024-05-27T12:44:54.114Z</time>
      </trkpt>
      <trkpt lat="48.64311" lon="1.80618">
        <ele>145</ele>
        <time>2024-05-27T12:44:58.609Z</time>
      </trkpt>
      <trkpt lat="48.64316" lon="1.80625">
        <ele>145</ele>
        <time>2024-05-27T12:45:02.910Z</time>
      </trkpt>
      <trkpt lat="48.64319" lon="1.80633">
        <ele>145</ele>
        <time>2024-05-27T12:45:07.114Z</time>
      </trkpt>
      <trkpt lat="48.64323" lon="1.8064">
        <ele>143</ele>
        <time>2024-05-27T12:45:12.114Z</time>
      </trkpt>
      <trkpt lat="48.64326" lon="1.80644">
        <ele>143</ele>
        <time>2024-05-27T12:45:16.854Z</time>
      </trkpt>
      <trkpt lat="48.64328" lon="1.80653">
        <ele>143</ele>
        <time>2024-05-27T12:45:21.114Z</time>
      </trkpt>
      <trkpt lat="48.64331" lon="1.8066">
        <ele>143</ele>
        <time>2024-05-27T12:45:25.309Z</time>
      </trkpt>
      <trkpt lat="48.64334" lon="1.80669">
        <ele>143</ele>
        <time>2024-05-27T12:45:29.874Z</time>
      </trkpt>
      <trkpt lat="48.64336" lon="1.80676">
        <ele>143</ele>
        <time>2024-05-27T12:45:34.114Z</time>
      </trkpt>
      <trkpt lat="48.6434" lon="1.80682">
        <ele>144</ele>
        <time>2024-05-27T12:45:38.848Z</time>
      </trkpt>
      <trkpt lat="48.6434" lon="1.80689">
        <ele>144</ele>
        <time>2024-05-27T12:45:43.113Z</time>
      </trkpt>
      <trkpt lat="48.64345" lon="1.807">
        <ele>144</ele>
        <time>2024-05-27T12:45:48.114Z</time>
      </trkpt>
      <trkpt lat="48.64347" lon="1.80709">
        <ele>144</ele>
        <time>2024-05-27T12:45:52.870Z</time>
      </trkpt>
      <trkpt lat="48.64349" lon="1.80715">
        <ele>144</ele>
        <time>2024-05-27T12:45:56.990Z</time>
      </trkpt>
      <trkpt lat="48.6435" lon="1.80722">
        <ele>144</ele>
        <time>2024-05-27T12:46:01.126Z</time>
      </trkpt>
      <trkpt lat="48.64351" lon="1.80729">
        <ele>144</ele>
        <time>2024-05-27T12:46:05.769Z</time>
      </trkpt>
      <trkpt lat="48.64354" lon="1.80736">
        <ele>144</ele>
        <time>2024-05-27T12:46:10.114Z</time>
      </trkpt>
      <trkpt lat="48.64357" lon="1.80744">
        <ele>144</ele>
        <time>2024-05-27T12:46:14.848Z</time>
      </trkpt>
      <trkpt lat="48.64361" lon="1.80749">
        <ele>144</ele>
        <time>2024-05-27T12:46:18.867Z</time>
      </trkpt>
      <trkpt lat="48.64366" lon="1.80751">
        <ele>144</ele>
        <time>2024-05-27T12:46:23.435Z</time>
      </trkpt>
      <trkpt lat="48.6437" lon="1.80755">
        <ele>144</ele>
        <time>2024-05-27T12:46:27.655Z</time>
      </trkpt>
      <trkpt lat="48.64374" lon="1.80759">
        <ele>144</ele>
        <time>2024-05-27T12:46:32.119Z</time>
      </trkpt>
      <trkpt lat="48.64379" lon="1.80757">
        <ele>147</ele>
        <time>2024-05-27T12:46:37.114Z</time>
      </trkpt>
      <trkpt lat="48.64381" lon="1.80754">
        <ele>147</ele>
        <time>2024-05-27T12:46:41.114Z</time>
      </trkpt>
      <trkpt lat="48.64386" lon="1.80751">
        <ele>147</ele>
        <time>2024-05-27T12:46:46.113Z</time>
      </trkpt>
      <trkpt lat="48.6439" lon="1.80749">
        <ele>147</ele>
        <time>2024-05-27T12:46:50.268Z</time>
      </trkpt>
      <trkpt lat="48.64395" lon="1.80747">
        <ele>147</ele>
        <time>2024-05-27T12:46:54.567Z</time>
      </trkpt>
      <trkpt lat="48.64402" lon="1.80753">
        <ele>147</ele>
        <time>2024-05-27T12:46:59.145Z</time>
      </trkpt>
      <trkpt lat="48.64409" lon="1.80755">
        <ele>149</ele>
        <time>2024-05-27T12:47:03.667Z</time>
      </trkpt>
      <trkpt lat="48.64413" lon="1.80759">
        <ele>149</ele>
        <time>2024-05-27T12:47:08.114Z</time>
      </trkpt>
      <trkpt lat="48.64418" lon="1.80758">
        <ele>149</ele>
        <time>2024-05-27T12:47:12.624Z</time>
      </trkpt>
      <trkpt lat="48.64421" lon="1.80757">
        <ele>149</ele>
        <time>2024-05-27T12:47:16.645Z</time>
      </trkpt>
      <trkpt lat="48.64425" lon="1.8076">
        <ele>149</ele>
        <time>2024-05-27T12:47:20.707Z</time>
      </trkpt>
      <trkpt lat="48.64429" lon="1.80763">
        <ele>149</ele>
        <time>2024-05-27T12:47:25.114Z</time>
      </trkpt>
      <trkpt lat="48.64435" lon="1.80764">
        <ele>148</ele>
        <time>2024-05-27T12:47:29.873Z</time>
      </trkpt>
      <trkpt lat="48.64439" lon="1.80768">
        <ele>148</ele>
        <time>2024-05-27T12:47:34.565Z</time>
      </trkpt>
      <trkpt lat="48.64443" lon="1.80771">
        <ele>148</ele>
        <time>2024-05-27T12:47:38.812Z</time>
      </trkpt>
      <trkpt lat="48.64448" lon="1.80773">
        <ele>148</ele>
        <time>2024-05-27T12:47:43.287Z</time>
      </trkpt>
      <trkpt lat="48.64452" lon="1.80775">
        <ele>148</ele>
        <time>2024-05-27T12:47:47.485Z</time>
      </trkpt>
      <trkpt lat="48.64458" lon="1.80777">
        <ele>148</ele>
        <time>2024-05-27T12:47:52.067Z</time>
      </trkpt>
      <trkpt lat="48.64463" lon="1.80774">
        <ele>149</ele>
        <time>2024-05-27T12:47:56.751Z</time>
      </trkpt>
      <trkpt lat="48.64466" lon="1.80768">
        <ele>149</ele>
        <time>2024-05-27T12:48:00.847Z</time>
      </trkpt>
      <trkpt lat="48.64468" lon="1.80758">
        <ele>149</ele>
        <time>2024-05-27T12:48:05.114Z</time>
      </trkpt>
      <trkpt lat="48.6447" lon="1.80751">
        <ele>149</ele>
        <time>2024-05-27T12:48:09.525Z</time>
      </trkpt>
      <trkpt lat="48.64471" lon="1.80744">
        <ele>149</ele>
        <time>2024-05-27T12:48:13.586Z</time>
      </trkpt>
      <trkpt lat="48.64471" lon="1.80737">
        <ele>149</ele>
        <time>2024-05-27T12:48:17.664Z</time>
      </trkpt>
      <trkpt lat="48.64472" lon="1.80736">
        <ele>149</ele>
        <time>2024-05-27T12:48:18.114Z</time>
      </trkpt>
      <trkpt lat="48.64473" lon="1.80719">
        <ele>150</ele>
        <time>2024-05-27T12:48:27.114Z</time>
      </trkpt>
      <trkpt lat="48.64474" lon="1.8071">
        <ele>150</ele>
        <time>2024-05-27T12:48:31.752Z</time>
      </trkpt>
      <trkpt lat="48.64474" lon="1.80704">
        <ele>150</ele>
        <time>2024-05-27T12:48:36.113Z</time>
      </trkpt>
      <trkpt lat="48.64472" lon="1.80697">
        <ele>150</ele>
        <time>2024-05-27T12:48:40.689Z</time>
      </trkpt>
      <trkpt lat="48.64473" lon="1.80689">
        <ele>150</ele>
        <time>2024-05-27T12:48:44.969Z</time>
      </trkpt>
      <trkpt lat="48.64473" lon="1.80682">
        <ele>150</ele>
        <time>2024-05-27T12:48:49.114Z</time>
      </trkpt>
      <trkpt lat="48.64473" lon="1.80674">
        <ele>150</ele>
        <time>2024-05-27T12:48:53.431Z</time>
      </trkpt>
      <trkpt lat="48.64472" lon="1.80667">
        <ele>150</ele>
        <time>2024-05-27T12:48:57.789Z</time>
      </trkpt>
      <trkpt lat="48.64473" lon="1.8066">
        <ele>150</ele>
        <time>2024-05-27T12:49:29.409Z</time>
      </trkpt>
      <trkpt lat="48.6447" lon="1.80667">
        <ele>150</ele>
        <time>2024-05-27T12:49:33.752Z</time>
      </trkpt>
      <trkpt lat="48.6447" lon="1.80673">
        <ele>150</ele>
        <time>2024-05-27T12:49:37.950Z</time>
      </trkpt>
      <trkpt lat="48.6447" lon="1.80681">
        <ele>150</ele>
        <time>2024-05-27T12:49:42.271Z</time>
      </trkpt>
      <trkpt lat="48.64471" lon="1.80688">
        <ele>150</ele>
        <time>2024-05-27T12:49:46.671Z</time>
      </trkpt>
      <trkpt lat="48.64472" lon="1.80688">
        <ele>150</ele>
        <time>2024-05-27T12:49:51.092Z</time>
      </trkpt>
      <trkpt lat="48.64471" lon="1.80693">
        <ele>150</ele>
        <time>2024-05-27T12:49:55.990Z</time>
      </trkpt>
      <trkpt lat="48.64471" lon="1.80698">
        <ele>150</ele>
        <time>2024-05-27T12:50:00.113Z</time>
      </trkpt>
      <trkpt lat="48.6447" lon="1.80698">
        <ele>150</ele>
        <time>2024-05-27T12:50:04.966Z</time>
      </trkpt>
      <trkpt lat="48.64469" lon="1.80706">
        <ele>150</ele>
        <time>2024-05-27T12:50:10.112Z</time>
      </trkpt>
      <trkpt lat="48.6447" lon="1.80711">
        <ele>150</ele>
        <time>2024-05-27T12:50:14.654Z</time>
      </trkpt>
      <trkpt lat="48.64471" lon="1.80716">
        <ele>150</ele>
        <time>2024-05-27T12:50:19.029Z</time>
      </trkpt>
      <trkpt lat="48.64472" lon="1.8072">
        <ele>150</ele>
        <time>2024-05-27T12:50:23.113Z</time>
      </trkpt>
      <trkpt lat="48.64473" lon="1.80725">
        <ele>150</ele>
        <time>2024-05-27T12:50:27.230Z</time>
      </trkpt>
      <trkpt lat="48.64472" lon="1.80731">
        <ele>150</ele>
        <time>2024-05-27T12:50:31.754Z</time>
      </trkpt>
      <trkpt lat="48.64471" lon="1.80737">
        <ele>149</ele>
        <time>2024-05-27T12:50:35.794Z</time>
      </trkpt>
      <trkpt lat="48.64472" lon="1.80743">
        <ele>149</ele>
        <time>2024-05-27T12:50:40.489Z</time>
      </trkpt>
      <trkpt lat="48.64471" lon="1.80751">
        <ele>149</ele>
        <time>2024-05-27T12:50:45.141Z</time>
      </trkpt>
      <trkpt lat="48.64468" lon="1.80759">
        <ele>149</ele>
        <time>2024-05-27T12:50:58.868Z</time>
      </trkpt>
      <trkpt lat="48.64468" lon="1.80759">
        <ele>149</ele>
        <time>2024-05-27T12:51:03.113Z</time>
      </trkpt>
      <trkpt lat="48.64467" lon="1.80763">
        <ele>149</ele>
        <time>2024-05-27T12:51:07.930Z</time>
      </trkpt>
      <trkpt lat="48.64466" lon="1.8077">
        <ele>149</ele>
        <time>2024-05-27T12:51:12.486Z</time>
      </trkpt>
      <trkpt lat="48.64464" lon="1.80776">
        <ele>149</ele>
        <time>2024-05-27T12:51:17.113Z</time>
      </trkpt>
      <trkpt lat="48.6446" lon="1.80776">
        <ele>149</ele>
        <time>2024-05-27T12:51:31.113Z</time>
      </trkpt>
      <trkpt lat="48.64458" lon="1.80777">
        <ele>148</ele>
        <time>2024-05-27T12:51:36.071Z</time>
      </trkpt>
      <trkpt lat="48.64455" lon="1.80776">
        <ele>148</ele>
        <time>2024-05-27T12:51:40.312Z</time>
      </trkpt>
      <trkpt lat="48.64453" lon="1.8078">
        <ele>148</ele>
        <time>2024-05-27T12:51:44.612Z</time>
      </trkpt>
      <trkpt lat="48.6445" lon="1.80789">
        <ele>148</ele>
        <time>2024-05-27T12:51:49.113Z</time>
      </trkpt>
      <trkpt lat="48.64448" lon="1.80798">
        <ele>147</ele>
        <time>2024-05-27T12:51:53.930Z</time>
      </trkpt>
      <trkpt lat="48.64447" lon="1.80805">
        <ele>147</ele>
        <time>2024-05-27T12:51:58.112Z</time>
      </trkpt>
      <trkpt lat="48.64444" lon="1.80812">
        <ele>147</ele>
        <time>2024-05-27T12:52:03.113Z</time>
      </trkpt>
      <trkpt lat="48.64441" lon="1.80819">
        <ele>147</ele>
        <time>2024-05-27T12:52:07.752Z</time>
      </trkpt>
      <trkpt lat="48.64439" lon="1.80825">
        <ele>146</ele>
        <time>2024-05-27T12:52:12.113Z</time>
      </trkpt>
      <trkpt lat="48.64435" lon="1.80832">
        <ele>146</ele>
        <time>2024-05-27T12:52:16.848Z</time>
      </trkpt>
      <trkpt lat="48.64432" lon="1.80838">
        <ele>146</ele>
        <time>2024-05-27T12:52:21.112Z</time>
      </trkpt>
      <trkpt lat="48.64429" lon="1.80846">
        <ele>147</ele>
        <time>2024-05-27T12:52:25.867Z</time>
      </trkpt>
      <trkpt lat="48.64425" lon="1.80853">
        <ele>146</ele>
        <time>2024-05-27T12:52:30.568Z</time>
      </trkpt>
      <trkpt lat="48.64422" lon="1.80859">
        <ele>146</ele>
        <time>2024-05-27T12:52:35.113Z</time>
      </trkpt>
      <trkpt lat="48.6442" lon="1.80865">
        <ele>146</ele>
        <time>2024-05-27T12:52:39.113Z</time>
      </trkpt>
      <trkpt lat="48.64416" lon="1.80871">
        <ele>146</ele>
        <time>2024-05-27T12:52:43.691Z</time>
      </trkpt>
      <trkpt lat="48.64413" lon="1.80877">
        <ele>146</ele>
        <time>2024-05-27T12:52:47.872Z</time>
      </trkpt>
      <trkpt lat="48.6441" lon="1.80882">
        <ele>146</ele>
        <time>2024-05-27T12:52:52.113Z</time>
      </trkpt>
      <trkpt lat="48.64407" lon="1.8089">
        <ele>146</ele>
        <time>2024-05-27T12:52:57.087Z</time>
      </trkpt>
      <trkpt lat="48.64404" lon="1.80897">
        <ele>146</ele>
        <time>2024-05-27T12:53:01.112Z</time>
      </trkpt>
      <trkpt lat="48.64402" lon="1.80904">
        <ele>150</ele>
        <time>2024-05-27T12:53:06.113Z</time>
      </trkpt>
      <trkpt lat="48.64399" lon="1.80912">
        <ele>150</ele>
        <time>2024-05-27T12:53:10.968Z</time>
      </trkpt>
      <trkpt lat="48.64395" lon="1.80917">
        <ele>150</ele>
        <time>2024-05-27T12:53:15.524Z</time>
      </trkpt>
      <trkpt lat="48.64392" lon="1.80923">
        <ele>150</ele>
        <time>2024-05-27T12:53:20.113Z</time>
      </trkpt>
      <trkpt lat="48.6439" lon="1.80929">
        <ele>150</ele>
        <time>2024-05-27T12:53:24.824Z</time>
      </trkpt>
      <trkpt lat="48.64386" lon="1.80936">
        <ele>151</ele>
        <time>2024-05-27T12:53:29.113Z</time>
      </trkpt>
      <trkpt lat="48.64383" lon="1.80943">
        <ele>151</ele>
        <time>2024-05-27T12:53:34.113Z</time>
      </trkpt>
      <trkpt lat="48.6438" lon="1.8095">
        <ele>151</ele>
        <time>2024-05-27T12:53:38.810Z</time>
      </trkpt>
      <trkpt lat="48.64377" lon="1.80957">
        <ele>151</ele>
        <time>2024-05-27T12:53:43.113Z</time>
      </trkpt>
      <trkpt lat="48.64374" lon="1.80963">
        <ele>151</ele>
        <time>2024-05-27T12:53:47.717Z</time>
      </trkpt>
      <trkpt lat="48.64372" lon="1.80968">
        <ele>151</ele>
        <time>2024-05-27T12:53:51.752Z</time>
      </trkpt>
      <trkpt lat="48.64369" lon="1.80976">
        <ele>151</ele>
        <time>2024-05-27T12:53:56.530Z</time>
      </trkpt>
      <trkpt lat="48.64366" lon="1.80982">
        <ele>151</ele>
        <time>2024-05-27T12:54:01.113Z</time>
      </trkpt>
      <trkpt lat="48.64364" lon="1.80988">
        <ele>151</ele>
        <time>2024-05-27T12:54:05.848Z</time>
      </trkpt>
      <trkpt lat="48.64362" lon="1.80995">
        <ele>151</ele>
        <time>2024-05-27T12:54:10.472Z</time>
      </trkpt>
      <trkpt lat="48.64358" lon="1.81004">
        <ele>151</ele>
        <time>2024-05-27T12:54:15.011Z</time>
      </trkpt>
      <trkpt lat="48.64355" lon="1.81009">
        <ele>151</ele>
        <time>2024-05-27T12:54:19.113Z</time>
      </trkpt>
      <trkpt lat="48.64351" lon="1.81016">
        <ele>150</ele>
        <time>2024-05-27T12:54:23.629Z</time>
      </trkpt>
      <trkpt lat="48.64349" lon="1.81021">
        <ele>150</ele>
        <time>2024-05-27T12:54:27.852Z</time>
      </trkpt>
      <trkpt lat="48.64346" lon="1.81029">
        <ele>150</ele>
        <time>2024-05-27T12:54:32.528Z</time>
      </trkpt>
      <trkpt lat="48.64344" lon="1.81037">
        <ele>150</ele>
        <time>2024-05-27T12:54:37.092Z</time>
      </trkpt>
      <trkpt lat="48.64342" lon="1.81043">
        <ele>149</ele>
        <time>2024-05-27T12:54:41.113Z</time>
      </trkpt>
      <trkpt lat="48.64338" lon="1.81052">
        <ele>149</ele>
        <time>2024-05-27T12:54:46.068Z</time>
      </trkpt>
      <trkpt lat="48.64335" lon="1.81057">
        <ele>149</ele>
        <time>2024-05-27T12:54:50.112Z</time>
      </trkpt>
      <trkpt lat="48.6433" lon="1.81064">
        <ele>149</ele>
        <time>2024-05-27T12:54:55.113Z</time>
      </trkpt>
      <trkpt lat="48.64327" lon="1.81072">
        <ele>149</ele>
        <time>2024-05-27T12:54:59.614Z</time>
      </trkpt>
      <trkpt lat="48.64323" lon="1.81078">
        <ele>149</ele>
        <time>2024-05-27T12:55:04.113Z</time>
      </trkpt>
      <trkpt lat="48.64321" lon="1.81083">
        <ele>149</ele>
        <time>2024-05-27T12:55:08.791Z</time>
      </trkpt>
      <trkpt lat="48.64317" lon="1.8109">
        <ele>148</ele>
        <time>2024-05-27T12:55:13.113Z</time>
      </trkpt>
      <trkpt lat="48.64314" lon="1.81095">
        <ele>148</ele>
        <time>2024-05-27T12:55:18.021Z</time>
      </trkpt>
      <trkpt lat="48.64314" lon="1.81097">
        <ele>148</ele>
        <time>2024-05-27T12:55:19.113Z</time>
      </trkpt>
      <trkpt lat="48.64309" lon="1.81107">
        <ele>148</ele>
        <time>2024-05-27T12:55:28.014Z</time>
      </trkpt>
      <trkpt lat="48.64303" lon="1.81118">
        <ele>148</ele>
        <time>2024-05-27T12:55:32.975Z</time>
      </trkpt>
      <trkpt lat="48.64302" lon="1.81123">
        <ele>148</ele>
        <time>2024-05-27T12:55:37.070Z</time>
      </trkpt>
      <trkpt lat="48.64298" lon="1.81132">
        <ele>148</ele>
        <time>2024-05-27T12:55:41.548Z</time>
      </trkpt>
      <trkpt lat="48.64295" lon="1.81138">
        <ele>148</ele>
        <time>2024-05-27T12:55:45.610Z</time>
      </trkpt>
      <trkpt lat="48.64292" lon="1.81145">
        <ele>147</ele>
        <time>2024-05-27T12:55:50.046Z</time>
      </trkpt>
      <trkpt lat="48.64287" lon="1.81152">
        <ele>147</ele>
        <time>2024-05-27T12:55:54.552Z</time>
      </trkpt>
      <trkpt lat="48.64284" lon="1.81159">
        <ele>147</ele>
        <time>2024-05-27T12:55:59.113Z</time>
      </trkpt>
      <trkpt lat="48.6428" lon="1.81164">
        <ele>147</ele>
        <time>2024-05-27T12:56:03.732Z</time>
      </trkpt>
      <trkpt lat="48.64277" lon="1.81171">
        <ele>147</ele>
        <time>2024-05-27T12:56:08.112Z</time>
      </trkpt>
      <trkpt lat="48.64274" lon="1.81179">
        <ele>147</ele>
        <time>2024-05-27T12:56:12.947Z</time>
      </trkpt>
      <trkpt lat="48.64272" lon="1.81186">
        <ele>147</ele>
        <time>2024-05-27T12:56:17.529Z</time>
      </trkpt>
      <trkpt lat="48.64269" lon="1.81192">
        <ele>147</ele>
        <time>2024-05-27T12:56:21.540Z</time>
      </trkpt>
      <trkpt lat="48.64266" lon="1.81197">
        <ele>147</ele>
        <time>2024-05-27T12:56:25.652Z</time>
      </trkpt>
      <trkpt lat="48.64263" lon="1.81204">
        <ele>147</ele>
        <time>2024-05-27T12:56:30.113Z</time>
      </trkpt>
      <trkpt lat="48.6426" lon="1.81209">
        <ele>147</ele>
        <time>2024-05-27T12:56:35.089Z</time>
      </trkpt>
      <trkpt lat="48.64257" lon="1.81214">
        <ele>147</ele>
        <time>2024-05-27T12:56:39.113Z</time>
      </trkpt>
      <trkpt lat="48.64253" lon="1.81222">
        <ele>147</ele>
        <time>2024-05-27T12:56:44.113Z</time>
      </trkpt>
      <trkpt lat="48.64249" lon="1.81229">
        <ele>147</ele>
        <time>2024-05-27T12:56:48.887Z</time>
      </trkpt>
      <trkpt lat="48.64246" lon="1.81235">
        <ele>147</ele>
        <time>2024-05-27T12:56:53.467Z</time>
      </trkpt>
      <trkpt lat="48.64244" lon="1.81243">
        <ele>147</ele>
        <time>2024-05-27T12:56:58.008Z</time>
      </trkpt>
      <trkpt lat="48.64242" lon="1.8125">
        <ele>147</ele>
        <time>2024-05-27T12:57:02.113Z</time>
      </trkpt>
      <trkpt lat="48.64239" lon="1.81257">
        <ele>147</ele>
        <time>2024-05-27T12:57:06.754Z</time>
      </trkpt>
      <trkpt lat="48.64236" lon="1.81263">
        <ele>147</ele>
        <time>2024-05-27T12:57:11.754Z</time>
      </trkpt>
      <trkpt lat="48.64232" lon="1.8127">
        <ele>148</ele>
        <time>2024-05-27T12:57:16.113Z</time>
      </trkpt>
      <trkpt lat="48.64228" lon="1.81277">
        <ele>148</ele>
        <time>2024-05-27T12:57:20.471Z</time>
      </trkpt>
      <trkpt lat="48.64225" lon="1.81284">
        <ele>148</ele>
        <time>2024-05-27T12:57:24.925Z</time>
      </trkpt>
      <trkpt lat="48.64222" lon="1.8129">
        <ele>148</ele>
        <time>2024-05-27T12:57:29.548Z</time>
      </trkpt>
      <trkpt lat="48.64218" lon="1.81297">
        <ele>148</ele>
        <time>2024-05-27T12:57:34.113Z</time>
      </trkpt>
      <trkpt lat="48.64217" lon="1.81296">
        <ele>148</ele>
        <time>2024-05-27T12:57:34.970Z</time>
      </trkpt>
      <trkpt lat="48.64212" lon="1.81313">
        <ele>148</ele>
        <time>2024-05-27T12:57:43.748Z</time>
      </trkpt>
      <trkpt lat="48.64209" lon="1.81321">
        <ele>148</ele>
        <time>2024-05-27T12:57:48.112Z</time>
      </trkpt>
      <trkpt lat="48.64207" lon="1.81329">
        <ele>148</ele>
        <time>2024-05-27T12:57:52.690Z</time>
      </trkpt>
      <trkpt lat="48.64204" lon="1.81333">
        <ele>148</ele>
        <time>2024-05-27T12:57:57.113Z</time>
      </trkpt>
      <trkpt lat="48.64205" lon="1.81334">
        <ele>148</ele>
        <time>2024-05-27T12:58:02.111Z</time>
      </trkpt>
      <trkpt lat="48.642" lon="1.81337">
        <ele>148</ele>
        <time>2024-05-27T12:58:06.447Z</time>
      </trkpt>
      <trkpt lat="48.64192" lon="1.81334">
        <ele>148</ele>
        <time>2024-05-27T12:58:11.112Z</time>
      </trkpt>
      <trkpt lat="48.64186" lon="1.81332">
        <ele>148</ele>
        <time>2024-05-27T12:58:16.112Z</time>
      </trkpt>
      <trkpt lat="48.64179" lon="1.8133">
        <ele>148</ele>
        <time>2024-05-27T12:58:20.751Z</time>
      </trkpt>
      <trkpt lat="48.64174" lon="1.8133">
        <ele>148</ele>
        <time>2024-05-27T12:58:24.796Z</time>
      </trkpt>
      <trkpt lat="48.64169" lon="1.81332">
        <ele>148</ele>
        <time>2024-05-27T12:58:29.111Z</time>
      </trkpt>
      <trkpt lat="48.64165" lon="1.81336">
        <ele>148</ele>
        <time>2024-05-27T12:58:48.111Z</time>
      </trkpt>
      <trkpt lat="48.64163" lon="1.81336">
        <ele>148</ele>
        <time>2024-05-27T12:58:52.794Z</time>
      </trkpt>
      <trkpt lat="48.64154" lon="1.81346">
        <ele>148</ele>
        <time>2024-05-27T12:58:57.112Z</time>
      </trkpt>
      <trkpt lat="48.6415" lon="1.81351">
        <ele>148</ele>
        <time>2024-05-27T12:59:01.112Z</time>
      </trkpt>
      <trkpt lat="48.64148" lon="1.81357">
        <ele>148</ele>
        <time>2024-05-27T12:59:05.329Z</time>
      </trkpt>
      <trkpt lat="48.64147" lon="1.81365">
        <ele>148</ele>
        <time>2024-05-27T12:59:09.348Z</time>
      </trkpt>
      <trkpt lat="48.64146" lon="1.81373">
        <ele>148</ele>
        <time>2024-05-27T12:59:13.777Z</time>
      </trkpt>
      <trkpt lat="48.64146" lon="1.81381">
        <ele>148</ele>
        <time>2024-05-27T12:59:18.271Z</time>
      </trkpt>
      <trkpt lat="48.64148" lon="1.81385">
        <ele>148</ele>
        <time>2024-05-27T12:59:23.112Z</time>
      </trkpt>
      <trkpt lat="48.64147" lon="1.81386">
        <ele>148</ele>
        <time>2024-05-27T12:59:28.111Z</time>
      </trkpt>
      <trkpt lat="48.64147" lon="1.81386">
        <ele>148</ele>
        <time>2024-05-27T12:59:32.112Z</time>
      </trkpt>
      <trkpt lat="48.64146" lon="1.81393">
        <ele>148</ele>
        <time>2024-05-27T12:59:37.112Z</time>
      </trkpt>
      <trkpt lat="48.64146" lon="1.81401">
        <ele>148</ele>
        <time>2024-05-27T12:59:41.544Z</time>
      </trkpt>
      <trkpt lat="48.64152" lon="1.81405">
        <ele>149</ele>
        <time>2024-05-27T12:59:46.112Z</time>
      </trkpt>
      <trkpt lat="48.64152" lon="1.81405">
        <ele>149</ele>
        <time>2024-05-27T12:59:50.112Z</time>
      </trkpt>
      <trkpt lat="48.64152" lon="1.81407">
        <ele>149</ele>
        <time>2024-05-27T12:59:54.112Z</time>
      </trkpt>
      <trkpt lat="48.64152" lon="1.81408">
        <ele>149</ele>
        <time>2024-05-27T12:59:58.848Z</time>
      </trkpt>
      <trkpt lat="48.64152" lon="1.8142">
        <ele>149</ele>
        <time>2024-05-27T13:00:03.226Z</time>
      </trkpt>
      <trkpt lat="48.64151" lon="1.81435">
        <ele>150</ele>
        <time>2024-05-27T13:00:07.545Z</time>
      </trkpt>
      <trkpt lat="48.64149" lon="1.81443">
        <ele>150</ele>
        <time>2024-05-27T13:00:11.853Z</time>
      </trkpt>
      <trkpt lat="48.64149" lon="1.81444">
        <ele>150</ele>
        <time>2024-05-27T13:00:12.412Z</time>
      </trkpt>
      <trkpt lat="48.64141" lon="1.81459">
        <ele>152</ele>
        <time>2024-05-27T13:00:21.069Z</time>
      </trkpt>
      <trkpt lat="48.64137" lon="1.81466">
        <ele>152</ele>
        <time>2024-05-27T13:00:25.112Z</time>
      </trkpt>
      <trkpt lat="48.64134" lon="1.81472">
        <ele>152</ele>
        <time>2024-05-27T13:00:29.213Z</time>
      </trkpt>
      <trkpt lat="48.6413" lon="1.8148">
        <ele>152</ele>
        <time>2024-05-27T13:00:34.092Z</time>
      </trkpt>
      <trkpt lat="48.64126" lon="1.81487">
        <ele>152</ele>
        <time>2024-05-27T13:00:38.367Z</time>
      </trkpt>
      <trkpt lat="48.64124" lon="1.81495">
        <ele>152</ele>
        <time>2024-05-27T13:00:42.668Z</time>
      </trkpt>
      <trkpt lat="48.6412" lon="1.81502">
        <ele>152</ele>
        <time>2024-05-27T13:00:46.928Z</time>
      </trkpt>
      <trkpt lat="48.64117" lon="1.81509">
        <ele>152</ele>
        <time>2024-05-27T13:00:51.112Z</time>
      </trkpt>
      <trkpt lat="48.64113" lon="1.81516">
        <ele>151</ele>
        <time>2024-05-27T13:00:55.512Z</time>
      </trkpt>
      <trkpt lat="48.64109" lon="1.81522">
        <ele>151</ele>
        <time>2024-05-27T13:00:59.829Z</time>
      </trkpt>
      <trkpt lat="48.64105" lon="1.8153">
        <ele>151</ele>
        <time>2024-05-27T13:01:04.112Z</time>
      </trkpt>
      <trkpt lat="48.64102" lon="1.81537">
        <ele>151</ele>
        <time>2024-05-27T13:01:08.331Z</time>
      </trkpt>
      <trkpt lat="48.64098" lon="1.81545">
        <ele>151</ele>
        <time>2024-05-27T13:01:12.671Z</time>
      </trkpt>
      <trkpt lat="48.64095" lon="1.81551">
        <ele>150</ele>
        <time>2024-05-27T13:01:16.972Z</time>
      </trkpt>
      <trkpt lat="48.64092" lon="1.81558">
        <ele>150</ele>
        <time>2024-05-27T13:01:21.112Z</time>
      </trkpt>
      <trkpt lat="48.64088" lon="1.81567">
        <ele>150</ele>
        <time>2024-05-27T13:01:25.590Z</time>
      </trkpt>
      <trkpt lat="48.64084" lon="1.81573">
        <ele>150</ele>
        <time>2024-05-27T13:01:29.831Z</time>
      </trkpt>
      <trkpt lat="48.64082" lon="1.81581">
        <ele>150</ele>
        <time>2024-05-27T13:01:34.047Z</time>
      </trkpt>
      <trkpt lat="48.64079" lon="1.81589">
        <ele>150</ele>
        <time>2024-05-27T13:01:38.112Z</time>
      </trkpt>
      <trkpt lat="48.64076" lon="1.81597">
        <ele>150</ele>
        <time>2024-05-27T13:01:42.528Z</time>
      </trkpt>
      <trkpt lat="48.64072" lon="1.81605">
        <ele>149</ele>
        <time>2024-05-27T13:01:46.708Z</time>
      </trkpt>
      <trkpt lat="48.64069" lon="1.81612">
        <ele>149</ele>
        <time>2024-05-27T13:01:51.112Z</time>
      </trkpt>
      <trkpt lat="48.64066" lon="1.8162">
        <ele>149</ele>
        <time>2024-05-27T13:01:55.250Z</time>
      </trkpt>
      <trkpt lat="48.64063" lon="1.81627">
        <ele>149</ele>
        <time>2024-05-27T13:01:59.568Z</time>
      </trkpt>
      <trkpt lat="48.6406" lon="1.81634">
        <ele>149</ele>
        <time>2024-05-27T13:02:03.867Z</time>
      </trkpt>
      <trkpt lat="48.64057" lon="1.8164">
        <ele>149</ele>
        <time>2024-05-27T13:02:08.112Z</time>
      </trkpt>
      <trkpt lat="48.64052" lon="1.81648">
        <ele>149</ele>
        <time>2024-05-27T13:02:12.588Z</time>
      </trkpt>
      <trkpt lat="48.64048" lon="1.81655">
        <ele>149</ele>
        <time>2024-05-27T13:02:16.813Z</time>
      </trkpt>
      <trkpt lat="48.64045" lon="1.81663">
        <ele>149</ele>
        <time>2024-05-27T13:02:21.069Z</time>
      </trkpt>
      <trkpt lat="48.64043" lon="1.8167">
        <ele>149</ele>
        <time>2024-05-27T13:02:25.112Z</time>
      </trkpt>
      <trkpt lat="48.64039" lon="1.81679">
        <ele>150</ele>
        <time>2024-05-27T13:02:30.012Z</time>
      </trkpt>
      <trkpt lat="48.64034" lon="1.81688">
        <ele>150</ele>
        <time>2024-05-27T13:02:34.953Z</time>
      </trkpt>
      <trkpt lat="48.64031" lon="1.81695">
        <ele>150</ele>
        <time>2024-05-27T13:02:39.112Z</time>
      </trkpt>
      <trkpt lat="48.64028" lon="1.81703">
        <ele>150</ele>
        <time>2024-05-27T13:02:43.612Z</time>
      </trkpt>
      <trkpt lat="48.64023" lon="1.8171">
        <ele>150</ele>
        <time>2024-05-27T13:02:47.912Z</time>
      </trkpt>
      <trkpt lat="48.64019" lon="1.81717">
        <ele>150</ele>
        <time>2024-05-27T13:02:52.112Z</time>
      </trkpt>
      <trkpt lat="48.64015" lon="1.81724">
        <ele>150</ele>
        <time>2024-05-27T13:02:56.547Z</time>
      </trkpt>
      <trkpt lat="48.64012" lon="1.81732">
        <ele>150</ele>
        <time>2024-05-27T13:03:00.652Z</time>
      </trkpt>
      <trkpt lat="48.64007" lon="1.81739">
        <ele>150</ele>
        <time>2024-05-27T13:03:05.112Z</time>
      </trkpt>
      <trkpt lat="48.64003" lon="1.81744">
        <ele>150</ele>
        <time>2024-05-27T13:03:09.691Z</time>
      </trkpt>
      <trkpt lat="48.64001" lon="1.81753">
        <ele>150</ele>
        <time>2024-05-27T13:03:14.025Z</time>
      </trkpt>
      <trkpt lat="48.63996" lon="1.81761">
        <ele>150</ele>
        <time>2024-05-27T13:03:18.351Z</time>
      </trkpt>
      <trkpt lat="48.63992" lon="1.81767">
        <ele>150</ele>
        <time>2024-05-27T13:03:22.747Z</time>
      </trkpt>
      <trkpt lat="48.63989" lon="1.81774">
        <ele>150</ele>
        <time>2024-05-27T13:03:26.793Z</time>
      </trkpt>
      <trkpt lat="48.63992" lon="1.81778">
        <ele>150</ele>
        <time>2024-05-27T13:03:31.112Z</time>
      </trkpt>
      <trkpt lat="48.63992" lon="1.81776">
        <ele>150</ele>
        <time>2024-05-27T13:03:36.112Z</time>
      </trkpt>
      <trkpt lat="48.63991" lon="1.81776">
        <ele>150</ele>
        <time>2024-05-27T13:03:40.372Z</time>
      </trkpt>
      <trkpt lat="48.63988" lon="1.81772">
        <ele>150</ele>
        <time>2024-05-27T13:03:44.767Z</time>
      </trkpt>
      <trkpt lat="48.63981" lon="1.81788">
        <ele>150</ele>
        <time>2024-05-27T13:03:49.111Z</time>
      </trkpt>
      <trkpt lat="48.63976" lon="1.81793">
        <ele>149</ele>
        <time>2024-05-27T13:03:53.545Z</time>
      </trkpt>
      <trkpt lat="48.63973" lon="1.81799">
        <ele>149</ele>
        <time>2024-05-27T13:03:58.111Z</time>
      </trkpt>
      <trkpt lat="48.63968" lon="1.81806">
        <ele>149</ele>
        <time>2024-05-27T13:04:02.709Z</time>
      </trkpt>
      <trkpt lat="48.63963" lon="1.81811">
        <ele>149</ele>
        <time>2024-05-27T13:04:07.111Z</time>
      </trkpt>
      <trkpt lat="48.63959" lon="1.81816">
        <ele>149</ele>
        <time>2024-05-27T13:04:11.727Z</time>
      </trkpt>
      <trkpt lat="48.63957" lon="1.81817">
        <ele>150</ele>
        <time>2024-05-27T13:04:13.892Z</time>
      </trkpt>
      <trkpt lat="48.63962" lon="1.81829">
        <ele>150</ele>
        <time>2024-05-27T13:04:22.954Z</time>
      </trkpt>
      <trkpt lat="48.63968" lon="1.81834">
        <ele>150</ele>
        <time>2024-05-27T13:04:27.489Z</time>
      </trkpt>
      <trkpt lat="48.63972" lon="1.81838">
        <ele>150</ele>
        <time>2024-05-27T13:04:31.941Z</time>
      </trkpt>
      <trkpt lat="48.63977" lon="1.81842">
        <ele>150</ele>
        <time>2024-05-27T13:04:36.227Z</time>
      </trkpt>
      <trkpt lat="48.63982" lon="1.81847">
        <ele>150</ele>
        <time>2024-05-27T13:04:40.868Z</time>
      </trkpt>
      <trkpt lat="48.63985" lon="1.81856">
        <ele>150</ele>
        <time>2024-05-27T13:04:45.315Z</time>
      </trkpt>
      <trkpt lat="48.63989" lon="1.81861">
        <ele>151</ele>
        <time>2024-05-27T13:04:49.893Z</time>
      </trkpt>
      <trkpt lat="48.63991" lon="1.81863">
        <ele>151</ele>
        <time>2024-05-27T13:04:54.112Z</time>
      </trkpt>
      <trkpt lat="48.63994" lon="1.81865">
        <ele>151</ele>
        <time>2024-05-27T13:04:58.288Z</time>
      </trkpt>
      <trkpt lat="48.63998" lon="1.81871">
        <ele>151</ele>
        <time>2024-05-27T13:05:03.064Z</time>
      </trkpt>
      <trkpt lat="48.64" lon="1.8188">
        <ele>150</ele>
        <time>2024-05-27T13:05:07.112Z</time>
      </trkpt>
      <trkpt lat="48.64004" lon="1.81886">
        <ele>150</ele>
        <time>2024-05-27T13:05:12.067Z</time>
      </trkpt>
      <trkpt lat="48.64007" lon="1.81894">
        <ele>150</ele>
        <time>2024-05-27T13:05:16.113Z</time>
      </trkpt>
      <trkpt lat="48.64011" lon="1.819">
        <ele>150</ele>
        <time>2024-05-27T13:05:20.491Z</time>
      </trkpt>
      <trkpt lat="48.64015" lon="1.81908">
        <ele>148</ele>
        <time>2024-05-27T13:05:24.928Z</time>
      </trkpt>
      <trkpt lat="48.6402" lon="1.81915">
        <ele>148</ele>
        <time>2024-05-27T13:05:29.380Z</time>
      </trkpt>
      <trkpt lat="48.64024" lon="1.81921">
        <ele>148</ele>
        <time>2024-05-27T13:05:33.755Z</time>
      </trkpt>
      <trkpt lat="48.64028" lon="1.81927">
        <ele>148</ele>
        <time>2024-05-27T13:05:38.048Z</time>
      </trkpt>
      <trkpt lat="48.64032" lon="1.81932">
        <ele>148</ele>
        <time>2024-05-27T13:05:42.476Z</time>
      </trkpt>
      <trkpt lat="48.64037" lon="1.8194">
        <ele>148</ele>
        <time>2024-05-27T13:05:46.850Z</time>
      </trkpt>
      <trkpt lat="48.6404" lon="1.81945">
        <ele>148</ele>
        <time>2024-05-27T13:05:51.110Z</time>
      </trkpt>
      <trkpt lat="48.64043" lon="1.81955">
        <ele>148</ele>
        <time>2024-05-27T13:05:55.631Z</time>
      </trkpt>
      <trkpt lat="48.64048" lon="1.81961">
        <ele>148</ele>
        <time>2024-05-27T13:06:00.032Z</time>
      </trkpt>
      <trkpt lat="48.64052" lon="1.81967">
        <ele>148</ele>
        <time>2024-05-27T13:06:04.110Z</time>
      </trkpt>
      <trkpt lat="48.64056" lon="1.81974">
        <ele>148</ele>
        <time>2024-05-27T13:06:08.269Z</time>
      </trkpt>
      <trkpt lat="48.64059" lon="1.81983">
        <ele>148</ele>
        <time>2024-05-27T13:06:12.569Z</time>
      </trkpt>
      <trkpt lat="48.64063" lon="1.8199">
        <ele>149</ele>
        <time>2024-05-27T13:06:16.967Z</time>
      </trkpt>
      <trkpt lat="48.64066" lon="1.82">
        <ele>149</ele>
        <time>2024-05-27T13:06:21.830Z</time>
      </trkpt>
      <trkpt lat="48.64068" lon="1.82008">
        <ele>149</ele>
        <time>2024-05-27T13:06:26.110Z</time>
      </trkpt>
      <trkpt lat="48.64071" lon="1.82017">
        <ele>149</ele>
        <time>2024-05-27T13:06:30.628Z</time>
      </trkpt>
      <trkpt lat="48.64072" lon="1.82025">
        <ele>149</ele>
        <time>2024-05-27T13:06:34.801Z</time>
      </trkpt>
      <trkpt lat="48.64075" lon="1.82032">
        <ele>149</ele>
        <time>2024-05-27T13:06:39.111Z</time>
      </trkpt>
      <trkpt lat="48.6408" lon="1.82037">
        <ele>149</ele>
        <time>2024-05-27T13:06:43.653Z</time>
      </trkpt>
      <trkpt lat="48.6408" lon="1.82046">
        <ele>149</ele>
        <time>2024-05-27T13:06:47.906Z</time>
      </trkpt>
      <trkpt lat="48.64082" lon="1.82054">
        <ele>149</ele>
        <time>2024-05-27T13:06:52.292Z</time>
      </trkpt>
      <trkpt lat="48.64082" lon="1.82062">
        <ele>149</ele>
        <time>2024-05-27T13:06:56.627Z</time>
      </trkpt>
      <trkpt lat="48.64084" lon="1.82071">
        <ele>149</ele>
        <time>2024-05-27T13:07:00.987Z</time>
      </trkpt>
      <trkpt lat="48.64085" lon="1.8208">
        <ele>149</ele>
        <time>2024-05-27T13:07:05.373Z</time>
      </trkpt>
      <trkpt lat="48.64085" lon="1.82088">
        <ele>149</ele>
        <time>2024-05-27T13:07:09.613Z</time>
      </trkpt>
      <trkpt lat="48.64086" lon="1.82096">
        <ele>149</ele>
        <time>2024-05-27T13:07:13.973Z</time>
      </trkpt>
      <trkpt lat="48.64084" lon="1.82106">
        <ele>148</ele>
        <time>2024-05-27T13:07:18.734Z</time>
      </trkpt>
      <trkpt lat="48.64085" lon="1.82115">
        <ele>148</ele>
        <time>2024-05-27T13:07:22.996Z</time>
      </trkpt>
      <trkpt lat="48.64084" lon="1.82124">
        <ele>148</ele>
        <time>2024-05-27T13:07:27.110Z</time>
      </trkpt>
      <trkpt lat="48.64084" lon="1.82134">
        <ele>148</ele>
        <time>2024-05-27T13:07:31.766Z</time>
      </trkpt>
      <trkpt lat="48.64085" lon="1.82143">
        <ele>148</ele>
        <time>2024-05-27T13:07:35.794Z</time>
      </trkpt>
      <trkpt lat="48.64085" lon="1.82152">
        <ele>148</ele>
        <time>2024-05-27T13:07:39.872Z</time>
      </trkpt>
      <trkpt lat="48.64086" lon="1.82161">
        <ele>148</ele>
        <time>2024-05-27T13:07:44.112Z</time>
      </trkpt>
      <trkpt lat="48.64087" lon="1.82169">
        <ele>148</ele>
        <time>2024-05-27T13:07:48.310Z</time>
      </trkpt>
      <trkpt lat="48.64087" lon="1.82179">
        <ele>148</ele>
        <time>2024-05-27T13:07:52.928Z</time>
      </trkpt>
      <trkpt lat="48.64084" lon="1.82185">
        <ele>149</ele>
        <time>2024-05-27T13:07:57.111Z</time>
      </trkpt>
      <trkpt lat="48.64082" lon="1.82185">
        <ele>149</ele>
        <time>2024-05-27T13:08:01.993Z</time>
      </trkpt>
      <trkpt lat="48.64075" lon="1.82197">
        <ele>149</ele>
        <time>2024-05-27T13:08:06.352Z</time>
      </trkpt>
      <trkpt lat="48.64077" lon="1.82205">
        <ele>149</ele>
        <time>2024-05-27T13:08:10.627Z</time>
      </trkpt>
      <trkpt lat="48.64077" lon="1.82215">
        <ele>150</ele>
        <time>2024-05-27T13:08:14.955Z</time>
      </trkpt>
      <trkpt lat="48.64078" lon="1.82224">
        <ele>150</ele>
        <time>2024-05-27T13:08:19.330Z</time>
      </trkpt>
      <trkpt lat="48.64078" lon="1.82232">
        <ele>150</ele>
        <time>2024-05-27T13:08:23.691Z</time>
      </trkpt>
      <trkpt lat="48.64079" lon="1.8224">
        <ele>150</ele>
        <time>2024-05-27T13:08:27.992Z</time>
      </trkpt>
      <trkpt lat="48.6408" lon="1.82248">
        <ele>150</ele>
        <time>2024-05-27T13:08:32.308Z</time>
      </trkpt>
      <trkpt lat="48.6408" lon="1.82256">
        <ele>150</ele>
        <time>2024-05-27T13:08:36.609Z</time>
      </trkpt>
      <trkpt lat="48.64081" lon="1.82264">
        <ele>150</ele>
        <time>2024-05-27T13:08:40.775Z</time>
      </trkpt>
      <trkpt lat="48.64082" lon="1.82273">
        <ele>150</ele>
        <time>2024-05-27T13:08:45.111Z</time>
      </trkpt>
      <trkpt lat="48.64083" lon="1.82281">
        <ele>150</ele>
        <time>2024-05-27T13:08:49.186Z</time>
      </trkpt>
      <trkpt lat="48.64089" lon="1.82286">
        <ele>150</ele>
        <time>2024-05-27T13:08:54.111Z</time>
      </trkpt>
      <trkpt lat="48.64087" lon="1.82282">
        <ele>150</ele>
        <time>2024-05-27T13:08:59.111Z</time>
      </trkpt>
      <trkpt lat="48.64092" lon="1.82291">
        <ele>150</ele>
        <time>2024-05-27T13:09:03.110Z</time>
      </trkpt>
      <trkpt lat="48.64089" lon="1.82304">
        <ele>150</ele>
        <time>2024-05-27T13:09:08.111Z</time>
      </trkpt>
      <trkpt lat="48.64088" lon="1.82315">
        <ele>150</ele>
        <time>2024-05-27T13:09:12.923Z</time>
      </trkpt>
      <trkpt lat="48.6409" lon="1.82325">
        <ele>150</ele>
        <time>2024-05-27T13:09:17.111Z</time>
      </trkpt>
      <trkpt lat="48.6409" lon="1.82335">
        <ele>150</ele>
        <time>2024-05-27T13:09:21.302Z</time>
      </trkpt>
      <trkpt lat="48.64091" lon="1.82343">
        <ele>150</ele>
        <time>2024-05-27T13:09:25.500Z</time>
      </trkpt>
      <trkpt lat="48.64092" lon="1.82351">
        <ele>151</ele>
        <time>2024-05-27T13:09:29.579Z</time>
      </trkpt>
      <trkpt lat="48.64092" lon="1.82361">
        <ele>151</ele>
        <time>2024-05-27T13:09:33.805Z</time>
      </trkpt>
      <trkpt lat="48.64092" lon="1.8237">
        <ele>151</ele>
        <time>2024-05-27T13:09:38.060Z</time>
      </trkpt>
      <trkpt lat="48.64091" lon="1.8238">
        <ele>152</ele>
        <time>2024-05-27T13:09:42.676Z</time>
      </trkpt>
      <trkpt lat="48.64091" lon="1.82388">
        <ele>152</ele>
        <time>2024-05-27T13:09:46.680Z</time>
      </trkpt>
      <trkpt lat="48.64092" lon="1.82396">
        <ele>152</ele>
        <time>2024-05-27T13:09:50.723Z</time>
      </trkpt>
      <trkpt lat="48.64093" lon="1.82407">
        <ele>152</ele>
        <time>2024-05-27T13:09:55.111Z</time>
      </trkpt>
      <trkpt lat="48.64094" lon="1.82418">
        <ele>152</ele>
        <time>2024-05-27T13:09:59.658Z</time>
      </trkpt>
      <trkpt lat="48.64095" lon="1.8243">
        <ele>152</ele>
        <time>2024-05-27T13:10:04.064Z</time>
      </trkpt>
      <trkpt lat="48.64096" lon="1.8244">
        <ele>151</ele>
        <time>2024-05-27T13:10:08.684Z</time>
      </trkpt>
      <trkpt lat="48.64098" lon="1.8245">
        <ele>152</ele>
        <time>2024-05-27T13:10:13.121Z</time>
      </trkpt>
      <trkpt lat="48.64102" lon="1.82458">
        <ele>152</ele>
        <time>2024-05-27T13:10:17.200Z</time>
      </trkpt>
      <trkpt lat="48.64104" lon="1.82468">
        <ele>151</ele>
        <time>2024-05-27T13:10:22.004Z</time>
      </trkpt>
      <trkpt lat="48.64106" lon="1.82478">
        <ele>151</ele>
        <time>2024-05-27T13:10:26.159Z</time>
      </trkpt>
      <trkpt lat="48.64109" lon="1.82487">
        <ele>151</ele>
        <time>2024-05-27T13:10:30.817Z</time>
      </trkpt>
      <trkpt lat="48.64113" lon="1.82498">
        <ele>151</ele>
        <time>2024-05-27T13:10:35.817Z</time>
      </trkpt>
      <trkpt lat="48.64117" lon="1.82508">
        <ele>151</ele>
        <time>2024-05-27T13:10:40.801Z</time>
      </trkpt>
      <trkpt lat="48.6412" lon="1.82515">
        <ele>151</ele>
        <time>2024-05-27T13:10:44.819Z</time>
      </trkpt>
      <trkpt lat="48.64124" lon="1.82523">
        <ele>151</ele>
        <time>2024-05-27T13:10:49.119Z</time>
      </trkpt>
      <trkpt lat="48.64125" lon="1.82533">
        <ele>151</ele>
        <time>2024-05-27T13:10:53.956Z</time>
      </trkpt>
      <trkpt lat="48.64128" lon="1.82541">
        <ele>151</ele>
        <time>2024-05-27T13:10:58.111Z</time>
      </trkpt>
      <trkpt lat="48.64132" lon="1.8255">
        <ele>152</ele>
        <time>2024-05-27T13:11:03.121Z</time>
      </trkpt>
      <trkpt lat="48.64134" lon="1.82558">
        <ele>152</ele>
        <time>2024-05-27T13:11:07.583Z</time>
      </trkpt>
      <trkpt lat="48.64132" lon="1.8256">
        <ele>152</ele>
        <time>2024-05-27T13:11:12.111Z</time>
      </trkpt>
      <trkpt lat="48.64132" lon="1.82559">
        <ele>152</ele>
        <time>2024-05-27T13:11:16.999Z</time>
      </trkpt>
      <trkpt lat="48.64134" lon="1.82561">
        <ele>152</ele>
        <time>2024-05-27T13:11:21.111Z</time>
      </trkpt>
      <trkpt lat="48.64129" lon="1.82576">
        <ele>153</ele>
        <time>2024-05-27T13:11:25.567Z</time>
      </trkpt>
      <trkpt lat="48.64125" lon="1.8258">
        <ele>152</ele>
        <time>2024-05-27T13:11:30.079Z</time>
      </trkpt>
      <trkpt lat="48.64134" lon="1.82585">
        <ele>153</ele>
        <time>2024-05-27T13:11:34.961Z</time>
      </trkpt>
      <trkpt lat="48.64144" lon="1.82579">
        <ele>153</ele>
        <time>2024-05-27T13:11:39.881Z</time>
      </trkpt>
      <trkpt lat="48.6415" lon="1.82573">
        <ele>153</ele>
        <time>2024-05-27T13:11:43.899Z</time>
      </trkpt>
      <trkpt lat="48.64156" lon="1.82577">
        <ele>152</ele>
        <time>2024-05-27T13:11:48.020Z</time>
      </trkpt>
      <trkpt lat="48.64164" lon="1.82578">
        <ele>152</ele>
        <time>2024-05-27T13:11:52.423Z</time>
      </trkpt>
      <trkpt lat="48.6417" lon="1.82578">
        <ele>152</ele>
        <time>2024-05-27T13:11:56.501Z</time>
      </trkpt>
      <trkpt lat="48.64177" lon="1.82577">
        <ele>152</ele>
        <time>2024-05-27T13:12:01.084Z</time>
      </trkpt>
      <trkpt lat="48.64184" lon="1.82577">
        <ele>151</ele>
        <time>2024-05-27T13:12:05.640Z</time>
      </trkpt>
      <trkpt lat="48.6419" lon="1.82578">
        <ele>151</ele>
        <time>2024-05-27T13:12:09.674Z</time>
      </trkpt>
      <trkpt lat="48.64195" lon="1.82578">
        <ele>151</ele>
        <time>2024-05-27T13:12:13.753Z</time>
      </trkpt>
      <trkpt lat="48.64201" lon="1.8258">
        <ele>151</ele>
        <time>2024-05-27T13:12:17.831Z</time>
      </trkpt>
      <trkpt lat="48.64207" lon="1.82578">
        <ele>151</ele>
        <time>2024-05-27T13:12:22.111Z</time>
      </trkpt>
      <trkpt lat="48.64214" lon="1.82578">
        <ele>150</ele>
        <time>2024-05-27T13:12:26.575Z</time>
      </trkpt>
      <trkpt lat="48.6422" lon="1.82577">
        <ele>150</ele>
        <time>2024-05-27T13:12:30.594Z</time>
      </trkpt>
      <trkpt lat="48.64226" lon="1.82578">
        <ele>150</ele>
        <time>2024-05-27T13:12:34.809Z</time>
      </trkpt>
      <trkpt lat="48.64233" lon="1.8258">
        <ele>150</ele>
        <time>2024-05-27T13:12:39.110Z</time>
      </trkpt>
      <trkpt lat="48.6424" lon="1.8258">
        <ele>151</ele>
        <time>2024-05-27T13:12:43.649Z</time>
      </trkpt>
      <trkpt lat="48.64245" lon="1.82581">
        <ele>151</ele>
        <time>2024-05-27T13:12:48.111Z</time>
      </trkpt>
      <trkpt lat="48.64252" lon="1.82584">
        <ele>151</ele>
        <time>2024-05-27T13:12:52.693Z</time>
      </trkpt>
      <trkpt lat="48.64259" lon="1.82585">
        <ele>151</ele>
        <time>2024-05-27T13:12:57.111Z</time>
      </trkpt>
      <trkpt lat="48.64269" lon="1.82584">
        <ele>151</ele>
        <time>2024-05-27T13:13:01.976Z</time>
      </trkpt>
      <trkpt lat="48.64273" lon="1.82584">
        <ele>151</ele>
        <time>2024-05-27T13:13:06.111Z</time>
      </trkpt>
      <trkpt lat="48.64282" lon="1.82585">
        <ele>151</ele>
        <time>2024-05-27T13:13:11.111Z</time>
      </trkpt>
      <trkpt lat="48.64289" lon="1.82587">
        <ele>151</ele>
        <time>2024-05-27T13:13:15.657Z</time>
      </trkpt>
      <trkpt lat="48.64292" lon="1.82594">
        <ele>152</ele>
        <time>2024-05-27T13:13:19.709Z</time>
      </trkpt>
      <trkpt lat="48.64293" lon="1.82606">
        <ele>152</ele>
        <time>2024-05-27T13:13:24.111Z</time>
      </trkpt>
      <trkpt lat="48.64291" lon="1.82617">
        <ele>151</ele>
        <time>2024-05-27T13:13:28.692Z</time>
      </trkpt>
      <trkpt lat="48.64289" lon="1.82627">
        <ele>152</ele>
        <time>2024-05-27T13:13:33.121Z</time>
      </trkpt>
      <trkpt lat="48.64287" lon="1.82636">
        <ele>152</ele>
        <time>2024-05-27T13:13:38.111Z</time>
      </trkpt>
      <trkpt lat="48.64288" lon="1.82649">
        <ele>152</ele>
        <time>2024-05-27T13:13:43.111Z</time>
      </trkpt>
      <trkpt lat="48.64287" lon="1.82658">
        <ele>154</ele>
        <time>2024-05-27T13:13:47.615Z</time>
      </trkpt>
      <trkpt lat="48.64286" lon="1.82669">
        <ele>154</ele>
        <time>2024-05-27T13:13:51.951Z</time>
      </trkpt>
      <trkpt lat="48.64286" lon="1.8268">
        <ele>154</ele>
        <time>2024-05-27T13:13:56.071Z</time>
      </trkpt>
      <trkpt lat="48.64285" lon="1.8269">
        <ele>155</ele>
        <time>2024-05-27T13:14:00.259Z</time>
      </trkpt>
      <trkpt lat="48.64283" lon="1.827">
        <ele>155</ele>
        <time>2024-05-27T13:14:04.893Z</time>
      </trkpt>
      <trkpt lat="48.6428" lon="1.8271">
        <ele>156</ele>
        <time>2024-05-27T13:14:09.111Z</time>
      </trkpt>
      <trkpt lat="48.64277" lon="1.82721">
        <ele>156</ele>
        <time>2024-05-27T13:14:13.690Z</time>
      </trkpt>
      <trkpt lat="48.64274" lon="1.82731">
        <ele>156</ele>
        <time>2024-05-27T13:14:17.870Z</time>
      </trkpt>
      <trkpt lat="48.64272" lon="1.82742">
        <ele>158</ele>
        <time>2024-05-27T13:14:22.033Z</time>
      </trkpt>
      <trkpt lat="48.64268" lon="1.82751">
        <ele>158</ele>
        <time>2024-05-27T13:14:26.111Z</time>
      </trkpt>
      <trkpt lat="48.64268" lon="1.82765">
        <ele>158</ele>
        <time>2024-05-27T13:14:30.873Z</time>
      </trkpt>
      <trkpt lat="48.64265" lon="1.82775">
        <ele>158</ele>
        <time>2024-05-27T13:14:35.110Z</time>
      </trkpt>
      <trkpt lat="48.64265" lon="1.82787">
        <ele>158</ele>
        <time>2024-05-27T13:14:39.715Z</time>
      </trkpt>
      <trkpt lat="48.64267" lon="1.82798">
        <ele>157</ele>
        <time>2024-05-27T13:14:43.990Z</time>
      </trkpt>
      <trkpt lat="48.64267" lon="1.82809">
        <ele>157</ele>
        <time>2024-05-27T13:14:48.596Z</time>
      </trkpt>
      <trkpt lat="48.64267" lon="1.82821">
        <ele>157</ele>
        <time>2024-05-27T13:14:53.110Z</time>
      </trkpt>
      <trkpt lat="48.64267" lon="1.82833">
        <ele>157</ele>
        <time>2024-05-27T13:14:57.255Z</time>
      </trkpt>
      <trkpt lat="48.64268" lon="1.82843">
        <ele>157</ele>
        <time>2024-05-27T13:15:01.454Z</time>
      </trkpt>
      <trkpt lat="48.6427" lon="1.82855">
        <ele>157</ele>
        <time>2024-05-27T13:15:06.112Z</time>
      </trkpt>
      <trkpt lat="48.64269" lon="1.82867">
        <ele>157</ele>
        <time>2024-05-27T13:15:10.749Z</time>
      </trkpt>
      <trkpt lat="48.6427" lon="1.82877">
        <ele>156</ele>
        <time>2024-05-27T13:15:14.853Z</time>
      </trkpt>
      <trkpt lat="48.64268" lon="1.82889">
        <ele>156</ele>
        <time>2024-05-27T13:15:19.075Z</time>
      </trkpt>
      <trkpt lat="48.64269" lon="1.829">
        <ele>156</ele>
        <time>2024-05-27T13:15:23.290Z</time>
      </trkpt>
      <trkpt lat="48.64269" lon="1.8291">
        <ele>155</ele>
        <time>2024-05-27T13:15:27.436Z</time>
      </trkpt>
      <trkpt lat="48.6427" lon="1.8292">
        <ele>155</ele>
        <time>2024-05-27T13:15:31.573Z</time>
      </trkpt>
      <trkpt lat="48.6427" lon="1.82931">
        <ele>155</ele>
        <time>2024-05-27T13:15:35.794Z</time>
      </trkpt>
      <trkpt lat="48.64269" lon="1.82942">
        <ele>156</ele>
        <time>2024-05-27T13:15:40.109Z</time>
      </trkpt>
      <trkpt lat="48.64269" lon="1.82955">
        <ele>156</ele>
        <time>2024-05-27T13:15:45.012Z</time>
      </trkpt>
      <trkpt lat="48.64269" lon="1.82966">
        <ele>156</ele>
        <time>2024-05-27T13:15:49.192Z</time>
      </trkpt>
      <trkpt lat="48.64272" lon="1.82978">
        <ele>156</ele>
        <time>2024-05-27T13:15:53.995Z</time>
      </trkpt>
      <trkpt lat="48.64279" lon="1.82987">
        <ele>157</ele>
        <time>2024-05-27T13:15:58.414Z</time>
      </trkpt>
      <trkpt lat="48.64284" lon="1.82995">
        <ele>157</ele>
        <time>2024-05-27T13:16:02.970Z</time>
      </trkpt>
      <trkpt lat="48.64289" lon="1.83003">
        <ele>157</ele>
        <time>2024-05-27T13:16:07.117Z</time>
      </trkpt>
      <trkpt lat="48.64291" lon="1.83014">
        <ele>158</ele>
        <time>2024-05-27T13:16:11.289Z</time>
      </trkpt>
      <trkpt lat="48.64293" lon="1.83027">
        <ele>158</ele>
        <time>2024-05-27T13:16:15.853Z</time>
      </trkpt>
      <trkpt lat="48.64298" lon="1.83032">
        <ele>158</ele>
        <time>2024-05-27T13:16:20.119Z</time>
      </trkpt>
      <trkpt lat="48.64305" lon="1.83038">
        <ele>158</ele>
        <time>2024-05-27T13:16:24.854Z</time>
      </trkpt>
      <trkpt lat="48.6431" lon="1.83046">
        <ele>159</ele>
        <time>2024-05-27T13:16:29.069Z</time>
      </trkpt>
      <trkpt lat="48.64314" lon="1.83054">
        <ele>159</ele>
        <time>2024-05-27T13:16:33.110Z</time>
      </trkpt>
      <trkpt lat="48.6432" lon="1.83062">
        <ele>160</ele>
        <time>2024-05-27T13:16:38.036Z</time>
      </trkpt>
      <trkpt lat="48.64326" lon="1.8307">
        <ele>161</ele>
        <time>2024-05-27T13:16:42.110Z</time>
      </trkpt>
      <trkpt lat="48.64331" lon="1.83077">
        <ele>161</ele>
        <time>2024-05-27T13:16:46.669Z</time>
      </trkpt>
      <trkpt lat="48.64335" lon="1.83086">
        <ele>161</ele>
        <time>2024-05-27T13:16:50.956Z</time>
      </trkpt>
      <trkpt lat="48.64341" lon="1.83092">
        <ele>161</ele>
        <time>2024-05-27T13:16:55.110Z</time>
      </trkpt>
      <trkpt lat="48.64345" lon="1.831">
        <ele>161</ele>
        <time>2024-05-27T13:16:59.656Z</time>
      </trkpt>
      <trkpt lat="48.64351" lon="1.83107">
        <ele>161</ele>
        <time>2024-05-27T13:17:03.932Z</time>
      </trkpt>
      <trkpt lat="48.64356" lon="1.83114">
        <ele>161</ele>
        <time>2024-05-27T13:17:08.672Z</time>
      </trkpt>
      <trkpt lat="48.6436" lon="1.83122">
        <ele>161</ele>
        <time>2024-05-27T13:17:12.716Z</time>
      </trkpt>
      <trkpt lat="48.64366" lon="1.83126">
        <ele>161</ele>
        <time>2024-05-27T13:17:16.973Z</time>
      </trkpt>
      <trkpt lat="48.64371" lon="1.83133">
        <ele>161</ele>
        <time>2024-05-27T13:17:21.109Z</time>
      </trkpt>
      <trkpt lat="48.64371" lon="1.83163">
        <ele>161</ele>
        <time>2024-05-27T13:17:51.415Z</time>
      </trkpt>
      <trkpt lat="48.64376" lon="1.83173">
        <ele>160</ele>
        <time>2024-05-27T13:17:55.714Z</time>
      </trkpt>
      <trkpt lat="48.64384" lon="1.83184">
        <ele>160</ele>
        <time>2024-05-27T13:18:00.109Z</time>
      </trkpt>
      <trkpt lat="48.64388" lon="1.83196">
        <ele>160</ele>
        <time>2024-05-27T13:18:04.731Z</time>
      </trkpt>
      <trkpt lat="48.64394" lon="1.83209">
        <ele>160</ele>
        <time>2024-05-27T13:18:08.750Z</time>
      </trkpt>
      <trkpt lat="48.644" lon="1.83221">
        <ele>160</ele>
        <time>2024-05-27T13:18:12.973Z</time>
      </trkpt>
      <trkpt lat="48.644" lon="1.83241">
        <ele>161</ele>
        <time>2024-05-27T13:18:17.109Z</time>
      </trkpt>
      <trkpt lat="48.64411" lon="1.83249">
        <ele>161</ele>
        <time>2024-05-27T13:18:21.394Z</time>
      </trkpt>
      <trkpt lat="48.64412" lon="1.83249">
        <ele>161</ele>
        <time>2024-05-27T13:18:26.111Z</time>
      </trkpt>
      <trkpt lat="48.64413" lon="1.83265">
        <ele>161</ele>
        <time>2024-05-27T13:18:48.110Z</time>
      </trkpt>
      <trkpt lat="48.64406" lon="1.83264">
        <ele>161</ele>
        <time>2024-05-27T13:18:53.110Z</time>
      </trkpt>
      <trkpt lat="48.64404" lon="1.8327">
        <ele>161</ele>
        <time>2024-05-27T13:18:58.110Z</time>
      </trkpt>
      <trkpt lat="48.6441" lon="1.83281">
        <ele>161</ele>
        <time>2024-05-27T13:19:07.110Z</time>
      </trkpt>
      <trkpt lat="48.64406" lon="1.83285">
        <ele>161</ele>
        <time>2024-05-27T13:19:11.753Z</time>
      </trkpt>
      <trkpt lat="48.64409" lon="1.83287">
        <ele>161</ele>
        <time>2024-05-27T13:19:16.110Z</time>
      </trkpt>
      <trkpt lat="48.64413" lon="1.83292">
        <ele>161</ele>
        <time>2024-05-27T13:19:20.350Z</time>
      </trkpt>
      <trkpt lat="48.64416" lon="1.83294">
        <ele>161</ele>
        <time>2024-05-27T13:19:24.791Z</time>
      </trkpt>
      <trkpt lat="48.6442" lon="1.83298">
        <ele>161</ele>
        <time>2024-05-27T13:19:29.110Z</time>
      </trkpt>
    </trkseg>
  </trk>
</gpx>